<?xml version="1.0" encoding="UTF-8" standalone="no" ?>
<gpx xmlns="http://www.topografix.com/GPX/1/1" xmlns:xsi="http://www.w3.org/2001/XMLSchema-instance" xsi:schemaLocation="http://www.topografix.com/GPX/1/1 http://www.topografix.com/GPX/1/1/gpx.xsd" version="1.1" creator="VisuGPX - https://www.visugpx.com">
  <metadata>
    <name>BILIEU st Sulpice Montferrat Paladru 37 km +897 m</name>
  </metadata>
  <trk>
    <name><![CDATA[BILIEU 37KM D97523 PM]]></name>
    <trkseg>
      <trkpt lat="45.44844" lon="5.55099">
        <ele>587.98</ele>
        <time>2017-10-05T07:57:28Z</time>
      </trkpt>
      <trkpt lat="45.44844" lon="5.55099">
        <ele>590.87</ele>
        <time>2017-10-05T07:57:30Z</time>
      </trkpt>
      <trkpt lat="45.44844" lon="5.55099">
        <ele>590.39</ele>
        <time>2017-10-05T07:57:31Z</time>
      </trkpt>
      <trkpt lat="45.44842" lon="5.55099">
        <ele>594.23</ele>
        <time>2017-10-05T07:57:40Z</time>
      </trkpt>
      <trkpt lat="45.44842" lon="5.55099">
        <ele>592.79</ele>
        <time>2017-10-05T07:57:43Z</time>
      </trkpt>
      <trkpt lat="45.44842" lon="5.55098">
        <ele>596.15</ele>
        <time>2017-10-05T07:57:44Z</time>
      </trkpt>
      <trkpt lat="45.44842" lon="5.55098">
        <ele>595.19</ele>
        <time>2017-10-05T07:57:45Z</time>
      </trkpt>
      <trkpt lat="45.44844" lon="5.551">
        <ele>598.08</ele>
        <time>2017-10-05T07:58:01Z</time>
      </trkpt>
      <trkpt lat="45.44846" lon="5.55101">
        <ele>598.08</ele>
        <time>2017-10-05T07:58:02Z</time>
      </trkpt>
      <trkpt lat="45.44854" lon="5.5511">
        <ele>599.52</ele>
        <time>2017-10-05T07:58:13Z</time>
      </trkpt>
      <trkpt lat="45.44855" lon="5.55111">
        <ele>599.52</ele>
        <time>2017-10-05T07:58:14Z</time>
      </trkpt>
      <trkpt lat="45.44879" lon="5.55088">
        <ele>599.52</ele>
        <time>2017-10-05T07:58:25Z</time>
      </trkpt>
      <trkpt lat="45.44883" lon="5.55081">
        <ele>599.52</ele>
        <time>2017-10-05T07:58:27Z</time>
      </trkpt>
      <trkpt lat="45.44901" lon="5.55082">
        <ele>600</ele>
        <time>2017-10-05T07:58:35Z</time>
      </trkpt>
      <trkpt lat="45.44908" lon="5.55104">
        <ele>601.44</ele>
        <time>2017-10-05T07:58:42Z</time>
      </trkpt>
      <trkpt lat="45.44897" lon="5.55145">
        <ele>601.92</ele>
        <time>2017-10-05T07:58:56Z</time>
      </trkpt>
      <trkpt lat="45.44882" lon="5.55196">
        <ele>603.36</ele>
        <time>2017-10-05T07:59:11Z</time>
      </trkpt>
      <trkpt lat="45.44893" lon="5.55232">
        <ele>604.81</ele>
        <time>2017-10-05T07:59:22Z</time>
      </trkpt>
      <trkpt lat="45.44912" lon="5.55264">
        <ele>605.29</ele>
        <time>2017-10-05T07:59:35Z</time>
      </trkpt>
      <trkpt lat="45.44921" lon="5.55304">
        <ele>608.65</ele>
        <time>2017-10-05T07:59:49Z</time>
      </trkpt>
      <trkpt lat="45.44923" lon="5.55341">
        <ele>610.57</ele>
        <time>2017-10-05T08:00:02Z</time>
      </trkpt>
      <trkpt lat="45.44928" lon="5.5538">
        <ele>611.06</ele>
        <time>2017-10-05T08:00:14Z</time>
      </trkpt>
      <trkpt lat="45.44923" lon="5.55403">
        <ele>608.65</ele>
        <time>2017-10-05T08:00:18Z</time>
      </trkpt>
      <trkpt lat="45.44915" lon="5.55431">
        <ele>605.29</ele>
        <time>2017-10-05T08:00:22Z</time>
      </trkpt>
      <trkpt lat="45.44913" lon="5.55438">
        <ele>604.81</ele>
        <time>2017-10-05T08:00:23Z</time>
      </trkpt>
      <trkpt lat="45.44912" lon="5.55446">
        <ele>604.33</ele>
        <time>2017-10-05T08:00:24Z</time>
      </trkpt>
      <trkpt lat="45.44912" lon="5.55454">
        <ele>603.36</ele>
        <time>2017-10-05T08:00:25Z</time>
      </trkpt>
      <trkpt lat="45.44912" lon="5.55462">
        <ele>602.88</ele>
        <time>2017-10-05T08:00:26Z</time>
      </trkpt>
      <trkpt lat="45.44912" lon="5.55469">
        <ele>601.92</ele>
        <time>2017-10-05T08:00:27Z</time>
      </trkpt>
      <trkpt lat="45.44914" lon="5.55475">
        <ele>600.96</ele>
        <time>2017-10-05T08:00:28Z</time>
      </trkpt>
      <trkpt lat="45.44917" lon="5.55482">
        <ele>600.48</ele>
        <time>2017-10-05T08:00:29Z</time>
      </trkpt>
      <trkpt lat="45.4492" lon="5.55487">
        <ele>595.19</ele>
        <time>2017-10-05T08:00:30Z</time>
      </trkpt>
      <trkpt lat="45.44923" lon="5.55493">
        <ele>603.36</ele>
        <time>2017-10-05T08:00:31Z</time>
      </trkpt>
      <trkpt lat="45.44925" lon="5.55499">
        <ele>600</ele>
        <time>2017-10-05T08:00:32Z</time>
      </trkpt>
      <trkpt lat="45.44933" lon="5.5552">
        <ele>598.56</ele>
        <time>2017-10-05T08:00:35Z</time>
      </trkpt>
      <trkpt lat="45.44936" lon="5.55527">
        <ele>598.08</ele>
        <time>2017-10-05T08:00:36Z</time>
      </trkpt>
      <trkpt lat="45.44938" lon="5.55536">
        <ele>597.6</ele>
        <time>2017-10-05T08:00:37Z</time>
      </trkpt>
      <trkpt lat="45.4494" lon="5.55546">
        <ele>597.12</ele>
        <time>2017-10-05T08:00:38Z</time>
      </trkpt>
      <trkpt lat="45.4494" lon="5.55557">
        <ele>595.67</ele>
        <time>2017-10-05T08:00:39Z</time>
      </trkpt>
      <trkpt lat="45.44939" lon="5.55569">
        <ele>595.19</ele>
        <time>2017-10-05T08:00:40Z</time>
      </trkpt>
      <trkpt lat="45.44937" lon="5.55581">
        <ele>594.23</ele>
        <time>2017-10-05T08:00:41Z</time>
      </trkpt>
      <trkpt lat="45.44935" lon="5.55593">
        <ele>593.27</ele>
        <time>2017-10-05T08:00:42Z</time>
      </trkpt>
      <trkpt lat="45.44931" lon="5.55629">
        <ele>589.91</ele>
        <time>2017-10-05T08:00:45Z</time>
      </trkpt>
      <trkpt lat="45.44928" lon="5.55639">
        <ele>589.43</ele>
        <time>2017-10-05T08:00:47Z</time>
      </trkpt>
      <trkpt lat="45.44925" lon="5.5565">
        <ele>588.46</ele>
        <time>2017-10-05T08:00:53Z</time>
      </trkpt>
      <trkpt lat="45.44926" lon="5.55651">
        <ele>588.46</ele>
        <time>2017-10-05T08:00:55Z</time>
      </trkpt>
      <trkpt lat="45.44929" lon="5.55649">
        <ele>588.95</ele>
        <time>2017-10-05T08:00:58Z</time>
      </trkpt>
      <trkpt lat="45.44935" lon="5.55645">
        <ele>590.39</ele>
        <time>2017-10-05T08:01:05Z</time>
      </trkpt>
      <trkpt lat="45.4495" lon="5.55687">
        <ele>590.87</ele>
        <time>2017-10-05T08:01:19Z</time>
      </trkpt>
      <trkpt lat="45.44982" lon="5.55739">
        <ele>590.39</ele>
        <time>2017-10-05T08:01:32Z</time>
      </trkpt>
      <trkpt lat="45.45009" lon="5.55788">
        <ele>590.87</ele>
        <time>2017-10-05T08:01:44Z</time>
      </trkpt>
      <trkpt lat="45.45016" lon="5.55802">
        <ele>590.39</ele>
        <time>2017-10-05T08:01:47Z</time>
      </trkpt>
      <trkpt lat="45.45019" lon="5.55806">
        <ele>589.91</ele>
        <time>2017-10-05T08:01:48Z</time>
      </trkpt>
      <trkpt lat="45.45024" lon="5.55809">
        <ele>589.43</ele>
        <time>2017-10-05T08:01:49Z</time>
      </trkpt>
      <trkpt lat="45.45028" lon="5.55813">
        <ele>588.46</ele>
        <time>2017-10-05T08:01:50Z</time>
      </trkpt>
      <trkpt lat="45.45033" lon="5.55816">
        <ele>587.02</ele>
        <time>2017-10-05T08:01:51Z</time>
      </trkpt>
      <trkpt lat="45.45038" lon="5.55818">
        <ele>586.54</ele>
        <time>2017-10-05T08:01:52Z</time>
      </trkpt>
      <trkpt lat="45.45048" lon="5.55824">
        <ele>586.06</ele>
        <time>2017-10-05T08:01:54Z</time>
      </trkpt>
      <trkpt lat="45.45053" lon="5.55827">
        <ele>586.06</ele>
        <time>2017-10-05T08:01:55Z</time>
      </trkpt>
      <trkpt lat="45.45058" lon="5.55832">
        <ele>585.58</ele>
        <time>2017-10-05T08:01:56Z</time>
      </trkpt>
      <trkpt lat="45.45063" lon="5.55837">
        <ele>586.06</ele>
        <time>2017-10-05T08:01:57Z</time>
      </trkpt>
      <trkpt lat="45.45067" lon="5.55842">
        <ele>586.06</ele>
        <time>2017-10-05T08:01:58Z</time>
      </trkpt>
      <trkpt lat="45.4507" lon="5.55847">
        <ele>586.54</ele>
        <time>2017-10-05T08:01:59Z</time>
      </trkpt>
      <trkpt lat="45.45089" lon="5.55863">
        <ele>589.91</ele>
        <time>2017-10-05T08:02:08Z</time>
      </trkpt>
      <trkpt lat="45.45099" lon="5.55867">
        <ele>592.31</ele>
        <time>2017-10-05T08:02:17Z</time>
      </trkpt>
      <trkpt lat="45.45101" lon="5.55869">
        <ele>592.79</ele>
        <time>2017-10-05T08:02:18Z</time>
      </trkpt>
      <trkpt lat="45.45102" lon="5.55871">
        <ele>592.79</ele>
        <time>2017-10-05T08:02:19Z</time>
      </trkpt>
      <trkpt lat="45.45104" lon="5.55872">
        <ele>593.27</ele>
        <time>2017-10-05T08:02:20Z</time>
      </trkpt>
      <trkpt lat="45.45106" lon="5.55874">
        <ele>593.75</ele>
        <time>2017-10-05T08:02:21Z</time>
      </trkpt>
      <trkpt lat="45.45107" lon="5.55876">
        <ele>593.75</ele>
        <time>2017-10-05T08:02:22Z</time>
      </trkpt>
      <trkpt lat="45.45113" lon="5.55882">
        <ele>595.67</ele>
        <time>2017-10-05T08:02:30Z</time>
      </trkpt>
      <trkpt lat="45.45122" lon="5.55893">
        <ele>597.12</ele>
        <time>2017-10-05T08:02:38Z</time>
      </trkpt>
      <trkpt lat="45.45132" lon="5.55911">
        <ele>598.08</ele>
        <time>2017-10-05T08:02:50Z</time>
      </trkpt>
      <trkpt lat="45.45133" lon="5.55914">
        <ele>598.08</ele>
        <time>2017-10-05T08:02:55Z</time>
      </trkpt>
      <trkpt lat="45.45134" lon="5.55919">
        <ele>598.56</ele>
        <time>2017-10-05T08:02:58Z</time>
      </trkpt>
      <trkpt lat="45.45144" lon="5.55927">
        <ele>600.48</ele>
        <time>2017-10-05T08:03:08Z</time>
      </trkpt>
      <trkpt lat="45.45156" lon="5.55931">
        <ele>601.92</ele>
        <time>2017-10-05T08:03:18Z</time>
      </trkpt>
      <trkpt lat="45.45167" lon="5.5593">
        <ele>604.33</ele>
        <time>2017-10-05T08:03:29Z</time>
      </trkpt>
      <trkpt lat="45.4518" lon="5.55929">
        <ele>605.77</ele>
        <time>2017-10-05T08:03:39Z</time>
      </trkpt>
      <trkpt lat="45.45187" lon="5.55928">
        <ele>607.69</ele>
        <time>2017-10-05T08:03:48Z</time>
      </trkpt>
      <trkpt lat="45.45197" lon="5.55926">
        <ele>609.13</ele>
        <time>2017-10-05T08:03:58Z</time>
      </trkpt>
      <trkpt lat="45.45206" lon="5.55923">
        <ele>610.57</ele>
        <time>2017-10-05T08:04:05Z</time>
      </trkpt>
      <trkpt lat="45.45222" lon="5.5593">
        <ele>611.54</ele>
        <time>2017-10-05T08:04:15Z</time>
      </trkpt>
      <trkpt lat="45.45238" lon="5.55941">
        <ele>613.46</ele>
        <time>2017-10-05T08:04:27Z</time>
      </trkpt>
      <trkpt lat="45.45247" lon="5.55953">
        <ele>616.82</ele>
        <time>2017-10-05T08:04:38Z</time>
      </trkpt>
      <trkpt lat="45.45252" lon="5.55961">
        <ele>618.75</ele>
        <time>2017-10-05T08:04:44Z</time>
      </trkpt>
      <trkpt lat="45.45253" lon="5.55965">
        <ele>619.23</ele>
        <time>2017-10-05T08:04:46Z</time>
      </trkpt>
      <trkpt lat="45.4526" lon="5.55992">
        <ele>621.63</ele>
        <time>2017-10-05T08:05:00Z</time>
      </trkpt>
      <trkpt lat="45.45261" lon="5.55997">
        <ele>622.11</ele>
        <time>2017-10-05T08:05:04Z</time>
      </trkpt>
      <trkpt lat="45.4526" lon="5.56012">
        <ele>623.07</ele>
        <time>2017-10-05T08:05:15Z</time>
      </trkpt>
      <trkpt lat="45.4526" lon="5.56021">
        <ele>623.55</ele>
        <time>2017-10-05T08:05:19Z</time>
      </trkpt>
      <trkpt lat="45.45261" lon="5.56029">
        <ele>623.55</ele>
        <time>2017-10-05T08:05:23Z</time>
      </trkpt>
      <trkpt lat="45.4526" lon="5.56046">
        <ele>624.99</ele>
        <time>2017-10-05T08:05:33Z</time>
      </trkpt>
      <trkpt lat="45.45258" lon="5.56061">
        <ele>625.47</ele>
        <time>2017-10-05T08:05:40Z</time>
      </trkpt>
      <trkpt lat="45.45259" lon="5.56082">
        <ele>625.96</ele>
        <time>2017-10-05T08:05:51Z</time>
      </trkpt>
      <trkpt lat="45.45261" lon="5.56098">
        <ele>626.44</ele>
        <time>2017-10-05T08:06:02Z</time>
      </trkpt>
      <trkpt lat="45.45264" lon="5.56109">
        <ele>626.92</ele>
        <time>2017-10-05T08:06:08Z</time>
      </trkpt>
      <trkpt lat="45.45275" lon="5.56129">
        <ele>627.4</ele>
        <time>2017-10-05T08:06:20Z</time>
      </trkpt>
      <trkpt lat="45.45282" lon="5.56137">
        <ele>628.36</ele>
        <time>2017-10-05T08:06:26Z</time>
      </trkpt>
      <trkpt lat="45.45285" lon="5.56143">
        <ele>628.36</ele>
        <time>2017-10-05T08:06:29Z</time>
      </trkpt>
      <trkpt lat="45.45296" lon="5.56161">
        <ele>630.28</ele>
        <time>2017-10-05T08:06:39Z</time>
      </trkpt>
      <trkpt lat="45.45299" lon="5.56172">
        <ele>631.72</ele>
        <time>2017-10-05T08:06:44Z</time>
      </trkpt>
      <trkpt lat="45.4531" lon="5.56185">
        <ele>634.61</ele>
        <time>2017-10-05T08:06:55Z</time>
      </trkpt>
      <trkpt lat="45.45311" lon="5.56186">
        <ele>634.61</ele>
        <time>2017-10-05T08:06:57Z</time>
      </trkpt>
      <trkpt lat="45.45323" lon="5.56193">
        <ele>636.53</ele>
        <time>2017-10-05T08:07:07Z</time>
      </trkpt>
      <trkpt lat="45.45334" lon="5.56197">
        <ele>637.49</ele>
        <time>2017-10-05T08:07:16Z</time>
      </trkpt>
      <trkpt lat="45.45343" lon="5.56195">
        <ele>638.45</ele>
        <time>2017-10-05T08:07:23Z</time>
      </trkpt>
      <trkpt lat="45.45359" lon="5.56192">
        <ele>640.38</ele>
        <time>2017-10-05T08:07:37Z</time>
      </trkpt>
      <trkpt lat="45.45372" lon="5.5619">
        <ele>642.78</ele>
        <time>2017-10-05T08:07:47Z</time>
      </trkpt>
      <trkpt lat="45.45385" lon="5.56191">
        <ele>645.18</ele>
        <time>2017-10-05T08:07:58Z</time>
      </trkpt>
      <trkpt lat="45.45391" lon="5.56195">
        <ele>645.66</ele>
        <time>2017-10-05T08:08:01Z</time>
      </trkpt>
      <trkpt lat="45.45411" lon="5.56216">
        <ele>648.07</ele>
        <time>2017-10-05T08:08:15Z</time>
      </trkpt>
      <trkpt lat="45.45412" lon="5.56218">
        <ele>648.07</ele>
        <time>2017-10-05T08:08:16Z</time>
      </trkpt>
      <trkpt lat="45.45423" lon="5.56232">
        <ele>649.99</ele>
        <time>2017-10-05T08:08:29Z</time>
      </trkpt>
      <trkpt lat="45.45426" lon="5.56235">
        <ele>650.47</ele>
        <time>2017-10-05T08:08:34Z</time>
      </trkpt>
      <trkpt lat="45.45433" lon="5.5624">
        <ele>650.95</ele>
        <time>2017-10-05T08:08:41Z</time>
      </trkpt>
      <trkpt lat="45.45438" lon="5.56243">
        <ele>651.43</ele>
        <time>2017-10-05T08:08:44Z</time>
      </trkpt>
      <trkpt lat="45.45457" lon="5.56255">
        <ele>653.83</ele>
        <time>2017-10-05T08:08:56Z</time>
      </trkpt>
      <trkpt lat="45.45472" lon="5.56261">
        <ele>655.76</ele>
        <time>2017-10-05T08:09:07Z</time>
      </trkpt>
      <trkpt lat="45.45477" lon="5.56263">
        <ele>655.76</ele>
        <time>2017-10-05T08:09:10Z</time>
      </trkpt>
      <trkpt lat="45.4548" lon="5.56265">
        <ele>655.76</ele>
        <time>2017-10-05T08:09:12Z</time>
      </trkpt>
      <trkpt lat="45.45487" lon="5.56267">
        <ele>655.76</ele>
        <time>2017-10-05T08:09:16Z</time>
      </trkpt>
      <trkpt lat="45.45498" lon="5.56283">
        <ele>656.24</ele>
        <time>2017-10-05T08:09:21Z</time>
      </trkpt>
      <trkpt lat="45.45528" lon="5.56321">
        <ele>659.12</ele>
        <time>2017-10-05T08:09:36Z</time>
      </trkpt>
      <trkpt lat="45.45532" lon="5.56324">
        <ele>659.6</ele>
        <time>2017-10-05T08:09:38Z</time>
      </trkpt>
      <trkpt lat="45.45537" lon="5.56331">
        <ele>660.08</ele>
        <time>2017-10-05T08:09:44Z</time>
      </trkpt>
      <trkpt lat="45.45557" lon="5.56345">
        <ele>661.04</ele>
        <time>2017-10-05T08:09:59Z</time>
      </trkpt>
      <trkpt lat="45.45564" lon="5.56349">
        <ele>661.04</ele>
        <time>2017-10-05T08:10:03Z</time>
      </trkpt>
      <trkpt lat="45.45567" lon="5.5635">
        <ele>661.52</ele>
        <time>2017-10-05T08:10:05Z</time>
      </trkpt>
      <trkpt lat="45.45575" lon="5.56355">
        <ele>661.52</ele>
        <time>2017-10-05T08:10:10Z</time>
      </trkpt>
      <trkpt lat="45.4558" lon="5.56359">
        <ele>661.04</ele>
        <time>2017-10-05T08:10:14Z</time>
      </trkpt>
      <trkpt lat="45.45606" lon="5.56372">
        <ele>657.68</ele>
        <time>2017-10-05T08:10:23Z</time>
      </trkpt>
      <trkpt lat="45.45615" lon="5.56375">
        <ele>656.72</ele>
        <time>2017-10-05T08:10:25Z</time>
      </trkpt>
      <trkpt lat="45.45634" lon="5.56382">
        <ele>655.76</ele>
        <time>2017-10-05T08:10:29Z</time>
      </trkpt>
      <trkpt lat="45.45679" lon="5.56396">
        <ele>653.83</ele>
        <time>2017-10-05T08:10:36Z</time>
      </trkpt>
      <trkpt lat="45.45686" lon="5.56398">
        <ele>653.35</ele>
        <time>2017-10-05T08:10:37Z</time>
      </trkpt>
      <trkpt lat="45.45691" lon="5.56402">
        <ele>653.35</ele>
        <time>2017-10-05T08:10:38Z</time>
      </trkpt>
      <trkpt lat="45.45719" lon="5.56414">
        <ele>651.91</ele>
        <time>2017-10-05T08:10:43Z</time>
      </trkpt>
      <trkpt lat="45.45724" lon="5.56415">
        <ele>651.91</ele>
        <time>2017-10-05T08:10:44Z</time>
      </trkpt>
      <trkpt lat="45.45735" lon="5.56416">
        <ele>650.95</ele>
        <time>2017-10-05T08:10:46Z</time>
      </trkpt>
      <trkpt lat="45.45759" lon="5.56414">
        <ele>648.55</ele>
        <time>2017-10-05T08:10:54Z</time>
      </trkpt>
      <trkpt lat="45.45774" lon="5.56409">
        <ele>649.03</ele>
        <time>2017-10-05T08:11:06Z</time>
      </trkpt>
      <trkpt lat="45.45776" lon="5.56406">
        <ele>648.55</ele>
        <time>2017-10-05T08:11:08Z</time>
      </trkpt>
      <trkpt lat="45.45777" lon="5.56405">
        <ele>649.03</ele>
        <time>2017-10-05T08:11:09Z</time>
      </trkpt>
      <trkpt lat="45.4578" lon="5.56397">
        <ele>649.03</ele>
        <time>2017-10-05T08:11:18Z</time>
      </trkpt>
      <trkpt lat="45.45781" lon="5.56395">
        <ele>649.03</ele>
        <time>2017-10-05T08:11:19Z</time>
      </trkpt>
      <trkpt lat="45.45782" lon="5.56394">
        <ele>649.51</ele>
        <time>2017-10-05T08:11:20Z</time>
      </trkpt>
      <trkpt lat="45.45783" lon="5.56389">
        <ele>649.51</ele>
        <time>2017-10-05T08:11:22Z</time>
      </trkpt>
      <trkpt lat="45.45783" lon="5.56386">
        <ele>649.51</ele>
        <time>2017-10-05T08:11:23Z</time>
      </trkpt>
      <trkpt lat="45.45784" lon="5.56384">
        <ele>649.99</ele>
        <time>2017-10-05T08:11:24Z</time>
      </trkpt>
      <trkpt lat="45.45784" lon="5.56382">
        <ele>649.99</ele>
        <time>2017-10-05T08:11:25Z</time>
      </trkpt>
      <trkpt lat="45.45785" lon="5.5638">
        <ele>650.47</ele>
        <time>2017-10-05T08:11:26Z</time>
      </trkpt>
      <trkpt lat="45.45787" lon="5.56377">
        <ele>650.47</ele>
        <time>2017-10-05T08:11:28Z</time>
      </trkpt>
      <trkpt lat="45.45808" lon="5.56369">
        <ele>651.91</ele>
        <time>2017-10-05T08:11:39Z</time>
      </trkpt>
      <trkpt lat="45.45838" lon="5.56363">
        <ele>654.31</ele>
        <time>2017-10-05T08:11:52Z</time>
      </trkpt>
      <trkpt lat="45.45869" lon="5.56362">
        <ele>656.24</ele>
        <time>2017-10-05T08:12:05Z</time>
      </trkpt>
      <trkpt lat="45.45902" lon="5.56352">
        <ele>656.24</ele>
        <time>2017-10-05T08:12:18Z</time>
      </trkpt>
      <trkpt lat="45.4592" lon="5.56342">
        <ele>656.24</ele>
        <time>2017-10-05T08:12:24Z</time>
      </trkpt>
      <trkpt lat="45.45923" lon="5.56343">
        <ele>656.24</ele>
        <time>2017-10-05T08:12:25Z</time>
      </trkpt>
      <trkpt lat="45.45926" lon="5.56346">
        <ele>656.24</ele>
        <time>2017-10-05T08:12:26Z</time>
      </trkpt>
      <trkpt lat="45.45927" lon="5.56351">
        <ele>656.24</ele>
        <time>2017-10-05T08:12:27Z</time>
      </trkpt>
      <trkpt lat="45.45928" lon="5.56355">
        <ele>656.72</ele>
        <time>2017-10-05T08:12:28Z</time>
      </trkpt>
      <trkpt lat="45.45929" lon="5.56358">
        <ele>656.72</ele>
        <time>2017-10-05T08:12:29Z</time>
      </trkpt>
      <trkpt lat="45.45954" lon="5.56421">
        <ele>658.64</ele>
        <time>2017-10-05T08:12:46Z</time>
      </trkpt>
      <trkpt lat="45.45974" lon="5.56473">
        <ele>660.56</ele>
        <time>2017-10-05T08:13:00Z</time>
      </trkpt>
      <trkpt lat="45.45985" lon="5.56514">
        <ele>661.52</ele>
        <time>2017-10-05T08:13:15Z</time>
      </trkpt>
      <trkpt lat="45.45984" lon="5.56514">
        <ele>662.01</ele>
        <time>2017-10-05T08:13:46Z</time>
      </trkpt>
      <trkpt lat="45.45984" lon="5.56516">
        <ele>662.01</ele>
        <time>2017-10-05T08:13:47Z</time>
      </trkpt>
      <trkpt lat="45.45985" lon="5.56518">
        <ele>662.01</ele>
        <time>2017-10-05T08:13:48Z</time>
      </trkpt>
      <trkpt lat="45.45987" lon="5.56519">
        <ele>662.01</ele>
        <time>2017-10-05T08:13:49Z</time>
      </trkpt>
      <trkpt lat="45.45989" lon="5.5652">
        <ele>662.01</ele>
        <time>2017-10-05T08:13:50Z</time>
      </trkpt>
      <trkpt lat="45.45991" lon="5.5652">
        <ele>662.01</ele>
        <time>2017-10-05T08:13:51Z</time>
      </trkpt>
      <trkpt lat="45.46021" lon="5.56521">
        <ele>662.49</ele>
        <time>2017-10-05T08:14:03Z</time>
      </trkpt>
      <trkpt lat="45.4604" lon="5.56528">
        <ele>660.56</ele>
        <time>2017-10-05T08:14:12Z</time>
      </trkpt>
      <trkpt lat="45.46042" lon="5.5653">
        <ele>660.56</ele>
        <time>2017-10-05T08:14:13Z</time>
      </trkpt>
      <trkpt lat="45.46044" lon="5.56532">
        <ele>660.08</ele>
        <time>2017-10-05T08:14:14Z</time>
      </trkpt>
      <trkpt lat="45.46047" lon="5.56533">
        <ele>659.6</ele>
        <time>2017-10-05T08:14:15Z</time>
      </trkpt>
      <trkpt lat="45.4605" lon="5.56535">
        <ele>659.6</ele>
        <time>2017-10-05T08:14:16Z</time>
      </trkpt>
      <trkpt lat="45.46053" lon="5.56537">
        <ele>659.12</ele>
        <time>2017-10-05T08:14:17Z</time>
      </trkpt>
      <trkpt lat="45.46056" lon="5.56539">
        <ele>658.64</ele>
        <time>2017-10-05T08:14:18Z</time>
      </trkpt>
      <trkpt lat="45.46058" lon="5.56541">
        <ele>658.64</ele>
        <time>2017-10-05T08:14:19Z</time>
      </trkpt>
      <trkpt lat="45.46062" lon="5.56543">
        <ele>658.64</ele>
        <time>2017-10-05T08:14:20Z</time>
      </trkpt>
      <trkpt lat="45.46064" lon="5.56545">
        <ele>658.16</ele>
        <time>2017-10-05T08:14:21Z</time>
      </trkpt>
      <trkpt lat="45.46067" lon="5.56546">
        <ele>657.68</ele>
        <time>2017-10-05T08:14:22Z</time>
      </trkpt>
      <trkpt lat="45.46069" lon="5.56548">
        <ele>657.68</ele>
        <time>2017-10-05T08:14:23Z</time>
      </trkpt>
      <trkpt lat="45.46072" lon="5.5655">
        <ele>657.2</ele>
        <time>2017-10-05T08:14:24Z</time>
      </trkpt>
      <trkpt lat="45.46075" lon="5.56553">
        <ele>656.72</ele>
        <time>2017-10-05T08:14:25Z</time>
      </trkpt>
      <trkpt lat="45.46102" lon="5.56579">
        <ele>654.31</ele>
        <time>2017-10-05T08:14:32Z</time>
      </trkpt>
      <trkpt lat="45.46116" lon="5.56592">
        <ele>652.39</ele>
        <time>2017-10-05T08:14:35Z</time>
      </trkpt>
      <trkpt lat="45.46121" lon="5.56596">
        <ele>651.43</ele>
        <time>2017-10-05T08:14:36Z</time>
      </trkpt>
      <trkpt lat="45.46127" lon="5.56601">
        <ele>650.47</ele>
        <time>2017-10-05T08:14:37Z</time>
      </trkpt>
      <trkpt lat="45.46154" lon="5.56618">
        <ele>647.1</ele>
        <time>2017-10-05T08:14:41Z</time>
      </trkpt>
      <trkpt lat="45.46172" lon="5.56628">
        <ele>645.18</ele>
        <time>2017-10-05T08:14:44Z</time>
      </trkpt>
      <trkpt lat="45.46185" lon="5.56631">
        <ele>643.74</ele>
        <time>2017-10-05T08:14:46Z</time>
      </trkpt>
      <trkpt lat="45.46199" lon="5.56639">
        <ele>641.82</ele>
        <time>2017-10-05T08:14:48Z</time>
      </trkpt>
      <trkpt lat="45.46205" lon="5.56644">
        <ele>641.34</ele>
        <time>2017-10-05T08:14:49Z</time>
      </trkpt>
      <trkpt lat="45.46212" lon="5.56649">
        <ele>640.38</ele>
        <time>2017-10-05T08:14:50Z</time>
      </trkpt>
      <trkpt lat="45.46236" lon="5.56662">
        <ele>638.93</ele>
        <time>2017-10-05T08:14:53Z</time>
      </trkpt>
      <trkpt lat="45.4627" lon="5.56686">
        <ele>637.01</ele>
        <time>2017-10-05T08:14:58Z</time>
      </trkpt>
      <trkpt lat="45.46276" lon="5.56693">
        <ele>637.01</ele>
        <time>2017-10-05T08:14:59Z</time>
      </trkpt>
      <trkpt lat="45.46294" lon="5.56714">
        <ele>637.01</ele>
        <time>2017-10-05T08:15:02Z</time>
      </trkpt>
      <trkpt lat="45.46346" lon="5.56757">
        <ele>637.01</ele>
        <time>2017-10-05T08:15:11Z</time>
      </trkpt>
      <trkpt lat="45.46349" lon="5.56762">
        <ele>637.01</ele>
        <time>2017-10-05T08:15:12Z</time>
      </trkpt>
      <trkpt lat="45.46352" lon="5.56767">
        <ele>637.01</ele>
        <time>2017-10-05T08:15:13Z</time>
      </trkpt>
      <trkpt lat="45.46354" lon="5.56772">
        <ele>637.01</ele>
        <time>2017-10-05T08:15:14Z</time>
      </trkpt>
      <trkpt lat="45.46357" lon="5.56777">
        <ele>636.05</ele>
        <time>2017-10-05T08:15:15Z</time>
      </trkpt>
      <trkpt lat="45.46364" lon="5.56788">
        <ele>635.09</ele>
        <time>2017-10-05T08:15:17Z</time>
      </trkpt>
      <trkpt lat="45.46367" lon="5.56793">
        <ele>634.61</ele>
        <time>2017-10-05T08:15:18Z</time>
      </trkpt>
      <trkpt lat="45.46371" lon="5.56797">
        <ele>634.13</ele>
        <time>2017-10-05T08:15:19Z</time>
      </trkpt>
      <trkpt lat="45.46376" lon="5.568">
        <ele>633.17</ele>
        <time>2017-10-05T08:15:20Z</time>
      </trkpt>
      <trkpt lat="45.46381" lon="5.56802">
        <ele>632.68</ele>
        <time>2017-10-05T08:15:21Z</time>
      </trkpt>
      <trkpt lat="45.46386" lon="5.56804">
        <ele>631.72</ele>
        <time>2017-10-05T08:15:22Z</time>
      </trkpt>
      <trkpt lat="45.4639" lon="5.56805">
        <ele>631.24</ele>
        <time>2017-10-05T08:15:23Z</time>
      </trkpt>
      <trkpt lat="45.46395" lon="5.56807">
        <ele>630.76</ele>
        <time>2017-10-05T08:15:24Z</time>
      </trkpt>
      <trkpt lat="45.464" lon="5.56809">
        <ele>630.28</ele>
        <time>2017-10-05T08:15:25Z</time>
      </trkpt>
      <trkpt lat="45.46405" lon="5.56808">
        <ele>629.32</ele>
        <time>2017-10-05T08:15:26Z</time>
      </trkpt>
      <trkpt lat="45.4641" lon="5.56807">
        <ele>628.84</ele>
        <time>2017-10-05T08:15:27Z</time>
      </trkpt>
      <trkpt lat="45.46426" lon="5.56802">
        <ele>626.92</ele>
        <time>2017-10-05T08:15:30Z</time>
      </trkpt>
      <trkpt lat="45.46431" lon="5.568">
        <ele>625.96</ele>
        <time>2017-10-05T08:15:31Z</time>
      </trkpt>
      <trkpt lat="45.46441" lon="5.56796">
        <ele>624.99</ele>
        <time>2017-10-05T08:15:33Z</time>
      </trkpt>
      <trkpt lat="45.46446" lon="5.56794">
        <ele>623.55</ele>
        <time>2017-10-05T08:15:34Z</time>
      </trkpt>
      <trkpt lat="45.46451" lon="5.5679">
        <ele>623.07</ele>
        <time>2017-10-05T08:15:35Z</time>
      </trkpt>
      <trkpt lat="45.46456" lon="5.56785">
        <ele>622.11</ele>
        <time>2017-10-05T08:15:36Z</time>
      </trkpt>
      <trkpt lat="45.46461" lon="5.56779">
        <ele>621.63</ele>
        <time>2017-10-05T08:15:37Z</time>
      </trkpt>
      <trkpt lat="45.46467" lon="5.56773">
        <ele>620.67</ele>
        <time>2017-10-05T08:15:38Z</time>
      </trkpt>
      <trkpt lat="45.46478" lon="5.56763">
        <ele>618.26</ele>
        <time>2017-10-05T08:15:40Z</time>
      </trkpt>
      <trkpt lat="45.46506" lon="5.56747">
        <ele>614.9</ele>
        <time>2017-10-05T08:15:45Z</time>
      </trkpt>
      <trkpt lat="45.46512" lon="5.56744">
        <ele>614.42</ele>
        <time>2017-10-05T08:15:46Z</time>
      </trkpt>
      <trkpt lat="45.46526" lon="5.56742">
        <ele>612.98</ele>
        <time>2017-10-05T08:15:48Z</time>
      </trkpt>
      <trkpt lat="45.46532" lon="5.56742">
        <ele>612.5</ele>
        <time>2017-10-05T08:15:49Z</time>
      </trkpt>
      <trkpt lat="45.46538" lon="5.56744">
        <ele>611.54</ele>
        <time>2017-10-05T08:15:50Z</time>
      </trkpt>
      <trkpt lat="45.46543" lon="5.56747">
        <ele>611.06</ele>
        <time>2017-10-05T08:15:51Z</time>
      </trkpt>
      <trkpt lat="45.46548" lon="5.56752">
        <ele>610.57</ele>
        <time>2017-10-05T08:15:52Z</time>
      </trkpt>
      <trkpt lat="45.46553" lon="5.56757">
        <ele>609.61</ele>
        <time>2017-10-05T08:15:53Z</time>
      </trkpt>
      <trkpt lat="45.46578" lon="5.56786">
        <ele>606.25</ele>
        <time>2017-10-05T08:15:58Z</time>
      </trkpt>
      <trkpt lat="45.46584" lon="5.56791">
        <ele>605.77</ele>
        <time>2017-10-05T08:15:59Z</time>
      </trkpt>
      <trkpt lat="45.4659" lon="5.56795">
        <ele>605.29</ele>
        <time>2017-10-05T08:16:00Z</time>
      </trkpt>
      <trkpt lat="45.46598" lon="5.56798">
        <ele>604.33</ele>
        <time>2017-10-05T08:16:01Z</time>
      </trkpt>
      <trkpt lat="45.46606" lon="5.56801">
        <ele>603.36</ele>
        <time>2017-10-05T08:16:02Z</time>
      </trkpt>
      <trkpt lat="45.46614" lon="5.56805">
        <ele>601.92</ele>
        <time>2017-10-05T08:16:03Z</time>
      </trkpt>
      <trkpt lat="45.46621" lon="5.56807">
        <ele>601.92</ele>
        <time>2017-10-05T08:16:04Z</time>
      </trkpt>
      <trkpt lat="45.4663" lon="5.56811">
        <ele>600.48</ele>
        <time>2017-10-05T08:16:06Z</time>
      </trkpt>
      <trkpt lat="45.46655" lon="5.5682">
        <ele>599.04</ele>
        <time>2017-10-05T08:16:13Z</time>
      </trkpt>
      <trkpt lat="45.46659" lon="5.56822">
        <ele>599.04</ele>
        <time>2017-10-05T08:16:14Z</time>
      </trkpt>
      <trkpt lat="45.46675" lon="5.56837">
        <ele>598.56</ele>
        <time>2017-10-05T08:16:18Z</time>
      </trkpt>
      <trkpt lat="45.46678" lon="5.56844">
        <ele>598.08</ele>
        <time>2017-10-05T08:16:19Z</time>
      </trkpt>
      <trkpt lat="45.46704" lon="5.56897">
        <ele>594.23</ele>
        <time>2017-10-05T08:16:25Z</time>
      </trkpt>
      <trkpt lat="45.4672" lon="5.56931">
        <ele>590.39</ele>
        <time>2017-10-05T08:16:28Z</time>
      </trkpt>
      <trkpt lat="45.46727" lon="5.56941">
        <ele>588.95</ele>
        <time>2017-10-05T08:16:29Z</time>
      </trkpt>
      <trkpt lat="45.46735" lon="5.5695">
        <ele>587.98</ele>
        <time>2017-10-05T08:16:30Z</time>
      </trkpt>
      <trkpt lat="45.46742" lon="5.56957">
        <ele>587.02</ele>
        <time>2017-10-05T08:16:31Z</time>
      </trkpt>
      <trkpt lat="45.46749" lon="5.56963">
        <ele>586.54</ele>
        <time>2017-10-05T08:16:32Z</time>
      </trkpt>
      <trkpt lat="45.46755" lon="5.56966">
        <ele>585.58</ele>
        <time>2017-10-05T08:16:33Z</time>
      </trkpt>
      <trkpt lat="45.4676" lon="5.56969">
        <ele>585.58</ele>
        <time>2017-10-05T08:16:34Z</time>
      </trkpt>
      <trkpt lat="45.46767" lon="5.56973">
        <ele>585.1</ele>
        <time>2017-10-05T08:16:36Z</time>
      </trkpt>
      <trkpt lat="45.46771" lon="5.56972">
        <ele>585.1</ele>
        <time>2017-10-05T08:16:37Z</time>
      </trkpt>
      <trkpt lat="45.46776" lon="5.56969">
        <ele>584.62</ele>
        <time>2017-10-05T08:16:38Z</time>
      </trkpt>
      <trkpt lat="45.46781" lon="5.56964">
        <ele>583.66</ele>
        <time>2017-10-05T08:16:39Z</time>
      </trkpt>
      <trkpt lat="45.46787" lon="5.56958">
        <ele>583.18</ele>
        <time>2017-10-05T08:16:40Z</time>
      </trkpt>
      <trkpt lat="45.46793" lon="5.56952">
        <ele>582.22</ele>
        <time>2017-10-05T08:16:41Z</time>
      </trkpt>
      <trkpt lat="45.46815" lon="5.56936">
        <ele>579.33</ele>
        <time>2017-10-05T08:16:44Z</time>
      </trkpt>
      <trkpt lat="45.46823" lon="5.56932">
        <ele>578.85</ele>
        <time>2017-10-05T08:16:45Z</time>
      </trkpt>
      <trkpt lat="45.46831" lon="5.5693">
        <ele>578.37</ele>
        <time>2017-10-05T08:16:46Z</time>
      </trkpt>
      <trkpt lat="45.4684" lon="5.56931">
        <ele>577.89</ele>
        <time>2017-10-05T08:16:47Z</time>
      </trkpt>
      <trkpt lat="45.46848" lon="5.56935">
        <ele>577.41</ele>
        <time>2017-10-05T08:16:48Z</time>
      </trkpt>
      <trkpt lat="45.46856" lon="5.56937">
        <ele>575.97</ele>
        <time>2017-10-05T08:16:49Z</time>
      </trkpt>
      <trkpt lat="45.46877" lon="5.56941">
        <ele>571.64</ele>
        <time>2017-10-05T08:16:52Z</time>
      </trkpt>
      <trkpt lat="45.46899" lon="5.56944">
        <ele>568.28</ele>
        <time>2017-10-05T08:16:56Z</time>
      </trkpt>
      <trkpt lat="45.46905" lon="5.56943">
        <ele>567.32</ele>
        <time>2017-10-05T08:16:57Z</time>
      </trkpt>
      <trkpt lat="45.46923" lon="5.56941">
        <ele>564.91</ele>
        <time>2017-10-05T08:17:00Z</time>
      </trkpt>
      <trkpt lat="45.46928" lon="5.56941">
        <ele>563.95</ele>
        <time>2017-10-05T08:17:01Z</time>
      </trkpt>
      <trkpt lat="45.46932" lon="5.56941">
        <ele>563.47</ele>
        <time>2017-10-05T08:17:02Z</time>
      </trkpt>
      <trkpt lat="45.46935" lon="5.56941">
        <ele>562.51</ele>
        <time>2017-10-05T08:17:03Z</time>
      </trkpt>
      <trkpt lat="45.46939" lon="5.5694">
        <ele>562.03</ele>
        <time>2017-10-05T08:17:04Z</time>
      </trkpt>
      <trkpt lat="45.46943" lon="5.56939">
        <ele>561.07</ele>
        <time>2017-10-05T08:17:05Z</time>
      </trkpt>
      <trkpt lat="45.46947" lon="5.56939">
        <ele>560.11</ele>
        <time>2017-10-05T08:17:06Z</time>
      </trkpt>
      <trkpt lat="45.46951" lon="5.56938">
        <ele>559.14</ele>
        <time>2017-10-05T08:17:07Z</time>
      </trkpt>
      <trkpt lat="45.46956" lon="5.56937">
        <ele>558.66</ele>
        <time>2017-10-05T08:17:08Z</time>
      </trkpt>
      <trkpt lat="45.46961" lon="5.56938">
        <ele>557.22</ele>
        <time>2017-10-05T08:17:09Z</time>
      </trkpt>
      <trkpt lat="45.46967" lon="5.56939">
        <ele>556.74</ele>
        <time>2017-10-05T08:17:10Z</time>
      </trkpt>
      <trkpt lat="45.4698" lon="5.56939">
        <ele>554.82</ele>
        <time>2017-10-05T08:17:12Z</time>
      </trkpt>
      <trkpt lat="45.46987" lon="5.5694">
        <ele>553.86</ele>
        <time>2017-10-05T08:17:13Z</time>
      </trkpt>
      <trkpt lat="45.46993" lon="5.56943">
        <ele>553.38</ele>
        <time>2017-10-05T08:17:14Z</time>
      </trkpt>
      <trkpt lat="45.47" lon="5.56946">
        <ele>552.41</ele>
        <time>2017-10-05T08:17:15Z</time>
      </trkpt>
      <trkpt lat="45.47007" lon="5.56949">
        <ele>551.45</ele>
        <time>2017-10-05T08:17:16Z</time>
      </trkpt>
      <trkpt lat="45.47013" lon="5.56954">
        <ele>550.01</ele>
        <time>2017-10-05T08:17:17Z</time>
      </trkpt>
      <trkpt lat="45.47018" lon="5.56959">
        <ele>549.53</ele>
        <time>2017-10-05T08:17:18Z</time>
      </trkpt>
      <trkpt lat="45.47023" lon="5.56964">
        <ele>548.57</ele>
        <time>2017-10-05T08:17:19Z</time>
      </trkpt>
      <trkpt lat="45.47038" lon="5.56982">
        <ele>546.17</ele>
        <time>2017-10-05T08:17:22Z</time>
      </trkpt>
      <trkpt lat="45.47044" lon="5.56987">
        <ele>545.69</ele>
        <time>2017-10-05T08:17:23Z</time>
      </trkpt>
      <trkpt lat="45.4705" lon="5.56991">
        <ele>544.72</ele>
        <time>2017-10-05T08:17:24Z</time>
      </trkpt>
      <trkpt lat="45.47056" lon="5.56994">
        <ele>543.76</ele>
        <time>2017-10-05T08:17:25Z</time>
      </trkpt>
      <trkpt lat="45.47063" lon="5.56995">
        <ele>542.8</ele>
        <time>2017-10-05T08:17:26Z</time>
      </trkpt>
      <trkpt lat="45.4707" lon="5.56994">
        <ele>541.84</ele>
        <time>2017-10-05T08:17:27Z</time>
      </trkpt>
      <trkpt lat="45.47076" lon="5.56992">
        <ele>540.88</ele>
        <time>2017-10-05T08:17:28Z</time>
      </trkpt>
      <trkpt lat="45.47081" lon="5.5699">
        <ele>539.92</ele>
        <time>2017-10-05T08:17:29Z</time>
      </trkpt>
      <trkpt lat="45.47087" lon="5.56989">
        <ele>539.44</ele>
        <time>2017-10-05T08:17:30Z</time>
      </trkpt>
      <trkpt lat="45.47097" lon="5.56993">
        <ele>537.51</ele>
        <time>2017-10-05T08:17:32Z</time>
      </trkpt>
      <trkpt lat="45.47101" lon="5.56996">
        <ele>537.03</ele>
        <time>2017-10-05T08:17:33Z</time>
      </trkpt>
      <trkpt lat="45.47106" lon="5.57001">
        <ele>535.59</ele>
        <time>2017-10-05T08:17:34Z</time>
      </trkpt>
      <trkpt lat="45.47112" lon="5.57004">
        <ele>534.63</ele>
        <time>2017-10-05T08:17:35Z</time>
      </trkpt>
      <trkpt lat="45.47118" lon="5.57007">
        <ele>533.19</ele>
        <time>2017-10-05T08:17:36Z</time>
      </trkpt>
      <trkpt lat="45.47125" lon="5.5701">
        <ele>532.23</ele>
        <time>2017-10-05T08:17:37Z</time>
      </trkpt>
      <trkpt lat="45.47133" lon="5.57012">
        <ele>530.79</ele>
        <time>2017-10-05T08:17:38Z</time>
      </trkpt>
      <trkpt lat="45.47163" lon="5.57021">
        <ele>526.94</ele>
        <time>2017-10-05T08:17:42Z</time>
      </trkpt>
      <trkpt lat="45.4719" lon="5.57028">
        <ele>525.02</ele>
        <time>2017-10-05T08:17:46Z</time>
      </trkpt>
      <trkpt lat="45.47218" lon="5.57049">
        <ele>523.58</ele>
        <time>2017-10-05T08:17:51Z</time>
      </trkpt>
      <trkpt lat="45.47224" lon="5.57053">
        <ele>523.09</ele>
        <time>2017-10-05T08:17:52Z</time>
      </trkpt>
      <trkpt lat="45.47231" lon="5.57056">
        <ele>522.61</ele>
        <time>2017-10-05T08:17:53Z</time>
      </trkpt>
      <trkpt lat="45.47238" lon="5.57058">
        <ele>522.61</ele>
        <time>2017-10-05T08:17:54Z</time>
      </trkpt>
      <trkpt lat="45.47245" lon="5.57059">
        <ele>522.13</ele>
        <time>2017-10-05T08:17:55Z</time>
      </trkpt>
      <trkpt lat="45.47251" lon="5.5706">
        <ele>521.65</ele>
        <time>2017-10-05T08:17:56Z</time>
      </trkpt>
      <trkpt lat="45.47318" lon="5.57058">
        <ele>520.69</ele>
        <time>2017-10-05T08:18:07Z</time>
      </trkpt>
      <trkpt lat="45.47332" lon="5.57057">
        <ele>521.65</ele>
        <time>2017-10-05T08:18:10Z</time>
      </trkpt>
      <trkpt lat="45.47336" lon="5.57058">
        <ele>521.65</ele>
        <time>2017-10-05T08:18:11Z</time>
      </trkpt>
      <trkpt lat="45.47338" lon="5.5706">
        <ele>522.13</ele>
        <time>2017-10-05T08:18:12Z</time>
      </trkpt>
      <trkpt lat="45.47339" lon="5.57064">
        <ele>522.61</ele>
        <time>2017-10-05T08:18:13Z</time>
      </trkpt>
      <trkpt lat="45.47339" lon="5.57068">
        <ele>522.61</ele>
        <time>2017-10-05T08:18:14Z</time>
      </trkpt>
      <trkpt lat="45.47344" lon="5.57109">
        <ele>524.54</ele>
        <time>2017-10-05T08:18:26Z</time>
      </trkpt>
      <trkpt lat="45.47346" lon="5.57153">
        <ele>526.94</ele>
        <time>2017-10-05T08:18:40Z</time>
      </trkpt>
      <trkpt lat="45.47348" lon="5.57157">
        <ele>526.94</ele>
        <time>2017-10-05T08:18:42Z</time>
      </trkpt>
      <trkpt lat="45.4735" lon="5.5716">
        <ele>526.94</ele>
        <time>2017-10-05T08:18:43Z</time>
      </trkpt>
      <trkpt lat="45.47353" lon="5.57162">
        <ele>526.94</ele>
        <time>2017-10-05T08:18:44Z</time>
      </trkpt>
      <trkpt lat="45.47356" lon="5.57166">
        <ele>526.46</ele>
        <time>2017-10-05T08:18:45Z</time>
      </trkpt>
      <trkpt lat="45.47359" lon="5.5717">
        <ele>525.98</ele>
        <time>2017-10-05T08:18:46Z</time>
      </trkpt>
      <trkpt lat="45.47363" lon="5.57173">
        <ele>525.98</ele>
        <time>2017-10-05T08:18:47Z</time>
      </trkpt>
      <trkpt lat="45.47409" lon="5.57217">
        <ele>525.5</ele>
        <time>2017-10-05T08:19:02Z</time>
      </trkpt>
      <trkpt lat="45.47444" lon="5.57235">
        <ele>525.02</ele>
        <time>2017-10-05T08:19:12Z</time>
      </trkpt>
      <trkpt lat="45.47448" lon="5.57238">
        <ele>524.54</ele>
        <time>2017-10-05T08:19:13Z</time>
      </trkpt>
      <trkpt lat="45.47453" lon="5.5724">
        <ele>524.54</ele>
        <time>2017-10-05T08:19:14Z</time>
      </trkpt>
      <trkpt lat="45.47458" lon="5.57242">
        <ele>524.06</ele>
        <time>2017-10-05T08:19:15Z</time>
      </trkpt>
      <trkpt lat="45.47463" lon="5.57243">
        <ele>523.58</ele>
        <time>2017-10-05T08:19:16Z</time>
      </trkpt>
      <trkpt lat="45.47487" lon="5.57244">
        <ele>522.13</ele>
        <time>2017-10-05T08:19:20Z</time>
      </trkpt>
      <trkpt lat="45.47493" lon="5.57242">
        <ele>521.65</ele>
        <time>2017-10-05T08:19:21Z</time>
      </trkpt>
      <trkpt lat="45.47525" lon="5.5723">
        <ele>518.29</ele>
        <time>2017-10-05T08:19:26Z</time>
      </trkpt>
      <trkpt lat="45.47578" lon="5.57197">
        <ele>514.92</ele>
        <time>2017-10-05T08:19:34Z</time>
      </trkpt>
      <trkpt lat="45.47606" lon="5.57175">
        <ele>513</ele>
        <time>2017-10-05T08:19:38Z</time>
      </trkpt>
      <trkpt lat="45.47627" lon="5.57161">
        <ele>512.04</ele>
        <time>2017-10-05T08:19:41Z</time>
      </trkpt>
      <trkpt lat="45.47634" lon="5.57159">
        <ele>512.04</ele>
        <time>2017-10-05T08:19:42Z</time>
      </trkpt>
      <trkpt lat="45.47641" lon="5.57159">
        <ele>512.04</ele>
        <time>2017-10-05T08:19:43Z</time>
      </trkpt>
      <trkpt lat="45.47648" lon="5.57158">
        <ele>512.04</ele>
        <time>2017-10-05T08:19:44Z</time>
      </trkpt>
      <trkpt lat="45.47655" lon="5.57159">
        <ele>511.56</ele>
        <time>2017-10-05T08:19:45Z</time>
      </trkpt>
      <trkpt lat="45.47662" lon="5.5716">
        <ele>511.56</ele>
        <time>2017-10-05T08:19:46Z</time>
      </trkpt>
      <trkpt lat="45.47676" lon="5.57164">
        <ele>511.08</ele>
        <time>2017-10-05T08:19:48Z</time>
      </trkpt>
      <trkpt lat="45.47688" lon="5.57169">
        <ele>510.6</ele>
        <time>2017-10-05T08:19:50Z</time>
      </trkpt>
      <trkpt lat="45.47692" lon="5.57173">
        <ele>510.6</ele>
        <time>2017-10-05T08:19:51Z</time>
      </trkpt>
      <trkpt lat="45.47695" lon="5.57179">
        <ele>511.08</ele>
        <time>2017-10-05T08:19:52Z</time>
      </trkpt>
      <trkpt lat="45.47696" lon="5.57186">
        <ele>511.56</ele>
        <time>2017-10-05T08:19:53Z</time>
      </trkpt>
      <trkpt lat="45.47697" lon="5.57192">
        <ele>512.04</ele>
        <time>2017-10-05T08:19:54Z</time>
      </trkpt>
      <trkpt lat="45.47703" lon="5.57241">
        <ele>514.92</ele>
        <time>2017-10-05T08:20:05Z</time>
      </trkpt>
      <trkpt lat="45.47714" lon="5.57272">
        <ele>517.81</ele>
        <time>2017-10-05T08:20:15Z</time>
      </trkpt>
      <trkpt lat="45.47723" lon="5.57311">
        <ele>520.69</ele>
        <time>2017-10-05T08:20:28Z</time>
      </trkpt>
      <trkpt lat="45.47721" lon="5.57349">
        <ele>523.58</ele>
        <time>2017-10-05T08:20:40Z</time>
      </trkpt>
      <trkpt lat="45.47722" lon="5.57387">
        <ele>525.5</ele>
        <time>2017-10-05T08:20:51Z</time>
      </trkpt>
      <trkpt lat="45.47727" lon="5.57437">
        <ele>527.9</ele>
        <time>2017-10-05T08:21:06Z</time>
      </trkpt>
      <trkpt lat="45.47733" lon="5.57476">
        <ele>529.34</ele>
        <time>2017-10-05T08:21:21Z</time>
      </trkpt>
      <trkpt lat="45.47743" lon="5.57515">
        <ele>531.75</ele>
        <time>2017-10-05T08:21:37Z</time>
      </trkpt>
      <trkpt lat="45.47746" lon="5.57545">
        <ele>534.15</ele>
        <time>2017-10-05T08:21:52Z</time>
      </trkpt>
      <trkpt lat="45.47742" lon="5.57583">
        <ele>537.03</ele>
        <time>2017-10-05T08:22:08Z</time>
      </trkpt>
      <trkpt lat="45.47739" lon="5.57609">
        <ele>539.44</ele>
        <time>2017-10-05T08:22:21Z</time>
      </trkpt>
      <trkpt lat="45.47739" lon="5.57611">
        <ele>539.44</ele>
        <time>2017-10-05T08:22:22Z</time>
      </trkpt>
      <trkpt lat="45.47743" lon="5.57625">
        <ele>541.36</ele>
        <time>2017-10-05T08:22:29Z</time>
      </trkpt>
      <trkpt lat="45.47745" lon="5.57627">
        <ele>541.36</ele>
        <time>2017-10-05T08:22:30Z</time>
      </trkpt>
      <trkpt lat="45.47747" lon="5.57628">
        <ele>541.36</ele>
        <time>2017-10-05T08:22:31Z</time>
      </trkpt>
      <trkpt lat="45.47748" lon="5.5763">
        <ele>541.36</ele>
        <time>2017-10-05T08:22:32Z</time>
      </trkpt>
      <trkpt lat="45.4775" lon="5.57632">
        <ele>541.36</ele>
        <time>2017-10-05T08:22:33Z</time>
      </trkpt>
      <trkpt lat="45.47773" lon="5.57665">
        <ele>543.28</ele>
        <time>2017-10-05T08:22:49Z</time>
      </trkpt>
      <trkpt lat="45.47794" lon="5.57692">
        <ele>545.2</ele>
        <time>2017-10-05T08:23:03Z</time>
      </trkpt>
      <trkpt lat="45.47805" lon="5.57724">
        <ele>548.09</ele>
        <time>2017-10-05T08:23:18Z</time>
      </trkpt>
      <trkpt lat="45.47805" lon="5.57751">
        <ele>550.97</ele>
        <time>2017-10-05T08:23:32Z</time>
      </trkpt>
      <trkpt lat="45.47805" lon="5.57763">
        <ele>551.93</ele>
        <time>2017-10-05T08:23:38Z</time>
      </trkpt>
      <trkpt lat="45.47803" lon="5.57794">
        <ele>555.3</ele>
        <time>2017-10-05T08:23:53Z</time>
      </trkpt>
      <trkpt lat="45.478" lon="5.57822">
        <ele>558.18</ele>
        <time>2017-10-05T08:24:06Z</time>
      </trkpt>
      <trkpt lat="45.478" lon="5.57824">
        <ele>558.18</ele>
        <time>2017-10-05T08:24:07Z</time>
      </trkpt>
      <trkpt lat="45.478" lon="5.57826">
        <ele>558.66</ele>
        <time>2017-10-05T08:24:08Z</time>
      </trkpt>
      <trkpt lat="45.47796" lon="5.5785">
        <ele>560.59</ele>
        <time>2017-10-05T08:24:20Z</time>
      </trkpt>
      <trkpt lat="45.47795" lon="5.57852">
        <ele>560.59</ele>
        <time>2017-10-05T08:24:21Z</time>
      </trkpt>
      <trkpt lat="45.47794" lon="5.57854">
        <ele>561.07</ele>
        <time>2017-10-05T08:24:22Z</time>
      </trkpt>
      <trkpt lat="45.47794" lon="5.57856">
        <ele>561.07</ele>
        <time>2017-10-05T08:24:23Z</time>
      </trkpt>
      <trkpt lat="45.47793" lon="5.57858">
        <ele>561.55</ele>
        <time>2017-10-05T08:24:24Z</time>
      </trkpt>
      <trkpt lat="45.47793" lon="5.5786">
        <ele>561.55</ele>
        <time>2017-10-05T08:24:25Z</time>
      </trkpt>
      <trkpt lat="45.47792" lon="5.57861">
        <ele>562.03</ele>
        <time>2017-10-05T08:24:26Z</time>
      </trkpt>
      <trkpt lat="45.47792" lon="5.57864">
        <ele>562.03</ele>
        <time>2017-10-05T08:24:27Z</time>
      </trkpt>
      <trkpt lat="45.47792" lon="5.57866">
        <ele>562.51</ele>
        <time>2017-10-05T08:24:28Z</time>
      </trkpt>
      <trkpt lat="45.47789" lon="5.57882">
        <ele>563.47</ele>
        <time>2017-10-05T08:24:36Z</time>
      </trkpt>
      <trkpt lat="45.47788" lon="5.57884">
        <ele>563.47</ele>
        <time>2017-10-05T08:24:37Z</time>
      </trkpt>
      <trkpt lat="45.47788" lon="5.57886">
        <ele>563.47</ele>
        <time>2017-10-05T08:24:38Z</time>
      </trkpt>
      <trkpt lat="45.47788" lon="5.57887">
        <ele>563.95</ele>
        <time>2017-10-05T08:24:39Z</time>
      </trkpt>
      <trkpt lat="45.47788" lon="5.5789">
        <ele>563.95</ele>
        <time>2017-10-05T08:24:40Z</time>
      </trkpt>
      <trkpt lat="45.47787" lon="5.57891">
        <ele>563.95</ele>
        <time>2017-10-05T08:24:41Z</time>
      </trkpt>
      <trkpt lat="45.47785" lon="5.57892">
        <ele>563.95</ele>
        <time>2017-10-05T08:24:42Z</time>
      </trkpt>
      <trkpt lat="45.47784" lon="5.57893">
        <ele>563.95</ele>
        <time>2017-10-05T08:24:43Z</time>
      </trkpt>
      <trkpt lat="45.47783" lon="5.57893">
        <ele>564.43</ele>
        <time>2017-10-05T08:24:44Z</time>
      </trkpt>
      <trkpt lat="45.47781" lon="5.57894">
        <ele>564.43</ele>
        <time>2017-10-05T08:24:45Z</time>
      </trkpt>
      <trkpt lat="45.4778" lon="5.57894">
        <ele>564.43</ele>
        <time>2017-10-05T08:24:46Z</time>
      </trkpt>
      <trkpt lat="45.47763" lon="5.57908">
        <ele>565.39</ele>
        <time>2017-10-05T08:25:00Z</time>
      </trkpt>
      <trkpt lat="45.4776" lon="5.57911">
        <ele>565.39</ele>
        <time>2017-10-05T08:25:03Z</time>
      </trkpt>
      <trkpt lat="45.47759" lon="5.57912">
        <ele>565.87</ele>
        <time>2017-10-05T08:25:04Z</time>
      </trkpt>
      <trkpt lat="45.47739" lon="5.5793">
        <ele>566.83</ele>
        <time>2017-10-05T08:25:19Z</time>
      </trkpt>
      <trkpt lat="45.47718" lon="5.57953">
        <ele>568.28</ele>
        <time>2017-10-05T08:25:35Z</time>
      </trkpt>
      <trkpt lat="45.47691" lon="5.57982">
        <ele>570.68</ele>
        <time>2017-10-05T08:25:52Z</time>
      </trkpt>
      <trkpt lat="45.47671" lon="5.58005">
        <ele>572.12</ele>
        <time>2017-10-05T08:26:05Z</time>
      </trkpt>
      <trkpt lat="45.47669" lon="5.58006">
        <ele>572.6</ele>
        <time>2017-10-05T08:26:06Z</time>
      </trkpt>
      <trkpt lat="45.47667" lon="5.58008">
        <ele>572.6</ele>
        <time>2017-10-05T08:26:07Z</time>
      </trkpt>
      <trkpt lat="45.47666" lon="5.5801">
        <ele>572.6</ele>
        <time>2017-10-05T08:26:08Z</time>
      </trkpt>
      <trkpt lat="45.47664" lon="5.58012">
        <ele>572.6</ele>
        <time>2017-10-05T08:26:09Z</time>
      </trkpt>
      <trkpt lat="45.47663" lon="5.58015">
        <ele>573.08</ele>
        <time>2017-10-05T08:26:10Z</time>
      </trkpt>
      <trkpt lat="45.47662" lon="5.58017">
        <ele>573.08</ele>
        <time>2017-10-05T08:26:11Z</time>
      </trkpt>
      <trkpt lat="45.47643" lon="5.58057">
        <ele>575.01</ele>
        <time>2017-10-05T08:26:28Z</time>
      </trkpt>
      <trkpt lat="45.47627" lon="5.58095">
        <ele>576.93</ele>
        <time>2017-10-05T08:26:43Z</time>
      </trkpt>
      <trkpt lat="45.47604" lon="5.58126">
        <ele>579.33</ele>
        <time>2017-10-05T08:26:59Z</time>
      </trkpt>
      <trkpt lat="45.47583" lon="5.5816">
        <ele>581.73</ele>
        <time>2017-10-05T08:27:15Z</time>
      </trkpt>
      <trkpt lat="45.47576" lon="5.5817">
        <ele>583.66</ele>
        <time>2017-10-05T08:27:21Z</time>
      </trkpt>
      <trkpt lat="45.47575" lon="5.58172">
        <ele>582.7</ele>
        <time>2017-10-05T08:27:22Z</time>
      </trkpt>
      <trkpt lat="45.47575" lon="5.58175">
        <ele>582.7</ele>
        <time>2017-10-05T08:27:23Z</time>
      </trkpt>
      <trkpt lat="45.47574" lon="5.58179">
        <ele>583.18</ele>
        <time>2017-10-05T08:27:24Z</time>
      </trkpt>
      <trkpt lat="45.47573" lon="5.58183">
        <ele>582.7</ele>
        <time>2017-10-05T08:27:25Z</time>
      </trkpt>
      <trkpt lat="45.47572" lon="5.58186">
        <ele>583.18</ele>
        <time>2017-10-05T08:27:26Z</time>
      </trkpt>
      <trkpt lat="45.4757" lon="5.58188">
        <ele>583.18</ele>
        <time>2017-10-05T08:27:27Z</time>
      </trkpt>
      <trkpt lat="45.47547" lon="5.58225">
        <ele>586.54</ele>
        <time>2017-10-05T08:27:44Z</time>
      </trkpt>
      <trkpt lat="45.4755" lon="5.58253">
        <ele>587.98</ele>
        <time>2017-10-05T08:27:56Z</time>
      </trkpt>
      <trkpt lat="45.4757" lon="5.58279">
        <ele>588.95</ele>
        <time>2017-10-05T08:28:10Z</time>
      </trkpt>
      <trkpt lat="45.47569" lon="5.58281">
        <ele>588.95</ele>
        <time>2017-10-05T08:28:11Z</time>
      </trkpt>
      <trkpt lat="45.47558" lon="5.583">
        <ele>591.83</ele>
        <time>2017-10-05T08:28:23Z</time>
      </trkpt>
      <trkpt lat="45.47551" lon="5.58312">
        <ele>593.27</ele>
        <time>2017-10-05T08:28:30Z</time>
      </trkpt>
      <trkpt lat="45.47551" lon="5.58314">
        <ele>593.75</ele>
        <time>2017-10-05T08:28:31Z</time>
      </trkpt>
      <trkpt lat="45.4755" lon="5.58316">
        <ele>593.75</ele>
        <time>2017-10-05T08:28:32Z</time>
      </trkpt>
      <trkpt lat="45.47543" lon="5.58329">
        <ele>596.15</ele>
        <time>2017-10-05T08:28:41Z</time>
      </trkpt>
      <trkpt lat="45.47542" lon="5.58331">
        <ele>596.15</ele>
        <time>2017-10-05T08:28:42Z</time>
      </trkpt>
      <trkpt lat="45.47541" lon="5.58332">
        <ele>596.64</ele>
        <time>2017-10-05T08:28:43Z</time>
      </trkpt>
      <trkpt lat="45.4754" lon="5.58333">
        <ele>596.64</ele>
        <time>2017-10-05T08:28:44Z</time>
      </trkpt>
      <trkpt lat="45.47539" lon="5.58335">
        <ele>596.64</ele>
        <time>2017-10-05T08:28:45Z</time>
      </trkpt>
      <trkpt lat="45.47525" lon="5.58351">
        <ele>599.52</ele>
        <time>2017-10-05T08:28:59Z</time>
      </trkpt>
      <trkpt lat="45.47524" lon="5.58353">
        <ele>599.52</ele>
        <time>2017-10-05T08:29:00Z</time>
      </trkpt>
      <trkpt lat="45.47523" lon="5.58354">
        <ele>600</ele>
        <time>2017-10-05T08:29:01Z</time>
      </trkpt>
      <trkpt lat="45.47522" lon="5.58355">
        <ele>600</ele>
        <time>2017-10-05T08:29:02Z</time>
      </trkpt>
      <trkpt lat="45.47522" lon="5.58356">
        <ele>600.48</ele>
        <time>2017-10-05T08:29:03Z</time>
      </trkpt>
      <trkpt lat="45.47521" lon="5.58358">
        <ele>600.48</ele>
        <time>2017-10-05T08:29:04Z</time>
      </trkpt>
      <trkpt lat="45.4752" lon="5.58359">
        <ele>600.48</ele>
        <time>2017-10-05T08:29:05Z</time>
      </trkpt>
      <trkpt lat="45.47507" lon="5.58379">
        <ele>603.85</ele>
        <time>2017-10-05T08:29:20Z</time>
      </trkpt>
      <trkpt lat="45.47493" lon="5.58397">
        <ele>607.21</ele>
        <time>2017-10-05T08:29:34Z</time>
      </trkpt>
      <trkpt lat="45.47477" lon="5.58412">
        <ele>609.61</ele>
        <time>2017-10-05T08:29:50Z</time>
      </trkpt>
      <trkpt lat="45.47461" lon="5.58425">
        <ele>612.5</ele>
        <time>2017-10-05T08:30:06Z</time>
      </trkpt>
      <trkpt lat="45.47459" lon="5.58426">
        <ele>612.5</ele>
        <time>2017-10-05T08:30:07Z</time>
      </trkpt>
      <trkpt lat="45.47458" lon="5.58429">
        <ele>612.5</ele>
        <time>2017-10-05T08:30:09Z</time>
      </trkpt>
      <trkpt lat="45.47457" lon="5.5843">
        <ele>612.98</ele>
        <time>2017-10-05T08:30:10Z</time>
      </trkpt>
      <trkpt lat="45.47456" lon="5.58431">
        <ele>612.98</ele>
        <time>2017-10-05T08:30:11Z</time>
      </trkpt>
      <trkpt lat="45.47455" lon="5.58432">
        <ele>612.98</ele>
        <time>2017-10-05T08:30:12Z</time>
      </trkpt>
      <trkpt lat="45.47454" lon="5.58433">
        <ele>613.46</ele>
        <time>2017-10-05T08:30:13Z</time>
      </trkpt>
      <trkpt lat="45.47452" lon="5.58438">
        <ele>614.42</ele>
        <time>2017-10-05T08:30:16Z</time>
      </trkpt>
      <trkpt lat="45.47451" lon="5.5844">
        <ele>614.42</ele>
        <time>2017-10-05T08:30:17Z</time>
      </trkpt>
      <trkpt lat="45.47451" lon="5.58442">
        <ele>614.42</ele>
        <time>2017-10-05T08:30:18Z</time>
      </trkpt>
      <trkpt lat="45.4745" lon="5.58444">
        <ele>614.42</ele>
        <time>2017-10-05T08:30:19Z</time>
      </trkpt>
      <trkpt lat="45.4745" lon="5.58446">
        <ele>614.9</ele>
        <time>2017-10-05T08:30:20Z</time>
      </trkpt>
      <trkpt lat="45.47449" lon="5.58448">
        <ele>614.9</ele>
        <time>2017-10-05T08:30:21Z</time>
      </trkpt>
      <trkpt lat="45.47449" lon="5.58449">
        <ele>614.9</ele>
        <time>2017-10-05T08:30:22Z</time>
      </trkpt>
      <trkpt lat="45.47449" lon="5.58451">
        <ele>615.38</ele>
        <time>2017-10-05T08:30:23Z</time>
      </trkpt>
      <trkpt lat="45.47449" lon="5.58453">
        <ele>615.38</ele>
        <time>2017-10-05T08:30:24Z</time>
      </trkpt>
      <trkpt lat="45.47448" lon="5.58455">
        <ele>615.38</ele>
        <time>2017-10-05T08:30:25Z</time>
      </trkpt>
      <trkpt lat="45.47445" lon="5.58483">
        <ele>618.26</ele>
        <time>2017-10-05T08:30:40Z</time>
      </trkpt>
      <trkpt lat="45.47442" lon="5.58512">
        <ele>620.19</ele>
        <time>2017-10-05T08:30:55Z</time>
      </trkpt>
      <trkpt lat="45.47439" lon="5.58545">
        <ele>622.59</ele>
        <time>2017-10-05T08:31:12Z</time>
      </trkpt>
      <trkpt lat="45.47436" lon="5.58575">
        <ele>624.99</ele>
        <time>2017-10-05T08:31:27Z</time>
      </trkpt>
      <trkpt lat="45.47432" lon="5.58599">
        <ele>627.88</ele>
        <time>2017-10-05T08:31:41Z</time>
      </trkpt>
      <trkpt lat="45.47436" lon="5.58615">
        <ele>629.32</ele>
        <time>2017-10-05T08:31:50Z</time>
      </trkpt>
      <trkpt lat="45.47444" lon="5.58625">
        <ele>630.76</ele>
        <time>2017-10-05T08:31:58Z</time>
      </trkpt>
      <trkpt lat="45.47446" lon="5.58626">
        <ele>630.76</ele>
        <time>2017-10-05T08:31:59Z</time>
      </trkpt>
      <trkpt lat="45.47447" lon="5.58627">
        <ele>630.76</ele>
        <time>2017-10-05T08:32:00Z</time>
      </trkpt>
      <trkpt lat="45.47448" lon="5.58628">
        <ele>631.24</ele>
        <time>2017-10-05T08:32:01Z</time>
      </trkpt>
      <trkpt lat="45.47449" lon="5.58629">
        <ele>631.24</ele>
        <time>2017-10-05T08:32:02Z</time>
      </trkpt>
      <trkpt lat="45.47457" lon="5.58637">
        <ele>632.68</ele>
        <time>2017-10-05T08:32:09Z</time>
      </trkpt>
      <trkpt lat="45.47458" lon="5.58641">
        <ele>633.65</ele>
        <time>2017-10-05T08:32:12Z</time>
      </trkpt>
      <trkpt lat="45.47456" lon="5.58644">
        <ele>633.65</ele>
        <time>2017-10-05T08:32:15Z</time>
      </trkpt>
      <trkpt lat="45.47455" lon="5.58645">
        <ele>633.65</ele>
        <time>2017-10-05T08:32:16Z</time>
      </trkpt>
      <trkpt lat="45.47454" lon="5.58646">
        <ele>633.65</ele>
        <time>2017-10-05T08:32:17Z</time>
      </trkpt>
      <trkpt lat="45.47442" lon="5.58648">
        <ele>634.13</ele>
        <time>2017-10-05T08:32:24Z</time>
      </trkpt>
      <trkpt lat="45.47442" lon="5.58651">
        <ele>634.13</ele>
        <time>2017-10-05T08:32:25Z</time>
      </trkpt>
      <trkpt lat="45.47442" lon="5.58654">
        <ele>634.13</ele>
        <time>2017-10-05T08:32:26Z</time>
      </trkpt>
      <trkpt lat="45.47443" lon="5.58657">
        <ele>634.13</ele>
        <time>2017-10-05T08:32:27Z</time>
      </trkpt>
      <trkpt lat="45.47444" lon="5.58659">
        <ele>634.13</ele>
        <time>2017-10-05T08:32:28Z</time>
      </trkpt>
      <trkpt lat="45.47446" lon="5.5866">
        <ele>634.13</ele>
        <time>2017-10-05T08:32:29Z</time>
      </trkpt>
      <trkpt lat="45.47448" lon="5.58661">
        <ele>634.13</ele>
        <time>2017-10-05T08:32:30Z</time>
      </trkpt>
      <trkpt lat="45.47449" lon="5.58663">
        <ele>634.13</ele>
        <time>2017-10-05T08:32:31Z</time>
      </trkpt>
      <trkpt lat="45.47478" lon="5.58681">
        <ele>635.57</ele>
        <time>2017-10-05T08:32:46Z</time>
      </trkpt>
      <trkpt lat="45.47506" lon="5.58707">
        <ele>638.45</ele>
        <time>2017-10-05T08:33:04Z</time>
      </trkpt>
      <trkpt lat="45.47527" lon="5.58741">
        <ele>640.86</ele>
        <time>2017-10-05T08:33:23Z</time>
      </trkpt>
      <trkpt lat="45.47527" lon="5.58785">
        <ele>643.26</ele>
        <time>2017-10-05T08:33:40Z</time>
      </trkpt>
      <trkpt lat="45.4753" lon="5.58836">
        <ele>645.18</ele>
        <time>2017-10-05T08:34:00Z</time>
      </trkpt>
      <trkpt lat="45.4755" lon="5.58878">
        <ele>647.59</ele>
        <time>2017-10-05T08:34:19Z</time>
      </trkpt>
      <trkpt lat="45.47568" lon="5.58919">
        <ele>649.99</ele>
        <time>2017-10-05T08:34:37Z</time>
      </trkpt>
      <trkpt lat="45.47587" lon="5.58944">
        <ele>651.43</ele>
        <time>2017-10-05T08:34:51Z</time>
      </trkpt>
      <trkpt lat="45.47588" lon="5.58949">
        <ele>651.43</ele>
        <time>2017-10-05T08:34:53Z</time>
      </trkpt>
      <trkpt lat="45.47588" lon="5.58951">
        <ele>651.43</ele>
        <time>2017-10-05T08:34:54Z</time>
      </trkpt>
      <trkpt lat="45.47587" lon="5.58953">
        <ele>652.39</ele>
        <time>2017-10-05T08:34:55Z</time>
      </trkpt>
      <trkpt lat="45.47586" lon="5.58954">
        <ele>652.39</ele>
        <time>2017-10-05T08:34:56Z</time>
      </trkpt>
      <trkpt lat="45.47584" lon="5.58955">
        <ele>652.39</ele>
        <time>2017-10-05T08:34:57Z</time>
      </trkpt>
      <trkpt lat="45.47582" lon="5.58955">
        <ele>652.87</ele>
        <time>2017-10-05T08:34:58Z</time>
      </trkpt>
      <trkpt lat="45.47581" lon="5.58955">
        <ele>652.87</ele>
        <time>2017-10-05T08:34:59Z</time>
      </trkpt>
      <trkpt lat="45.47579" lon="5.58954">
        <ele>652.87</ele>
        <time>2017-10-05T08:35:00Z</time>
      </trkpt>
      <trkpt lat="45.47557" lon="5.5895">
        <ele>654.31</ele>
        <time>2017-10-05T08:35:12Z</time>
      </trkpt>
      <trkpt lat="45.47556" lon="5.58951">
        <ele>654.31</ele>
        <time>2017-10-05T08:35:13Z</time>
      </trkpt>
      <trkpt lat="45.47555" lon="5.58952">
        <ele>654.31</ele>
        <time>2017-10-05T08:35:14Z</time>
      </trkpt>
      <trkpt lat="45.47555" lon="5.58953">
        <ele>654.8</ele>
        <time>2017-10-05T08:35:15Z</time>
      </trkpt>
      <trkpt lat="45.47554" lon="5.58955">
        <ele>654.8</ele>
        <time>2017-10-05T08:35:16Z</time>
      </trkpt>
      <trkpt lat="45.47554" lon="5.58956">
        <ele>654.8</ele>
        <time>2017-10-05T08:35:17Z</time>
      </trkpt>
      <trkpt lat="45.47554" lon="5.58958">
        <ele>654.8</ele>
        <time>2017-10-05T08:35:18Z</time>
      </trkpt>
      <trkpt lat="45.47553" lon="5.5896">
        <ele>654.8</ele>
        <time>2017-10-05T08:35:19Z</time>
      </trkpt>
      <trkpt lat="45.47552" lon="5.58961">
        <ele>655.28</ele>
        <time>2017-10-05T08:35:20Z</time>
      </trkpt>
      <trkpt lat="45.47551" lon="5.58962">
        <ele>655.28</ele>
        <time>2017-10-05T08:35:21Z</time>
      </trkpt>
      <trkpt lat="45.47551" lon="5.58964">
        <ele>655.28</ele>
        <time>2017-10-05T08:35:22Z</time>
      </trkpt>
      <trkpt lat="45.47551" lon="5.58967">
        <ele>655.76</ele>
        <time>2017-10-05T08:35:23Z</time>
      </trkpt>
      <trkpt lat="45.47563" lon="5.58984">
        <ele>657.68</ele>
        <time>2017-10-05T08:35:33Z</time>
      </trkpt>
      <trkpt lat="45.47565" lon="5.58985">
        <ele>657.68</ele>
        <time>2017-10-05T08:35:34Z</time>
      </trkpt>
      <trkpt lat="45.47581" lon="5.58994">
        <ele>660.08</ele>
        <time>2017-10-05T08:35:44Z</time>
      </trkpt>
      <trkpt lat="45.47605" lon="5.5901">
        <ele>662.97</ele>
        <time>2017-10-05T08:35:59Z</time>
      </trkpt>
      <trkpt lat="45.47632" lon="5.59037">
        <ele>664.41</ele>
        <time>2017-10-05T08:36:13Z</time>
      </trkpt>
      <trkpt lat="45.47666" lon="5.59065">
        <ele>667.29</ele>
        <time>2017-10-05T08:36:32Z</time>
      </trkpt>
      <trkpt lat="45.4769" lon="5.59086">
        <ele>668.25</ele>
        <time>2017-10-05T08:36:45Z</time>
      </trkpt>
      <trkpt lat="45.47711" lon="5.59121">
        <ele>668.73</ele>
        <time>2017-10-05T08:37:00Z</time>
      </trkpt>
      <trkpt lat="45.47721" lon="5.59158">
        <ele>671.14</ele>
        <time>2017-10-05T08:37:15Z</time>
      </trkpt>
      <trkpt lat="45.47727" lon="5.59182">
        <ele>673.54</ele>
        <time>2017-10-05T08:37:26Z</time>
      </trkpt>
      <trkpt lat="45.47729" lon="5.59191">
        <ele>674.5</ele>
        <time>2017-10-05T08:37:30Z</time>
      </trkpt>
      <trkpt lat="45.47735" lon="5.59219">
        <ele>676.91</ele>
        <time>2017-10-05T08:37:43Z</time>
      </trkpt>
      <trkpt lat="45.47736" lon="5.59221">
        <ele>677.39</ele>
        <time>2017-10-05T08:37:44Z</time>
      </trkpt>
      <trkpt lat="45.47736" lon="5.59224">
        <ele>677.39</ele>
        <time>2017-10-05T08:37:45Z</time>
      </trkpt>
      <trkpt lat="45.47737" lon="5.59227">
        <ele>677.87</ele>
        <time>2017-10-05T08:37:46Z</time>
      </trkpt>
      <trkpt lat="45.4774" lon="5.59236">
        <ele>678.35</ele>
        <time>2017-10-05T08:37:50Z</time>
      </trkpt>
      <trkpt lat="45.4774" lon="5.59238">
        <ele>678.83</ele>
        <time>2017-10-05T08:37:51Z</time>
      </trkpt>
      <trkpt lat="45.4774" lon="5.5924">
        <ele>678.83</ele>
        <time>2017-10-05T08:37:52Z</time>
      </trkpt>
      <trkpt lat="45.47741" lon="5.59246">
        <ele>679.31</ele>
        <time>2017-10-05T08:37:55Z</time>
      </trkpt>
      <trkpt lat="45.47741" lon="5.59248">
        <ele>679.31</ele>
        <time>2017-10-05T08:37:56Z</time>
      </trkpt>
      <trkpt lat="45.47741" lon="5.5925">
        <ele>679.31</ele>
        <time>2017-10-05T08:37:57Z</time>
      </trkpt>
      <trkpt lat="45.47742" lon="5.59253">
        <ele>679.31</ele>
        <time>2017-10-05T08:37:58Z</time>
      </trkpt>
      <trkpt lat="45.47742" lon="5.59256">
        <ele>679.31</ele>
        <time>2017-10-05T08:37:59Z</time>
      </trkpt>
      <trkpt lat="45.47743" lon="5.59259">
        <ele>679.31</ele>
        <time>2017-10-05T08:38:00Z</time>
      </trkpt>
      <trkpt lat="45.47743" lon="5.59262">
        <ele>679.31</ele>
        <time>2017-10-05T08:38:01Z</time>
      </trkpt>
      <trkpt lat="45.47744" lon="5.59265">
        <ele>679.79</ele>
        <time>2017-10-05T08:38:02Z</time>
      </trkpt>
      <trkpt lat="45.47745" lon="5.59269">
        <ele>679.31</ele>
        <time>2017-10-05T08:38:03Z</time>
      </trkpt>
      <trkpt lat="45.47747" lon="5.59298">
        <ele>680.27</ele>
        <time>2017-10-05T08:38:13Z</time>
      </trkpt>
      <trkpt lat="45.47748" lon="5.59301">
        <ele>680.27</ele>
        <time>2017-10-05T08:38:14Z</time>
      </trkpt>
      <trkpt lat="45.47742" lon="5.59337">
        <ele>682.19</ele>
        <time>2017-10-05T08:38:28Z</time>
      </trkpt>
      <trkpt lat="45.47742" lon="5.59341">
        <ele>682.67</ele>
        <time>2017-10-05T08:38:30Z</time>
      </trkpt>
      <trkpt lat="45.47742" lon="5.59343">
        <ele>682.67</ele>
        <time>2017-10-05T08:38:31Z</time>
      </trkpt>
      <trkpt lat="45.47741" lon="5.59345">
        <ele>682.67</ele>
        <time>2017-10-05T08:38:32Z</time>
      </trkpt>
      <trkpt lat="45.47741" lon="5.59347">
        <ele>683.15</ele>
        <time>2017-10-05T08:38:33Z</time>
      </trkpt>
      <trkpt lat="45.4774" lon="5.59349">
        <ele>683.63</ele>
        <time>2017-10-05T08:38:34Z</time>
      </trkpt>
      <trkpt lat="45.47739" lon="5.59351">
        <ele>683.15</ele>
        <time>2017-10-05T08:38:35Z</time>
      </trkpt>
      <trkpt lat="45.47737" lon="5.59356">
        <ele>684.12</ele>
        <time>2017-10-05T08:38:38Z</time>
      </trkpt>
      <trkpt lat="45.47729" lon="5.59375">
        <ele>686.52</ele>
        <time>2017-10-05T08:38:49Z</time>
      </trkpt>
      <trkpt lat="45.47724" lon="5.59386">
        <ele>688.44</ele>
        <time>2017-10-05T08:38:56Z</time>
      </trkpt>
      <trkpt lat="45.4772" lon="5.59391">
        <ele>688.92</ele>
        <time>2017-10-05T08:39:00Z</time>
      </trkpt>
      <trkpt lat="45.47715" lon="5.59398">
        <ele>690.36</ele>
        <time>2017-10-05T08:39:05Z</time>
      </trkpt>
      <trkpt lat="45.47714" lon="5.594">
        <ele>690.84</ele>
        <time>2017-10-05T08:39:06Z</time>
      </trkpt>
      <trkpt lat="45.47709" lon="5.59406">
        <ele>691.81</ele>
        <time>2017-10-05T08:39:11Z</time>
      </trkpt>
      <trkpt lat="45.47705" lon="5.59412">
        <ele>692.77</ele>
        <time>2017-10-05T08:39:15Z</time>
      </trkpt>
      <trkpt lat="45.47704" lon="5.59415">
        <ele>692.77</ele>
        <time>2017-10-05T08:39:16Z</time>
      </trkpt>
      <trkpt lat="45.47703" lon="5.59417">
        <ele>692.77</ele>
        <time>2017-10-05T08:39:17Z</time>
      </trkpt>
      <trkpt lat="45.47702" lon="5.59419">
        <ele>693.25</ele>
        <time>2017-10-05T08:39:18Z</time>
      </trkpt>
      <trkpt lat="45.47699" lon="5.5943">
        <ele>694.21</ele>
        <time>2017-10-05T08:39:23Z</time>
      </trkpt>
      <trkpt lat="45.47698" lon="5.59433">
        <ele>694.69</ele>
        <time>2017-10-05T08:39:24Z</time>
      </trkpt>
      <trkpt lat="45.47697" lon="5.59435">
        <ele>694.69</ele>
        <time>2017-10-05T08:39:25Z</time>
      </trkpt>
      <trkpt lat="45.47696" lon="5.59438">
        <ele>694.69</ele>
        <time>2017-10-05T08:39:26Z</time>
      </trkpt>
      <trkpt lat="45.47696" lon="5.59441">
        <ele>695.17</ele>
        <time>2017-10-05T08:39:27Z</time>
      </trkpt>
      <trkpt lat="45.47695" lon="5.59443">
        <ele>695.17</ele>
        <time>2017-10-05T08:39:28Z</time>
      </trkpt>
      <trkpt lat="45.47691" lon="5.59468">
        <ele>696.61</ele>
        <time>2017-10-05T08:39:40Z</time>
      </trkpt>
      <trkpt lat="45.4769" lon="5.59471">
        <ele>696.61</ele>
        <time>2017-10-05T08:39:41Z</time>
      </trkpt>
      <trkpt lat="45.47688" lon="5.59473">
        <ele>697.09</ele>
        <time>2017-10-05T08:39:42Z</time>
      </trkpt>
      <trkpt lat="45.47669" lon="5.5952">
        <ele>698.05</ele>
        <time>2017-10-05T08:40:00Z</time>
      </trkpt>
      <trkpt lat="45.47655" lon="5.59538">
        <ele>699.5</ele>
        <time>2017-10-05T08:40:10Z</time>
      </trkpt>
      <trkpt lat="45.47653" lon="5.59538">
        <ele>699.98</ele>
        <time>2017-10-05T08:40:11Z</time>
      </trkpt>
      <trkpt lat="45.47651" lon="5.59539">
        <ele>699.98</ele>
        <time>2017-10-05T08:40:12Z</time>
      </trkpt>
      <trkpt lat="45.47649" lon="5.5954">
        <ele>699.98</ele>
        <time>2017-10-05T08:40:13Z</time>
      </trkpt>
      <trkpt lat="45.47648" lon="5.59541">
        <ele>700.46</ele>
        <time>2017-10-05T08:40:14Z</time>
      </trkpt>
      <trkpt lat="45.47646" lon="5.59542">
        <ele>700.46</ele>
        <time>2017-10-05T08:40:15Z</time>
      </trkpt>
      <trkpt lat="45.47645" lon="5.59543">
        <ele>700.46</ele>
        <time>2017-10-05T08:40:16Z</time>
      </trkpt>
      <trkpt lat="45.47643" lon="5.59543">
        <ele>700.94</ele>
        <time>2017-10-05T08:40:17Z</time>
      </trkpt>
      <trkpt lat="45.47641" lon="5.59543">
        <ele>700.94</ele>
        <time>2017-10-05T08:40:18Z</time>
      </trkpt>
      <trkpt lat="45.4761" lon="5.5954">
        <ele>702.86</ele>
        <time>2017-10-05T08:40:33Z</time>
      </trkpt>
      <trkpt lat="45.47585" lon="5.59564">
        <ele>703.82</ele>
        <time>2017-10-05T08:40:47Z</time>
      </trkpt>
      <trkpt lat="45.47573" lon="5.59623">
        <ele>704.78</ele>
        <time>2017-10-05T08:41:04Z</time>
      </trkpt>
      <trkpt lat="45.47576" lon="5.59694">
        <ele>706.71</ele>
        <time>2017-10-05T08:41:24Z</time>
      </trkpt>
      <trkpt lat="45.47576" lon="5.59702">
        <ele>707.19</ele>
        <time>2017-10-05T08:41:27Z</time>
      </trkpt>
      <trkpt lat="45.47576" lon="5.59704">
        <ele>707.19</ele>
        <time>2017-10-05T08:41:28Z</time>
      </trkpt>
      <trkpt lat="45.47574" lon="5.59705">
        <ele>707.19</ele>
        <time>2017-10-05T08:41:29Z</time>
      </trkpt>
      <trkpt lat="45.47564" lon="5.59705">
        <ele>707.67</ele>
        <time>2017-10-05T08:41:35Z</time>
      </trkpt>
      <trkpt lat="45.47561" lon="5.59705">
        <ele>706.71</ele>
        <time>2017-10-05T08:41:38Z</time>
      </trkpt>
      <trkpt lat="45.4756" lon="5.59705">
        <ele>707.19</ele>
        <time>2017-10-05T08:41:39Z</time>
      </trkpt>
      <trkpt lat="45.47559" lon="5.59706">
        <ele>707.67</ele>
        <time>2017-10-05T08:41:40Z</time>
      </trkpt>
      <trkpt lat="45.47558" lon="5.59708">
        <ele>707.67</ele>
        <time>2017-10-05T08:41:41Z</time>
      </trkpt>
      <trkpt lat="45.47555" lon="5.59711">
        <ele>707.67</ele>
        <time>2017-10-05T08:41:43Z</time>
      </trkpt>
      <trkpt lat="45.47552" lon="5.59714">
        <ele>707.67</ele>
        <time>2017-10-05T08:41:55Z</time>
      </trkpt>
      <trkpt lat="45.47555" lon="5.59719">
        <ele>707.67</ele>
        <time>2017-10-05T08:41:59Z</time>
      </trkpt>
      <trkpt lat="45.47559" lon="5.59698">
        <ele>706.71</ele>
        <time>2017-10-05T08:42:10Z</time>
      </trkpt>
      <trkpt lat="45.47549" lon="5.59689">
        <ele>706.71</ele>
        <time>2017-10-05T08:42:14Z</time>
      </trkpt>
      <trkpt lat="45.47546" lon="5.59685">
        <ele>705.26</ele>
        <time>2017-10-05T08:42:20Z</time>
      </trkpt>
      <trkpt lat="45.47544" lon="5.59686">
        <ele>705.75</ele>
        <time>2017-10-05T08:42:25Z</time>
      </trkpt>
      <trkpt lat="45.47537" lon="5.5968">
        <ele>705.75</ele>
        <time>2017-10-05T08:42:35Z</time>
      </trkpt>
      <trkpt lat="45.47537" lon="5.59681">
        <ele>705.75</ele>
        <time>2017-10-05T08:42:49Z</time>
      </trkpt>
      <trkpt lat="45.47535" lon="5.59678">
        <ele>705.75</ele>
        <time>2017-10-05T08:43:06Z</time>
      </trkpt>
      <trkpt lat="45.47512" lon="5.59669">
        <ele>704.3</ele>
        <time>2017-10-05T08:43:16Z</time>
      </trkpt>
      <trkpt lat="45.47482" lon="5.59668">
        <ele>703.34</ele>
        <time>2017-10-05T08:43:26Z</time>
      </trkpt>
      <trkpt lat="45.47474" lon="5.59668">
        <ele>702.86</ele>
        <time>2017-10-05T08:43:28Z</time>
      </trkpt>
      <trkpt lat="45.4747" lon="5.59669">
        <ele>702.38</ele>
        <time>2017-10-05T08:43:29Z</time>
      </trkpt>
      <trkpt lat="45.47449" lon="5.59669">
        <ele>701.9</ele>
        <time>2017-10-05T08:43:36Z</time>
      </trkpt>
      <trkpt lat="45.47446" lon="5.5967">
        <ele>700.94</ele>
        <time>2017-10-05T08:43:37Z</time>
      </trkpt>
      <trkpt lat="45.47444" lon="5.5967">
        <ele>700.94</ele>
        <time>2017-10-05T08:43:38Z</time>
      </trkpt>
      <trkpt lat="45.47442" lon="5.59671">
        <ele>700.94</ele>
        <time>2017-10-05T08:43:39Z</time>
      </trkpt>
      <trkpt lat="45.47439" lon="5.59673">
        <ele>700.94</ele>
        <time>2017-10-05T08:43:40Z</time>
      </trkpt>
      <trkpt lat="45.47423" lon="5.5968">
        <ele>698.53</ele>
        <time>2017-10-05T08:43:45Z</time>
      </trkpt>
      <trkpt lat="45.4742" lon="5.59684">
        <ele>698.05</ele>
        <time>2017-10-05T08:43:46Z</time>
      </trkpt>
      <trkpt lat="45.47416" lon="5.59689">
        <ele>697.57</ele>
        <time>2017-10-05T08:43:47Z</time>
      </trkpt>
      <trkpt lat="45.47413" lon="5.59694">
        <ele>696.61</ele>
        <time>2017-10-05T08:43:48Z</time>
      </trkpt>
      <trkpt lat="45.47409" lon="5.59699">
        <ele>696.13</ele>
        <time>2017-10-05T08:43:49Z</time>
      </trkpt>
      <trkpt lat="45.47405" lon="5.59704">
        <ele>695.65</ele>
        <time>2017-10-05T08:43:50Z</time>
      </trkpt>
      <trkpt lat="45.4739" lon="5.59723">
        <ele>693.25</ele>
        <time>2017-10-05T08:43:54Z</time>
      </trkpt>
      <trkpt lat="45.47386" lon="5.59728">
        <ele>692.29</ele>
        <time>2017-10-05T08:43:55Z</time>
      </trkpt>
      <trkpt lat="45.47381" lon="5.59732">
        <ele>691.81</ele>
        <time>2017-10-05T08:43:56Z</time>
      </trkpt>
      <trkpt lat="45.47375" lon="5.59735">
        <ele>690.84</ele>
        <time>2017-10-05T08:43:57Z</time>
      </trkpt>
      <trkpt lat="45.47369" lon="5.59737">
        <ele>689.88</ele>
        <time>2017-10-05T08:43:58Z</time>
      </trkpt>
      <trkpt lat="45.47356" lon="5.59741">
        <ele>688.44</ele>
        <time>2017-10-05T08:44:00Z</time>
      </trkpt>
      <trkpt lat="45.47343" lon="5.59749">
        <ele>687</ele>
        <time>2017-10-05T08:44:02Z</time>
      </trkpt>
      <trkpt lat="45.47337" lon="5.59755">
        <ele>686.52</ele>
        <time>2017-10-05T08:44:03Z</time>
      </trkpt>
      <trkpt lat="45.47331" lon="5.59762">
        <ele>686.04</ele>
        <time>2017-10-05T08:44:04Z</time>
      </trkpt>
      <trkpt lat="45.47325" lon="5.59771">
        <ele>684.6</ele>
        <time>2017-10-05T08:44:05Z</time>
      </trkpt>
      <trkpt lat="45.4732" lon="5.5978">
        <ele>684.12</ele>
        <time>2017-10-05T08:44:06Z</time>
      </trkpt>
      <trkpt lat="45.47312" lon="5.59797">
        <ele>683.63</ele>
        <time>2017-10-05T08:44:08Z</time>
      </trkpt>
      <trkpt lat="45.47306" lon="5.59811">
        <ele>684.12</ele>
        <time>2017-10-05T08:44:10Z</time>
      </trkpt>
      <trkpt lat="45.47302" lon="5.59816">
        <ele>684.6</ele>
        <time>2017-10-05T08:44:11Z</time>
      </trkpt>
      <trkpt lat="45.47298" lon="5.59819">
        <ele>684.6</ele>
        <time>2017-10-05T08:44:12Z</time>
      </trkpt>
      <trkpt lat="45.47295" lon="5.59821">
        <ele>685.08</ele>
        <time>2017-10-05T08:44:13Z</time>
      </trkpt>
      <trkpt lat="45.47292" lon="5.59824">
        <ele>685.56</ele>
        <time>2017-10-05T08:44:14Z</time>
      </trkpt>
      <trkpt lat="45.47275" lon="5.5985">
        <ele>687.48</ele>
        <time>2017-10-05T08:44:24Z</time>
      </trkpt>
      <trkpt lat="45.47269" lon="5.59858">
        <ele>688.44</ele>
        <time>2017-10-05T08:44:32Z</time>
      </trkpt>
      <trkpt lat="45.47268" lon="5.5986">
        <ele>688.92</ele>
        <time>2017-10-05T08:44:33Z</time>
      </trkpt>
      <trkpt lat="45.47265" lon="5.59863">
        <ele>688.44</ele>
        <time>2017-10-05T08:44:35Z</time>
      </trkpt>
      <trkpt lat="45.47245" lon="5.59892">
        <ele>689.88</ele>
        <time>2017-10-05T08:44:46Z</time>
      </trkpt>
      <trkpt lat="45.47229" lon="5.5992">
        <ele>691.33</ele>
        <time>2017-10-05T08:44:58Z</time>
      </trkpt>
      <trkpt lat="45.47214" lon="5.59951">
        <ele>691.81</ele>
        <time>2017-10-05T08:45:12Z</time>
      </trkpt>
      <trkpt lat="45.47209" lon="5.59962">
        <ele>691.81</ele>
        <time>2017-10-05T08:45:18Z</time>
      </trkpt>
      <trkpt lat="45.47208" lon="5.59963">
        <ele>691.81</ele>
        <time>2017-10-05T08:45:19Z</time>
      </trkpt>
      <trkpt lat="45.47202" lon="5.59977">
        <ele>691.33</ele>
        <time>2017-10-05T08:45:28Z</time>
      </trkpt>
      <trkpt lat="45.47202" lon="5.59979">
        <ele>691.33</ele>
        <time>2017-10-05T08:45:29Z</time>
      </trkpt>
      <trkpt lat="45.472" lon="5.5998">
        <ele>690.36</ele>
        <time>2017-10-05T08:45:41Z</time>
      </trkpt>
      <trkpt lat="45.472" lon="5.59981">
        <ele>690.36</ele>
        <time>2017-10-05T08:46:24Z</time>
      </trkpt>
      <trkpt lat="45.472" lon="5.5998">
        <ele>690.36</ele>
        <time>2017-10-05T08:47:06Z</time>
      </trkpt>
      <trkpt lat="45.472" lon="5.59982">
        <ele>690.84</ele>
        <time>2017-10-05T08:47:26Z</time>
      </trkpt>
      <trkpt lat="45.47199" lon="5.59984">
        <ele>690.84</ele>
        <time>2017-10-05T08:47:27Z</time>
      </trkpt>
      <trkpt lat="45.47198" lon="5.59985">
        <ele>690.36</ele>
        <time>2017-10-05T08:47:28Z</time>
      </trkpt>
      <trkpt lat="45.47197" lon="5.59986">
        <ele>690.84</ele>
        <time>2017-10-05T08:47:29Z</time>
      </trkpt>
      <trkpt lat="45.47197" lon="5.59987">
        <ele>690.36</ele>
        <time>2017-10-05T08:47:30Z</time>
      </trkpt>
      <trkpt lat="45.47196" lon="5.59989">
        <ele>690.36</ele>
        <time>2017-10-05T08:47:31Z</time>
      </trkpt>
      <trkpt lat="45.47196" lon="5.59991">
        <ele>690.36</ele>
        <time>2017-10-05T08:47:32Z</time>
      </trkpt>
      <trkpt lat="45.47195" lon="5.59992">
        <ele>689.88</ele>
        <time>2017-10-05T08:47:33Z</time>
      </trkpt>
      <trkpt lat="45.47195" lon="5.59994">
        <ele>689.88</ele>
        <time>2017-10-05T08:47:34Z</time>
      </trkpt>
      <trkpt lat="45.47196" lon="5.59995">
        <ele>689.4</ele>
        <time>2017-10-05T08:47:43Z</time>
      </trkpt>
      <trkpt lat="45.47194" lon="5.59996">
        <ele>689.88</ele>
        <time>2017-10-05T08:48:04Z</time>
      </trkpt>
      <trkpt lat="45.47192" lon="5.59996">
        <ele>689.88</ele>
        <time>2017-10-05T08:48:10Z</time>
      </trkpt>
      <trkpt lat="45.47192" lon="5.59996">
        <ele>689.4</ele>
        <time>2017-10-05T08:48:22Z</time>
      </trkpt>
      <trkpt lat="45.47191" lon="5.59995">
        <ele>689.4</ele>
        <time>2017-10-05T08:48:36Z</time>
      </trkpt>
      <trkpt lat="45.47191" lon="5.59994">
        <ele>689.4</ele>
        <time>2017-10-05T08:48:37Z</time>
      </trkpt>
      <trkpt lat="45.4718" lon="5.59977">
        <ele>686.52</ele>
        <time>2017-10-05T08:48:43Z</time>
      </trkpt>
      <trkpt lat="45.47175" lon="5.59966">
        <ele>685.56</ele>
        <time>2017-10-05T08:48:45Z</time>
      </trkpt>
      <trkpt lat="45.47171" lon="5.5996">
        <ele>684.12</ele>
        <time>2017-10-05T08:48:46Z</time>
      </trkpt>
      <trkpt lat="45.47151" lon="5.59933">
        <ele>680.75</ele>
        <time>2017-10-05T08:48:50Z</time>
      </trkpt>
      <trkpt lat="45.47146" lon="5.59925">
        <ele>679.79</ele>
        <time>2017-10-05T08:48:51Z</time>
      </trkpt>
      <trkpt lat="45.47141" lon="5.59916">
        <ele>679.31</ele>
        <time>2017-10-05T08:48:52Z</time>
      </trkpt>
      <trkpt lat="45.47132" lon="5.59899">
        <ele>678.83</ele>
        <time>2017-10-05T08:48:54Z</time>
      </trkpt>
      <trkpt lat="45.47123" lon="5.59885">
        <ele>677.87</ele>
        <time>2017-10-05T08:48:56Z</time>
      </trkpt>
      <trkpt lat="45.47119" lon="5.59877">
        <ele>677.39</ele>
        <time>2017-10-05T08:48:57Z</time>
      </trkpt>
      <trkpt lat="45.47088" lon="5.59814">
        <ele>676.91</ele>
        <time>2017-10-05T08:49:09Z</time>
      </trkpt>
      <trkpt lat="45.4707" lon="5.59762">
        <ele>674.5</ele>
        <time>2017-10-05T08:49:22Z</time>
      </trkpt>
      <trkpt lat="45.47069" lon="5.59754">
        <ele>674.02</ele>
        <time>2017-10-05T08:49:24Z</time>
      </trkpt>
      <trkpt lat="45.4707" lon="5.59746">
        <ele>673.54</ele>
        <time>2017-10-05T08:49:26Z</time>
      </trkpt>
      <trkpt lat="45.47071" lon="5.59743">
        <ele>673.54</ele>
        <time>2017-10-05T08:49:27Z</time>
      </trkpt>
      <trkpt lat="45.47073" lon="5.59737">
        <ele>673.54</ele>
        <time>2017-10-05T08:49:29Z</time>
      </trkpt>
      <trkpt lat="45.47075" lon="5.59734">
        <ele>674.02</ele>
        <time>2017-10-05T08:49:31Z</time>
      </trkpt>
      <trkpt lat="45.47078" lon="5.59731">
        <ele>674.02</ele>
        <time>2017-10-05T08:49:44Z</time>
      </trkpt>
      <trkpt lat="45.47078" lon="5.59731">
        <ele>670.18</ele>
        <time>2017-10-05T08:50:05Z</time>
      </trkpt>
      <trkpt lat="45.47079" lon="5.59731">
        <ele>677.39</ele>
        <time>2017-10-05T08:50:06Z</time>
      </trkpt>
      <trkpt lat="45.47079" lon="5.59731">
        <ele>674.02</ele>
        <time>2017-10-05T08:50:07Z</time>
      </trkpt>
      <trkpt lat="45.47079" lon="5.5973">
        <ele>674.02</ele>
        <time>2017-10-05T08:50:22Z</time>
      </trkpt>
      <trkpt lat="45.47079" lon="5.59728">
        <ele>674.02</ele>
        <time>2017-10-05T08:50:48Z</time>
      </trkpt>
      <trkpt lat="45.47079" lon="5.59728">
        <ele>674.02</ele>
        <time>2017-10-05T08:51:19Z</time>
      </trkpt>
      <trkpt lat="45.47079" lon="5.59728">
        <ele>674.02</ele>
        <time>2017-10-05T08:51:21Z</time>
      </trkpt>
      <trkpt lat="45.47081" lon="5.59722">
        <ele>674.02</ele>
        <time>2017-10-05T08:51:32Z</time>
      </trkpt>
      <trkpt lat="45.47081" lon="5.59717">
        <ele>674.02</ele>
        <time>2017-10-05T08:51:57Z</time>
      </trkpt>
      <trkpt lat="45.47083" lon="5.59705">
        <ele>674.02</ele>
        <time>2017-10-05T08:52:03Z</time>
      </trkpt>
      <trkpt lat="45.4709" lon="5.59681">
        <ele>673.54</ele>
        <time>2017-10-05T08:52:17Z</time>
      </trkpt>
      <trkpt lat="45.47094" lon="5.59652">
        <ele>672.1</ele>
        <time>2017-10-05T08:52:33Z</time>
      </trkpt>
      <trkpt lat="45.47099" lon="5.5963">
        <ele>670.66</ele>
        <time>2017-10-05T08:52:48Z</time>
      </trkpt>
      <trkpt lat="45.47099" lon="5.5963">
        <ele>670.66</ele>
        <time>2017-10-05T08:52:53Z</time>
      </trkpt>
      <trkpt lat="45.47101" lon="5.59611">
        <ele>669.22</ele>
        <time>2017-10-05T08:53:06Z</time>
      </trkpt>
      <trkpt lat="45.47102" lon="5.59607">
        <ele>669.22</ele>
        <time>2017-10-05T08:53:17Z</time>
      </trkpt>
      <trkpt lat="45.47102" lon="5.59606">
        <ele>668.25</ele>
        <time>2017-10-05T08:53:30Z</time>
      </trkpt>
      <trkpt lat="45.47101" lon="5.59605">
        <ele>668.25</ele>
        <time>2017-10-05T08:53:59Z</time>
      </trkpt>
      <trkpt lat="45.471" lon="5.59605">
        <ele>668.25</ele>
        <time>2017-10-05T08:54:23Z</time>
      </trkpt>
      <trkpt lat="45.47095" lon="5.59604">
        <ele>668.73</ele>
        <time>2017-10-05T08:54:29Z</time>
      </trkpt>
      <trkpt lat="45.47087" lon="5.59597">
        <ele>668.73</ele>
        <time>2017-10-05T08:54:36Z</time>
      </trkpt>
      <trkpt lat="45.47077" lon="5.59587">
        <ele>668.73</ele>
        <time>2017-10-05T08:54:47Z</time>
      </trkpt>
      <trkpt lat="45.47073" lon="5.59583">
        <ele>668.25</ele>
        <time>2017-10-05T08:54:49Z</time>
      </trkpt>
      <trkpt lat="45.47063" lon="5.59574">
        <ele>667.29</ele>
        <time>2017-10-05T08:54:53Z</time>
      </trkpt>
      <trkpt lat="45.4705" lon="5.59564">
        <ele>664.89</ele>
        <time>2017-10-05T08:54:58Z</time>
      </trkpt>
      <trkpt lat="45.47031" lon="5.59544">
        <ele>661.52</ele>
        <time>2017-10-05T08:55:05Z</time>
      </trkpt>
      <trkpt lat="45.47017" lon="5.59523">
        <ele>658.64</ele>
        <time>2017-10-05T08:55:13Z</time>
      </trkpt>
      <trkpt lat="45.46996" lon="5.59504">
        <ele>655.28</ele>
        <time>2017-10-05T08:55:21Z</time>
      </trkpt>
      <trkpt lat="45.46973" lon="5.59488">
        <ele>651.91</ele>
        <time>2017-10-05T08:55:30Z</time>
      </trkpt>
      <trkpt lat="45.46949" lon="5.59468">
        <ele>649.03</ele>
        <time>2017-10-05T08:55:39Z</time>
      </trkpt>
      <trkpt lat="45.46929" lon="5.59459">
        <ele>645.66</ele>
        <time>2017-10-05T08:55:46Z</time>
      </trkpt>
      <trkpt lat="45.46909" lon="5.59446">
        <ele>643.26</ele>
        <time>2017-10-05T08:55:55Z</time>
      </trkpt>
      <trkpt lat="45.46873" lon="5.59443">
        <ele>640.38</ele>
        <time>2017-10-05T08:56:06Z</time>
      </trkpt>
      <trkpt lat="45.46858" lon="5.59452">
        <ele>638.93</ele>
        <time>2017-10-05T08:56:10Z</time>
      </trkpt>
      <trkpt lat="45.46836" lon="5.5947">
        <ele>636.53</ele>
        <time>2017-10-05T08:56:16Z</time>
      </trkpt>
      <trkpt lat="45.46803" lon="5.59497">
        <ele>633.17</ele>
        <time>2017-10-05T08:56:23Z</time>
      </trkpt>
      <trkpt lat="45.46798" lon="5.59501">
        <ele>633.17</ele>
        <time>2017-10-05T08:56:24Z</time>
      </trkpt>
      <trkpt lat="45.46795" lon="5.59506">
        <ele>632.68</ele>
        <time>2017-10-05T08:56:25Z</time>
      </trkpt>
      <trkpt lat="45.46783" lon="5.59522">
        <ele>632.2</ele>
        <time>2017-10-05T08:56:30Z</time>
      </trkpt>
      <trkpt lat="45.46782" lon="5.59524">
        <ele>632.2</ele>
        <time>2017-10-05T08:56:31Z</time>
      </trkpt>
      <trkpt lat="45.46777" lon="5.59528">
        <ele>631.72</ele>
        <time>2017-10-05T08:56:43Z</time>
      </trkpt>
      <trkpt lat="45.46776" lon="5.59529">
        <ele>631.72</ele>
        <time>2017-10-05T08:56:44Z</time>
      </trkpt>
      <trkpt lat="45.46772" lon="5.59529">
        <ele>631.24</ele>
        <time>2017-10-05T08:56:46Z</time>
      </trkpt>
      <trkpt lat="45.4677" lon="5.59529">
        <ele>631.24</ele>
        <time>2017-10-05T08:56:47Z</time>
      </trkpt>
      <trkpt lat="45.46768" lon="5.59528">
        <ele>633.65</ele>
        <time>2017-10-05T08:57:01Z</time>
      </trkpt>
      <trkpt lat="45.46764" lon="5.59525">
        <ele>630.76</ele>
        <time>2017-10-05T08:57:18Z</time>
      </trkpt>
      <trkpt lat="45.4676" lon="5.59519">
        <ele>631.72</ele>
        <time>2017-10-05T08:57:32Z</time>
      </trkpt>
      <trkpt lat="45.46753" lon="5.59513">
        <ele>629.8</ele>
        <time>2017-10-05T08:57:44Z</time>
      </trkpt>
      <trkpt lat="45.46753" lon="5.59511">
        <ele>624.99</ele>
        <time>2017-10-05T08:57:54Z</time>
      </trkpt>
      <trkpt lat="45.46753" lon="5.59511">
        <ele>629.8</ele>
        <time>2017-10-05T08:57:55Z</time>
      </trkpt>
      <trkpt lat="45.46753" lon="5.5951">
        <ele>629.8</ele>
        <time>2017-10-05T08:58:09Z</time>
      </trkpt>
      <trkpt lat="45.46753" lon="5.5951">
        <ele>629.8</ele>
        <time>2017-10-05T08:58:10Z</time>
      </trkpt>
      <trkpt lat="45.46754" lon="5.59512">
        <ele>629.8</ele>
        <time>2017-10-05T08:58:13Z</time>
      </trkpt>
      <trkpt lat="45.46755" lon="5.59513">
        <ele>630.28</ele>
        <time>2017-10-05T08:58:16Z</time>
      </trkpt>
      <trkpt lat="45.46767" lon="5.59535">
        <ele>631.72</ele>
        <time>2017-10-05T08:58:28Z</time>
      </trkpt>
      <trkpt lat="45.46768" lon="5.59534">
        <ele>631.72</ele>
        <time>2017-10-05T08:58:47Z</time>
      </trkpt>
      <trkpt lat="45.46786" lon="5.59519">
        <ele>632.68</ele>
        <time>2017-10-05T08:58:59Z</time>
      </trkpt>
      <trkpt lat="45.46796" lon="5.59503">
        <ele>633.17</ele>
        <time>2017-10-05T08:59:06Z</time>
      </trkpt>
      <trkpt lat="45.46797" lon="5.59499">
        <ele>633.65</ele>
        <time>2017-10-05T08:59:18Z</time>
      </trkpt>
      <trkpt lat="45.46803" lon="5.59496">
        <ele>634.13</ele>
        <time>2017-10-05T08:59:23Z</time>
      </trkpt>
      <trkpt lat="45.46817" lon="5.59485">
        <ele>636.05</ele>
        <time>2017-10-05T08:59:37Z</time>
      </trkpt>
      <trkpt lat="45.46817" lon="5.59485">
        <ele>635.57</ele>
        <time>2017-10-05T08:59:38Z</time>
      </trkpt>
      <trkpt lat="45.46818" lon="5.59482">
        <ele>635.57</ele>
        <time>2017-10-05T08:59:40Z</time>
      </trkpt>
      <trkpt lat="45.46819" lon="5.59479">
        <ele>635.57</ele>
        <time>2017-10-05T08:59:58Z</time>
      </trkpt>
      <trkpt lat="45.46822" lon="5.59478">
        <ele>636.05</ele>
        <time>2017-10-05T09:00:21Z</time>
      </trkpt>
      <trkpt lat="45.46839" lon="5.59466">
        <ele>637.49</ele>
        <time>2017-10-05T09:00:33Z</time>
      </trkpt>
      <trkpt lat="45.46858" lon="5.59452">
        <ele>639.41</ele>
        <time>2017-10-05T09:00:45Z</time>
      </trkpt>
      <trkpt lat="45.46867" lon="5.59448">
        <ele>640.38</ele>
        <time>2017-10-05T09:00:51Z</time>
      </trkpt>
      <trkpt lat="45.46872" lon="5.59447">
        <ele>640.86</ele>
        <time>2017-10-05T09:00:54Z</time>
      </trkpt>
      <trkpt lat="45.46895" lon="5.59446">
        <ele>642.3</ele>
        <time>2017-10-05T09:01:06Z</time>
      </trkpt>
      <trkpt lat="45.46907" lon="5.59444">
        <ele>643.74</ele>
        <time>2017-10-05T09:01:12Z</time>
      </trkpt>
      <trkpt lat="45.46912" lon="5.59408">
        <ele>643.74</ele>
        <time>2017-10-05T09:01:25Z</time>
      </trkpt>
      <trkpt lat="45.46889" lon="5.59377">
        <ele>644.7</ele>
        <time>2017-10-05T09:01:37Z</time>
      </trkpt>
      <trkpt lat="45.46867" lon="5.59336">
        <ele>647.59</ele>
        <time>2017-10-05T09:01:52Z</time>
      </trkpt>
      <trkpt lat="45.4685" lon="5.59295">
        <ele>650.95</ele>
        <time>2017-10-05T09:02:05Z</time>
      </trkpt>
      <trkpt lat="45.46842" lon="5.59269">
        <ele>648.55</ele>
        <time>2017-10-05T09:02:14Z</time>
      </trkpt>
      <trkpt lat="45.46828" lon="5.59241">
        <ele>648.07</ele>
        <time>2017-10-05T09:02:26Z</time>
      </trkpt>
      <trkpt lat="45.46818" lon="5.59216">
        <ele>648.07</ele>
        <time>2017-10-05T09:02:34Z</time>
      </trkpt>
      <trkpt lat="45.46814" lon="5.59195">
        <ele>647.1</ele>
        <time>2017-10-05T09:02:46Z</time>
      </trkpt>
      <trkpt lat="45.46815" lon="5.59198">
        <ele>647.1</ele>
        <time>2017-10-05T09:03:12Z</time>
      </trkpt>
      <trkpt lat="45.46815" lon="5.59197">
        <ele>647.1</ele>
        <time>2017-10-05T09:03:44Z</time>
      </trkpt>
      <trkpt lat="45.46814" lon="5.59195">
        <ele>647.1</ele>
        <time>2017-10-05T09:04:05Z</time>
      </trkpt>
      <trkpt lat="45.46812" lon="5.59193">
        <ele>642.78</ele>
        <time>2017-10-05T09:04:11Z</time>
      </trkpt>
      <trkpt lat="45.46812" lon="5.59193">
        <ele>649.51</ele>
        <time>2017-10-05T09:04:12Z</time>
      </trkpt>
      <trkpt lat="45.46812" lon="5.59193">
        <ele>642.78</ele>
        <time>2017-10-05T09:04:15Z</time>
      </trkpt>
      <trkpt lat="45.46812" lon="5.59193">
        <ele>651.43</ele>
        <time>2017-10-05T09:04:16Z</time>
      </trkpt>
      <trkpt lat="45.46812" lon="5.59193">
        <ele>647.1</ele>
        <time>2017-10-05T09:04:17Z</time>
      </trkpt>
      <trkpt lat="45.46812" lon="5.59193">
        <ele>647.1</ele>
        <time>2017-10-05T09:04:24Z</time>
      </trkpt>
      <trkpt lat="45.46806" lon="5.59176">
        <ele>645.66</ele>
        <time>2017-10-05T09:04:29Z</time>
      </trkpt>
      <trkpt lat="45.46803" lon="5.5917">
        <ele>645.66</ele>
        <time>2017-10-05T09:04:30Z</time>
      </trkpt>
      <trkpt lat="45.468" lon="5.59165">
        <ele>645.18</ele>
        <time>2017-10-05T09:04:31Z</time>
      </trkpt>
      <trkpt lat="45.46795" lon="5.59159">
        <ele>644.7</ele>
        <time>2017-10-05T09:04:32Z</time>
      </trkpt>
      <trkpt lat="45.46791" lon="5.59153">
        <ele>639.89</ele>
        <time>2017-10-05T09:04:33Z</time>
      </trkpt>
      <trkpt lat="45.46785" lon="5.59148">
        <ele>645.18</ele>
        <time>2017-10-05T09:04:34Z</time>
      </trkpt>
      <trkpt lat="45.46759" lon="5.59125">
        <ele>642.78</ele>
        <time>2017-10-05T09:04:39Z</time>
      </trkpt>
      <trkpt lat="45.46733" lon="5.59107">
        <ele>642.78</ele>
        <time>2017-10-05T09:04:45Z</time>
      </trkpt>
      <trkpt lat="45.46689" lon="5.59049">
        <ele>642.3</ele>
        <time>2017-10-05T09:04:59Z</time>
      </trkpt>
      <trkpt lat="45.46672" lon="5.59025">
        <ele>641.82</ele>
        <time>2017-10-05T09:05:05Z</time>
      </trkpt>
      <trkpt lat="45.46665" lon="5.59011">
        <ele>640.86</ele>
        <time>2017-10-05T09:05:08Z</time>
      </trkpt>
      <trkpt lat="45.46662" lon="5.59006">
        <ele>640.86</ele>
        <time>2017-10-05T09:05:09Z</time>
      </trkpt>
      <trkpt lat="45.46646" lon="5.58965">
        <ele>639.41</ele>
        <time>2017-10-05T09:05:16Z</time>
      </trkpt>
      <trkpt lat="45.46645" lon="5.58958">
        <ele>639.41</ele>
        <time>2017-10-05T09:05:17Z</time>
      </trkpt>
      <trkpt lat="45.46644" lon="5.58951">
        <ele>638.93</ele>
        <time>2017-10-05T09:05:18Z</time>
      </trkpt>
      <trkpt lat="45.46644" lon="5.58943">
        <ele>638.93</ele>
        <time>2017-10-05T09:05:19Z</time>
      </trkpt>
      <trkpt lat="45.46645" lon="5.58935">
        <ele>638.45</ele>
        <time>2017-10-05T09:05:20Z</time>
      </trkpt>
      <trkpt lat="45.46646" lon="5.58921">
        <ele>638.45</ele>
        <time>2017-10-05T09:05:22Z</time>
      </trkpt>
      <trkpt lat="45.46646" lon="5.58916">
        <ele>638.93</ele>
        <time>2017-10-05T09:05:23Z</time>
      </trkpt>
      <trkpt lat="45.46647" lon="5.58911">
        <ele>638.93</ele>
        <time>2017-10-05T09:05:24Z</time>
      </trkpt>
      <trkpt lat="45.46648" lon="5.58894">
        <ele>637.97</ele>
        <time>2017-10-05T09:05:28Z</time>
      </trkpt>
      <trkpt lat="45.46647" lon="5.5889">
        <ele>637.01</ele>
        <time>2017-10-05T09:05:29Z</time>
      </trkpt>
      <trkpt lat="45.46646" lon="5.58886">
        <ele>636.53</ele>
        <time>2017-10-05T09:05:30Z</time>
      </trkpt>
      <trkpt lat="45.46644" lon="5.58883">
        <ele>635.57</ele>
        <time>2017-10-05T09:05:31Z</time>
      </trkpt>
      <trkpt lat="45.46642" lon="5.5888">
        <ele>635.09</ele>
        <time>2017-10-05T09:05:32Z</time>
      </trkpt>
      <trkpt lat="45.46639" lon="5.58878">
        <ele>634.61</ele>
        <time>2017-10-05T09:05:33Z</time>
      </trkpt>
      <trkpt lat="45.46635" lon="5.58877">
        <ele>634.13</ele>
        <time>2017-10-05T09:05:34Z</time>
      </trkpt>
      <trkpt lat="45.4663" lon="5.58878">
        <ele>633.17</ele>
        <time>2017-10-05T09:05:35Z</time>
      </trkpt>
      <trkpt lat="45.46625" lon="5.58879">
        <ele>632.2</ele>
        <time>2017-10-05T09:05:36Z</time>
      </trkpt>
      <trkpt lat="45.46621" lon="5.58882">
        <ele>631.72</ele>
        <time>2017-10-05T09:05:37Z</time>
      </trkpt>
      <trkpt lat="45.46616" lon="5.58885">
        <ele>631.24</ele>
        <time>2017-10-05T09:05:38Z</time>
      </trkpt>
      <trkpt lat="45.466" lon="5.58898">
        <ele>628.36</ele>
        <time>2017-10-05T09:05:41Z</time>
      </trkpt>
      <trkpt lat="45.46584" lon="5.58914">
        <ele>625.96</ele>
        <time>2017-10-05T09:05:44Z</time>
      </trkpt>
      <trkpt lat="45.46578" lon="5.58916">
        <ele>624.99</ele>
        <time>2017-10-05T09:05:45Z</time>
      </trkpt>
      <trkpt lat="45.46555" lon="5.5892">
        <ele>621.63</ele>
        <time>2017-10-05T09:05:48Z</time>
      </trkpt>
      <trkpt lat="45.46539" lon="5.58922">
        <ele>620.19</ele>
        <time>2017-10-05T09:05:50Z</time>
      </trkpt>
      <trkpt lat="45.46509" lon="5.5893">
        <ele>617.78</ele>
        <time>2017-10-05T09:05:54Z</time>
      </trkpt>
      <trkpt lat="45.46488" lon="5.5893">
        <ele>615.38</ele>
        <time>2017-10-05T09:05:58Z</time>
      </trkpt>
      <trkpt lat="45.46483" lon="5.58929">
        <ele>614.42</ele>
        <time>2017-10-05T09:05:59Z</time>
      </trkpt>
      <trkpt lat="45.46478" lon="5.58929">
        <ele>613.94</ele>
        <time>2017-10-05T09:06:00Z</time>
      </trkpt>
      <trkpt lat="45.46474" lon="5.5893">
        <ele>612.98</ele>
        <time>2017-10-05T09:06:01Z</time>
      </trkpt>
      <trkpt lat="45.4647" lon="5.58931">
        <ele>612.5</ele>
        <time>2017-10-05T09:06:02Z</time>
      </trkpt>
      <trkpt lat="45.46466" lon="5.58931">
        <ele>611.54</ele>
        <time>2017-10-05T09:06:03Z</time>
      </trkpt>
      <trkpt lat="45.46462" lon="5.58931">
        <ele>611.06</ele>
        <time>2017-10-05T09:06:04Z</time>
      </trkpt>
      <trkpt lat="45.46457" lon="5.58932">
        <ele>610.09</ele>
        <time>2017-10-05T09:06:05Z</time>
      </trkpt>
      <trkpt lat="45.46439" lon="5.58937">
        <ele>606.73</ele>
        <time>2017-10-05T09:06:09Z</time>
      </trkpt>
      <trkpt lat="45.46422" lon="5.5894">
        <ele>603.36</ele>
        <time>2017-10-05T09:06:13Z</time>
      </trkpt>
      <trkpt lat="45.46417" lon="5.58941">
        <ele>602.88</ele>
        <time>2017-10-05T09:06:14Z</time>
      </trkpt>
      <trkpt lat="45.46397" lon="5.58944">
        <ele>598.56</ele>
        <time>2017-10-05T09:06:17Z</time>
      </trkpt>
      <trkpt lat="45.4639" lon="5.58944">
        <ele>598.08</ele>
        <time>2017-10-05T09:06:18Z</time>
      </trkpt>
      <trkpt lat="45.46384" lon="5.58943">
        <ele>597.12</ele>
        <time>2017-10-05T09:06:19Z</time>
      </trkpt>
      <trkpt lat="45.46358" lon="5.5894">
        <ele>594.23</ele>
        <time>2017-10-05T09:06:24Z</time>
      </trkpt>
      <trkpt lat="45.46354" lon="5.58939">
        <ele>593.75</ele>
        <time>2017-10-05T09:06:25Z</time>
      </trkpt>
      <trkpt lat="45.46349" lon="5.58937">
        <ele>592.79</ele>
        <time>2017-10-05T09:06:26Z</time>
      </trkpt>
      <trkpt lat="45.46345" lon="5.58936">
        <ele>592.31</ele>
        <time>2017-10-05T09:06:27Z</time>
      </trkpt>
      <trkpt lat="45.46341" lon="5.58935">
        <ele>591.83</ele>
        <time>2017-10-05T09:06:28Z</time>
      </trkpt>
      <trkpt lat="45.46337" lon="5.58934">
        <ele>590.87</ele>
        <time>2017-10-05T09:06:29Z</time>
      </trkpt>
      <trkpt lat="45.46316" lon="5.5893">
        <ele>587.98</ele>
        <time>2017-10-05T09:06:34Z</time>
      </trkpt>
      <trkpt lat="45.46301" lon="5.58925">
        <ele>585.58</ele>
        <time>2017-10-05T09:06:37Z</time>
      </trkpt>
      <trkpt lat="45.46287" lon="5.58924">
        <ele>581.73</ele>
        <time>2017-10-05T09:06:40Z</time>
      </trkpt>
      <trkpt lat="45.46269" lon="5.58927">
        <ele>578.37</ele>
        <time>2017-10-05T09:06:44Z</time>
      </trkpt>
      <trkpt lat="45.46259" lon="5.58927">
        <ele>576.93</ele>
        <time>2017-10-05T09:06:46Z</time>
      </trkpt>
      <trkpt lat="45.46253" lon="5.58927">
        <ele>575.97</ele>
        <time>2017-10-05T09:06:47Z</time>
      </trkpt>
      <trkpt lat="45.46248" lon="5.58928">
        <ele>575.01</ele>
        <time>2017-10-05T09:06:48Z</time>
      </trkpt>
      <trkpt lat="45.46242" lon="5.58929">
        <ele>574.04</ele>
        <time>2017-10-05T09:06:49Z</time>
      </trkpt>
      <trkpt lat="45.46238" lon="5.58932">
        <ele>573.08</ele>
        <time>2017-10-05T09:06:50Z</time>
      </trkpt>
      <trkpt lat="45.46233" lon="5.58935">
        <ele>572.12</ele>
        <time>2017-10-05T09:06:51Z</time>
      </trkpt>
      <trkpt lat="45.46228" lon="5.58938">
        <ele>571.16</ele>
        <time>2017-10-05T09:06:52Z</time>
      </trkpt>
      <trkpt lat="45.46223" lon="5.58942">
        <ele>570.2</ele>
        <time>2017-10-05T09:06:53Z</time>
      </trkpt>
      <trkpt lat="45.46218" lon="5.58945">
        <ele>569.24</ele>
        <time>2017-10-05T09:06:54Z</time>
      </trkpt>
      <trkpt lat="45.46214" lon="5.58947">
        <ele>568.28</ele>
        <time>2017-10-05T09:06:55Z</time>
      </trkpt>
      <trkpt lat="45.46209" lon="5.58949">
        <ele>567.32</ele>
        <time>2017-10-05T09:06:56Z</time>
      </trkpt>
      <trkpt lat="45.46201" lon="5.58949">
        <ele>565.87</ele>
        <time>2017-10-05T09:06:58Z</time>
      </trkpt>
      <trkpt lat="45.46178" lon="5.58944">
        <ele>562.03</ele>
        <time>2017-10-05T09:07:02Z</time>
      </trkpt>
      <trkpt lat="45.46156" lon="5.58943">
        <ele>556.26</ele>
        <time>2017-10-05T09:07:05Z</time>
      </trkpt>
      <trkpt lat="45.46142" lon="5.58943">
        <ele>553.86</ele>
        <time>2017-10-05T09:07:07Z</time>
      </trkpt>
      <trkpt lat="45.46136" lon="5.58941">
        <ele>552.41</ele>
        <time>2017-10-05T09:07:08Z</time>
      </trkpt>
      <trkpt lat="45.46131" lon="5.5894">
        <ele>550.97</ele>
        <time>2017-10-05T09:07:09Z</time>
      </trkpt>
      <trkpt lat="45.46126" lon="5.58939">
        <ele>550.01</ele>
        <time>2017-10-05T09:07:10Z</time>
      </trkpt>
      <trkpt lat="45.46122" lon="5.58938">
        <ele>549.53</ele>
        <time>2017-10-05T09:07:11Z</time>
      </trkpt>
      <trkpt lat="45.46119" lon="5.58939">
        <ele>548.57</ele>
        <time>2017-10-05T09:07:12Z</time>
      </trkpt>
      <trkpt lat="45.46117" lon="5.58941">
        <ele>548.57</ele>
        <time>2017-10-05T09:07:13Z</time>
      </trkpt>
      <trkpt lat="45.46116" lon="5.58946">
        <ele>547.61</ele>
        <time>2017-10-05T09:07:14Z</time>
      </trkpt>
      <trkpt lat="45.46115" lon="5.58952">
        <ele>547.13</ele>
        <time>2017-10-05T09:07:15Z</time>
      </trkpt>
      <trkpt lat="45.46116" lon="5.58958">
        <ele>547.13</ele>
        <time>2017-10-05T09:07:16Z</time>
      </trkpt>
      <trkpt lat="45.46118" lon="5.58966">
        <ele>546.65</ele>
        <time>2017-10-05T09:07:17Z</time>
      </trkpt>
      <trkpt lat="45.4612" lon="5.58973">
        <ele>546.65</ele>
        <time>2017-10-05T09:07:18Z</time>
      </trkpt>
      <trkpt lat="45.46127" lon="5.59019">
        <ele>545.2</ele>
        <time>2017-10-05T09:07:24Z</time>
      </trkpt>
      <trkpt lat="45.46126" lon="5.59056">
        <ele>545.69</ele>
        <time>2017-10-05T09:07:29Z</time>
      </trkpt>
      <trkpt lat="45.46124" lon="5.59074">
        <ele>545.69</ele>
        <time>2017-10-05T09:07:32Z</time>
      </trkpt>
      <trkpt lat="45.46123" lon="5.5908">
        <ele>545.69</ele>
        <time>2017-10-05T09:07:33Z</time>
      </trkpt>
      <trkpt lat="45.46122" lon="5.59085">
        <ele>545.69</ele>
        <time>2017-10-05T09:07:34Z</time>
      </trkpt>
      <trkpt lat="45.46106" lon="5.59149">
        <ele>546.17</ele>
        <time>2017-10-05T09:07:48Z</time>
      </trkpt>
      <trkpt lat="45.46109" lon="5.59158">
        <ele>545.69</ele>
        <time>2017-10-05T09:07:50Z</time>
      </trkpt>
      <trkpt lat="45.46149" lon="5.59224">
        <ele>548.57</ele>
        <time>2017-10-05T09:08:07Z</time>
      </trkpt>
      <trkpt lat="45.46185" lon="5.59284">
        <ele>550.01</ele>
        <time>2017-10-05T09:08:22Z</time>
      </trkpt>
      <trkpt lat="45.46226" lon="5.59359">
        <ele>550.97</ele>
        <time>2017-10-05T09:08:39Z</time>
      </trkpt>
      <trkpt lat="45.46242" lon="5.59386">
        <ele>550.49</ele>
        <time>2017-10-05T09:08:45Z</time>
      </trkpt>
      <trkpt lat="45.46245" lon="5.5939">
        <ele>550.49</ele>
        <time>2017-10-05T09:08:46Z</time>
      </trkpt>
      <trkpt lat="45.46251" lon="5.59401">
        <ele>550.01</ele>
        <time>2017-10-05T09:08:48Z</time>
      </trkpt>
      <trkpt lat="45.46305" lon="5.59484">
        <ele>548.09</ele>
        <time>2017-10-05T09:09:02Z</time>
      </trkpt>
      <trkpt lat="45.46349" lon="5.59552">
        <ele>549.05</ele>
        <time>2017-10-05T09:09:15Z</time>
      </trkpt>
      <trkpt lat="45.46388" lon="5.596">
        <ele>550.01</ele>
        <time>2017-10-05T09:09:26Z</time>
      </trkpt>
      <trkpt lat="45.46395" lon="5.5961">
        <ele>549.53</ele>
        <time>2017-10-05T09:09:28Z</time>
      </trkpt>
      <trkpt lat="45.46398" lon="5.59616">
        <ele>549.53</ele>
        <time>2017-10-05T09:09:29Z</time>
      </trkpt>
      <trkpt lat="45.46408" lon="5.59637">
        <ele>548.57</ele>
        <time>2017-10-05T09:09:32Z</time>
      </trkpt>
      <trkpt lat="45.46432" lon="5.59689">
        <ele>546.65</ele>
        <time>2017-10-05T09:09:39Z</time>
      </trkpt>
      <trkpt lat="45.46437" lon="5.59705">
        <ele>546.65</ele>
        <time>2017-10-05T09:09:41Z</time>
      </trkpt>
      <trkpt lat="45.46476" lon="5.59806">
        <ele>543.76</ele>
        <time>2017-10-05T09:09:53Z</time>
      </trkpt>
      <trkpt lat="45.46523" lon="5.59937">
        <ele>543.76</ele>
        <time>2017-10-05T09:10:10Z</time>
      </trkpt>
      <trkpt lat="45.46554" lon="5.60037">
        <ele>545.2</ele>
        <time>2017-10-05T09:10:26Z</time>
      </trkpt>
      <trkpt lat="45.46574" lon="5.60107">
        <ele>545.69</ele>
        <time>2017-10-05T09:10:38Z</time>
      </trkpt>
      <trkpt lat="45.46579" lon="5.6013">
        <ele>545.69</ele>
        <time>2017-10-05T09:10:42Z</time>
      </trkpt>
      <trkpt lat="45.4659" lon="5.60173">
        <ele>546.65</ele>
        <time>2017-10-05T09:10:50Z</time>
      </trkpt>
      <trkpt lat="45.46591" lon="5.60179">
        <ele>546.65</ele>
        <time>2017-10-05T09:10:51Z</time>
      </trkpt>
      <trkpt lat="45.46605" lon="5.60234">
        <ele>548.09</ele>
        <time>2017-10-05T09:11:03Z</time>
      </trkpt>
      <trkpt lat="45.46627" lon="5.60298">
        <ele>548.57</ele>
        <time>2017-10-05T09:11:17Z</time>
      </trkpt>
      <trkpt lat="45.46648" lon="5.60386">
        <ele>549.53</ele>
        <time>2017-10-05T09:11:34Z</time>
      </trkpt>
      <trkpt lat="45.46654" lon="5.6045">
        <ele>550.97</ele>
        <time>2017-10-05T09:11:46Z</time>
      </trkpt>
      <trkpt lat="45.46659" lon="5.60513">
        <ele>554.34</ele>
        <time>2017-10-05T09:12:02Z</time>
      </trkpt>
      <trkpt lat="45.46661" lon="5.60564">
        <ele>557.22</ele>
        <time>2017-10-05T09:12:17Z</time>
      </trkpt>
      <trkpt lat="45.46666" lon="5.60606">
        <ele>560.59</ele>
        <time>2017-10-05T09:12:31Z</time>
      </trkpt>
      <trkpt lat="45.46675" lon="5.6066">
        <ele>563.47</ele>
        <time>2017-10-05T09:12:49Z</time>
      </trkpt>
      <trkpt lat="45.46673" lon="5.6069">
        <ele>566.35</ele>
        <time>2017-10-05T09:13:02Z</time>
      </trkpt>
      <trkpt lat="45.46668" lon="5.60707">
        <ele>568.28</ele>
        <time>2017-10-05T09:13:11Z</time>
      </trkpt>
      <trkpt lat="45.46667" lon="5.60707">
        <ele>568.28</ele>
        <time>2017-10-05T09:13:12Z</time>
      </trkpt>
      <trkpt lat="45.46666" lon="5.60706">
        <ele>568.76</ele>
        <time>2017-10-05T09:13:13Z</time>
      </trkpt>
      <trkpt lat="45.46665" lon="5.60706">
        <ele>569.24</ele>
        <time>2017-10-05T09:13:14Z</time>
      </trkpt>
      <trkpt lat="45.46664" lon="5.60706">
        <ele>569.24</ele>
        <time>2017-10-05T09:13:15Z</time>
      </trkpt>
      <trkpt lat="45.46647" lon="5.6071">
        <ele>572.12</ele>
        <time>2017-10-05T09:13:29Z</time>
      </trkpt>
      <trkpt lat="45.46634" lon="5.60718">
        <ele>573.56</ele>
        <time>2017-10-05T09:13:40Z</time>
      </trkpt>
      <trkpt lat="45.4662" lon="5.6073">
        <ele>575.97</ele>
        <time>2017-10-05T09:13:53Z</time>
      </trkpt>
      <trkpt lat="45.46617" lon="5.60734">
        <ele>576.93</ele>
        <time>2017-10-05T09:13:58Z</time>
      </trkpt>
      <trkpt lat="45.46606" lon="5.60738">
        <ele>578.85</ele>
        <time>2017-10-05T09:14:09Z</time>
      </trkpt>
      <trkpt lat="45.46596" lon="5.60749">
        <ele>580.77</ele>
        <time>2017-10-05T09:14:18Z</time>
      </trkpt>
      <trkpt lat="45.46593" lon="5.60757">
        <ele>581.73</ele>
        <time>2017-10-05T09:14:25Z</time>
      </trkpt>
      <trkpt lat="45.4659" lon="5.60771">
        <ele>583.66</ele>
        <time>2017-10-05T09:14:34Z</time>
      </trkpt>
      <trkpt lat="45.46585" lon="5.60782">
        <ele>585.58</ele>
        <time>2017-10-05T09:14:41Z</time>
      </trkpt>
      <trkpt lat="45.46583" lon="5.60785">
        <ele>586.06</ele>
        <time>2017-10-05T09:14:43Z</time>
      </trkpt>
      <trkpt lat="45.46581" lon="5.60791">
        <ele>587.02</ele>
        <time>2017-10-05T09:14:48Z</time>
      </trkpt>
      <trkpt lat="45.4658" lon="5.60793">
        <ele>587.02</ele>
        <time>2017-10-05T09:14:49Z</time>
      </trkpt>
      <trkpt lat="45.4658" lon="5.60796">
        <ele>587.02</ele>
        <time>2017-10-05T09:14:50Z</time>
      </trkpt>
      <trkpt lat="45.46577" lon="5.60806">
        <ele>587.98</ele>
        <time>2017-10-05T09:14:57Z</time>
      </trkpt>
      <trkpt lat="45.46572" lon="5.60815">
        <ele>589.91</ele>
        <time>2017-10-05T09:15:08Z</time>
      </trkpt>
      <trkpt lat="45.46569" lon="5.60825">
        <ele>592.31</ele>
        <time>2017-10-05T09:15:20Z</time>
      </trkpt>
      <trkpt lat="45.46559" lon="5.60834">
        <ele>594.23</ele>
        <time>2017-10-05T09:15:34Z</time>
      </trkpt>
      <trkpt lat="45.46554" lon="5.60838">
        <ele>595.67</ele>
        <time>2017-10-05T09:15:44Z</time>
      </trkpt>
      <trkpt lat="45.46543" lon="5.60847">
        <ele>598.08</ele>
        <time>2017-10-05T09:15:58Z</time>
      </trkpt>
      <trkpt lat="45.46537" lon="5.60849">
        <ele>598.56</ele>
        <time>2017-10-05T09:16:04Z</time>
      </trkpt>
      <trkpt lat="45.46532" lon="5.60854">
        <ele>600.96</ele>
        <time>2017-10-05T09:16:16Z</time>
      </trkpt>
      <trkpt lat="45.46525" lon="5.60858">
        <ele>602.88</ele>
        <time>2017-10-05T09:16:27Z</time>
      </trkpt>
      <trkpt lat="45.46515" lon="5.60862">
        <ele>605.29</ele>
        <time>2017-10-05T09:16:40Z</time>
      </trkpt>
      <trkpt lat="45.46506" lon="5.60866">
        <ele>607.21</ele>
        <time>2017-10-05T09:16:54Z</time>
      </trkpt>
      <trkpt lat="45.46495" lon="5.60869">
        <ele>609.61</ele>
        <time>2017-10-05T09:17:08Z</time>
      </trkpt>
      <trkpt lat="45.46487" lon="5.60873">
        <ele>611.06</ele>
        <time>2017-10-05T09:17:19Z</time>
      </trkpt>
      <trkpt lat="45.46479" lon="5.60875">
        <ele>613.46</ele>
        <time>2017-10-05T09:17:30Z</time>
      </trkpt>
      <trkpt lat="45.46473" lon="5.60882">
        <ele>616.34</ele>
        <time>2017-10-05T09:17:44Z</time>
      </trkpt>
      <trkpt lat="45.46464" lon="5.60888">
        <ele>618.26</ele>
        <time>2017-10-05T09:17:57Z</time>
      </trkpt>
      <trkpt lat="45.46457" lon="5.60893">
        <ele>620.19</ele>
        <time>2017-10-05T09:18:07Z</time>
      </trkpt>
      <trkpt lat="45.46445" lon="5.60896">
        <ele>622.11</ele>
        <time>2017-10-05T09:18:18Z</time>
      </trkpt>
      <trkpt lat="45.46433" lon="5.60901">
        <ele>624.51</ele>
        <time>2017-10-05T09:18:31Z</time>
      </trkpt>
      <trkpt lat="45.46426" lon="5.60901">
        <ele>625.96</ele>
        <time>2017-10-05T09:18:42Z</time>
      </trkpt>
      <trkpt lat="45.4642" lon="5.60904">
        <ele>627.88</ele>
        <time>2017-10-05T09:18:54Z</time>
      </trkpt>
      <trkpt lat="45.46417" lon="5.60906">
        <ele>628.36</ele>
        <time>2017-10-05T09:18:57Z</time>
      </trkpt>
      <trkpt lat="45.46407" lon="5.60911">
        <ele>629.8</ele>
        <time>2017-10-05T09:19:09Z</time>
      </trkpt>
      <trkpt lat="45.46392" lon="5.60917">
        <ele>632.2</ele>
        <time>2017-10-05T09:19:25Z</time>
      </trkpt>
      <trkpt lat="45.46391" lon="5.60917">
        <ele>632.2</ele>
        <time>2017-10-05T09:19:46Z</time>
      </trkpt>
      <trkpt lat="45.46391" lon="5.60918">
        <ele>632.2</ele>
        <time>2017-10-05T09:20:07Z</time>
      </trkpt>
      <trkpt lat="45.4639" lon="5.60916">
        <ele>632.2</ele>
        <time>2017-10-05T09:20:38Z</time>
      </trkpt>
      <trkpt lat="45.4639" lon="5.60916">
        <ele>632.2</ele>
        <time>2017-10-05T09:20:52Z</time>
      </trkpt>
      <trkpt lat="45.46387" lon="5.60918">
        <ele>632.2</ele>
        <time>2017-10-05T09:20:55Z</time>
      </trkpt>
      <trkpt lat="45.46385" lon="5.6092">
        <ele>632.68</ele>
        <time>2017-10-05T09:20:56Z</time>
      </trkpt>
      <trkpt lat="45.46384" lon="5.60921">
        <ele>632.68</ele>
        <time>2017-10-05T09:20:57Z</time>
      </trkpt>
      <trkpt lat="45.46382" lon="5.60923">
        <ele>632.68</ele>
        <time>2017-10-05T09:20:58Z</time>
      </trkpt>
      <trkpt lat="45.4638" lon="5.60924">
        <ele>632.68</ele>
        <time>2017-10-05T09:20:59Z</time>
      </trkpt>
      <trkpt lat="45.46379" lon="5.60926">
        <ele>632.68</ele>
        <time>2017-10-05T09:21:00Z</time>
      </trkpt>
      <trkpt lat="45.46356" lon="5.60953">
        <ele>634.61</ele>
        <time>2017-10-05T09:21:14Z</time>
      </trkpt>
      <trkpt lat="45.46343" lon="5.60986">
        <ele>636.53</ele>
        <time>2017-10-05T09:21:26Z</time>
      </trkpt>
      <trkpt lat="45.46341" lon="5.60988">
        <ele>636.53</ele>
        <time>2017-10-05T09:21:27Z</time>
      </trkpt>
      <trkpt lat="45.46341" lon="5.60991">
        <ele>636.53</ele>
        <time>2017-10-05T09:21:28Z</time>
      </trkpt>
      <trkpt lat="45.4634" lon="5.60994">
        <ele>636.53</ele>
        <time>2017-10-05T09:21:29Z</time>
      </trkpt>
      <trkpt lat="45.46339" lon="5.60999">
        <ele>636.05</ele>
        <time>2017-10-05T09:21:30Z</time>
      </trkpt>
      <trkpt lat="45.46339" lon="5.61005">
        <ele>635.57</ele>
        <time>2017-10-05T09:21:31Z</time>
      </trkpt>
      <trkpt lat="45.46339" lon="5.61011">
        <ele>635.09</ele>
        <time>2017-10-05T09:21:32Z</time>
      </trkpt>
      <trkpt lat="45.46339" lon="5.61018">
        <ele>635.09</ele>
        <time>2017-10-05T09:21:33Z</time>
      </trkpt>
      <trkpt lat="45.46339" lon="5.61025">
        <ele>634.61</ele>
        <time>2017-10-05T09:21:34Z</time>
      </trkpt>
      <trkpt lat="45.46342" lon="5.61071">
        <ele>634.13</ele>
        <time>2017-10-05T09:21:41Z</time>
      </trkpt>
      <trkpt lat="45.46343" lon="5.61076">
        <ele>634.13</ele>
        <time>2017-10-05T09:21:42Z</time>
      </trkpt>
      <trkpt lat="45.46348" lon="5.61094">
        <ele>634.61</ele>
        <time>2017-10-05T09:21:45Z</time>
      </trkpt>
      <trkpt lat="45.4635" lon="5.61099">
        <ele>634.13</ele>
        <time>2017-10-05T09:21:46Z</time>
      </trkpt>
      <trkpt lat="45.46363" lon="5.61122">
        <ele>634.61</ele>
        <time>2017-10-05T09:21:51Z</time>
      </trkpt>
      <trkpt lat="45.46366" lon="5.61126">
        <ele>634.61</ele>
        <time>2017-10-05T09:21:52Z</time>
      </trkpt>
      <trkpt lat="45.46369" lon="5.6113">
        <ele>634.61</ele>
        <time>2017-10-05T09:21:53Z</time>
      </trkpt>
      <trkpt lat="45.46372" lon="5.61134">
        <ele>634.61</ele>
        <time>2017-10-05T09:21:54Z</time>
      </trkpt>
      <trkpt lat="45.46374" lon="5.61137">
        <ele>634.61</ele>
        <time>2017-10-05T09:21:55Z</time>
      </trkpt>
      <trkpt lat="45.46376" lon="5.61141">
        <ele>635.09</ele>
        <time>2017-10-05T09:21:56Z</time>
      </trkpt>
      <trkpt lat="45.46379" lon="5.61144">
        <ele>635.09</ele>
        <time>2017-10-05T09:21:57Z</time>
      </trkpt>
      <trkpt lat="45.46382" lon="5.61148">
        <ele>635.09</ele>
        <time>2017-10-05T09:21:58Z</time>
      </trkpt>
      <trkpt lat="45.4642" lon="5.61223">
        <ele>633.65</ele>
        <time>2017-10-05T09:22:12Z</time>
      </trkpt>
      <trkpt lat="45.46429" lon="5.61242">
        <ele>633.65</ele>
        <time>2017-10-05T09:22:15Z</time>
      </trkpt>
      <trkpt lat="45.46457" lon="5.6129">
        <ele>635.09</ele>
        <time>2017-10-05T09:22:26Z</time>
      </trkpt>
      <trkpt lat="45.46459" lon="5.61294">
        <ele>635.09</ele>
        <time>2017-10-05T09:22:27Z</time>
      </trkpt>
      <trkpt lat="45.4646" lon="5.61299">
        <ele>635.09</ele>
        <time>2017-10-05T09:22:28Z</time>
      </trkpt>
      <trkpt lat="45.4646" lon="5.61303">
        <ele>635.09</ele>
        <time>2017-10-05T09:22:29Z</time>
      </trkpt>
      <trkpt lat="45.46461" lon="5.61307">
        <ele>635.57</ele>
        <time>2017-10-05T09:22:30Z</time>
      </trkpt>
      <trkpt lat="45.46463" lon="5.61312">
        <ele>635.57</ele>
        <time>2017-10-05T09:22:31Z</time>
      </trkpt>
      <trkpt lat="45.46472" lon="5.61363">
        <ele>634.13</ele>
        <time>2017-10-05T09:22:41Z</time>
      </trkpt>
      <trkpt lat="45.46474" lon="5.61369">
        <ele>634.13</ele>
        <time>2017-10-05T09:22:42Z</time>
      </trkpt>
      <trkpt lat="45.46475" lon="5.61375">
        <ele>634.13</ele>
        <time>2017-10-05T09:22:43Z</time>
      </trkpt>
      <trkpt lat="45.46475" lon="5.61394">
        <ele>633.65</ele>
        <time>2017-10-05T09:22:46Z</time>
      </trkpt>
      <trkpt lat="45.46476" lon="5.614">
        <ele>633.65</ele>
        <time>2017-10-05T09:22:47Z</time>
      </trkpt>
      <trkpt lat="45.46476" lon="5.61405">
        <ele>633.65</ele>
        <time>2017-10-05T09:22:48Z</time>
      </trkpt>
      <trkpt lat="45.46477" lon="5.61409">
        <ele>632.68</ele>
        <time>2017-10-05T09:22:49Z</time>
      </trkpt>
      <trkpt lat="45.46478" lon="5.61413">
        <ele>635.09</ele>
        <time>2017-10-05T09:22:50Z</time>
      </trkpt>
      <trkpt lat="45.46478" lon="5.61416">
        <ele>634.13</ele>
        <time>2017-10-05T09:22:51Z</time>
      </trkpt>
      <trkpt lat="45.46477" lon="5.6142">
        <ele>633.65</ele>
        <time>2017-10-05T09:22:52Z</time>
      </trkpt>
      <trkpt lat="45.46478" lon="5.61424">
        <ele>633.65</ele>
        <time>2017-10-05T09:22:53Z</time>
      </trkpt>
      <trkpt lat="45.46477" lon="5.61428">
        <ele>633.65</ele>
        <time>2017-10-05T09:22:54Z</time>
      </trkpt>
      <trkpt lat="45.46477" lon="5.61431">
        <ele>633.65</ele>
        <time>2017-10-05T09:22:55Z</time>
      </trkpt>
      <trkpt lat="45.46475" lon="5.61434">
        <ele>633.65</ele>
        <time>2017-10-05T09:22:56Z</time>
      </trkpt>
      <trkpt lat="45.46473" lon="5.61437">
        <ele>633.65</ele>
        <time>2017-10-05T09:22:57Z</time>
      </trkpt>
      <trkpt lat="45.4647" lon="5.61439">
        <ele>634.13</ele>
        <time>2017-10-05T09:22:58Z</time>
      </trkpt>
      <trkpt lat="45.46467" lon="5.61441">
        <ele>634.13</ele>
        <time>2017-10-05T09:22:59Z</time>
      </trkpt>
      <trkpt lat="45.46465" lon="5.61443">
        <ele>634.13</ele>
        <time>2017-10-05T09:23:00Z</time>
      </trkpt>
      <trkpt lat="45.46453" lon="5.61451">
        <ele>634.61</ele>
        <time>2017-10-05T09:23:05Z</time>
      </trkpt>
      <trkpt lat="45.46451" lon="5.61455">
        <ele>634.61</ele>
        <time>2017-10-05T09:23:06Z</time>
      </trkpt>
      <trkpt lat="45.4645" lon="5.61459">
        <ele>634.61</ele>
        <time>2017-10-05T09:23:07Z</time>
      </trkpt>
      <trkpt lat="45.4645" lon="5.61462">
        <ele>634.61</ele>
        <time>2017-10-05T09:23:08Z</time>
      </trkpt>
      <trkpt lat="45.46451" lon="5.61465">
        <ele>634.61</ele>
        <time>2017-10-05T09:23:09Z</time>
      </trkpt>
      <trkpt lat="45.46453" lon="5.61467">
        <ele>634.61</ele>
        <time>2017-10-05T09:23:10Z</time>
      </trkpt>
      <trkpt lat="45.46455" lon="5.61468">
        <ele>634.61</ele>
        <time>2017-10-05T09:23:11Z</time>
      </trkpt>
      <trkpt lat="45.46457" lon="5.61469">
        <ele>634.13</ele>
        <time>2017-10-05T09:23:12Z</time>
      </trkpt>
      <trkpt lat="45.46459" lon="5.61469">
        <ele>634.13</ele>
        <time>2017-10-05T09:23:13Z</time>
      </trkpt>
      <trkpt lat="45.46462" lon="5.6147">
        <ele>634.13</ele>
        <time>2017-10-05T09:23:14Z</time>
      </trkpt>
      <trkpt lat="45.46466" lon="5.6147">
        <ele>633.65</ele>
        <time>2017-10-05T09:23:15Z</time>
      </trkpt>
      <trkpt lat="45.4647" lon="5.61472">
        <ele>633.17</ele>
        <time>2017-10-05T09:23:16Z</time>
      </trkpt>
      <trkpt lat="45.46474" lon="5.61473">
        <ele>633.17</ele>
        <time>2017-10-05T09:23:17Z</time>
      </trkpt>
      <trkpt lat="45.46479" lon="5.61474">
        <ele>632.68</ele>
        <time>2017-10-05T09:23:18Z</time>
      </trkpt>
      <trkpt lat="45.46484" lon="5.61477">
        <ele>632.2</ele>
        <time>2017-10-05T09:23:19Z</time>
      </trkpt>
      <trkpt lat="45.46502" lon="5.61482">
        <ele>630.76</ele>
        <time>2017-10-05T09:23:22Z</time>
      </trkpt>
      <trkpt lat="45.46508" lon="5.61486">
        <ele>630.28</ele>
        <time>2017-10-05T09:23:23Z</time>
      </trkpt>
      <trkpt lat="45.46513" lon="5.61491">
        <ele>629.8</ele>
        <time>2017-10-05T09:23:24Z</time>
      </trkpt>
      <trkpt lat="45.46518" lon="5.61497">
        <ele>629.32</ele>
        <time>2017-10-05T09:23:25Z</time>
      </trkpt>
      <trkpt lat="45.46523" lon="5.61503">
        <ele>629.32</ele>
        <time>2017-10-05T09:23:26Z</time>
      </trkpt>
      <trkpt lat="45.46526" lon="5.6151">
        <ele>628.84</ele>
        <time>2017-10-05T09:23:27Z</time>
      </trkpt>
      <trkpt lat="45.46529" lon="5.61517">
        <ele>628.84</ele>
        <time>2017-10-05T09:23:28Z</time>
      </trkpt>
      <trkpt lat="45.46536" lon="5.61537">
        <ele>628.36</ele>
        <time>2017-10-05T09:23:31Z</time>
      </trkpt>
      <trkpt lat="45.46538" lon="5.61544">
        <ele>628.36</ele>
        <time>2017-10-05T09:23:32Z</time>
      </trkpt>
      <trkpt lat="45.4654" lon="5.61551">
        <ele>627.88</ele>
        <time>2017-10-05T09:23:33Z</time>
      </trkpt>
      <trkpt lat="45.46543" lon="5.61557">
        <ele>627.88</ele>
        <time>2017-10-05T09:23:34Z</time>
      </trkpt>
      <trkpt lat="45.46546" lon="5.61563">
        <ele>627.4</ele>
        <time>2017-10-05T09:23:35Z</time>
      </trkpt>
      <trkpt lat="45.46549" lon="5.61568">
        <ele>627.4</ele>
        <time>2017-10-05T09:23:36Z</time>
      </trkpt>
      <trkpt lat="45.46553" lon="5.61572">
        <ele>627.4</ele>
        <time>2017-10-05T09:23:37Z</time>
      </trkpt>
      <trkpt lat="45.46557" lon="5.61576">
        <ele>627.4</ele>
        <time>2017-10-05T09:23:38Z</time>
      </trkpt>
      <trkpt lat="45.46583" lon="5.61603">
        <ele>626.44</ele>
        <time>2017-10-05T09:23:46Z</time>
      </trkpt>
      <trkpt lat="45.46584" lon="5.61607">
        <ele>626.44</ele>
        <time>2017-10-05T09:23:47Z</time>
      </trkpt>
      <trkpt lat="45.46584" lon="5.61613">
        <ele>626.44</ele>
        <time>2017-10-05T09:23:48Z</time>
      </trkpt>
      <trkpt lat="45.46582" lon="5.61617">
        <ele>625.47</ele>
        <time>2017-10-05T09:23:49Z</time>
      </trkpt>
      <trkpt lat="45.46579" lon="5.61621">
        <ele>625.47</ele>
        <time>2017-10-05T09:23:50Z</time>
      </trkpt>
      <trkpt lat="45.46558" lon="5.61656">
        <ele>624.03</ele>
        <time>2017-10-05T09:23:57Z</time>
      </trkpt>
      <trkpt lat="45.46556" lon="5.61663">
        <ele>624.03</ele>
        <time>2017-10-05T09:23:58Z</time>
      </trkpt>
      <trkpt lat="45.46556" lon="5.61671">
        <ele>623.55</ele>
        <time>2017-10-05T09:23:59Z</time>
      </trkpt>
      <trkpt lat="45.46557" lon="5.61678">
        <ele>624.03</ele>
        <time>2017-10-05T09:24:00Z</time>
      </trkpt>
      <trkpt lat="45.46558" lon="5.61683">
        <ele>624.99</ele>
        <time>2017-10-05T09:24:01Z</time>
      </trkpt>
      <trkpt lat="45.46575" lon="5.61723">
        <ele>627.88</ele>
        <time>2017-10-05T09:24:12Z</time>
      </trkpt>
      <trkpt lat="45.46594" lon="5.61761">
        <ele>630.76</ele>
        <time>2017-10-05T09:24:24Z</time>
      </trkpt>
      <trkpt lat="45.46614" lon="5.61797">
        <ele>631.72</ele>
        <time>2017-10-05T09:24:36Z</time>
      </trkpt>
      <trkpt lat="45.46648" lon="5.61824">
        <ele>632.2</ele>
        <time>2017-10-05T09:24:49Z</time>
      </trkpt>
      <trkpt lat="45.467" lon="5.61862">
        <ele>633.17</ele>
        <time>2017-10-05T09:25:06Z</time>
      </trkpt>
      <trkpt lat="45.46741" lon="5.61899">
        <ele>636.53</ele>
        <time>2017-10-05T09:25:23Z</time>
      </trkpt>
      <trkpt lat="45.46765" lon="5.61951">
        <ele>637.97</ele>
        <time>2017-10-05T09:25:39Z</time>
      </trkpt>
      <trkpt lat="45.46764" lon="5.61963">
        <ele>638.45</ele>
        <time>2017-10-05T09:25:45Z</time>
      </trkpt>
      <trkpt lat="45.46764" lon="5.61965">
        <ele>638.45</ele>
        <time>2017-10-05T09:25:46Z</time>
      </trkpt>
      <trkpt lat="45.46765" lon="5.61968">
        <ele>638.45</ele>
        <time>2017-10-05T09:25:47Z</time>
      </trkpt>
      <trkpt lat="45.46766" lon="5.61971">
        <ele>638.45</ele>
        <time>2017-10-05T09:25:48Z</time>
      </trkpt>
      <trkpt lat="45.46766" lon="5.61974">
        <ele>638.45</ele>
        <time>2017-10-05T09:25:49Z</time>
      </trkpt>
      <trkpt lat="45.46766" lon="5.61977">
        <ele>638.45</ele>
        <time>2017-10-05T09:25:50Z</time>
      </trkpt>
      <trkpt lat="45.46767" lon="5.6198">
        <ele>638.45</ele>
        <time>2017-10-05T09:25:51Z</time>
      </trkpt>
      <trkpt lat="45.46767" lon="5.61982">
        <ele>638.93</ele>
        <time>2017-10-05T09:25:52Z</time>
      </trkpt>
      <trkpt lat="45.46767" lon="5.61984">
        <ele>638.45</ele>
        <time>2017-10-05T09:25:53Z</time>
      </trkpt>
      <trkpt lat="45.46769" lon="5.61986">
        <ele>638.93</ele>
        <time>2017-10-05T09:25:54Z</time>
      </trkpt>
      <trkpt lat="45.4677" lon="5.61987">
        <ele>638.93</ele>
        <time>2017-10-05T09:25:55Z</time>
      </trkpt>
      <trkpt lat="45.46772" lon="5.61988">
        <ele>639.41</ele>
        <time>2017-10-05T09:25:56Z</time>
      </trkpt>
      <trkpt lat="45.46784" lon="5.61999">
        <ele>640.86</ele>
        <time>2017-10-05T09:26:06Z</time>
      </trkpt>
      <trkpt lat="45.46786" lon="5.61999">
        <ele>640.86</ele>
        <time>2017-10-05T09:26:07Z</time>
      </trkpt>
      <trkpt lat="45.46788" lon="5.61999">
        <ele>640.86</ele>
        <time>2017-10-05T09:26:08Z</time>
      </trkpt>
      <trkpt lat="45.46792" lon="5.61999">
        <ele>641.82</ele>
        <time>2017-10-05T09:26:11Z</time>
      </trkpt>
      <trkpt lat="45.46794" lon="5.62">
        <ele>641.82</ele>
        <time>2017-10-05T09:26:12Z</time>
      </trkpt>
      <trkpt lat="45.46802" lon="5.62003">
        <ele>643.26</ele>
        <time>2017-10-05T09:26:20Z</time>
      </trkpt>
      <trkpt lat="45.46804" lon="5.62004">
        <ele>643.74</ele>
        <time>2017-10-05T09:26:21Z</time>
      </trkpt>
      <trkpt lat="45.46807" lon="5.62005">
        <ele>643.74</ele>
        <time>2017-10-05T09:26:22Z</time>
      </trkpt>
      <trkpt lat="45.46815" lon="5.6201">
        <ele>645.66</ele>
        <time>2017-10-05T09:26:31Z</time>
      </trkpt>
      <trkpt lat="45.46822" lon="5.62014">
        <ele>646.62</ele>
        <time>2017-10-05T09:26:35Z</time>
      </trkpt>
      <trkpt lat="45.46835" lon="5.62022">
        <ele>647.59</ele>
        <time>2017-10-05T09:26:42Z</time>
      </trkpt>
      <trkpt lat="45.46837" lon="5.62024">
        <ele>647.59</ele>
        <time>2017-10-05T09:26:43Z</time>
      </trkpt>
      <trkpt lat="45.46838" lon="5.62024">
        <ele>647.59</ele>
        <time>2017-10-05T09:26:44Z</time>
      </trkpt>
      <trkpt lat="45.46855" lon="5.62039">
        <ele>648.55</ele>
        <time>2017-10-05T09:26:51Z</time>
      </trkpt>
      <trkpt lat="45.46865" lon="5.62049">
        <ele>649.51</ele>
        <time>2017-10-05T09:26:59Z</time>
      </trkpt>
      <trkpt lat="45.46867" lon="5.62051">
        <ele>649.51</ele>
        <time>2017-10-05T09:27:00Z</time>
      </trkpt>
      <trkpt lat="45.46869" lon="5.62052">
        <ele>649.51</ele>
        <time>2017-10-05T09:27:01Z</time>
      </trkpt>
      <trkpt lat="45.46871" lon="5.62054">
        <ele>649.51</ele>
        <time>2017-10-05T09:27:02Z</time>
      </trkpt>
      <trkpt lat="45.46874" lon="5.62058">
        <ele>649.99</ele>
        <time>2017-10-05T09:27:04Z</time>
      </trkpt>
      <trkpt lat="45.46875" lon="5.62059">
        <ele>649.99</ele>
        <time>2017-10-05T09:27:05Z</time>
      </trkpt>
      <trkpt lat="45.46881" lon="5.62067">
        <ele>649.99</ele>
        <time>2017-10-05T09:27:09Z</time>
      </trkpt>
      <trkpt lat="45.46883" lon="5.62076">
        <ele>649.99</ele>
        <time>2017-10-05T09:27:15Z</time>
      </trkpt>
      <trkpt lat="45.46895" lon="5.62089">
        <ele>649.99</ele>
        <time>2017-10-05T09:27:20Z</time>
      </trkpt>
      <trkpt lat="45.46916" lon="5.62113">
        <ele>650.47</ele>
        <time>2017-10-05T09:27:28Z</time>
      </trkpt>
      <trkpt lat="45.46929" lon="5.62124">
        <ele>650.95</ele>
        <time>2017-10-05T09:27:32Z</time>
      </trkpt>
      <trkpt lat="45.46949" lon="5.62143">
        <ele>651.43</ele>
        <time>2017-10-05T09:27:39Z</time>
      </trkpt>
      <trkpt lat="45.46976" lon="5.6216">
        <ele>653.83</ele>
        <time>2017-10-05T09:27:51Z</time>
      </trkpt>
      <trkpt lat="45.46991" lon="5.62161">
        <ele>656.72</ele>
        <time>2017-10-05T09:28:00Z</time>
      </trkpt>
      <trkpt lat="45.47" lon="5.62169">
        <ele>659.12</ele>
        <time>2017-10-05T09:28:06Z</time>
      </trkpt>
      <trkpt lat="45.47002" lon="5.6217">
        <ele>659.12</ele>
        <time>2017-10-05T09:28:07Z</time>
      </trkpt>
      <trkpt lat="45.47007" lon="5.62173">
        <ele>661.04</ele>
        <time>2017-10-05T09:28:11Z</time>
      </trkpt>
      <trkpt lat="45.4701" lon="5.62175">
        <ele>661.04</ele>
        <time>2017-10-05T09:28:13Z</time>
      </trkpt>
      <trkpt lat="45.47014" lon="5.62176">
        <ele>662.01</ele>
        <time>2017-10-05T09:28:17Z</time>
      </trkpt>
      <trkpt lat="45.47017" lon="5.62178">
        <ele>662.49</ele>
        <time>2017-10-05T09:28:20Z</time>
      </trkpt>
      <trkpt lat="45.47024" lon="5.62185">
        <ele>662.97</ele>
        <time>2017-10-05T09:28:24Z</time>
      </trkpt>
      <trkpt lat="45.47029" lon="5.62189">
        <ele>663.45</ele>
        <time>2017-10-05T09:28:27Z</time>
      </trkpt>
      <trkpt lat="45.47047" lon="5.62208">
        <ele>663.93</ele>
        <time>2017-10-05T09:28:35Z</time>
      </trkpt>
      <trkpt lat="45.47064" lon="5.62222">
        <ele>664.89</ele>
        <time>2017-10-05T09:28:43Z</time>
      </trkpt>
      <trkpt lat="45.47073" lon="5.62234">
        <ele>664.89</ele>
        <time>2017-10-05T09:28:49Z</time>
      </trkpt>
      <trkpt lat="45.47083" lon="5.6224">
        <ele>663.93</ele>
        <time>2017-10-05T09:28:53Z</time>
      </trkpt>
      <trkpt lat="45.47105" lon="5.62263">
        <ele>663.93</ele>
        <time>2017-10-05T09:29:04Z</time>
      </trkpt>
      <trkpt lat="45.47123" lon="5.6228">
        <ele>664.89</ele>
        <time>2017-10-05T09:29:13Z</time>
      </trkpt>
      <trkpt lat="45.47151" lon="5.62294">
        <ele>664.89</ele>
        <time>2017-10-05T09:29:24Z</time>
      </trkpt>
      <trkpt lat="45.47165" lon="5.62299">
        <ele>665.37</ele>
        <time>2017-10-05T09:29:30Z</time>
      </trkpt>
      <trkpt lat="45.47184" lon="5.6231">
        <ele>665.85</ele>
        <time>2017-10-05T09:29:37Z</time>
      </trkpt>
      <trkpt lat="45.47197" lon="5.62313">
        <ele>666.81</ele>
        <time>2017-10-05T09:29:44Z</time>
      </trkpt>
      <trkpt lat="45.47205" lon="5.62314">
        <ele>667.29</ele>
        <time>2017-10-05T09:29:47Z</time>
      </trkpt>
      <trkpt lat="45.47219" lon="5.62326">
        <ele>667.29</ele>
        <time>2017-10-05T09:29:54Z</time>
      </trkpt>
      <trkpt lat="45.47211" lon="5.62351">
        <ele>663.93</ele>
        <time>2017-10-05T09:30:02Z</time>
      </trkpt>
      <trkpt lat="45.47206" lon="5.62372">
        <ele>659.6</ele>
        <time>2017-10-05T09:30:05Z</time>
      </trkpt>
      <trkpt lat="45.47203" lon="5.62379">
        <ele>658.64</ele>
        <time>2017-10-05T09:30:06Z</time>
      </trkpt>
      <trkpt lat="45.47199" lon="5.62385">
        <ele>657.68</ele>
        <time>2017-10-05T09:30:07Z</time>
      </trkpt>
      <trkpt lat="45.47195" lon="5.6239">
        <ele>656.24</ele>
        <time>2017-10-05T09:30:08Z</time>
      </trkpt>
      <trkpt lat="45.47192" lon="5.62393">
        <ele>655.76</ele>
        <time>2017-10-05T09:30:09Z</time>
      </trkpt>
      <trkpt lat="45.47188" lon="5.62396">
        <ele>654.31</ele>
        <time>2017-10-05T09:30:10Z</time>
      </trkpt>
      <trkpt lat="45.47174" lon="5.62405">
        <ele>650.95</ele>
        <time>2017-10-05T09:30:13Z</time>
      </trkpt>
      <trkpt lat="45.47169" lon="5.62407">
        <ele>650.95</ele>
        <time>2017-10-05T09:30:14Z</time>
      </trkpt>
      <trkpt lat="45.47149" lon="5.62409">
        <ele>647.59</ele>
        <time>2017-10-05T09:30:18Z</time>
      </trkpt>
      <trkpt lat="45.47144" lon="5.62407">
        <ele>646.62</ele>
        <time>2017-10-05T09:30:19Z</time>
      </trkpt>
      <trkpt lat="45.47138" lon="5.62405">
        <ele>646.62</ele>
        <time>2017-10-05T09:30:20Z</time>
      </trkpt>
      <trkpt lat="45.47102" lon="5.6239">
        <ele>644.22</ele>
        <time>2017-10-05T09:30:25Z</time>
      </trkpt>
      <trkpt lat="45.47088" lon="5.62387">
        <ele>643.26</ele>
        <time>2017-10-05T09:30:27Z</time>
      </trkpt>
      <trkpt lat="45.47082" lon="5.62386">
        <ele>643.26</ele>
        <time>2017-10-05T09:30:28Z</time>
      </trkpt>
      <trkpt lat="45.47076" lon="5.62385">
        <ele>643.74</ele>
        <time>2017-10-05T09:30:29Z</time>
      </trkpt>
      <trkpt lat="45.47044" lon="5.62381">
        <ele>642.78</ele>
        <time>2017-10-05T09:30:38Z</time>
      </trkpt>
      <trkpt lat="45.47044" lon="5.62384">
        <ele>642.3</ele>
        <time>2017-10-05T09:30:48Z</time>
      </trkpt>
      <trkpt lat="45.47046" lon="5.62384">
        <ele>642.3</ele>
        <time>2017-10-05T09:30:50Z</time>
      </trkpt>
      <trkpt lat="45.47048" lon="5.62382">
        <ele>642.3</ele>
        <time>2017-10-05T09:30:52Z</time>
      </trkpt>
      <trkpt lat="45.4705" lon="5.62381">
        <ele>642.78</ele>
        <time>2017-10-05T09:30:53Z</time>
      </trkpt>
      <trkpt lat="45.47051" lon="5.62381">
        <ele>642.78</ele>
        <time>2017-10-05T09:30:54Z</time>
      </trkpt>
      <trkpt lat="45.47074" lon="5.62381">
        <ele>643.26</ele>
        <time>2017-10-05T09:31:06Z</time>
      </trkpt>
      <trkpt lat="45.47082" lon="5.62379">
        <ele>643.26</ele>
        <time>2017-10-05T09:31:10Z</time>
      </trkpt>
      <trkpt lat="45.47086" lon="5.62379">
        <ele>643.26</ele>
        <time>2017-10-05T09:31:11Z</time>
      </trkpt>
      <trkpt lat="45.47089" lon="5.6238">
        <ele>643.74</ele>
        <time>2017-10-05T09:31:12Z</time>
      </trkpt>
      <trkpt lat="45.47116" lon="5.62389">
        <ele>644.7</ele>
        <time>2017-10-05T09:31:23Z</time>
      </trkpt>
      <trkpt lat="45.4712" lon="5.62392">
        <ele>645.18</ele>
        <time>2017-10-05T09:31:25Z</time>
      </trkpt>
      <trkpt lat="45.47122" lon="5.62393">
        <ele>645.66</ele>
        <time>2017-10-05T09:31:26Z</time>
      </trkpt>
      <trkpt lat="45.47125" lon="5.62394">
        <ele>645.66</ele>
        <time>2017-10-05T09:31:27Z</time>
      </trkpt>
      <trkpt lat="45.47127" lon="5.62394">
        <ele>646.14</ele>
        <time>2017-10-05T09:31:28Z</time>
      </trkpt>
      <trkpt lat="45.47129" lon="5.62395">
        <ele>646.14</ele>
        <time>2017-10-05T09:31:29Z</time>
      </trkpt>
      <trkpt lat="45.4713" lon="5.62396">
        <ele>646.14</ele>
        <time>2017-10-05T09:31:30Z</time>
      </trkpt>
      <trkpt lat="45.47132" lon="5.62397">
        <ele>646.62</ele>
        <time>2017-10-05T09:31:31Z</time>
      </trkpt>
      <trkpt lat="45.47141" lon="5.62401">
        <ele>649.51</ele>
        <time>2017-10-05T09:31:41Z</time>
      </trkpt>
      <trkpt lat="45.47144" lon="5.62402">
        <ele>648.55</ele>
        <time>2017-10-05T09:31:42Z</time>
      </trkpt>
      <trkpt lat="45.47147" lon="5.62403">
        <ele>649.51</ele>
        <time>2017-10-05T09:31:44Z</time>
      </trkpt>
      <trkpt lat="45.47157" lon="5.62405">
        <ele>650.95</ele>
        <time>2017-10-05T09:31:49Z</time>
      </trkpt>
      <trkpt lat="45.47173" lon="5.62405">
        <ele>652.87</ele>
        <time>2017-10-05T09:31:59Z</time>
      </trkpt>
      <trkpt lat="45.47174" lon="5.62405">
        <ele>653.35</ele>
        <time>2017-10-05T09:32:00Z</time>
      </trkpt>
      <trkpt lat="45.47185" lon="5.624">
        <ele>656.24</ele>
        <time>2017-10-05T09:32:09Z</time>
      </trkpt>
      <trkpt lat="45.47198" lon="5.62392">
        <ele>659.12</ele>
        <time>2017-10-05T09:32:21Z</time>
      </trkpt>
      <trkpt lat="45.47199" lon="5.62391">
        <ele>659.12</ele>
        <time>2017-10-05T09:32:22Z</time>
      </trkpt>
      <trkpt lat="45.47204" lon="5.62381">
        <ele>662.01</ele>
        <time>2017-10-05T09:32:32Z</time>
      </trkpt>
      <trkpt lat="45.47206" lon="5.62372">
        <ele>663.45</ele>
        <time>2017-10-05T09:32:36Z</time>
      </trkpt>
      <trkpt lat="45.47207" lon="5.6237">
        <ele>663.93</ele>
        <time>2017-10-05T09:32:37Z</time>
      </trkpt>
      <trkpt lat="45.47209" lon="5.62358">
        <ele>666.33</ele>
        <time>2017-10-05T09:32:44Z</time>
      </trkpt>
      <trkpt lat="45.47218" lon="5.62343">
        <ele>668.73</ele>
        <time>2017-10-05T09:32:54Z</time>
      </trkpt>
      <trkpt lat="45.47225" lon="5.62335">
        <ele>670.18</ele>
        <time>2017-10-05T09:33:03Z</time>
      </trkpt>
      <trkpt lat="45.47227" lon="5.62328">
        <ele>670.18</ele>
        <time>2017-10-05T09:33:13Z</time>
      </trkpt>
      <trkpt lat="45.47228" lon="5.62326">
        <ele>670.18</ele>
        <time>2017-10-05T09:33:27Z</time>
      </trkpt>
      <trkpt lat="45.4723" lon="5.62325">
        <ele>670.18</ele>
        <time>2017-10-05T09:33:40Z</time>
      </trkpt>
      <trkpt lat="45.47239" lon="5.62327">
        <ele>670.66</ele>
        <time>2017-10-05T09:33:51Z</time>
      </trkpt>
      <trkpt lat="45.47242" lon="5.62326">
        <ele>671.14</ele>
        <time>2017-10-05T09:33:55Z</time>
      </trkpt>
      <trkpt lat="45.47252" lon="5.62324">
        <ele>671.14</ele>
        <time>2017-10-05T09:34:03Z</time>
      </trkpt>
      <trkpt lat="45.47253" lon="5.62324">
        <ele>671.62</ele>
        <time>2017-10-05T09:34:04Z</time>
      </trkpt>
      <trkpt lat="45.47257" lon="5.62323">
        <ele>671.62</ele>
        <time>2017-10-05T09:34:06Z</time>
      </trkpt>
      <trkpt lat="45.47277" lon="5.6231">
        <ele>672.58</ele>
        <time>2017-10-05T09:34:19Z</time>
      </trkpt>
      <trkpt lat="45.4729" lon="5.62302">
        <ele>673.54</ele>
        <time>2017-10-05T09:34:33Z</time>
      </trkpt>
      <trkpt lat="45.4729" lon="5.623">
        <ele>673.54</ele>
        <time>2017-10-05T09:34:54Z</time>
      </trkpt>
      <trkpt lat="45.47292" lon="5.62299">
        <ele>670.18</ele>
        <time>2017-10-05T09:35:06Z</time>
      </trkpt>
      <trkpt lat="45.47292" lon="5.62299">
        <ele>676.42</ele>
        <time>2017-10-05T09:35:07Z</time>
      </trkpt>
      <trkpt lat="45.47293" lon="5.62299">
        <ele>671.14</ele>
        <time>2017-10-05T09:35:10Z</time>
      </trkpt>
      <trkpt lat="45.47293" lon="5.62299">
        <ele>674.98</ele>
        <time>2017-10-05T09:35:11Z</time>
      </trkpt>
      <trkpt lat="45.47294" lon="5.62297">
        <ele>673.54</ele>
        <time>2017-10-05T09:35:20Z</time>
      </trkpt>
      <trkpt lat="45.47295" lon="5.62296">
        <ele>673.54</ele>
        <time>2017-10-05T09:35:21Z</time>
      </trkpt>
      <trkpt lat="45.47297" lon="5.62293">
        <ele>674.02</ele>
        <time>2017-10-05T09:35:25Z</time>
      </trkpt>
      <trkpt lat="45.47299" lon="5.62284">
        <ele>675.46</ele>
        <time>2017-10-05T09:35:33Z</time>
      </trkpt>
      <trkpt lat="45.473" lon="5.62281">
        <ele>672.1</ele>
        <time>2017-10-05T09:35:36Z</time>
      </trkpt>
      <trkpt lat="45.47299" lon="5.62279">
        <ele>677.87</ele>
        <time>2017-10-05T09:35:37Z</time>
      </trkpt>
      <trkpt lat="45.47299" lon="5.62263">
        <ele>675.94</ele>
        <time>2017-10-05T09:35:44Z</time>
      </trkpt>
      <trkpt lat="45.473" lon="5.62258">
        <ele>676.42</ele>
        <time>2017-10-05T09:35:45Z</time>
      </trkpt>
      <trkpt lat="45.47302" lon="5.62254">
        <ele>676.42</ele>
        <time>2017-10-05T09:35:46Z</time>
      </trkpt>
      <trkpt lat="45.47303" lon="5.62251">
        <ele>676.42</ele>
        <time>2017-10-05T09:35:47Z</time>
      </trkpt>
      <trkpt lat="45.47306" lon="5.62243">
        <ele>676.42</ele>
        <time>2017-10-05T09:35:48Z</time>
      </trkpt>
      <trkpt lat="45.47307" lon="5.62239">
        <ele>676.91</ele>
        <time>2017-10-05T09:35:49Z</time>
      </trkpt>
      <trkpt lat="45.47309" lon="5.62233">
        <ele>676.91</ele>
        <time>2017-10-05T09:35:50Z</time>
      </trkpt>
      <trkpt lat="45.47311" lon="5.62226">
        <ele>676.91</ele>
        <time>2017-10-05T09:35:52Z</time>
      </trkpt>
      <trkpt lat="45.47314" lon="5.6222">
        <ele>677.39</ele>
        <time>2017-10-05T09:35:53Z</time>
      </trkpt>
      <trkpt lat="45.47315" lon="5.62215">
        <ele>677.39</ele>
        <time>2017-10-05T09:35:54Z</time>
      </trkpt>
      <trkpt lat="45.47317" lon="5.6221">
        <ele>677.39</ele>
        <time>2017-10-05T09:35:55Z</time>
      </trkpt>
      <trkpt lat="45.47318" lon="5.62206">
        <ele>676.91</ele>
        <time>2017-10-05T09:35:56Z</time>
      </trkpt>
      <trkpt lat="45.47319" lon="5.622">
        <ele>676.91</ele>
        <time>2017-10-05T09:35:57Z</time>
      </trkpt>
      <trkpt lat="45.4732" lon="5.62194">
        <ele>676.42</ele>
        <time>2017-10-05T09:35:58Z</time>
      </trkpt>
      <trkpt lat="45.47322" lon="5.62181">
        <ele>675.46</ele>
        <time>2017-10-05T09:36:00Z</time>
      </trkpt>
      <trkpt lat="45.47323" lon="5.62158">
        <ele>674.02</ele>
        <time>2017-10-05T09:36:03Z</time>
      </trkpt>
      <trkpt lat="45.47323" lon="5.62131">
        <ele>673.54</ele>
        <time>2017-10-05T09:36:07Z</time>
      </trkpt>
      <trkpt lat="45.4732" lon="5.6211">
        <ele>672.58</ele>
        <time>2017-10-05T09:36:10Z</time>
      </trkpt>
      <trkpt lat="45.47311" lon="5.62081">
        <ele>672.1</ele>
        <time>2017-10-05T09:36:14Z</time>
      </trkpt>
      <trkpt lat="45.473" lon="5.62041">
        <ele>671.14</ele>
        <time>2017-10-05T09:36:19Z</time>
      </trkpt>
      <trkpt lat="45.47297" lon="5.62023">
        <ele>670.66</ele>
        <time>2017-10-05T09:36:21Z</time>
      </trkpt>
      <trkpt lat="45.47299" lon="5.62014">
        <ele>670.18</ele>
        <time>2017-10-05T09:36:22Z</time>
      </trkpt>
      <trkpt lat="45.47301" lon="5.62005">
        <ele>669.7</ele>
        <time>2017-10-05T09:36:23Z</time>
      </trkpt>
      <trkpt lat="45.47307" lon="5.61989">
        <ele>668.73</ele>
        <time>2017-10-05T09:36:25Z</time>
      </trkpt>
      <trkpt lat="45.47327" lon="5.61939">
        <ele>666.33</ele>
        <time>2017-10-05T09:36:31Z</time>
      </trkpt>
      <trkpt lat="45.47341" lon="5.61879">
        <ele>663.45</ele>
        <time>2017-10-05T09:36:37Z</time>
      </trkpt>
      <trkpt lat="45.47345" lon="5.61873">
        <ele>662.97</ele>
        <time>2017-10-05T09:36:38Z</time>
      </trkpt>
      <trkpt lat="45.4735" lon="5.61867">
        <ele>662.97</ele>
        <time>2017-10-05T09:36:39Z</time>
      </trkpt>
      <trkpt lat="45.4737" lon="5.6185">
        <ele>662.49</ele>
        <time>2017-10-05T09:36:43Z</time>
      </trkpt>
      <trkpt lat="45.47375" lon="5.61848">
        <ele>662.49</ele>
        <time>2017-10-05T09:36:44Z</time>
      </trkpt>
      <trkpt lat="45.4738" lon="5.61847">
        <ele>662.01</ele>
        <time>2017-10-05T09:36:45Z</time>
      </trkpt>
      <trkpt lat="45.47386" lon="5.61846">
        <ele>661.52</ele>
        <time>2017-10-05T09:36:46Z</time>
      </trkpt>
      <trkpt lat="45.47391" lon="5.61847">
        <ele>661.52</ele>
        <time>2017-10-05T09:36:47Z</time>
      </trkpt>
      <trkpt lat="45.47468" lon="5.61863">
        <ele>658.64</ele>
        <time>2017-10-05T09:37:01Z</time>
      </trkpt>
      <trkpt lat="45.47507" lon="5.6187">
        <ele>655.76</ele>
        <time>2017-10-05T09:37:06Z</time>
      </trkpt>
      <trkpt lat="45.47516" lon="5.61868">
        <ele>654.8</ele>
        <time>2017-10-05T09:37:07Z</time>
      </trkpt>
      <trkpt lat="45.47524" lon="5.61865">
        <ele>653.83</ele>
        <time>2017-10-05T09:37:08Z</time>
      </trkpt>
      <trkpt lat="45.47551" lon="5.61854">
        <ele>650.47</ele>
        <time>2017-10-05T09:37:11Z</time>
      </trkpt>
      <trkpt lat="45.47571" lon="5.61849">
        <ele>648.55</ele>
        <time>2017-10-05T09:37:13Z</time>
      </trkpt>
      <trkpt lat="45.47591" lon="5.61847">
        <ele>646.14</ele>
        <time>2017-10-05T09:37:15Z</time>
      </trkpt>
      <trkpt lat="45.476" lon="5.61845">
        <ele>646.14</ele>
        <time>2017-10-05T09:37:16Z</time>
      </trkpt>
      <trkpt lat="45.47608" lon="5.61841">
        <ele>645.66</ele>
        <time>2017-10-05T09:37:17Z</time>
      </trkpt>
      <trkpt lat="45.47615" lon="5.61836">
        <ele>644.7</ele>
        <time>2017-10-05T09:37:18Z</time>
      </trkpt>
      <trkpt lat="45.47622" lon="5.61833">
        <ele>644.7</ele>
        <time>2017-10-05T09:37:19Z</time>
      </trkpt>
      <trkpt lat="45.47629" lon="5.61834">
        <ele>644.22</ele>
        <time>2017-10-05T09:37:20Z</time>
      </trkpt>
      <trkpt lat="45.47635" lon="5.61839">
        <ele>643.74</ele>
        <time>2017-10-05T09:37:21Z</time>
      </trkpt>
      <trkpt lat="45.4764" lon="5.61846">
        <ele>642.78</ele>
        <time>2017-10-05T09:37:22Z</time>
      </trkpt>
      <trkpt lat="45.47643" lon="5.61852">
        <ele>642.78</ele>
        <time>2017-10-05T09:37:23Z</time>
      </trkpt>
      <trkpt lat="45.47645" lon="5.61858">
        <ele>642.78</ele>
        <time>2017-10-05T09:37:24Z</time>
      </trkpt>
      <trkpt lat="45.47655" lon="5.61883">
        <ele>640.38</ele>
        <time>2017-10-05T09:37:32Z</time>
      </trkpt>
      <trkpt lat="45.47655" lon="5.61882">
        <ele>640.38</ele>
        <time>2017-10-05T09:38:03Z</time>
      </trkpt>
      <trkpt lat="45.47656" lon="5.61884">
        <ele>640.38</ele>
        <time>2017-10-05T09:38:10Z</time>
      </trkpt>
      <trkpt lat="45.47658" lon="5.61885">
        <ele>639.89</ele>
        <time>2017-10-05T09:38:11Z</time>
      </trkpt>
      <trkpt lat="45.4766" lon="5.61887">
        <ele>639.89</ele>
        <time>2017-10-05T09:38:12Z</time>
      </trkpt>
      <trkpt lat="45.47679" lon="5.61905">
        <ele>636.53</ele>
        <time>2017-10-05T09:38:19Z</time>
      </trkpt>
      <trkpt lat="45.47683" lon="5.61907">
        <ele>636.05</ele>
        <time>2017-10-05T09:38:20Z</time>
      </trkpt>
      <trkpt lat="45.47696" lon="5.61913">
        <ele>632.68</ele>
        <time>2017-10-05T09:38:23Z</time>
      </trkpt>
      <trkpt lat="45.47744" lon="5.61919">
        <ele>629.32</ele>
        <time>2017-10-05T09:38:34Z</time>
      </trkpt>
      <trkpt lat="45.47748" lon="5.61919">
        <ele>628.36</ele>
        <time>2017-10-05T09:38:35Z</time>
      </trkpt>
      <trkpt lat="45.47753" lon="5.61921">
        <ele>628.36</ele>
        <time>2017-10-05T09:38:36Z</time>
      </trkpt>
      <trkpt lat="45.47778" lon="5.61929">
        <ele>624.99</ele>
        <time>2017-10-05T09:38:41Z</time>
      </trkpt>
      <trkpt lat="45.47816" lon="5.61947">
        <ele>622.11</ele>
        <time>2017-10-05T09:38:47Z</time>
      </trkpt>
      <trkpt lat="45.4782" lon="5.61953">
        <ele>621.63</ele>
        <time>2017-10-05T09:38:48Z</time>
      </trkpt>
      <trkpt lat="45.47822" lon="5.6196">
        <ele>622.11</ele>
        <time>2017-10-05T09:38:49Z</time>
      </trkpt>
      <trkpt lat="45.47821" lon="5.61967">
        <ele>623.07</ele>
        <time>2017-10-05T09:38:50Z</time>
      </trkpt>
      <trkpt lat="45.4782" lon="5.61973">
        <ele>624.03</ele>
        <time>2017-10-05T09:38:51Z</time>
      </trkpt>
      <trkpt lat="45.47819" lon="5.61978">
        <ele>624.51</ele>
        <time>2017-10-05T09:38:52Z</time>
      </trkpt>
      <trkpt lat="45.47818" lon="5.61984">
        <ele>624.51</ele>
        <time>2017-10-05T09:38:53Z</time>
      </trkpt>
      <trkpt lat="45.47816" lon="5.62022">
        <ele>624.03</ele>
        <time>2017-10-05T09:39:01Z</time>
      </trkpt>
      <trkpt lat="45.47817" lon="5.62028">
        <ele>624.03</ele>
        <time>2017-10-05T09:39:02Z</time>
      </trkpt>
      <trkpt lat="45.47817" lon="5.62041">
        <ele>624.03</ele>
        <time>2017-10-05T09:39:04Z</time>
      </trkpt>
      <trkpt lat="45.47817" lon="5.62046">
        <ele>623.55</ele>
        <time>2017-10-05T09:39:05Z</time>
      </trkpt>
      <trkpt lat="45.47817" lon="5.62049">
        <ele>623.55</ele>
        <time>2017-10-05T09:39:06Z</time>
      </trkpt>
      <trkpt lat="45.47823" lon="5.62094">
        <ele>622.11</ele>
        <time>2017-10-05T09:39:18Z</time>
      </trkpt>
      <trkpt lat="45.47831" lon="5.6214">
        <ele>619.23</ele>
        <time>2017-10-05T09:39:28Z</time>
      </trkpt>
      <trkpt lat="45.47834" lon="5.62143">
        <ele>619.23</ele>
        <time>2017-10-05T09:39:29Z</time>
      </trkpt>
      <trkpt lat="45.47837" lon="5.62143">
        <ele>618.75</ele>
        <time>2017-10-05T09:39:30Z</time>
      </trkpt>
      <trkpt lat="45.4784" lon="5.62142">
        <ele>619.23</ele>
        <time>2017-10-05T09:39:31Z</time>
      </trkpt>
      <trkpt lat="45.47842" lon="5.6214">
        <ele>619.71</ele>
        <time>2017-10-05T09:39:32Z</time>
      </trkpt>
      <trkpt lat="45.47844" lon="5.62137">
        <ele>620.19</ele>
        <time>2017-10-05T09:39:33Z</time>
      </trkpt>
      <trkpt lat="45.47848" lon="5.62133">
        <ele>621.15</ele>
        <time>2017-10-05T09:39:35Z</time>
      </trkpt>
      <trkpt lat="45.4785" lon="5.62131">
        <ele>621.63</ele>
        <time>2017-10-05T09:39:36Z</time>
      </trkpt>
      <trkpt lat="45.47852" lon="5.62129">
        <ele>621.63</ele>
        <time>2017-10-05T09:39:37Z</time>
      </trkpt>
      <trkpt lat="45.47859" lon="5.62124">
        <ele>623.07</ele>
        <time>2017-10-05T09:39:40Z</time>
      </trkpt>
      <trkpt lat="45.47865" lon="5.62119">
        <ele>624.51</ele>
        <time>2017-10-05T09:39:43Z</time>
      </trkpt>
      <trkpt lat="45.47891" lon="5.62103">
        <ele>627.4</ele>
        <time>2017-10-05T09:39:56Z</time>
      </trkpt>
      <trkpt lat="45.47904" lon="5.62087">
        <ele>626.92</ele>
        <time>2017-10-05T09:40:03Z</time>
      </trkpt>
      <trkpt lat="45.47942" lon="5.62059">
        <ele>624.99</ele>
        <time>2017-10-05T09:40:14Z</time>
      </trkpt>
      <trkpt lat="45.47946" lon="5.62057">
        <ele>624.99</ele>
        <time>2017-10-05T09:40:15Z</time>
      </trkpt>
      <trkpt lat="45.4795" lon="5.62056">
        <ele>624.99</ele>
        <time>2017-10-05T09:40:16Z</time>
      </trkpt>
      <trkpt lat="45.47954" lon="5.62056">
        <ele>624.99</ele>
        <time>2017-10-05T09:40:17Z</time>
      </trkpt>
      <trkpt lat="45.47958" lon="5.62056">
        <ele>624.99</ele>
        <time>2017-10-05T09:40:18Z</time>
      </trkpt>
      <trkpt lat="45.47962" lon="5.62057">
        <ele>624.99</ele>
        <time>2017-10-05T09:40:19Z</time>
      </trkpt>
      <trkpt lat="45.47994" lon="5.62074">
        <ele>626.44</ele>
        <time>2017-10-05T09:40:32Z</time>
      </trkpt>
      <trkpt lat="45.48013" lon="5.62086">
        <ele>628.84</ele>
        <time>2017-10-05T09:40:44Z</time>
      </trkpt>
      <trkpt lat="45.48027" lon="5.62101">
        <ele>630.76</ele>
        <time>2017-10-05T09:40:54Z</time>
      </trkpt>
      <trkpt lat="45.48048" lon="5.62114">
        <ele>632.68</ele>
        <time>2017-10-05T09:41:07Z</time>
      </trkpt>
      <trkpt lat="45.48072" lon="5.62103">
        <ele>634.13</ele>
        <time>2017-10-05T09:41:21Z</time>
      </trkpt>
      <trkpt lat="45.481" lon="5.62082">
        <ele>635.57</ele>
        <time>2017-10-05T09:41:37Z</time>
      </trkpt>
      <trkpt lat="45.48113" lon="5.62066">
        <ele>636.53</ele>
        <time>2017-10-05T09:41:50Z</time>
      </trkpt>
      <trkpt lat="45.48114" lon="5.62065">
        <ele>636.53</ele>
        <time>2017-10-05T09:42:12Z</time>
      </trkpt>
      <trkpt lat="45.48118" lon="5.62059">
        <ele>636.05</ele>
        <time>2017-10-05T09:42:15Z</time>
      </trkpt>
      <trkpt lat="45.48119" lon="5.62056">
        <ele>635.57</ele>
        <time>2017-10-05T09:42:16Z</time>
      </trkpt>
      <trkpt lat="45.48143" lon="5.62014">
        <ele>632.68</ele>
        <time>2017-10-05T09:42:24Z</time>
      </trkpt>
      <trkpt lat="45.48177" lon="5.61952">
        <ele>630.76</ele>
        <time>2017-10-05T09:42:37Z</time>
      </trkpt>
      <trkpt lat="45.48202" lon="5.61907">
        <ele>630.76</ele>
        <time>2017-10-05T09:42:48Z</time>
      </trkpt>
      <trkpt lat="45.48204" lon="5.61903">
        <ele>630.76</ele>
        <time>2017-10-05T09:42:49Z</time>
      </trkpt>
      <trkpt lat="45.48232" lon="5.61854">
        <ele>628.84</ele>
        <time>2017-10-05T09:42:59Z</time>
      </trkpt>
      <trkpt lat="45.48246" lon="5.61827">
        <ele>628.84</ele>
        <time>2017-10-05T09:43:04Z</time>
      </trkpt>
      <trkpt lat="45.48273" lon="5.61755">
        <ele>625.96</ele>
        <time>2017-10-05T09:43:14Z</time>
      </trkpt>
      <trkpt lat="45.48274" lon="5.61748">
        <ele>625.96</ele>
        <time>2017-10-05T09:43:15Z</time>
      </trkpt>
      <trkpt lat="45.48279" lon="5.61685">
        <ele>624.51</ele>
        <time>2017-10-05T09:43:23Z</time>
      </trkpt>
      <trkpt lat="45.48279" lon="5.61678">
        <ele>624.51</ele>
        <time>2017-10-05T09:43:24Z</time>
      </trkpt>
      <trkpt lat="45.48279" lon="5.6167">
        <ele>624.03</ele>
        <time>2017-10-05T09:43:25Z</time>
      </trkpt>
      <trkpt lat="45.48282" lon="5.61635">
        <ele>623.07</ele>
        <time>2017-10-05T09:43:30Z</time>
      </trkpt>
      <trkpt lat="45.48282" lon="5.61628">
        <ele>623.07</ele>
        <time>2017-10-05T09:43:31Z</time>
      </trkpt>
      <trkpt lat="45.48282" lon="5.61609">
        <ele>624.03</ele>
        <time>2017-10-05T09:43:34Z</time>
      </trkpt>
      <trkpt lat="45.48282" lon="5.61603">
        <ele>624.03</ele>
        <time>2017-10-05T09:43:35Z</time>
      </trkpt>
      <trkpt lat="45.48287" lon="5.61573">
        <ele>627.4</ele>
        <time>2017-10-05T09:43:42Z</time>
      </trkpt>
      <trkpt lat="45.48289" lon="5.61569">
        <ele>626.92</ele>
        <time>2017-10-05T09:43:43Z</time>
      </trkpt>
      <trkpt lat="45.48297" lon="5.61542">
        <ele>630.28</ele>
        <time>2017-10-05T09:43:50Z</time>
      </trkpt>
      <trkpt lat="45.48292" lon="5.61491">
        <ele>631.24</ele>
        <time>2017-10-05T09:44:01Z</time>
      </trkpt>
      <trkpt lat="45.48281" lon="5.61425">
        <ele>630.76</ele>
        <time>2017-10-05T09:44:15Z</time>
      </trkpt>
      <trkpt lat="45.48291" lon="5.61402">
        <ele>629.8</ele>
        <time>2017-10-05T09:44:20Z</time>
      </trkpt>
      <trkpt lat="45.48294" lon="5.61398">
        <ele>629.32</ele>
        <time>2017-10-05T09:44:21Z</time>
      </trkpt>
      <trkpt lat="45.48297" lon="5.61394">
        <ele>629.32</ele>
        <time>2017-10-05T09:44:22Z</time>
      </trkpt>
      <trkpt lat="45.48301" lon="5.61391">
        <ele>629.32</ele>
        <time>2017-10-05T09:44:23Z</time>
      </trkpt>
      <trkpt lat="45.48304" lon="5.61389">
        <ele>629.32</ele>
        <time>2017-10-05T09:44:24Z</time>
      </trkpt>
      <trkpt lat="45.4833" lon="5.61371">
        <ele>628.84</ele>
        <time>2017-10-05T09:44:34Z</time>
      </trkpt>
      <trkpt lat="45.48346" lon="5.61352">
        <ele>625.96</ele>
        <time>2017-10-05T09:44:41Z</time>
      </trkpt>
      <trkpt lat="45.48349" lon="5.61348">
        <ele>625.47</ele>
        <time>2017-10-05T09:44:42Z</time>
      </trkpt>
      <trkpt lat="45.48352" lon="5.61344">
        <ele>624.03</ele>
        <time>2017-10-05T09:44:43Z</time>
      </trkpt>
      <trkpt lat="45.48353" lon="5.61342">
        <ele>624.03</ele>
        <time>2017-10-05T09:44:44Z</time>
      </trkpt>
      <trkpt lat="45.48355" lon="5.6134">
        <ele>623.07</ele>
        <time>2017-10-05T09:44:45Z</time>
      </trkpt>
      <trkpt lat="45.48356" lon="5.61337">
        <ele>622.59</ele>
        <time>2017-10-05T09:44:46Z</time>
      </trkpt>
      <trkpt lat="45.48356" lon="5.61332">
        <ele>621.63</ele>
        <time>2017-10-05T09:44:47Z</time>
      </trkpt>
      <trkpt lat="45.48357" lon="5.61327">
        <ele>620.67</ele>
        <time>2017-10-05T09:44:48Z</time>
      </trkpt>
      <trkpt lat="45.48358" lon="5.61322">
        <ele>619.71</ele>
        <time>2017-10-05T09:44:49Z</time>
      </trkpt>
      <trkpt lat="45.48358" lon="5.61316">
        <ele>618.75</ele>
        <time>2017-10-05T09:44:50Z</time>
      </trkpt>
      <trkpt lat="45.48359" lon="5.61299">
        <ele>615.38</ele>
        <time>2017-10-05T09:44:54Z</time>
      </trkpt>
      <trkpt lat="45.4836" lon="5.61292">
        <ele>613.94</ele>
        <time>2017-10-05T09:44:55Z</time>
      </trkpt>
      <trkpt lat="45.48362" lon="5.61285">
        <ele>613.46</ele>
        <time>2017-10-05T09:44:56Z</time>
      </trkpt>
      <trkpt lat="45.48364" lon="5.61278">
        <ele>612.5</ele>
        <time>2017-10-05T09:44:57Z</time>
      </trkpt>
      <trkpt lat="45.48366" lon="5.61269">
        <ele>611.54</ele>
        <time>2017-10-05T09:44:58Z</time>
      </trkpt>
      <trkpt lat="45.48366" lon="5.6126">
        <ele>610.57</ele>
        <time>2017-10-05T09:44:59Z</time>
      </trkpt>
      <trkpt lat="45.48365" lon="5.61251">
        <ele>609.61</ele>
        <time>2017-10-05T09:45:00Z</time>
      </trkpt>
      <trkpt lat="45.48363" lon="5.61243">
        <ele>608.65</ele>
        <time>2017-10-05T09:45:01Z</time>
      </trkpt>
      <trkpt lat="45.48361" lon="5.61235">
        <ele>608.17</ele>
        <time>2017-10-05T09:45:02Z</time>
      </trkpt>
      <trkpt lat="45.48352" lon="5.61198">
        <ele>603.85</ele>
        <time>2017-10-05T09:45:06Z</time>
      </trkpt>
      <trkpt lat="45.48348" lon="5.61177">
        <ele>600.96</ele>
        <time>2017-10-05T09:45:08Z</time>
      </trkpt>
      <trkpt lat="45.48345" lon="5.61167">
        <ele>600</ele>
        <time>2017-10-05T09:45:09Z</time>
      </trkpt>
      <trkpt lat="45.48341" lon="5.61149">
        <ele>598.56</ele>
        <time>2017-10-05T09:45:11Z</time>
      </trkpt>
      <trkpt lat="45.48341" lon="5.61139">
        <ele>598.08</ele>
        <time>2017-10-05T09:45:12Z</time>
      </trkpt>
      <trkpt lat="45.48342" lon="5.61131">
        <ele>597.12</ele>
        <time>2017-10-05T09:45:13Z</time>
      </trkpt>
      <trkpt lat="45.48344" lon="5.61124">
        <ele>596.64</ele>
        <time>2017-10-05T09:45:14Z</time>
      </trkpt>
      <trkpt lat="45.48347" lon="5.61119">
        <ele>596.15</ele>
        <time>2017-10-05T09:45:15Z</time>
      </trkpt>
      <trkpt lat="45.4835" lon="5.61117">
        <ele>595.19</ele>
        <time>2017-10-05T09:45:16Z</time>
      </trkpt>
      <trkpt lat="45.48352" lon="5.61116">
        <ele>595.19</ele>
        <time>2017-10-05T09:45:17Z</time>
      </trkpt>
      <trkpt lat="45.48354" lon="5.61115">
        <ele>594.71</ele>
        <time>2017-10-05T09:45:18Z</time>
      </trkpt>
      <trkpt lat="45.48361" lon="5.61111">
        <ele>594.23</ele>
        <time>2017-10-05T09:45:23Z</time>
      </trkpt>
      <trkpt lat="45.48362" lon="5.61108">
        <ele>594.23</ele>
        <time>2017-10-05T09:45:24Z</time>
      </trkpt>
      <trkpt lat="45.48366" lon="5.61099">
        <ele>593.27</ele>
        <time>2017-10-05T09:45:27Z</time>
      </trkpt>
      <trkpt lat="45.48374" lon="5.61084">
        <ele>590.87</ele>
        <time>2017-10-05T09:45:30Z</time>
      </trkpt>
      <trkpt lat="45.48381" lon="5.61072">
        <ele>587.5</ele>
        <time>2017-10-05T09:45:33Z</time>
      </trkpt>
      <trkpt lat="45.48384" lon="5.61071">
        <ele>587.5</ele>
        <time>2017-10-05T09:45:34Z</time>
      </trkpt>
      <trkpt lat="45.48386" lon="5.61072">
        <ele>587.02</ele>
        <time>2017-10-05T09:45:35Z</time>
      </trkpt>
      <trkpt lat="45.48389" lon="5.61074">
        <ele>586.06</ele>
        <time>2017-10-05T09:45:36Z</time>
      </trkpt>
      <trkpt lat="45.48392" lon="5.61076">
        <ele>585.58</ele>
        <time>2017-10-05T09:45:37Z</time>
      </trkpt>
      <trkpt lat="45.48396" lon="5.6108">
        <ele>585.1</ele>
        <time>2017-10-05T09:45:38Z</time>
      </trkpt>
      <trkpt lat="45.48399" lon="5.61085">
        <ele>584.62</ele>
        <time>2017-10-05T09:45:39Z</time>
      </trkpt>
      <trkpt lat="45.48411" lon="5.61102">
        <ele>582.7</ele>
        <time>2017-10-05T09:45:42Z</time>
      </trkpt>
      <trkpt lat="45.4842" lon="5.61116">
        <ele>580.29</ele>
        <time>2017-10-05T09:45:44Z</time>
      </trkpt>
      <trkpt lat="45.4844" lon="5.6115">
        <ele>576.93</ele>
        <time>2017-10-05T09:45:49Z</time>
      </trkpt>
      <trkpt lat="45.4846" lon="5.61184">
        <ele>573.08</ele>
        <time>2017-10-05T09:45:53Z</time>
      </trkpt>
      <trkpt lat="45.48465" lon="5.61191">
        <ele>572.6</ele>
        <time>2017-10-05T09:45:54Z</time>
      </trkpt>
      <trkpt lat="45.48478" lon="5.61207">
        <ele>570.68</ele>
        <time>2017-10-05T09:45:57Z</time>
      </trkpt>
      <trkpt lat="45.48485" lon="5.61214">
        <ele>570.2</ele>
        <time>2017-10-05T09:45:59Z</time>
      </trkpt>
      <trkpt lat="45.48489" lon="5.61218">
        <ele>569.72</ele>
        <time>2017-10-05T09:46:01Z</time>
      </trkpt>
      <trkpt lat="45.4849" lon="5.6122">
        <ele>569.24</ele>
        <time>2017-10-05T09:46:02Z</time>
      </trkpt>
      <trkpt lat="45.48492" lon="5.61222">
        <ele>569.24</ele>
        <time>2017-10-05T09:46:03Z</time>
      </trkpt>
      <trkpt lat="45.48495" lon="5.61225">
        <ele>568.76</ele>
        <time>2017-10-05T09:46:04Z</time>
      </trkpt>
      <trkpt lat="45.48497" lon="5.61228">
        <ele>568.28</ele>
        <time>2017-10-05T09:46:05Z</time>
      </trkpt>
      <trkpt lat="45.485" lon="5.61232">
        <ele>567.8</ele>
        <time>2017-10-05T09:46:06Z</time>
      </trkpt>
      <trkpt lat="45.48506" lon="5.61242">
        <ele>567.32</ele>
        <time>2017-10-05T09:46:08Z</time>
      </trkpt>
      <trkpt lat="45.4853" lon="5.61292">
        <ele>564.43</ele>
        <time>2017-10-05T09:46:16Z</time>
      </trkpt>
      <trkpt lat="45.4854" lon="5.61313">
        <ele>562.99</ele>
        <time>2017-10-05T09:46:20Z</time>
      </trkpt>
      <trkpt lat="45.48541" lon="5.61318">
        <ele>562.51</ele>
        <time>2017-10-05T09:46:21Z</time>
      </trkpt>
      <trkpt lat="45.48543" lon="5.61325">
        <ele>562.51</ele>
        <time>2017-10-05T09:46:22Z</time>
      </trkpt>
      <trkpt lat="45.48547" lon="5.61335">
        <ele>562.03</ele>
        <time>2017-10-05T09:46:24Z</time>
      </trkpt>
      <trkpt lat="45.4855" lon="5.6134">
        <ele>561.55</ele>
        <time>2017-10-05T09:46:25Z</time>
      </trkpt>
      <trkpt lat="45.48552" lon="5.61345">
        <ele>561.55</ele>
        <time>2017-10-05T09:46:26Z</time>
      </trkpt>
      <trkpt lat="45.48565" lon="5.61376">
        <ele>560.59</ele>
        <time>2017-10-05T09:46:32Z</time>
      </trkpt>
      <trkpt lat="45.48586" lon="5.61422">
        <ele>557.22</ele>
        <time>2017-10-05T09:46:39Z</time>
      </trkpt>
      <trkpt lat="45.48593" lon="5.61436">
        <ele>555.78</ele>
        <time>2017-10-05T09:46:41Z</time>
      </trkpt>
      <trkpt lat="45.48602" lon="5.61462">
        <ele>553.86</ele>
        <time>2017-10-05T09:46:44Z</time>
      </trkpt>
      <trkpt lat="45.48614" lon="5.61499">
        <ele>550.49</ele>
        <time>2017-10-05T09:46:48Z</time>
      </trkpt>
      <trkpt lat="45.48618" lon="5.61508">
        <ele>550.49</ele>
        <time>2017-10-05T09:46:49Z</time>
      </trkpt>
      <trkpt lat="45.48622" lon="5.61516">
        <ele>550.01</ele>
        <time>2017-10-05T09:46:50Z</time>
      </trkpt>
      <trkpt lat="45.48639" lon="5.61546">
        <ele>548.09</ele>
        <time>2017-10-05T09:46:54Z</time>
      </trkpt>
      <trkpt lat="45.48642" lon="5.6155">
        <ele>547.61</ele>
        <time>2017-10-05T09:46:55Z</time>
      </trkpt>
      <trkpt lat="45.48646" lon="5.61553">
        <ele>547.13</ele>
        <time>2017-10-05T09:46:56Z</time>
      </trkpt>
      <trkpt lat="45.48652" lon="5.61553">
        <ele>546.17</ele>
        <time>2017-10-05T09:46:57Z</time>
      </trkpt>
      <trkpt lat="45.48658" lon="5.61552">
        <ele>545.2</ele>
        <time>2017-10-05T09:46:58Z</time>
      </trkpt>
      <trkpt lat="45.48664" lon="5.6155">
        <ele>544.72</ele>
        <time>2017-10-05T09:46:59Z</time>
      </trkpt>
      <trkpt lat="45.48668" lon="5.61546">
        <ele>544.24</ele>
        <time>2017-10-05T09:47:00Z</time>
      </trkpt>
      <trkpt lat="45.48671" lon="5.61545">
        <ele>544.24</ele>
        <time>2017-10-05T09:47:01Z</time>
      </trkpt>
      <trkpt lat="45.48675" lon="5.61541">
        <ele>543.76</ele>
        <time>2017-10-05T09:47:04Z</time>
      </trkpt>
      <trkpt lat="45.48677" lon="5.61539">
        <ele>543.76</ele>
        <time>2017-10-05T09:47:05Z</time>
      </trkpt>
      <trkpt lat="45.48679" lon="5.61535">
        <ele>543.28</ele>
        <time>2017-10-05T09:47:06Z</time>
      </trkpt>
      <trkpt lat="45.4868" lon="5.61531">
        <ele>542.8</ele>
        <time>2017-10-05T09:47:07Z</time>
      </trkpt>
      <trkpt lat="45.48683" lon="5.61526">
        <ele>542.8</ele>
        <time>2017-10-05T09:47:08Z</time>
      </trkpt>
      <trkpt lat="45.48685" lon="5.61521">
        <ele>542.8</ele>
        <time>2017-10-05T09:47:09Z</time>
      </trkpt>
      <trkpt lat="45.48688" lon="5.61517">
        <ele>542.32</ele>
        <time>2017-10-05T09:47:10Z</time>
      </trkpt>
      <trkpt lat="45.48692" lon="5.61513">
        <ele>542.32</ele>
        <time>2017-10-05T09:47:11Z</time>
      </trkpt>
      <trkpt lat="45.48696" lon="5.6151">
        <ele>542.32</ele>
        <time>2017-10-05T09:47:12Z</time>
      </trkpt>
      <trkpt lat="45.487" lon="5.61508">
        <ele>541.84</ele>
        <time>2017-10-05T09:47:13Z</time>
      </trkpt>
      <trkpt lat="45.48704" lon="5.61506">
        <ele>541.84</ele>
        <time>2017-10-05T09:47:14Z</time>
      </trkpt>
      <trkpt lat="45.48708" lon="5.61505">
        <ele>541.84</ele>
        <time>2017-10-05T09:47:15Z</time>
      </trkpt>
      <trkpt lat="45.48713" lon="5.61504">
        <ele>541.84</ele>
        <time>2017-10-05T09:47:16Z</time>
      </trkpt>
      <trkpt lat="45.48717" lon="5.61501">
        <ele>541.84</ele>
        <time>2017-10-05T09:47:17Z</time>
      </trkpt>
      <trkpt lat="45.4872" lon="5.61499">
        <ele>541.84</ele>
        <time>2017-10-05T09:47:18Z</time>
      </trkpt>
      <trkpt lat="45.48744" lon="5.61478">
        <ele>541.36</ele>
        <time>2017-10-05T09:47:25Z</time>
      </trkpt>
      <trkpt lat="45.48748" lon="5.61479">
        <ele>541.36</ele>
        <time>2017-10-05T09:47:26Z</time>
      </trkpt>
      <trkpt lat="45.48752" lon="5.61482">
        <ele>541.36</ele>
        <time>2017-10-05T09:47:27Z</time>
      </trkpt>
      <trkpt lat="45.48756" lon="5.61486">
        <ele>540.88</ele>
        <time>2017-10-05T09:47:28Z</time>
      </trkpt>
      <trkpt lat="45.48759" lon="5.61491">
        <ele>540.88</ele>
        <time>2017-10-05T09:47:29Z</time>
      </trkpt>
      <trkpt lat="45.48761" lon="5.61496">
        <ele>540.88</ele>
        <time>2017-10-05T09:47:30Z</time>
      </trkpt>
      <trkpt lat="45.48764" lon="5.61502">
        <ele>540.4</ele>
        <time>2017-10-05T09:47:31Z</time>
      </trkpt>
      <trkpt lat="45.48773" lon="5.61526">
        <ele>539.44</ele>
        <time>2017-10-05T09:47:35Z</time>
      </trkpt>
      <trkpt lat="45.48776" lon="5.61539">
        <ele>539.44</ele>
        <time>2017-10-05T09:47:37Z</time>
      </trkpt>
      <trkpt lat="45.48778" lon="5.61545">
        <ele>539.44</ele>
        <time>2017-10-05T09:47:38Z</time>
      </trkpt>
      <trkpt lat="45.4878" lon="5.61551">
        <ele>539.44</ele>
        <time>2017-10-05T09:47:39Z</time>
      </trkpt>
      <trkpt lat="45.48785" lon="5.61569">
        <ele>539.92</ele>
        <time>2017-10-05T09:47:42Z</time>
      </trkpt>
      <trkpt lat="45.48804" lon="5.61605">
        <ele>538.48</ele>
        <time>2017-10-05T09:47:51Z</time>
      </trkpt>
      <trkpt lat="45.48806" lon="5.61603">
        <ele>538.48</ele>
        <time>2017-10-05T09:47:52Z</time>
      </trkpt>
      <trkpt lat="45.48806" lon="5.61599">
        <ele>538.48</ele>
        <time>2017-10-05T09:47:53Z</time>
      </trkpt>
      <trkpt lat="45.48806" lon="5.61594">
        <ele>537.99</ele>
        <time>2017-10-05T09:47:54Z</time>
      </trkpt>
      <trkpt lat="45.48806" lon="5.61589">
        <ele>537.99</ele>
        <time>2017-10-05T09:47:55Z</time>
      </trkpt>
      <trkpt lat="45.48805" lon="5.61584">
        <ele>537.99</ele>
        <time>2017-10-05T09:47:56Z</time>
      </trkpt>
      <trkpt lat="45.48799" lon="5.61544">
        <ele>537.51</ele>
        <time>2017-10-05T09:48:03Z</time>
      </trkpt>
      <trkpt lat="45.48793" lon="5.61496">
        <ele>536.07</ele>
        <time>2017-10-05T09:48:10Z</time>
      </trkpt>
      <trkpt lat="45.48793" lon="5.61488">
        <ele>536.07</ele>
        <time>2017-10-05T09:48:11Z</time>
      </trkpt>
      <trkpt lat="45.48795" lon="5.61481">
        <ele>535.59</ele>
        <time>2017-10-05T09:48:12Z</time>
      </trkpt>
      <trkpt lat="45.48797" lon="5.61474">
        <ele>535.59</ele>
        <time>2017-10-05T09:48:13Z</time>
      </trkpt>
      <trkpt lat="45.48799" lon="5.61468">
        <ele>535.59</ele>
        <time>2017-10-05T09:48:14Z</time>
      </trkpt>
      <trkpt lat="45.48802" lon="5.61462">
        <ele>535.59</ele>
        <time>2017-10-05T09:48:15Z</time>
      </trkpt>
      <trkpt lat="45.48805" lon="5.61457">
        <ele>535.59</ele>
        <time>2017-10-05T09:48:16Z</time>
      </trkpt>
      <trkpt lat="45.48809" lon="5.61454">
        <ele>535.59</ele>
        <time>2017-10-05T09:48:17Z</time>
      </trkpt>
      <trkpt lat="45.48814" lon="5.61451">
        <ele>535.59</ele>
        <time>2017-10-05T09:48:18Z</time>
      </trkpt>
      <trkpt lat="45.48818" lon="5.61449">
        <ele>536.07</ele>
        <time>2017-10-05T09:48:19Z</time>
      </trkpt>
      <trkpt lat="45.48823" lon="5.61449">
        <ele>536.07</ele>
        <time>2017-10-05T09:48:20Z</time>
      </trkpt>
      <trkpt lat="45.48828" lon="5.61451">
        <ele>536.07</ele>
        <time>2017-10-05T09:48:21Z</time>
      </trkpt>
      <trkpt lat="45.48832" lon="5.61453">
        <ele>536.07</ele>
        <time>2017-10-05T09:48:22Z</time>
      </trkpt>
      <trkpt lat="45.48836" lon="5.61456">
        <ele>536.07</ele>
        <time>2017-10-05T09:48:23Z</time>
      </trkpt>
      <trkpt lat="45.4884" lon="5.6146">
        <ele>536.55</ele>
        <time>2017-10-05T09:48:24Z</time>
      </trkpt>
      <trkpt lat="45.48844" lon="5.61464">
        <ele>536.55</ele>
        <time>2017-10-05T09:48:25Z</time>
      </trkpt>
      <trkpt lat="45.48847" lon="5.61468">
        <ele>537.03</ele>
        <time>2017-10-05T09:48:26Z</time>
      </trkpt>
      <trkpt lat="45.48914" lon="5.61533">
        <ele>537.51</ele>
        <time>2017-10-05T09:48:44Z</time>
      </trkpt>
      <trkpt lat="45.48984" lon="5.61558">
        <ele>538.48</ele>
        <time>2017-10-05T09:49:00Z</time>
      </trkpt>
      <trkpt lat="45.49005" lon="5.61557">
        <ele>538.96</ele>
        <time>2017-10-05T09:49:05Z</time>
      </trkpt>
      <trkpt lat="45.49062" lon="5.61533">
        <ele>539.92</ele>
        <time>2017-10-05T09:49:20Z</time>
      </trkpt>
      <trkpt lat="45.49066" lon="5.61524">
        <ele>539.92</ele>
        <time>2017-10-05T09:49:22Z</time>
      </trkpt>
      <trkpt lat="45.49066" lon="5.61518">
        <ele>539.44</ele>
        <time>2017-10-05T09:49:23Z</time>
      </trkpt>
      <trkpt lat="45.49065" lon="5.61512">
        <ele>539.92</ele>
        <time>2017-10-05T09:49:24Z</time>
      </trkpt>
      <trkpt lat="45.49062" lon="5.61508">
        <ele>540.4</ele>
        <time>2017-10-05T09:49:25Z</time>
      </trkpt>
      <trkpt lat="45.49059" lon="5.61507">
        <ele>540.4</ele>
        <time>2017-10-05T09:49:26Z</time>
      </trkpt>
      <trkpt lat="45.49055" lon="5.61508">
        <ele>540.4</ele>
        <time>2017-10-05T09:49:27Z</time>
      </trkpt>
      <trkpt lat="45.49052" lon="5.61509">
        <ele>540.4</ele>
        <time>2017-10-05T09:49:28Z</time>
      </trkpt>
      <trkpt lat="45.49048" lon="5.6151">
        <ele>540.88</ele>
        <time>2017-10-05T09:49:29Z</time>
      </trkpt>
      <trkpt lat="45.49045" lon="5.6151">
        <ele>540.88</ele>
        <time>2017-10-05T09:49:30Z</time>
      </trkpt>
      <trkpt lat="45.49042" lon="5.6151">
        <ele>540.88</ele>
        <time>2017-10-05T09:49:31Z</time>
      </trkpt>
      <trkpt lat="45.48989" lon="5.61512">
        <ele>544.24</ele>
        <time>2017-10-05T09:49:49Z</time>
      </trkpt>
      <trkpt lat="45.48945" lon="5.61501">
        <ele>547.13</ele>
        <time>2017-10-05T09:50:06Z</time>
      </trkpt>
      <trkpt lat="45.48911" lon="5.61478">
        <ele>549.53</ele>
        <time>2017-10-05T09:50:21Z</time>
      </trkpt>
      <trkpt lat="45.48879" lon="5.61435">
        <ele>552.41</ele>
        <time>2017-10-05T09:50:38Z</time>
      </trkpt>
      <trkpt lat="45.4886" lon="5.61368">
        <ele>554.82</ele>
        <time>2017-10-05T09:50:57Z</time>
      </trkpt>
      <trkpt lat="45.48841" lon="5.61307">
        <ele>557.22</ele>
        <time>2017-10-05T09:51:14Z</time>
      </trkpt>
      <trkpt lat="45.488" lon="5.61265">
        <ele>559.14</ele>
        <time>2017-10-05T09:51:31Z</time>
      </trkpt>
      <trkpt lat="45.48766" lon="5.61234">
        <ele>561.07</ele>
        <time>2017-10-05T09:51:45Z</time>
      </trkpt>
      <trkpt lat="45.48726" lon="5.61197">
        <ele>562.99</ele>
        <time>2017-10-05T09:52:01Z</time>
      </trkpt>
      <trkpt lat="45.48697" lon="5.6117">
        <ele>564.43</ele>
        <time>2017-10-05T09:52:13Z</time>
      </trkpt>
      <trkpt lat="45.48661" lon="5.61132">
        <ele>566.35</ele>
        <time>2017-10-05T09:52:28Z</time>
      </trkpt>
      <trkpt lat="45.48624" lon="5.61089">
        <ele>568.28</ele>
        <time>2017-10-05T09:52:44Z</time>
      </trkpt>
      <trkpt lat="45.48592" lon="5.61054">
        <ele>570.2</ele>
        <time>2017-10-05T09:52:58Z</time>
      </trkpt>
      <trkpt lat="45.48562" lon="5.61018">
        <ele>572.12</ele>
        <time>2017-10-05T09:53:12Z</time>
      </trkpt>
      <trkpt lat="45.48544" lon="5.60997">
        <ele>573.08</ele>
        <time>2017-10-05T09:53:21Z</time>
      </trkpt>
      <trkpt lat="45.48544" lon="5.60995">
        <ele>573.56</ele>
        <time>2017-10-05T09:53:22Z</time>
      </trkpt>
      <trkpt lat="45.48546" lon="5.60993">
        <ele>573.56</ele>
        <time>2017-10-05T09:53:23Z</time>
      </trkpt>
      <trkpt lat="45.48547" lon="5.60993">
        <ele>574.04</ele>
        <time>2017-10-05T09:53:24Z</time>
      </trkpt>
      <trkpt lat="45.48549" lon="5.60995">
        <ele>574.04</ele>
        <time>2017-10-05T09:53:25Z</time>
      </trkpt>
      <trkpt lat="45.48551" lon="5.60997">
        <ele>574.04</ele>
        <time>2017-10-05T09:53:26Z</time>
      </trkpt>
      <trkpt lat="45.48552" lon="5.60998">
        <ele>574.04</ele>
        <time>2017-10-05T09:53:27Z</time>
      </trkpt>
      <trkpt lat="45.4858" lon="5.61007">
        <ele>575.49</ele>
        <time>2017-10-05T09:53:40Z</time>
      </trkpt>
      <trkpt lat="45.48601" lon="5.60984">
        <ele>577.89</ele>
        <time>2017-10-05T09:53:53Z</time>
      </trkpt>
      <trkpt lat="45.48619" lon="5.60969">
        <ele>580.77</ele>
        <time>2017-10-05T09:54:05Z</time>
      </trkpt>
      <trkpt lat="45.48621" lon="5.60968">
        <ele>581.25</ele>
        <time>2017-10-05T09:54:06Z</time>
      </trkpt>
      <trkpt lat="45.48622" lon="5.60967">
        <ele>581.25</ele>
        <time>2017-10-05T09:54:07Z</time>
      </trkpt>
      <trkpt lat="45.48623" lon="5.60966">
        <ele>581.73</ele>
        <time>2017-10-05T09:54:08Z</time>
      </trkpt>
      <trkpt lat="45.4863" lon="5.60964">
        <ele>582.7</ele>
        <time>2017-10-05T09:54:12Z</time>
      </trkpt>
      <trkpt lat="45.48632" lon="5.60964">
        <ele>582.7</ele>
        <time>2017-10-05T09:54:13Z</time>
      </trkpt>
      <trkpt lat="45.48634" lon="5.60964">
        <ele>583.18</ele>
        <time>2017-10-05T09:54:14Z</time>
      </trkpt>
      <trkpt lat="45.48636" lon="5.60964">
        <ele>583.18</ele>
        <time>2017-10-05T09:54:15Z</time>
      </trkpt>
      <trkpt lat="45.48637" lon="5.60964">
        <ele>583.66</ele>
        <time>2017-10-05T09:54:16Z</time>
      </trkpt>
      <trkpt lat="45.48639" lon="5.60964">
        <ele>583.66</ele>
        <time>2017-10-05T09:54:17Z</time>
      </trkpt>
      <trkpt lat="45.4864" lon="5.60965">
        <ele>584.14</ele>
        <time>2017-10-05T09:54:18Z</time>
      </trkpt>
      <trkpt lat="45.48642" lon="5.60965">
        <ele>584.14</ele>
        <time>2017-10-05T09:54:19Z</time>
      </trkpt>
      <trkpt lat="45.48643" lon="5.60965">
        <ele>584.62</ele>
        <time>2017-10-05T09:54:20Z</time>
      </trkpt>
      <trkpt lat="45.48645" lon="5.60965">
        <ele>584.62</ele>
        <time>2017-10-05T09:54:21Z</time>
      </trkpt>
      <trkpt lat="45.48647" lon="5.60965">
        <ele>584.62</ele>
        <time>2017-10-05T09:54:22Z</time>
      </trkpt>
      <trkpt lat="45.4867" lon="5.6097">
        <ele>587.02</ele>
        <time>2017-10-05T09:54:36Z</time>
      </trkpt>
      <trkpt lat="45.48692" lon="5.60953">
        <ele>590.39</ele>
        <time>2017-10-05T09:54:51Z</time>
      </trkpt>
      <trkpt lat="45.48699" lon="5.6094">
        <ele>591.35</ele>
        <time>2017-10-05T09:54:58Z</time>
      </trkpt>
      <trkpt lat="45.48701" lon="5.60931">
        <ele>591.83</ele>
        <time>2017-10-05T09:55:02Z</time>
      </trkpt>
      <trkpt lat="45.48702" lon="5.60923">
        <ele>592.79</ele>
        <time>2017-10-05T09:55:07Z</time>
      </trkpt>
      <trkpt lat="45.48712" lon="5.60903">
        <ele>595.67</ele>
        <time>2017-10-05T09:55:19Z</time>
      </trkpt>
      <trkpt lat="45.48718" lon="5.60901">
        <ele>596.64</ele>
        <time>2017-10-05T09:55:23Z</time>
      </trkpt>
      <trkpt lat="45.48719" lon="5.60901">
        <ele>597.12</ele>
        <time>2017-10-05T09:55:24Z</time>
      </trkpt>
      <trkpt lat="45.48721" lon="5.60901">
        <ele>597.12</ele>
        <time>2017-10-05T09:55:25Z</time>
      </trkpt>
      <trkpt lat="45.48723" lon="5.60901">
        <ele>597.6</ele>
        <time>2017-10-05T09:55:26Z</time>
      </trkpt>
      <trkpt lat="45.48724" lon="5.60901">
        <ele>598.08</ele>
        <time>2017-10-05T09:55:27Z</time>
      </trkpt>
      <trkpt lat="45.48725" lon="5.60901">
        <ele>598.08</ele>
        <time>2017-10-05T09:55:28Z</time>
      </trkpt>
      <trkpt lat="45.48737" lon="5.60902">
        <ele>600.48</ele>
        <time>2017-10-05T09:55:37Z</time>
      </trkpt>
      <trkpt lat="45.48744" lon="5.60904">
        <ele>601.44</ele>
        <time>2017-10-05T09:55:41Z</time>
      </trkpt>
      <trkpt lat="45.48745" lon="5.60904">
        <ele>601.44</ele>
        <time>2017-10-05T09:55:42Z</time>
      </trkpt>
      <trkpt lat="45.48759" lon="5.60911">
        <ele>603.85</ele>
        <time>2017-10-05T09:55:53Z</time>
      </trkpt>
      <trkpt lat="45.48774" lon="5.6092">
        <ele>605.29</ele>
        <time>2017-10-05T09:56:07Z</time>
      </trkpt>
      <trkpt lat="45.48775" lon="5.6092">
        <ele>605.77</ele>
        <time>2017-10-05T09:56:08Z</time>
      </trkpt>
      <trkpt lat="45.48778" lon="5.60922">
        <ele>605.77</ele>
        <time>2017-10-05T09:56:10Z</time>
      </trkpt>
      <trkpt lat="45.48797" lon="5.60931">
        <ele>608.17</ele>
        <time>2017-10-05T09:56:23Z</time>
      </trkpt>
      <trkpt lat="45.48818" lon="5.60938">
        <ele>610.09</ele>
        <time>2017-10-05T09:56:36Z</time>
      </trkpt>
      <trkpt lat="45.48839" lon="5.60923">
        <ele>611.54</ele>
        <time>2017-10-05T09:56:50Z</time>
      </trkpt>
      <trkpt lat="45.48821" lon="5.60879">
        <ele>610.57</ele>
        <time>2017-10-05T09:57:02Z</time>
      </trkpt>
      <trkpt lat="45.48794" lon="5.60844">
        <ele>612.98</ele>
        <time>2017-10-05T09:57:17Z</time>
      </trkpt>
      <trkpt lat="45.48774" lon="5.60814">
        <ele>615.86</ele>
        <time>2017-10-05T09:57:31Z</time>
      </trkpt>
      <trkpt lat="45.48762" lon="5.60788">
        <ele>619.71</ele>
        <time>2017-10-05T09:57:43Z</time>
      </trkpt>
      <trkpt lat="45.48761" lon="5.60782">
        <ele>619.71</ele>
        <time>2017-10-05T09:57:45Z</time>
      </trkpt>
      <trkpt lat="45.4876" lon="5.60779">
        <ele>619.71</ele>
        <time>2017-10-05T09:57:46Z</time>
      </trkpt>
      <trkpt lat="45.4875" lon="5.60742">
        <ele>620.67</ele>
        <time>2017-10-05T09:57:58Z</time>
      </trkpt>
      <trkpt lat="45.4873" lon="5.60692">
        <ele>619.71</ele>
        <time>2017-10-05T09:58:10Z</time>
      </trkpt>
      <trkpt lat="45.48709" lon="5.60644">
        <ele>617.3</ele>
        <time>2017-10-05T09:58:21Z</time>
      </trkpt>
      <trkpt lat="45.48701" lon="5.60604">
        <ele>613.94</ele>
        <time>2017-10-05T09:58:25Z</time>
      </trkpt>
      <trkpt lat="45.487" lon="5.60591">
        <ele>612.98</ele>
        <time>2017-10-05T09:58:26Z</time>
      </trkpt>
      <trkpt lat="45.48701" lon="5.60579">
        <ele>611.54</ele>
        <time>2017-10-05T09:58:27Z</time>
      </trkpt>
      <trkpt lat="45.48705" lon="5.60546">
        <ele>608.65</ele>
        <time>2017-10-05T09:58:30Z</time>
      </trkpt>
      <trkpt lat="45.48708" lon="5.60535">
        <ele>607.21</ele>
        <time>2017-10-05T09:58:31Z</time>
      </trkpt>
      <trkpt lat="45.48713" lon="5.60525">
        <ele>606.25</ele>
        <time>2017-10-05T09:58:32Z</time>
      </trkpt>
      <trkpt lat="45.48722" lon="5.60503">
        <ele>604.33</ele>
        <time>2017-10-05T09:58:34Z</time>
      </trkpt>
      <trkpt lat="45.48724" lon="5.6049">
        <ele>603.85</ele>
        <time>2017-10-05T09:58:35Z</time>
      </trkpt>
      <trkpt lat="45.48725" lon="5.60476">
        <ele>602.88</ele>
        <time>2017-10-05T09:58:36Z</time>
      </trkpt>
      <trkpt lat="45.48723" lon="5.60463">
        <ele>602.88</ele>
        <time>2017-10-05T09:58:37Z</time>
      </trkpt>
      <trkpt lat="45.4872" lon="5.60449">
        <ele>602.88</ele>
        <time>2017-10-05T09:58:38Z</time>
      </trkpt>
      <trkpt lat="45.4871" lon="5.60395">
        <ele>599.04</ele>
        <time>2017-10-05T09:58:42Z</time>
      </trkpt>
      <trkpt lat="45.48709" lon="5.60379">
        <ele>597.6</ele>
        <time>2017-10-05T09:58:43Z</time>
      </trkpt>
      <trkpt lat="45.48709" lon="5.60363">
        <ele>596.64</ele>
        <time>2017-10-05T09:58:44Z</time>
      </trkpt>
      <trkpt lat="45.48712" lon="5.60314">
        <ele>593.27</ele>
        <time>2017-10-05T09:58:47Z</time>
      </trkpt>
      <trkpt lat="45.48716" lon="5.60266">
        <ele>590.39</ele>
        <time>2017-10-05T09:58:50Z</time>
      </trkpt>
      <trkpt lat="45.48717" lon="5.60232">
        <ele>588.46</ele>
        <time>2017-10-05T09:58:52Z</time>
      </trkpt>
      <trkpt lat="45.48715" lon="5.60215">
        <ele>587.02</ele>
        <time>2017-10-05T09:58:53Z</time>
      </trkpt>
      <trkpt lat="45.48709" lon="5.60181">
        <ele>584.14</ele>
        <time>2017-10-05T09:58:55Z</time>
      </trkpt>
      <trkpt lat="45.48699" lon="5.60131">
        <ele>583.18</ele>
        <time>2017-10-05T09:58:58Z</time>
      </trkpt>
      <trkpt lat="45.48698" lon="5.60115">
        <ele>583.66</ele>
        <time>2017-10-05T09:58:59Z</time>
      </trkpt>
      <trkpt lat="45.48698" lon="5.60099">
        <ele>583.66</ele>
        <time>2017-10-05T09:59:00Z</time>
      </trkpt>
      <trkpt lat="45.48699" lon="5.60084">
        <ele>583.66</ele>
        <time>2017-10-05T09:59:01Z</time>
      </trkpt>
      <trkpt lat="45.48702" lon="5.6007">
        <ele>584.14</ele>
        <time>2017-10-05T09:59:02Z</time>
      </trkpt>
      <trkpt lat="45.48706" lon="5.6002">
        <ele>585.1</ele>
        <time>2017-10-05T09:59:06Z</time>
      </trkpt>
      <trkpt lat="45.48704" lon="5.5989">
        <ele>582.22</ele>
        <time>2017-10-05T09:59:18Z</time>
      </trkpt>
      <trkpt lat="45.48703" lon="5.59855">
        <ele>579.81</ele>
        <time>2017-10-05T09:59:21Z</time>
      </trkpt>
      <trkpt lat="45.48704" lon="5.59829">
        <ele>577.41</ele>
        <time>2017-10-05T09:59:23Z</time>
      </trkpt>
      <trkpt lat="45.48709" lon="5.59785">
        <ele>574.04</ele>
        <time>2017-10-05T09:59:26Z</time>
      </trkpt>
      <trkpt lat="45.48714" lon="5.59738">
        <ele>572.12</ele>
        <time>2017-10-05T09:59:29Z</time>
      </trkpt>
      <trkpt lat="45.48719" lon="5.59726">
        <ele>571.64</ele>
        <time>2017-10-05T09:59:30Z</time>
      </trkpt>
      <trkpt lat="45.48726" lon="5.59715">
        <ele>570.68</ele>
        <time>2017-10-05T09:59:31Z</time>
      </trkpt>
      <trkpt lat="45.48734" lon="5.59709">
        <ele>570.68</ele>
        <time>2017-10-05T09:59:32Z</time>
      </trkpt>
      <trkpt lat="45.48744" lon="5.59705">
        <ele>570.2</ele>
        <time>2017-10-05T09:59:33Z</time>
      </trkpt>
      <trkpt lat="45.48753" lon="5.59701">
        <ele>569.72</ele>
        <time>2017-10-05T09:59:34Z</time>
      </trkpt>
      <trkpt lat="45.48762" lon="5.59694">
        <ele>569.24</ele>
        <time>2017-10-05T09:59:35Z</time>
      </trkpt>
      <trkpt lat="45.48771" lon="5.59687">
        <ele>568.76</ele>
        <time>2017-10-05T09:59:36Z</time>
      </trkpt>
      <trkpt lat="45.48779" lon="5.59679">
        <ele>568.28</ele>
        <time>2017-10-05T09:59:37Z</time>
      </trkpt>
      <trkpt lat="45.48785" lon="5.59672">
        <ele>567.8</ele>
        <time>2017-10-05T09:59:38Z</time>
      </trkpt>
      <trkpt lat="45.48801" lon="5.59647">
        <ele>562.03</ele>
        <time>2017-10-05T09:59:43Z</time>
      </trkpt>
      <trkpt lat="45.48803" lon="5.59644">
        <ele>571.64</ele>
        <time>2017-10-05T09:59:44Z</time>
      </trkpt>
      <trkpt lat="45.48805" lon="5.5964">
        <ele>563.95</ele>
        <time>2017-10-05T09:59:45Z</time>
      </trkpt>
      <trkpt lat="45.48806" lon="5.59637">
        <ele>571.16</ele>
        <time>2017-10-05T09:59:46Z</time>
      </trkpt>
      <trkpt lat="45.48811" lon="5.5963">
        <ele>565.87</ele>
        <time>2017-10-05T09:59:48Z</time>
      </trkpt>
      <trkpt lat="45.48813" lon="5.59627">
        <ele>566.35</ele>
        <time>2017-10-05T09:59:49Z</time>
      </trkpt>
      <trkpt lat="45.4882" lon="5.5962">
        <ele>565.39</ele>
        <time>2017-10-05T09:59:51Z</time>
      </trkpt>
      <trkpt lat="45.48825" lon="5.59617">
        <ele>561.55</ele>
        <time>2017-10-05T09:59:52Z</time>
      </trkpt>
      <trkpt lat="45.4883" lon="5.59615">
        <ele>566.35</ele>
        <time>2017-10-05T09:59:53Z</time>
      </trkpt>
      <trkpt lat="45.48835" lon="5.59613">
        <ele>563.47</ele>
        <time>2017-10-05T09:59:54Z</time>
      </trkpt>
      <trkpt lat="45.48841" lon="5.59611">
        <ele>563.47</ele>
        <time>2017-10-05T09:59:55Z</time>
      </trkpt>
      <trkpt lat="45.48874" lon="5.59598">
        <ele>561.55</ele>
        <time>2017-10-05T10:00:00Z</time>
      </trkpt>
      <trkpt lat="45.4888" lon="5.59594">
        <ele>561.07</ele>
        <time>2017-10-05T10:00:01Z</time>
      </trkpt>
      <trkpt lat="45.48898" lon="5.59577">
        <ele>559.62</ele>
        <time>2017-10-05T10:00:04Z</time>
      </trkpt>
      <trkpt lat="45.48902" lon="5.59571">
        <ele>558.66</ele>
        <time>2017-10-05T10:00:05Z</time>
      </trkpt>
      <trkpt lat="45.48905" lon="5.59563">
        <ele>558.18</ele>
        <time>2017-10-05T10:00:06Z</time>
      </trkpt>
      <trkpt lat="45.48907" lon="5.59554">
        <ele>557.7</ele>
        <time>2017-10-05T10:00:07Z</time>
      </trkpt>
      <trkpt lat="45.48907" lon="5.59544">
        <ele>557.22</ele>
        <time>2017-10-05T10:00:08Z</time>
      </trkpt>
      <trkpt lat="45.48906" lon="5.59533">
        <ele>556.74</ele>
        <time>2017-10-05T10:00:09Z</time>
      </trkpt>
      <trkpt lat="45.48904" lon="5.59523">
        <ele>556.26</ele>
        <time>2017-10-05T10:00:10Z</time>
      </trkpt>
      <trkpt lat="45.48902" lon="5.59513">
        <ele>555.78</ele>
        <time>2017-10-05T10:00:11Z</time>
      </trkpt>
      <trkpt lat="45.48893" lon="5.59467">
        <ele>554.82</ele>
        <time>2017-10-05T10:00:16Z</time>
      </trkpt>
      <trkpt lat="45.48892" lon="5.59462">
        <ele>554.82</ele>
        <time>2017-10-05T10:00:17Z</time>
      </trkpt>
      <trkpt lat="45.48893" lon="5.59458">
        <ele>554.82</ele>
        <time>2017-10-05T10:00:18Z</time>
      </trkpt>
      <trkpt lat="45.48894" lon="5.59457">
        <ele>554.82</ele>
        <time>2017-10-05T10:00:19Z</time>
      </trkpt>
      <trkpt lat="45.48896" lon="5.59457">
        <ele>554.82</ele>
        <time>2017-10-05T10:00:20Z</time>
      </trkpt>
      <trkpt lat="45.48898" lon="5.59458">
        <ele>554.34</ele>
        <time>2017-10-05T10:00:21Z</time>
      </trkpt>
      <trkpt lat="45.489" lon="5.59461">
        <ele>554.34</ele>
        <time>2017-10-05T10:00:22Z</time>
      </trkpt>
      <trkpt lat="45.48901" lon="5.59464">
        <ele>554.34</ele>
        <time>2017-10-05T10:00:23Z</time>
      </trkpt>
      <trkpt lat="45.48901" lon="5.59468">
        <ele>554.34</ele>
        <time>2017-10-05T10:00:24Z</time>
      </trkpt>
      <trkpt lat="45.48902" lon="5.59472">
        <ele>554.34</ele>
        <time>2017-10-05T10:00:25Z</time>
      </trkpt>
      <trkpt lat="45.48902" lon="5.59475">
        <ele>554.34</ele>
        <time>2017-10-05T10:00:26Z</time>
      </trkpt>
      <trkpt lat="45.48903" lon="5.59479">
        <ele>553.86</ele>
        <time>2017-10-05T10:00:27Z</time>
      </trkpt>
      <trkpt lat="45.48904" lon="5.59483">
        <ele>554.34</ele>
        <time>2017-10-05T10:00:28Z</time>
      </trkpt>
      <trkpt lat="45.48905" lon="5.59487">
        <ele>554.34</ele>
        <time>2017-10-05T10:00:29Z</time>
      </trkpt>
      <trkpt lat="45.48921" lon="5.59543">
        <ele>555.3</ele>
        <time>2017-10-05T10:00:45Z</time>
      </trkpt>
      <trkpt lat="45.48924" lon="5.59559">
        <ele>555.3</ele>
        <time>2017-10-05T10:00:56Z</time>
      </trkpt>
      <trkpt lat="45.48924" lon="5.59558">
        <ele>555.3</ele>
        <time>2017-10-05T10:01:16Z</time>
      </trkpt>
      <trkpt lat="45.48925" lon="5.5956">
        <ele>555.3</ele>
        <time>2017-10-05T10:01:25Z</time>
      </trkpt>
      <trkpt lat="45.48925" lon="5.59563">
        <ele>555.3</ele>
        <time>2017-10-05T10:01:26Z</time>
      </trkpt>
      <trkpt lat="45.48926" lon="5.59566">
        <ele>555.3</ele>
        <time>2017-10-05T10:01:27Z</time>
      </trkpt>
      <trkpt lat="45.48927" lon="5.5957">
        <ele>554.82</ele>
        <time>2017-10-05T10:01:28Z</time>
      </trkpt>
      <trkpt lat="45.48928" lon="5.59573">
        <ele>555.3</ele>
        <time>2017-10-05T10:01:29Z</time>
      </trkpt>
      <trkpt lat="45.48929" lon="5.59577">
        <ele>555.3</ele>
        <time>2017-10-05T10:01:30Z</time>
      </trkpt>
      <trkpt lat="45.4893" lon="5.59581">
        <ele>554.82</ele>
        <time>2017-10-05T10:01:31Z</time>
      </trkpt>
      <trkpt lat="45.48932" lon="5.59585">
        <ele>554.82</ele>
        <time>2017-10-05T10:01:32Z</time>
      </trkpt>
      <trkpt lat="45.48933" lon="5.59589">
        <ele>555.3</ele>
        <time>2017-10-05T10:01:33Z</time>
      </trkpt>
      <trkpt lat="45.48934" lon="5.59593">
        <ele>555.3</ele>
        <time>2017-10-05T10:01:34Z</time>
      </trkpt>
      <trkpt lat="45.48936" lon="5.59598">
        <ele>555.3</ele>
        <time>2017-10-05T10:01:35Z</time>
      </trkpt>
      <trkpt lat="45.48937" lon="5.59602">
        <ele>554.82</ele>
        <time>2017-10-05T10:01:36Z</time>
      </trkpt>
      <trkpt lat="45.48948" lon="5.59655">
        <ele>554.34</ele>
        <time>2017-10-05T10:01:47Z</time>
      </trkpt>
      <trkpt lat="45.48948" lon="5.59661">
        <ele>554.34</ele>
        <time>2017-10-05T10:01:48Z</time>
      </trkpt>
      <trkpt lat="45.48949" lon="5.59667">
        <ele>553.86</ele>
        <time>2017-10-05T10:01:49Z</time>
      </trkpt>
      <trkpt lat="45.48953" lon="5.59745">
        <ele>550.49</ele>
        <time>2017-10-05T10:01:59Z</time>
      </trkpt>
      <trkpt lat="45.48955" lon="5.59763">
        <ele>549.53</ele>
        <time>2017-10-05T10:02:01Z</time>
      </trkpt>
      <trkpt lat="45.48958" lon="5.59773">
        <ele>549.05</ele>
        <time>2017-10-05T10:02:02Z</time>
      </trkpt>
      <trkpt lat="45.4896" lon="5.59781">
        <ele>548.57</ele>
        <time>2017-10-05T10:02:03Z</time>
      </trkpt>
      <trkpt lat="45.48964" lon="5.5979">
        <ele>548.57</ele>
        <time>2017-10-05T10:02:04Z</time>
      </trkpt>
      <trkpt lat="45.48968" lon="5.59798">
        <ele>548.09</ele>
        <time>2017-10-05T10:02:05Z</time>
      </trkpt>
      <trkpt lat="45.48973" lon="5.59806">
        <ele>547.61</ele>
        <time>2017-10-05T10:02:06Z</time>
      </trkpt>
      <trkpt lat="45.48978" lon="5.59814">
        <ele>547.13</ele>
        <time>2017-10-05T10:02:07Z</time>
      </trkpt>
      <trkpt lat="45.49047" lon="5.59905">
        <ele>544.24</ele>
        <time>2017-10-05T10:02:20Z</time>
      </trkpt>
      <trkpt lat="45.49102" lon="5.60012">
        <ele>541.36</ele>
        <time>2017-10-05T10:02:34Z</time>
      </trkpt>
      <trkpt lat="45.49104" lon="5.60019">
        <ele>541.36</ele>
        <time>2017-10-05T10:02:35Z</time>
      </trkpt>
      <trkpt lat="45.49107" lon="5.60025">
        <ele>541.36</ele>
        <time>2017-10-05T10:02:36Z</time>
      </trkpt>
      <trkpt lat="45.49109" lon="5.6003">
        <ele>541.36</ele>
        <time>2017-10-05T10:02:37Z</time>
      </trkpt>
      <trkpt lat="45.4911" lon="5.60035">
        <ele>540.88</ele>
        <time>2017-10-05T10:02:38Z</time>
      </trkpt>
      <trkpt lat="45.49112" lon="5.60052">
        <ele>540.88</ele>
        <time>2017-10-05T10:02:42Z</time>
      </trkpt>
      <trkpt lat="45.4911" lon="5.60056">
        <ele>540.88</ele>
        <time>2017-10-05T10:02:43Z</time>
      </trkpt>
      <trkpt lat="45.49108" lon="5.60058">
        <ele>540.88</ele>
        <time>2017-10-05T10:02:44Z</time>
      </trkpt>
      <trkpt lat="45.49078" lon="5.60095">
        <ele>539.44</ele>
        <time>2017-10-05T10:02:56Z</time>
      </trkpt>
      <trkpt lat="45.49053" lon="5.6011">
        <ele>539.92</ele>
        <time>2017-10-05T10:03:07Z</time>
      </trkpt>
      <trkpt lat="45.49018" lon="5.60106">
        <ele>540.4</ele>
        <time>2017-10-05T10:03:21Z</time>
      </trkpt>
      <trkpt lat="45.4898" lon="5.60093">
        <ele>540.4</ele>
        <time>2017-10-05T10:03:36Z</time>
      </trkpt>
      <trkpt lat="45.48953" lon="5.60088">
        <ele>540.88</ele>
        <time>2017-10-05T10:03:49Z</time>
      </trkpt>
      <trkpt lat="45.48952" lon="5.60088">
        <ele>541.36</ele>
        <time>2017-10-05T10:03:50Z</time>
      </trkpt>
      <trkpt lat="45.48951" lon="5.60088">
        <ele>541.36</ele>
        <time>2017-10-05T10:03:51Z</time>
      </trkpt>
      <trkpt lat="45.48948" lon="5.60088">
        <ele>540.88</ele>
        <time>2017-10-05T10:04:01Z</time>
      </trkpt>
      <trkpt lat="45.48948" lon="5.60088">
        <ele>537.99</ele>
        <time>2017-10-05T10:04:13Z</time>
      </trkpt>
      <trkpt lat="45.48948" lon="5.60088">
        <ele>543.76</ele>
        <time>2017-10-05T10:04:14Z</time>
      </trkpt>
      <trkpt lat="45.48948" lon="5.60088">
        <ele>539.44</ele>
        <time>2017-10-05T10:04:15Z</time>
      </trkpt>
      <trkpt lat="45.48948" lon="5.60088">
        <ele>542.8</ele>
        <time>2017-10-05T10:04:16Z</time>
      </trkpt>
      <trkpt lat="45.48949" lon="5.60088">
        <ele>541.36</ele>
        <time>2017-10-05T10:04:30Z</time>
      </trkpt>
      <trkpt lat="45.48949" lon="5.6009">
        <ele>541.36</ele>
        <time>2017-10-05T10:04:31Z</time>
      </trkpt>
      <trkpt lat="45.48955" lon="5.60094">
        <ele>540.88</ele>
        <time>2017-10-05T10:04:36Z</time>
      </trkpt>
      <trkpt lat="45.48989" lon="5.60097">
        <ele>540.4</ele>
        <time>2017-10-05T10:04:49Z</time>
      </trkpt>
      <trkpt lat="45.49036" lon="5.60111">
        <ele>540.4</ele>
        <time>2017-10-05T10:05:04Z</time>
      </trkpt>
      <trkpt lat="45.49081" lon="5.60098">
        <ele>539.44</ele>
        <time>2017-10-05T10:05:17Z</time>
      </trkpt>
      <trkpt lat="45.49112" lon="5.60062">
        <ele>540.4</ele>
        <time>2017-10-05T10:05:31Z</time>
      </trkpt>
      <trkpt lat="45.49124" lon="5.60069">
        <ele>540.4</ele>
        <time>2017-10-05T10:05:36Z</time>
      </trkpt>
      <trkpt lat="45.49129" lon="5.60081">
        <ele>539.92</ele>
        <time>2017-10-05T10:05:39Z</time>
      </trkpt>
      <trkpt lat="45.4913" lon="5.60085">
        <ele>540.4</ele>
        <time>2017-10-05T10:05:42Z</time>
      </trkpt>
      <trkpt lat="45.49131" lon="5.60085">
        <ele>538.96</ele>
        <time>2017-10-05T10:05:55Z</time>
      </trkpt>
      <trkpt lat="45.49131" lon="5.60084">
        <ele>544.24</ele>
        <time>2017-10-05T10:06:15Z</time>
      </trkpt>
      <trkpt lat="45.49131" lon="5.60084">
        <ele>537.51</ele>
        <time>2017-10-05T10:06:16Z</time>
      </trkpt>
      <trkpt lat="45.49131" lon="5.60084">
        <ele>541.84</ele>
        <time>2017-10-05T10:06:17Z</time>
      </trkpt>
      <trkpt lat="45.49131" lon="5.60084">
        <ele>540.4</ele>
        <time>2017-10-05T10:06:20Z</time>
      </trkpt>
      <trkpt lat="45.4913" lon="5.60085">
        <ele>540.4</ele>
        <time>2017-10-05T10:06:46Z</time>
      </trkpt>
      <trkpt lat="45.49131" lon="5.60087">
        <ele>539.92</ele>
        <time>2017-10-05T10:06:47Z</time>
      </trkpt>
      <trkpt lat="45.49132" lon="5.6009">
        <ele>539.92</ele>
        <time>2017-10-05T10:06:48Z</time>
      </trkpt>
      <trkpt lat="45.49133" lon="5.60093">
        <ele>539.44</ele>
        <time>2017-10-05T10:06:49Z</time>
      </trkpt>
      <trkpt lat="45.49134" lon="5.60097">
        <ele>539.44</ele>
        <time>2017-10-05T10:06:50Z</time>
      </trkpt>
      <trkpt lat="45.49135" lon="5.60101">
        <ele>539.44</ele>
        <time>2017-10-05T10:06:51Z</time>
      </trkpt>
      <trkpt lat="45.49149" lon="5.6016">
        <ele>539.92</ele>
        <time>2017-10-05T10:07:04Z</time>
      </trkpt>
      <trkpt lat="45.49161" lon="5.60259">
        <ele>540.88</ele>
        <time>2017-10-05T10:07:23Z</time>
      </trkpt>
      <trkpt lat="45.49185" lon="5.6035">
        <ele>541.84</ele>
        <time>2017-10-05T10:07:41Z</time>
      </trkpt>
      <trkpt lat="45.49227" lon="5.60411">
        <ele>542.32</ele>
        <time>2017-10-05T10:07:56Z</time>
      </trkpt>
      <trkpt lat="45.49261" lon="5.60471">
        <ele>543.28</ele>
        <time>2017-10-05T10:08:10Z</time>
      </trkpt>
      <trkpt lat="45.49298" lon="5.60553">
        <ele>544.24</ele>
        <time>2017-10-05T10:08:28Z</time>
      </trkpt>
      <trkpt lat="45.49336" lon="5.60625">
        <ele>545.69</ele>
        <time>2017-10-05T10:08:44Z</time>
      </trkpt>
      <trkpt lat="45.4937" lon="5.60663">
        <ele>544.72</ele>
        <time>2017-10-05T10:08:54Z</time>
      </trkpt>
      <trkpt lat="45.4943" lon="5.60729">
        <ele>544.24</ele>
        <time>2017-10-05T10:09:10Z</time>
      </trkpt>
      <trkpt lat="45.49501" lon="5.60803">
        <ele>544.72</ele>
        <time>2017-10-05T10:09:28Z</time>
      </trkpt>
      <trkpt lat="45.49552" lon="5.60846">
        <ele>547.13</ele>
        <time>2017-10-05T10:09:43Z</time>
      </trkpt>
      <trkpt lat="45.49602" lon="5.60891">
        <ele>547.13</ele>
        <time>2017-10-05T10:09:59Z</time>
      </trkpt>
      <trkpt lat="45.49608" lon="5.60898">
        <ele>547.13</ele>
        <time>2017-10-05T10:10:01Z</time>
      </trkpt>
      <trkpt lat="45.49624" lon="5.60918">
        <ele>546.65</ele>
        <time>2017-10-05T10:10:08Z</time>
      </trkpt>
      <trkpt lat="45.49625" lon="5.60919">
        <ele>546.65</ele>
        <time>2017-10-05T10:10:09Z</time>
      </trkpt>
      <trkpt lat="45.49627" lon="5.60919">
        <ele>546.65</ele>
        <time>2017-10-05T10:10:10Z</time>
      </trkpt>
      <trkpt lat="45.49629" lon="5.60918">
        <ele>546.17</ele>
        <time>2017-10-05T10:10:11Z</time>
      </trkpt>
      <trkpt lat="45.49631" lon="5.60915">
        <ele>546.65</ele>
        <time>2017-10-05T10:10:12Z</time>
      </trkpt>
      <trkpt lat="45.49632" lon="5.60912">
        <ele>546.65</ele>
        <time>2017-10-05T10:10:13Z</time>
      </trkpt>
      <trkpt lat="45.49645" lon="5.60854">
        <ele>548.57</ele>
        <time>2017-10-05T10:10:27Z</time>
      </trkpt>
      <trkpt lat="45.49668" lon="5.60787">
        <ele>549.05</ele>
        <time>2017-10-05T10:10:42Z</time>
      </trkpt>
      <trkpt lat="45.49694" lon="5.60739">
        <ele>551.45</ele>
        <time>2017-10-05T10:10:55Z</time>
      </trkpt>
      <trkpt lat="45.49715" lon="5.60706">
        <ele>552.9</ele>
        <time>2017-10-05T10:11:07Z</time>
      </trkpt>
      <trkpt lat="45.49746" lon="5.60649">
        <ele>553.38</ele>
        <time>2017-10-05T10:11:23Z</time>
      </trkpt>
      <trkpt lat="45.4977" lon="5.60593">
        <ele>552.41</ele>
        <time>2017-10-05T10:11:36Z</time>
      </trkpt>
      <trkpt lat="45.49788" lon="5.60553">
        <ele>552.41</ele>
        <time>2017-10-05T10:11:44Z</time>
      </trkpt>
      <trkpt lat="45.49788" lon="5.60549">
        <ele>552.9</ele>
        <time>2017-10-05T10:11:45Z</time>
      </trkpt>
      <trkpt lat="45.49788" lon="5.60547">
        <ele>552.41</ele>
        <time>2017-10-05T10:11:46Z</time>
      </trkpt>
      <trkpt lat="45.49789" lon="5.60545">
        <ele>552.9</ele>
        <time>2017-10-05T10:11:57Z</time>
      </trkpt>
      <trkpt lat="45.49788" lon="5.60544">
        <ele>552.9</ele>
        <time>2017-10-05T10:12:16Z</time>
      </trkpt>
      <trkpt lat="45.49788" lon="5.60544">
        <ele>549.05</ele>
        <time>2017-10-05T10:12:18Z</time>
      </trkpt>
      <trkpt lat="45.49788" lon="5.60544">
        <ele>557.22</ele>
        <time>2017-10-05T10:12:19Z</time>
      </trkpt>
      <trkpt lat="45.49788" lon="5.60544">
        <ele>550.97</ele>
        <time>2017-10-05T10:12:20Z</time>
      </trkpt>
      <trkpt lat="45.49788" lon="5.60544">
        <ele>555.78</ele>
        <time>2017-10-05T10:12:21Z</time>
      </trkpt>
      <trkpt lat="45.49788" lon="5.60544">
        <ele>550.97</ele>
        <time>2017-10-05T10:12:22Z</time>
      </trkpt>
      <trkpt lat="45.49788" lon="5.60544">
        <ele>554.34</ele>
        <time>2017-10-05T10:12:23Z</time>
      </trkpt>
      <trkpt lat="45.49788" lon="5.60544">
        <ele>552.9</ele>
        <time>2017-10-05T10:12:27Z</time>
      </trkpt>
      <trkpt lat="45.4979" lon="5.60545">
        <ele>552.9</ele>
        <time>2017-10-05T10:12:28Z</time>
      </trkpt>
      <trkpt lat="45.49793" lon="5.60545">
        <ele>552.41</ele>
        <time>2017-10-05T10:12:29Z</time>
      </trkpt>
      <trkpt lat="45.49796" lon="5.60543">
        <ele>551.93</ele>
        <time>2017-10-05T10:12:30Z</time>
      </trkpt>
      <trkpt lat="45.49798" lon="5.6054">
        <ele>551.93</ele>
        <time>2017-10-05T10:12:31Z</time>
      </trkpt>
      <trkpt lat="45.49801" lon="5.60537">
        <ele>551.45</ele>
        <time>2017-10-05T10:12:32Z</time>
      </trkpt>
      <trkpt lat="45.49827" lon="5.60507">
        <ele>551.93</ele>
        <time>2017-10-05T10:12:42Z</time>
      </trkpt>
      <trkpt lat="45.49851" lon="5.60478">
        <ele>553.38</ele>
        <time>2017-10-05T10:12:52Z</time>
      </trkpt>
      <trkpt lat="45.49865" lon="5.60464">
        <ele>552.9</ele>
        <time>2017-10-05T10:12:56Z</time>
      </trkpt>
      <trkpt lat="45.49905" lon="5.6044">
        <ele>552.41</ele>
        <time>2017-10-05T10:13:06Z</time>
      </trkpt>
      <trkpt lat="45.4991" lon="5.60439">
        <ele>552.9</ele>
        <time>2017-10-05T10:13:07Z</time>
      </trkpt>
      <trkpt lat="45.49914" lon="5.60438">
        <ele>552.9</ele>
        <time>2017-10-05T10:13:08Z</time>
      </trkpt>
      <trkpt lat="45.49917" lon="5.60437">
        <ele>552.9</ele>
        <time>2017-10-05T10:13:09Z</time>
      </trkpt>
      <trkpt lat="45.49921" lon="5.60436">
        <ele>553.38</ele>
        <time>2017-10-05T10:13:10Z</time>
      </trkpt>
      <trkpt lat="45.49925" lon="5.60435">
        <ele>552.9</ele>
        <time>2017-10-05T10:13:11Z</time>
      </trkpt>
      <trkpt lat="45.49964" lon="5.60416">
        <ele>555.3</ele>
        <time>2017-10-05T10:13:23Z</time>
      </trkpt>
      <trkpt lat="45.4999" lon="5.60395">
        <ele>558.66</ele>
        <time>2017-10-05T10:13:34Z</time>
      </trkpt>
      <trkpt lat="45.5003" lon="5.60368">
        <ele>561.55</ele>
        <time>2017-10-05T10:13:51Z</time>
      </trkpt>
      <trkpt lat="45.5006" lon="5.60345">
        <ele>564.43</ele>
        <time>2017-10-05T10:14:08Z</time>
      </trkpt>
      <trkpt lat="45.5008" lon="5.60321">
        <ele>567.8</ele>
        <time>2017-10-05T10:14:22Z</time>
      </trkpt>
      <trkpt lat="45.50083" lon="5.60315">
        <ele>568.28</ele>
        <time>2017-10-05T10:14:25Z</time>
      </trkpt>
      <trkpt lat="45.50084" lon="5.60314">
        <ele>568.76</ele>
        <time>2017-10-05T10:14:26Z</time>
      </trkpt>
      <trkpt lat="45.50086" lon="5.60313">
        <ele>569.24</ele>
        <time>2017-10-05T10:14:27Z</time>
      </trkpt>
      <trkpt lat="45.50086" lon="5.60311">
        <ele>569.24</ele>
        <time>2017-10-05T10:14:28Z</time>
      </trkpt>
      <trkpt lat="45.50087" lon="5.6031">
        <ele>569.72</ele>
        <time>2017-10-05T10:14:29Z</time>
      </trkpt>
      <trkpt lat="45.50094" lon="5.60287">
        <ele>571.64</ele>
        <time>2017-10-05T10:14:41Z</time>
      </trkpt>
      <trkpt lat="45.50095" lon="5.60285">
        <ele>572.12</ele>
        <time>2017-10-05T10:14:42Z</time>
      </trkpt>
      <trkpt lat="45.50096" lon="5.60283">
        <ele>572.12</ele>
        <time>2017-10-05T10:14:43Z</time>
      </trkpt>
      <trkpt lat="45.50096" lon="5.60281">
        <ele>572.12</ele>
        <time>2017-10-05T10:14:44Z</time>
      </trkpt>
      <trkpt lat="45.50097" lon="5.6028">
        <ele>572.6</ele>
        <time>2017-10-05T10:14:45Z</time>
      </trkpt>
      <trkpt lat="45.50097" lon="5.60278">
        <ele>572.6</ele>
        <time>2017-10-05T10:14:46Z</time>
      </trkpt>
      <trkpt lat="45.50098" lon="5.60276">
        <ele>573.08</ele>
        <time>2017-10-05T10:14:47Z</time>
      </trkpt>
      <trkpt lat="45.50098" lon="5.60274">
        <ele>573.08</ele>
        <time>2017-10-05T10:14:48Z</time>
      </trkpt>
      <trkpt lat="45.50099" lon="5.60272">
        <ele>573.56</ele>
        <time>2017-10-05T10:14:49Z</time>
      </trkpt>
      <trkpt lat="45.50103" lon="5.60254">
        <ele>575.49</ele>
        <time>2017-10-05T10:14:58Z</time>
      </trkpt>
      <trkpt lat="45.50104" lon="5.60252">
        <ele>575.49</ele>
        <time>2017-10-05T10:14:59Z</time>
      </trkpt>
      <trkpt lat="45.50104" lon="5.6025">
        <ele>575.97</ele>
        <time>2017-10-05T10:15:00Z</time>
      </trkpt>
      <trkpt lat="45.50105" lon="5.60248">
        <ele>576.45</ele>
        <time>2017-10-05T10:15:01Z</time>
      </trkpt>
      <trkpt lat="45.50105" lon="5.60246">
        <ele>576.45</ele>
        <time>2017-10-05T10:15:02Z</time>
      </trkpt>
      <trkpt lat="45.50109" lon="5.60232">
        <ele>577.89</ele>
        <time>2017-10-05T10:15:08Z</time>
      </trkpt>
      <trkpt lat="45.50114" lon="5.60207">
        <ele>580.77</ele>
        <time>2017-10-05T10:15:19Z</time>
      </trkpt>
      <trkpt lat="45.50114" lon="5.60204">
        <ele>580.77</ele>
        <time>2017-10-05T10:15:20Z</time>
      </trkpt>
      <trkpt lat="45.50115" lon="5.60202">
        <ele>580.77</ele>
        <time>2017-10-05T10:15:21Z</time>
      </trkpt>
      <trkpt lat="45.50115" lon="5.602">
        <ele>581.25</ele>
        <time>2017-10-05T10:15:22Z</time>
      </trkpt>
      <trkpt lat="45.50115" lon="5.60197">
        <ele>581.25</ele>
        <time>2017-10-05T10:15:23Z</time>
      </trkpt>
      <trkpt lat="45.50116" lon="5.60195">
        <ele>581.73</ele>
        <time>2017-10-05T10:15:24Z</time>
      </trkpt>
      <trkpt lat="45.50116" lon="5.60192">
        <ele>581.73</ele>
        <time>2017-10-05T10:15:25Z</time>
      </trkpt>
      <trkpt lat="45.50117" lon="5.6019">
        <ele>581.73</ele>
        <time>2017-10-05T10:15:26Z</time>
      </trkpt>
      <trkpt lat="45.50117" lon="5.60187">
        <ele>581.73</ele>
        <time>2017-10-05T10:15:27Z</time>
      </trkpt>
      <trkpt lat="45.50127" lon="5.60133">
        <ele>584.14</ele>
        <time>2017-10-05T10:15:46Z</time>
      </trkpt>
      <trkpt lat="45.50132" lon="5.60078">
        <ele>585.58</ele>
        <time>2017-10-05T10:16:03Z</time>
      </trkpt>
      <trkpt lat="45.50136" lon="5.60035">
        <ele>585.58</ele>
        <time>2017-10-05T10:16:15Z</time>
      </trkpt>
      <trkpt lat="45.50138" lon="5.5998">
        <ele>584.62</ele>
        <time>2017-10-05T10:16:27Z</time>
      </trkpt>
      <trkpt lat="45.50138" lon="5.59966">
        <ele>584.14</ele>
        <time>2017-10-05T10:16:29Z</time>
      </trkpt>
      <trkpt lat="45.50128" lon="5.59876">
        <ele>583.66</ele>
        <time>2017-10-05T10:16:44Z</time>
      </trkpt>
      <trkpt lat="45.50128" lon="5.59871">
        <ele>583.66</ele>
        <time>2017-10-05T10:16:45Z</time>
      </trkpt>
      <trkpt lat="45.50128" lon="5.59866">
        <ele>583.66</ele>
        <time>2017-10-05T10:16:46Z</time>
      </trkpt>
      <trkpt lat="45.50134" lon="5.59792">
        <ele>583.18</ele>
        <time>2017-10-05T10:17:01Z</time>
      </trkpt>
      <trkpt lat="45.50136" lon="5.59776">
        <ele>582.7</ele>
        <time>2017-10-05T10:17:04Z</time>
      </trkpt>
      <trkpt lat="45.5014" lon="5.59764">
        <ele>582.22</ele>
        <time>2017-10-05T10:17:06Z</time>
      </trkpt>
      <trkpt lat="45.50146" lon="5.59745">
        <ele>581.73</ele>
        <time>2017-10-05T10:17:09Z</time>
      </trkpt>
      <trkpt lat="45.50154" lon="5.59727">
        <ele>580.77</ele>
        <time>2017-10-05T10:17:12Z</time>
      </trkpt>
      <trkpt lat="45.50175" lon="5.59691">
        <ele>577.41</ele>
        <time>2017-10-05T10:17:17Z</time>
      </trkpt>
      <trkpt lat="45.50195" lon="5.59656">
        <ele>574.04</ele>
        <time>2017-10-05T10:17:21Z</time>
      </trkpt>
      <trkpt lat="45.50209" lon="5.59626">
        <ele>569.72</ele>
        <time>2017-10-05T10:17:24Z</time>
      </trkpt>
      <trkpt lat="45.50213" lon="5.59615">
        <ele>568.76</ele>
        <time>2017-10-05T10:17:25Z</time>
      </trkpt>
      <trkpt lat="45.50216" lon="5.59602">
        <ele>566.83</ele>
        <time>2017-10-05T10:17:26Z</time>
      </trkpt>
      <trkpt lat="45.5022" lon="5.59574">
        <ele>563.47</ele>
        <time>2017-10-05T10:17:28Z</time>
      </trkpt>
      <trkpt lat="45.50225" lon="5.59527">
        <ele>560.11</ele>
        <time>2017-10-05T10:17:31Z</time>
      </trkpt>
      <trkpt lat="45.50231" lon="5.59475">
        <ele>557.22</ele>
        <time>2017-10-05T10:17:35Z</time>
      </trkpt>
      <trkpt lat="45.50235" lon="5.59391">
        <ele>553.86</ele>
        <time>2017-10-05T10:17:43Z</time>
      </trkpt>
      <trkpt lat="45.50236" lon="5.59377">
        <ele>553.38</ele>
        <time>2017-10-05T10:17:45Z</time>
      </trkpt>
      <trkpt lat="45.50239" lon="5.59352">
        <ele>551.93</ele>
        <time>2017-10-05T10:17:49Z</time>
      </trkpt>
      <trkpt lat="45.50242" lon="5.59341">
        <ele>551.93</ele>
        <time>2017-10-05T10:17:57Z</time>
      </trkpt>
      <trkpt lat="45.50242" lon="5.59341">
        <ele>551.93</ele>
        <time>2017-10-05T10:18:26Z</time>
      </trkpt>
      <trkpt lat="45.50241" lon="5.59339">
        <ele>551.93</ele>
        <time>2017-10-05T10:18:54Z</time>
      </trkpt>
      <trkpt lat="45.50242" lon="5.5934">
        <ele>551.93</ele>
        <time>2017-10-05T10:19:22Z</time>
      </trkpt>
      <trkpt lat="45.50241" lon="5.59341">
        <ele>551.45</ele>
        <time>2017-10-05T10:19:48Z</time>
      </trkpt>
      <trkpt lat="45.50244" lon="5.5934">
        <ele>552.41</ele>
        <time>2017-10-05T10:20:21Z</time>
      </trkpt>
      <trkpt lat="45.50243" lon="5.5934">
        <ele>551.45</ele>
        <time>2017-10-05T10:20:53Z</time>
      </trkpt>
      <trkpt lat="45.50243" lon="5.5934">
        <ele>551.45</ele>
        <time>2017-10-05T10:21:17Z</time>
      </trkpt>
      <trkpt lat="45.50243" lon="5.59335">
        <ele>551.45</ele>
        <time>2017-10-05T10:21:29Z</time>
      </trkpt>
      <trkpt lat="45.50243" lon="5.59331">
        <ele>551.45</ele>
        <time>2017-10-05T10:21:30Z</time>
      </trkpt>
      <trkpt lat="45.50243" lon="5.59328">
        <ele>551.45</ele>
        <time>2017-10-05T10:21:31Z</time>
      </trkpt>
      <trkpt lat="45.50242" lon="5.59324">
        <ele>551.45</ele>
        <time>2017-10-05T10:21:32Z</time>
      </trkpt>
      <trkpt lat="45.5024" lon="5.59322">
        <ele>551.45</ele>
        <time>2017-10-05T10:21:33Z</time>
      </trkpt>
      <trkpt lat="45.50238" lon="5.59321">
        <ele>551.45</ele>
        <time>2017-10-05T10:21:34Z</time>
      </trkpt>
      <trkpt lat="45.50236" lon="5.59319">
        <ele>550.97</ele>
        <time>2017-10-05T10:21:35Z</time>
      </trkpt>
      <trkpt lat="45.50233" lon="5.59317">
        <ele>550.49</ele>
        <time>2017-10-05T10:21:36Z</time>
      </trkpt>
      <trkpt lat="45.50229" lon="5.59315">
        <ele>550.01</ele>
        <time>2017-10-05T10:21:37Z</time>
      </trkpt>
      <trkpt lat="45.50225" lon="5.59312">
        <ele>549.05</ele>
        <time>2017-10-05T10:21:38Z</time>
      </trkpt>
      <trkpt lat="45.50221" lon="5.59308">
        <ele>548.57</ele>
        <time>2017-10-05T10:21:39Z</time>
      </trkpt>
      <trkpt lat="45.50217" lon="5.59302">
        <ele>547.61</ele>
        <time>2017-10-05T10:21:40Z</time>
      </trkpt>
      <trkpt lat="45.50212" lon="5.59295">
        <ele>546.65</ele>
        <time>2017-10-05T10:21:41Z</time>
      </trkpt>
      <trkpt lat="45.50197" lon="5.59256">
        <ele>542.8</ele>
        <time>2017-10-05T10:21:45Z</time>
      </trkpt>
      <trkpt lat="45.50197" lon="5.59246">
        <ele>542.32</ele>
        <time>2017-10-05T10:21:46Z</time>
      </trkpt>
      <trkpt lat="45.50198" lon="5.59235">
        <ele>541.84</ele>
        <time>2017-10-05T10:21:47Z</time>
      </trkpt>
      <trkpt lat="45.502" lon="5.59226">
        <ele>541.36</ele>
        <time>2017-10-05T10:21:48Z</time>
      </trkpt>
      <trkpt lat="45.50203" lon="5.59218">
        <ele>541.36</ele>
        <time>2017-10-05T10:21:49Z</time>
      </trkpt>
      <trkpt lat="45.50208" lon="5.59211">
        <ele>541.36</ele>
        <time>2017-10-05T10:21:50Z</time>
      </trkpt>
      <trkpt lat="45.50212" lon="5.59204">
        <ele>541.36</ele>
        <time>2017-10-05T10:21:51Z</time>
      </trkpt>
      <trkpt lat="45.50231" lon="5.59177">
        <ele>541.84</ele>
        <time>2017-10-05T10:21:56Z</time>
      </trkpt>
      <trkpt lat="45.50234" lon="5.59172">
        <ele>542.32</ele>
        <time>2017-10-05T10:21:57Z</time>
      </trkpt>
      <trkpt lat="45.50247" lon="5.59132">
        <ele>545.2</ele>
        <time>2017-10-05T10:22:08Z</time>
      </trkpt>
      <trkpt lat="45.50262" lon="5.59089">
        <ele>548.57</ele>
        <time>2017-10-05T10:22:22Z</time>
      </trkpt>
      <trkpt lat="45.50275" lon="5.59059">
        <ele>551.45</ele>
        <time>2017-10-05T10:22:35Z</time>
      </trkpt>
      <trkpt lat="45.50291" lon="5.59024">
        <ele>553.86</ele>
        <time>2017-10-05T10:22:51Z</time>
      </trkpt>
      <trkpt lat="45.50312" lon="5.59001">
        <ele>555.3</ele>
        <time>2017-10-05T10:23:05Z</time>
      </trkpt>
      <trkpt lat="45.50348" lon="5.59005">
        <ele>555.3</ele>
        <time>2017-10-05T10:23:19Z</time>
      </trkpt>
      <trkpt lat="45.50382" lon="5.59017">
        <ele>554.82</ele>
        <time>2017-10-05T10:23:31Z</time>
      </trkpt>
      <trkpt lat="45.50395" lon="5.59027">
        <ele>553.86</ele>
        <time>2017-10-05T10:23:35Z</time>
      </trkpt>
      <trkpt lat="45.50398" lon="5.59031">
        <ele>553.86</ele>
        <time>2017-10-05T10:23:36Z</time>
      </trkpt>
      <trkpt lat="45.50418" lon="5.59054">
        <ele>551.93</ele>
        <time>2017-10-05T10:23:41Z</time>
      </trkpt>
      <trkpt lat="45.50422" lon="5.59058">
        <ele>551.45</ele>
        <time>2017-10-05T10:23:42Z</time>
      </trkpt>
      <trkpt lat="45.50427" lon="5.59063">
        <ele>551.45</ele>
        <time>2017-10-05T10:23:43Z</time>
      </trkpt>
      <trkpt lat="45.50432" lon="5.59066">
        <ele>550.97</ele>
        <time>2017-10-05T10:23:44Z</time>
      </trkpt>
      <trkpt lat="45.50438" lon="5.59068">
        <ele>550.49</ele>
        <time>2017-10-05T10:23:45Z</time>
      </trkpt>
      <trkpt lat="45.50444" lon="5.5907">
        <ele>550.97</ele>
        <time>2017-10-05T10:23:46Z</time>
      </trkpt>
      <trkpt lat="45.50455" lon="5.59071">
        <ele>550.01</ele>
        <time>2017-10-05T10:23:48Z</time>
      </trkpt>
      <trkpt lat="45.50459" lon="5.59071">
        <ele>550.01</ele>
        <time>2017-10-05T10:23:49Z</time>
      </trkpt>
      <trkpt lat="45.50497" lon="5.59059">
        <ele>550.49</ele>
        <time>2017-10-05T10:24:00Z</time>
      </trkpt>
      <trkpt lat="45.50517" lon="5.59046">
        <ele>549.53</ele>
        <time>2017-10-05T10:24:06Z</time>
      </trkpt>
      <trkpt lat="45.50521" lon="5.59042">
        <ele>549.53</ele>
        <time>2017-10-05T10:24:07Z</time>
      </trkpt>
      <trkpt lat="45.50525" lon="5.59038">
        <ele>549.05</ele>
        <time>2017-10-05T10:24:08Z</time>
      </trkpt>
      <trkpt lat="45.50532" lon="5.5903">
        <ele>549.05</ele>
        <time>2017-10-05T10:24:10Z</time>
      </trkpt>
      <trkpt lat="45.50568" lon="5.58981">
        <ele>547.61</ele>
        <time>2017-10-05T10:24:21Z</time>
      </trkpt>
      <trkpt lat="45.50573" lon="5.58978">
        <ele>547.61</ele>
        <time>2017-10-05T10:24:22Z</time>
      </trkpt>
      <trkpt lat="45.50577" lon="5.58973">
        <ele>547.13</ele>
        <time>2017-10-05T10:24:23Z</time>
      </trkpt>
      <trkpt lat="45.50592" lon="5.58946">
        <ele>545.2</ele>
        <time>2017-10-05T10:24:27Z</time>
      </trkpt>
      <trkpt lat="45.50625" lon="5.58889">
        <ele>546.17</ele>
        <time>2017-10-05T10:24:38Z</time>
      </trkpt>
      <trkpt lat="45.50663" lon="5.58842">
        <ele>547.61</ele>
        <time>2017-10-05T10:24:52Z</time>
      </trkpt>
      <trkpt lat="45.50713" lon="5.58787">
        <ele>550.01</ele>
        <time>2017-10-05T10:25:10Z</time>
      </trkpt>
      <trkpt lat="45.50759" lon="5.58731">
        <ele>549.05</ele>
        <time>2017-10-05T10:25:25Z</time>
      </trkpt>
      <trkpt lat="45.5079" lon="5.58701">
        <ele>549.05</ele>
        <time>2017-10-05T10:25:33Z</time>
      </trkpt>
      <trkpt lat="45.50833" lon="5.58687">
        <ele>550.97</ele>
        <time>2017-10-05T10:25:46Z</time>
      </trkpt>
      <trkpt lat="45.50872" lon="5.58693">
        <ele>554.34</ele>
        <time>2017-10-05T10:26:01Z</time>
      </trkpt>
      <trkpt lat="45.50894" lon="5.58686">
        <ele>557.7</ele>
        <time>2017-10-05T10:26:13Z</time>
      </trkpt>
      <trkpt lat="45.50912" lon="5.58674">
        <ele>561.07</ele>
        <time>2017-10-05T10:26:24Z</time>
      </trkpt>
      <trkpt lat="45.5094" lon="5.5866">
        <ele>562.99</ele>
        <time>2017-10-05T10:26:39Z</time>
      </trkpt>
      <trkpt lat="45.50972" lon="5.58647">
        <ele>561.55</ele>
        <time>2017-10-05T10:26:51Z</time>
      </trkpt>
      <trkpt lat="45.51003" lon="5.58632">
        <ele>558.66</ele>
        <time>2017-10-05T10:26:58Z</time>
      </trkpt>
      <trkpt lat="45.5102" lon="5.58625">
        <ele>557.22</ele>
        <time>2017-10-05T10:27:01Z</time>
      </trkpt>
      <trkpt lat="45.51043" lon="5.58614">
        <ele>556.74</ele>
        <time>2017-10-05T10:27:05Z</time>
      </trkpt>
      <trkpt lat="45.51062" lon="5.586">
        <ele>556.74</ele>
        <time>2017-10-05T10:27:09Z</time>
      </trkpt>
      <trkpt lat="45.5107" lon="5.58591">
        <ele>556.26</ele>
        <time>2017-10-05T10:27:11Z</time>
      </trkpt>
      <trkpt lat="45.51074" lon="5.58586">
        <ele>555.78</ele>
        <time>2017-10-05T10:27:12Z</time>
      </trkpt>
      <trkpt lat="45.51078" lon="5.58579">
        <ele>555.78</ele>
        <time>2017-10-05T10:27:13Z</time>
      </trkpt>
      <trkpt lat="45.51081" lon="5.58572">
        <ele>555.3</ele>
        <time>2017-10-05T10:27:14Z</time>
      </trkpt>
      <trkpt lat="45.51084" lon="5.58564">
        <ele>554.82</ele>
        <time>2017-10-05T10:27:15Z</time>
      </trkpt>
      <trkpt lat="45.51088" lon="5.58556">
        <ele>554.82</ele>
        <time>2017-10-05T10:27:16Z</time>
      </trkpt>
      <trkpt lat="45.51093" lon="5.5854">
        <ele>554.34</ele>
        <time>2017-10-05T10:27:18Z</time>
      </trkpt>
      <trkpt lat="45.51094" lon="5.58531">
        <ele>553.38</ele>
        <time>2017-10-05T10:27:19Z</time>
      </trkpt>
      <trkpt lat="45.51096" lon="5.58523">
        <ele>553.86</ele>
        <time>2017-10-05T10:27:20Z</time>
      </trkpt>
      <trkpt lat="45.51097" lon="5.58516">
        <ele>553.86</ele>
        <time>2017-10-05T10:27:21Z</time>
      </trkpt>
      <trkpt lat="45.51097" lon="5.58508">
        <ele>553.38</ele>
        <time>2017-10-05T10:27:22Z</time>
      </trkpt>
      <trkpt lat="45.51097" lon="5.58437">
        <ele>552.9</ele>
        <time>2017-10-05T10:27:35Z</time>
      </trkpt>
      <trkpt lat="45.51097" lon="5.58416">
        <ele>551.45</ele>
        <time>2017-10-05T10:27:38Z</time>
      </trkpt>
      <trkpt lat="45.51097" lon="5.58408">
        <ele>551.45</ele>
        <time>2017-10-05T10:27:39Z</time>
      </trkpt>
      <trkpt lat="45.51099" lon="5.58401">
        <ele>550.97</ele>
        <time>2017-10-05T10:27:40Z</time>
      </trkpt>
      <trkpt lat="45.51122" lon="5.58322">
        <ele>549.05</ele>
        <time>2017-10-05T10:27:53Z</time>
      </trkpt>
      <trkpt lat="45.5114" lon="5.58257">
        <ele>547.61</ele>
        <time>2017-10-05T10:28:03Z</time>
      </trkpt>
      <trkpt lat="45.51143" lon="5.58253">
        <ele>547.61</ele>
        <time>2017-10-05T10:28:04Z</time>
      </trkpt>
      <trkpt lat="45.51146" lon="5.58249">
        <ele>547.61</ele>
        <time>2017-10-05T10:28:05Z</time>
      </trkpt>
      <trkpt lat="45.51175" lon="5.58221">
        <ele>550.01</ele>
        <time>2017-10-05T10:28:16Z</time>
      </trkpt>
      <trkpt lat="45.51208" lon="5.58201">
        <ele>550.01</ele>
        <time>2017-10-05T10:28:29Z</time>
      </trkpt>
      <trkpt lat="45.51236" lon="5.58191">
        <ele>549.05</ele>
        <time>2017-10-05T10:28:36Z</time>
      </trkpt>
      <trkpt lat="45.5124" lon="5.5819">
        <ele>548.57</ele>
        <time>2017-10-05T10:28:37Z</time>
      </trkpt>
      <trkpt lat="45.51244" lon="5.58189">
        <ele>549.05</ele>
        <time>2017-10-05T10:28:38Z</time>
      </trkpt>
      <trkpt lat="45.51248" lon="5.58187">
        <ele>549.05</ele>
        <time>2017-10-05T10:28:39Z</time>
      </trkpt>
      <trkpt lat="45.51251" lon="5.58185">
        <ele>549.05</ele>
        <time>2017-10-05T10:28:40Z</time>
      </trkpt>
      <trkpt lat="45.51293" lon="5.58152">
        <ele>549.05</ele>
        <time>2017-10-05T10:28:53Z</time>
      </trkpt>
      <trkpt lat="45.51315" lon="5.5812">
        <ele>547.61</ele>
        <time>2017-10-05T10:29:02Z</time>
      </trkpt>
      <trkpt lat="45.51317" lon="5.58114">
        <ele>547.61</ele>
        <time>2017-10-05T10:29:03Z</time>
      </trkpt>
      <trkpt lat="45.51331" lon="5.58062">
        <ele>545.69</ele>
        <time>2017-10-05T10:29:13Z</time>
      </trkpt>
      <trkpt lat="45.51332" lon="5.58055">
        <ele>545.2</ele>
        <time>2017-10-05T10:29:14Z</time>
      </trkpt>
      <trkpt lat="45.51333" lon="5.58048">
        <ele>545.2</ele>
        <time>2017-10-05T10:29:15Z</time>
      </trkpt>
      <trkpt lat="45.51334" lon="5.58042">
        <ele>544.72</ele>
        <time>2017-10-05T10:29:16Z</time>
      </trkpt>
      <trkpt lat="45.51335" lon="5.58034">
        <ele>544.24</ele>
        <time>2017-10-05T10:29:17Z</time>
      </trkpt>
      <trkpt lat="45.51336" lon="5.58026">
        <ele>544.24</ele>
        <time>2017-10-05T10:29:18Z</time>
      </trkpt>
      <trkpt lat="45.51338" lon="5.58017">
        <ele>543.76</ele>
        <time>2017-10-05T10:29:19Z</time>
      </trkpt>
      <trkpt lat="45.51343" lon="5.57996">
        <ele>543.28</ele>
        <time>2017-10-05T10:29:22Z</time>
      </trkpt>
      <trkpt lat="45.51344" lon="5.57989">
        <ele>542.8</ele>
        <time>2017-10-05T10:29:23Z</time>
      </trkpt>
      <trkpt lat="45.51345" lon="5.57982">
        <ele>542.8</ele>
        <time>2017-10-05T10:29:24Z</time>
      </trkpt>
      <trkpt lat="45.51346" lon="5.57961">
        <ele>542.32</ele>
        <time>2017-10-05T10:29:27Z</time>
      </trkpt>
      <trkpt lat="45.51348" lon="5.57954">
        <ele>542.32</ele>
        <time>2017-10-05T10:29:28Z</time>
      </trkpt>
      <trkpt lat="45.51349" lon="5.57946">
        <ele>541.84</ele>
        <time>2017-10-05T10:29:29Z</time>
      </trkpt>
      <trkpt lat="45.51352" lon="5.57916">
        <ele>540.88</ele>
        <time>2017-10-05T10:29:33Z</time>
      </trkpt>
      <trkpt lat="45.51352" lon="5.57908">
        <ele>540.4</ele>
        <time>2017-10-05T10:29:34Z</time>
      </trkpt>
      <trkpt lat="45.51351" lon="5.57901">
        <ele>540.4</ele>
        <time>2017-10-05T10:29:35Z</time>
      </trkpt>
      <trkpt lat="45.51348" lon="5.57881">
        <ele>540.4</ele>
        <time>2017-10-05T10:29:38Z</time>
      </trkpt>
      <trkpt lat="45.51341" lon="5.57828">
        <ele>541.36</ele>
        <time>2017-10-05T10:29:47Z</time>
      </trkpt>
      <trkpt lat="45.51341" lon="5.57823">
        <ele>540.4</ele>
        <time>2017-10-05T10:29:48Z</time>
      </trkpt>
      <trkpt lat="45.51343" lon="5.57818">
        <ele>539.92</ele>
        <time>2017-10-05T10:29:49Z</time>
      </trkpt>
      <trkpt lat="45.51346" lon="5.57813">
        <ele>539.92</ele>
        <time>2017-10-05T10:29:50Z</time>
      </trkpt>
      <trkpt lat="45.51349" lon="5.57808">
        <ele>539.44</ele>
        <time>2017-10-05T10:29:51Z</time>
      </trkpt>
      <trkpt lat="45.51352" lon="5.57803">
        <ele>539.44</ele>
        <time>2017-10-05T10:29:52Z</time>
      </trkpt>
      <trkpt lat="45.51354" lon="5.57797">
        <ele>539.44</ele>
        <time>2017-10-05T10:29:53Z</time>
      </trkpt>
      <trkpt lat="45.51357" lon="5.57792">
        <ele>539.44</ele>
        <time>2017-10-05T10:29:54Z</time>
      </trkpt>
      <trkpt lat="45.51389" lon="5.57736">
        <ele>542.32</ele>
        <time>2017-10-05T10:30:07Z</time>
      </trkpt>
      <trkpt lat="45.51399" lon="5.57668">
        <ele>543.76</ele>
        <time>2017-10-05T10:30:21Z</time>
      </trkpt>
      <trkpt lat="45.51397" lon="5.57604">
        <ele>543.76</ele>
        <time>2017-10-05T10:30:34Z</time>
      </trkpt>
      <trkpt lat="45.51413" lon="5.57541">
        <ele>541.84</ele>
        <time>2017-10-05T10:30:46Z</time>
      </trkpt>
      <trkpt lat="45.51425" lon="5.57507">
        <ele>537.99</ele>
        <time>2017-10-05T10:30:51Z</time>
      </trkpt>
      <trkpt lat="45.51429" lon="5.57499">
        <ele>537.51</ele>
        <time>2017-10-05T10:30:52Z</time>
      </trkpt>
      <trkpt lat="45.51433" lon="5.57492">
        <ele>537.03</ele>
        <time>2017-10-05T10:30:53Z</time>
      </trkpt>
      <trkpt lat="45.51438" lon="5.57486">
        <ele>536.55</ele>
        <time>2017-10-05T10:30:54Z</time>
      </trkpt>
      <trkpt lat="45.51443" lon="5.5748">
        <ele>536.55</ele>
        <time>2017-10-05T10:30:55Z</time>
      </trkpt>
      <trkpt lat="45.51448" lon="5.57474">
        <ele>536.07</ele>
        <time>2017-10-05T10:30:56Z</time>
      </trkpt>
      <trkpt lat="45.51454" lon="5.57468">
        <ele>535.59</ele>
        <time>2017-10-05T10:30:57Z</time>
      </trkpt>
      <trkpt lat="45.51459" lon="5.57463">
        <ele>535.59</ele>
        <time>2017-10-05T10:30:58Z</time>
      </trkpt>
      <trkpt lat="45.5147" lon="5.57453">
        <ele>535.11</ele>
        <time>2017-10-05T10:31:00Z</time>
      </trkpt>
      <trkpt lat="45.51477" lon="5.5745">
        <ele>534.63</ele>
        <time>2017-10-05T10:31:01Z</time>
      </trkpt>
      <trkpt lat="45.51483" lon="5.57446">
        <ele>534.15</ele>
        <time>2017-10-05T10:31:02Z</time>
      </trkpt>
      <trkpt lat="45.51489" lon="5.57442">
        <ele>533.67</ele>
        <time>2017-10-05T10:31:03Z</time>
      </trkpt>
      <trkpt lat="45.51494" lon="5.57437">
        <ele>534.15</ele>
        <time>2017-10-05T10:31:04Z</time>
      </trkpt>
      <trkpt lat="45.51498" lon="5.57432">
        <ele>533.67</ele>
        <time>2017-10-05T10:31:05Z</time>
      </trkpt>
      <trkpt lat="45.51505" lon="5.57425">
        <ele>533.67</ele>
        <time>2017-10-05T10:31:07Z</time>
      </trkpt>
      <trkpt lat="45.51511" lon="5.57417">
        <ele>532.71</ele>
        <time>2017-10-05T10:31:09Z</time>
      </trkpt>
      <trkpt lat="45.51518" lon="5.57411">
        <ele>530.79</ele>
        <time>2017-10-05T10:31:11Z</time>
      </trkpt>
      <trkpt lat="45.51522" lon="5.57409">
        <ele>530.3</ele>
        <time>2017-10-05T10:31:12Z</time>
      </trkpt>
      <trkpt lat="45.51525" lon="5.57408">
        <ele>529.34</ele>
        <time>2017-10-05T10:31:13Z</time>
      </trkpt>
      <trkpt lat="45.51528" lon="5.57406">
        <ele>528.38</ele>
        <time>2017-10-05T10:31:14Z</time>
      </trkpt>
      <trkpt lat="45.51532" lon="5.57403">
        <ele>527.9</ele>
        <time>2017-10-05T10:31:15Z</time>
      </trkpt>
      <trkpt lat="45.51535" lon="5.574">
        <ele>527.42</ele>
        <time>2017-10-05T10:31:16Z</time>
      </trkpt>
      <trkpt lat="45.51538" lon="5.57397">
        <ele>526.94</ele>
        <time>2017-10-05T10:31:17Z</time>
      </trkpt>
      <trkpt lat="45.51541" lon="5.57394">
        <ele>526.94</ele>
        <time>2017-10-05T10:31:18Z</time>
      </trkpt>
      <trkpt lat="45.51543" lon="5.57392">
        <ele>526.94</ele>
        <time>2017-10-05T10:31:19Z</time>
      </trkpt>
      <trkpt lat="45.51544" lon="5.57388">
        <ele>527.42</ele>
        <time>2017-10-05T10:31:21Z</time>
      </trkpt>
      <trkpt lat="45.51533" lon="5.5738">
        <ele>528.38</ele>
        <time>2017-10-05T10:31:27Z</time>
      </trkpt>
      <trkpt lat="45.51526" lon="5.57377">
        <ele>528.86</ele>
        <time>2017-10-05T10:31:31Z</time>
      </trkpt>
      <trkpt lat="45.51512" lon="5.57373">
        <ele>531.27</ele>
        <time>2017-10-05T10:31:40Z</time>
      </trkpt>
      <trkpt lat="45.51497" lon="5.57365">
        <ele>533.19</ele>
        <time>2017-10-05T10:31:50Z</time>
      </trkpt>
      <trkpt lat="45.51483" lon="5.57358">
        <ele>534.63</ele>
        <time>2017-10-05T10:31:59Z</time>
      </trkpt>
      <trkpt lat="45.51462" lon="5.57356">
        <ele>537.99</ele>
        <time>2017-10-05T10:32:13Z</time>
      </trkpt>
      <trkpt lat="45.51455" lon="5.57353">
        <ele>538.96</ele>
        <time>2017-10-05T10:32:18Z</time>
      </trkpt>
      <trkpt lat="45.5145" lon="5.5735">
        <ele>539.92</ele>
        <time>2017-10-05T10:32:22Z</time>
      </trkpt>
      <trkpt lat="45.51438" lon="5.57347">
        <ele>541.84</ele>
        <time>2017-10-05T10:32:32Z</time>
      </trkpt>
      <trkpt lat="45.51433" lon="5.57345">
        <ele>542.8</ele>
        <time>2017-10-05T10:32:36Z</time>
      </trkpt>
      <trkpt lat="45.51424" lon="5.57341">
        <ele>543.76</ele>
        <time>2017-10-05T10:32:42Z</time>
      </trkpt>
      <trkpt lat="45.51416" lon="5.5734">
        <ele>544.72</ele>
        <time>2017-10-05T10:32:47Z</time>
      </trkpt>
      <trkpt lat="45.51402" lon="5.57332">
        <ele>546.65</ele>
        <time>2017-10-05T10:32:58Z</time>
      </trkpt>
      <trkpt lat="45.51381" lon="5.57322">
        <ele>550.01</ele>
        <time>2017-10-05T10:33:14Z</time>
      </trkpt>
      <trkpt lat="45.51373" lon="5.5732">
        <ele>551.45</ele>
        <time>2017-10-05T10:33:20Z</time>
      </trkpt>
      <trkpt lat="45.51353" lon="5.57315">
        <ele>554.82</ele>
        <time>2017-10-05T10:33:33Z</time>
      </trkpt>
      <trkpt lat="45.51338" lon="5.57317">
        <ele>557.7</ele>
        <time>2017-10-05T10:33:44Z</time>
      </trkpt>
      <trkpt lat="45.51319" lon="5.5732">
        <ele>561.07</ele>
        <time>2017-10-05T10:33:57Z</time>
      </trkpt>
      <trkpt lat="45.51316" lon="5.5732">
        <ele>561.55</ele>
        <time>2017-10-05T10:33:59Z</time>
      </trkpt>
      <trkpt lat="45.51291" lon="5.57322">
        <ele>563.95</ele>
        <time>2017-10-05T10:34:17Z</time>
      </trkpt>
      <trkpt lat="45.51269" lon="5.57301">
        <ele>564.91</ele>
        <time>2017-10-05T10:34:33Z</time>
      </trkpt>
      <trkpt lat="45.51253" lon="5.57265">
        <ele>563.95</ele>
        <time>2017-10-05T10:34:46Z</time>
      </trkpt>
      <trkpt lat="45.51229" lon="5.57237">
        <ele>563.47</ele>
        <time>2017-10-05T10:34:58Z</time>
      </trkpt>
      <trkpt lat="45.51227" lon="5.57237">
        <ele>562.99</ele>
        <time>2017-10-05T10:35:09Z</time>
      </trkpt>
      <trkpt lat="45.51227" lon="5.57236">
        <ele>562.99</ele>
        <time>2017-10-05T10:35:42Z</time>
      </trkpt>
      <trkpt lat="45.51227" lon="5.57236">
        <ele>562.99</ele>
        <time>2017-10-05T10:36:03Z</time>
      </trkpt>
      <trkpt lat="45.51227" lon="5.57237">
        <ele>562.99</ele>
        <time>2017-10-05T10:36:31Z</time>
      </trkpt>
      <trkpt lat="45.51227" lon="5.57237">
        <ele>562.99</ele>
        <time>2017-10-05T10:36:37Z</time>
      </trkpt>
      <trkpt lat="45.51224" lon="5.57237">
        <ele>562.99</ele>
        <time>2017-10-05T10:36:40Z</time>
      </trkpt>
      <trkpt lat="45.51176" lon="5.5724">
        <ele>562.51</ele>
        <time>2017-10-05T10:36:54Z</time>
      </trkpt>
      <trkpt lat="45.51152" lon="5.57246">
        <ele>563.95</ele>
        <time>2017-10-05T10:37:03Z</time>
      </trkpt>
      <trkpt lat="45.51145" lon="5.57244">
        <ele>564.43</ele>
        <time>2017-10-05T10:37:07Z</time>
      </trkpt>
      <trkpt lat="45.51143" lon="5.57239">
        <ele>564.91</ele>
        <time>2017-10-05T10:37:11Z</time>
      </trkpt>
      <trkpt lat="45.5114" lon="5.57234">
        <ele>564.91</ele>
        <time>2017-10-05T10:37:15Z</time>
      </trkpt>
      <trkpt lat="45.51137" lon="5.57227">
        <ele>564.91</ele>
        <time>2017-10-05T10:37:19Z</time>
      </trkpt>
      <trkpt lat="45.51136" lon="5.57219">
        <ele>564.91</ele>
        <time>2017-10-05T10:37:33Z</time>
      </trkpt>
      <trkpt lat="45.51135" lon="5.57219">
        <ele>564.91</ele>
        <time>2017-10-05T10:37:57Z</time>
      </trkpt>
      <trkpt lat="45.51142" lon="5.57243">
        <ele>564.43</ele>
        <time>2017-10-05T10:38:07Z</time>
      </trkpt>
      <trkpt lat="45.51136" lon="5.57263">
        <ele>565.39</ele>
        <time>2017-10-05T10:38:13Z</time>
      </trkpt>
      <trkpt lat="45.51124" lon="5.57306">
        <ele>568.28</ele>
        <time>2017-10-05T10:38:30Z</time>
      </trkpt>
      <trkpt lat="45.51118" lon="5.57335">
        <ele>570.68</ele>
        <time>2017-10-05T10:38:42Z</time>
      </trkpt>
      <trkpt lat="45.51115" lon="5.57339">
        <ele>571.16</ele>
        <time>2017-10-05T10:38:45Z</time>
      </trkpt>
      <trkpt lat="45.51104" lon="5.57326">
        <ele>573.56</ele>
        <time>2017-10-05T10:38:58Z</time>
      </trkpt>
      <trkpt lat="45.51103" lon="5.57315">
        <ele>574.53</ele>
        <time>2017-10-05T10:39:03Z</time>
      </trkpt>
      <trkpt lat="45.51077" lon="5.57293">
        <ele>576.45</ele>
        <time>2017-10-05T10:39:18Z</time>
      </trkpt>
      <trkpt lat="45.51051" lon="5.57287">
        <ele>579.81</ele>
        <time>2017-10-05T10:39:33Z</time>
      </trkpt>
      <trkpt lat="45.51022" lon="5.57264">
        <ele>581.73</ele>
        <time>2017-10-05T10:39:49Z</time>
      </trkpt>
      <trkpt lat="45.50985" lon="5.57236">
        <ele>582.22</ele>
        <time>2017-10-05T10:40:04Z</time>
      </trkpt>
      <trkpt lat="45.50944" lon="5.57221">
        <ele>584.14</ele>
        <time>2017-10-05T10:40:20Z</time>
      </trkpt>
      <trkpt lat="45.50897" lon="5.57232">
        <ele>582.7</ele>
        <time>2017-10-05T10:40:33Z</time>
      </trkpt>
      <trkpt lat="45.50883" lon="5.57233">
        <ele>582.22</ele>
        <time>2017-10-05T10:40:36Z</time>
      </trkpt>
      <trkpt lat="45.50877" lon="5.57232">
        <ele>582.22</ele>
        <time>2017-10-05T10:40:37Z</time>
      </trkpt>
      <trkpt lat="45.50861" lon="5.57222">
        <ele>581.25</ele>
        <time>2017-10-05T10:40:40Z</time>
      </trkpt>
      <trkpt lat="45.50811" lon="5.57182">
        <ele>579.81</ele>
        <time>2017-10-05T10:40:49Z</time>
      </trkpt>
      <trkpt lat="45.50805" lon="5.57178">
        <ele>579.81</ele>
        <time>2017-10-05T10:40:50Z</time>
      </trkpt>
      <trkpt lat="45.50749" lon="5.57141">
        <ele>580.29</ele>
        <time>2017-10-05T10:41:02Z</time>
      </trkpt>
      <trkpt lat="45.50745" lon="5.57141">
        <ele>580.29</ele>
        <time>2017-10-05T10:41:03Z</time>
      </trkpt>
      <trkpt lat="45.50741" lon="5.57141">
        <ele>580.77</ele>
        <time>2017-10-05T10:41:04Z</time>
      </trkpt>
      <trkpt lat="45.50737" lon="5.57142">
        <ele>580.77</ele>
        <time>2017-10-05T10:41:05Z</time>
      </trkpt>
      <trkpt lat="45.50733" lon="5.57143">
        <ele>581.25</ele>
        <time>2017-10-05T10:41:06Z</time>
      </trkpt>
      <trkpt lat="45.50729" lon="5.57145">
        <ele>581.25</ele>
        <time>2017-10-05T10:41:07Z</time>
      </trkpt>
      <trkpt lat="45.50725" lon="5.57148">
        <ele>580.77</ele>
        <time>2017-10-05T10:41:08Z</time>
      </trkpt>
      <trkpt lat="45.50721" lon="5.57151">
        <ele>580.29</ele>
        <time>2017-10-05T10:41:09Z</time>
      </trkpt>
      <trkpt lat="45.50689" lon="5.57166">
        <ele>577.41</ele>
        <time>2017-10-05T10:41:14Z</time>
      </trkpt>
      <trkpt lat="45.50683" lon="5.57169">
        <ele>576.93</ele>
        <time>2017-10-05T10:41:15Z</time>
      </trkpt>
      <trkpt lat="45.50676" lon="5.5717">
        <ele>576.93</ele>
        <time>2017-10-05T10:41:16Z</time>
      </trkpt>
      <trkpt lat="45.50669" lon="5.57171">
        <ele>577.41</ele>
        <time>2017-10-05T10:41:17Z</time>
      </trkpt>
      <trkpt lat="45.50663" lon="5.57171">
        <ele>577.41</ele>
        <time>2017-10-05T10:41:18Z</time>
      </trkpt>
      <trkpt lat="45.50657" lon="5.57171">
        <ele>577.41</ele>
        <time>2017-10-05T10:41:19Z</time>
      </trkpt>
      <trkpt lat="45.50633" lon="5.57168">
        <ele>578.37</ele>
        <time>2017-10-05T10:41:25Z</time>
      </trkpt>
      <trkpt lat="45.50631" lon="5.57165">
        <ele>578.37</ele>
        <time>2017-10-05T10:41:26Z</time>
      </trkpt>
      <trkpt lat="45.50629" lon="5.57161">
        <ele>578.85</ele>
        <time>2017-10-05T10:41:27Z</time>
      </trkpt>
      <trkpt lat="45.50628" lon="5.57157">
        <ele>578.37</ele>
        <time>2017-10-05T10:41:28Z</time>
      </trkpt>
      <trkpt lat="45.50627" lon="5.57152">
        <ele>578.85</ele>
        <time>2017-10-05T10:41:29Z</time>
      </trkpt>
      <trkpt lat="45.50627" lon="5.57148">
        <ele>578.85</ele>
        <time>2017-10-05T10:41:30Z</time>
      </trkpt>
      <trkpt lat="45.50627" lon="5.57144">
        <ele>578.85</ele>
        <time>2017-10-05T10:41:31Z</time>
      </trkpt>
      <trkpt lat="45.50633" lon="5.57073">
        <ele>577.89</ele>
        <time>2017-10-05T10:41:46Z</time>
      </trkpt>
      <trkpt lat="45.50634" lon="5.57056">
        <ele>577.41</ele>
        <time>2017-10-05T10:41:49Z</time>
      </trkpt>
      <trkpt lat="45.50635" lon="5.57051">
        <ele>577.41</ele>
        <time>2017-10-05T10:41:50Z</time>
      </trkpt>
      <trkpt lat="45.50649" lon="5.56985">
        <ele>574.53</ele>
        <time>2017-10-05T10:42:04Z</time>
      </trkpt>
      <trkpt lat="45.50653" lon="5.56971">
        <ele>573.56</ele>
        <time>2017-10-05T10:42:07Z</time>
      </trkpt>
      <trkpt lat="45.50655" lon="5.56965">
        <ele>573.08</ele>
        <time>2017-10-05T10:42:08Z</time>
      </trkpt>
      <trkpt lat="45.50656" lon="5.56961">
        <ele>572.6</ele>
        <time>2017-10-05T10:42:09Z</time>
      </trkpt>
      <trkpt lat="45.50659" lon="5.56956">
        <ele>572.6</ele>
        <time>2017-10-05T10:42:10Z</time>
      </trkpt>
      <trkpt lat="45.50662" lon="5.56952">
        <ele>572.6</ele>
        <time>2017-10-05T10:42:11Z</time>
      </trkpt>
      <trkpt lat="45.50682" lon="5.5692">
        <ele>571.16</ele>
        <time>2017-10-05T10:42:20Z</time>
      </trkpt>
      <trkpt lat="45.50699" lon="5.56858">
        <ele>570.2</ele>
        <time>2017-10-05T10:42:32Z</time>
      </trkpt>
      <trkpt lat="45.507" lon="5.56852">
        <ele>570.2</ele>
        <time>2017-10-05T10:42:34Z</time>
      </trkpt>
      <trkpt lat="45.507" lon="5.56848">
        <ele>570.68</ele>
        <time>2017-10-05T10:42:35Z</time>
      </trkpt>
      <trkpt lat="45.507" lon="5.56845">
        <ele>570.68</ele>
        <time>2017-10-05T10:42:36Z</time>
      </trkpt>
      <trkpt lat="45.50701" lon="5.56839">
        <ele>570.68</ele>
        <time>2017-10-05T10:42:38Z</time>
      </trkpt>
      <trkpt lat="45.50701" lon="5.56837">
        <ele>570.68</ele>
        <time>2017-10-05T10:42:39Z</time>
      </trkpt>
      <trkpt lat="45.50702" lon="5.56835">
        <ele>570.68</ele>
        <time>2017-10-05T10:42:40Z</time>
      </trkpt>
      <trkpt lat="45.50703" lon="5.56832">
        <ele>570.68</ele>
        <time>2017-10-05T10:42:41Z</time>
      </trkpt>
      <trkpt lat="45.50704" lon="5.5683">
        <ele>571.16</ele>
        <time>2017-10-05T10:42:42Z</time>
      </trkpt>
      <trkpt lat="45.50705" lon="5.56828">
        <ele>571.16</ele>
        <time>2017-10-05T10:42:43Z</time>
      </trkpt>
      <trkpt lat="45.50708" lon="5.56826">
        <ele>571.16</ele>
        <time>2017-10-05T10:42:44Z</time>
      </trkpt>
      <trkpt lat="45.50709" lon="5.56824">
        <ele>571.16</ele>
        <time>2017-10-05T10:42:45Z</time>
      </trkpt>
      <trkpt lat="45.50711" lon="5.56821">
        <ele>571.16</ele>
        <time>2017-10-05T10:42:46Z</time>
      </trkpt>
      <trkpt lat="45.50712" lon="5.56818">
        <ele>571.16</ele>
        <time>2017-10-05T10:42:47Z</time>
      </trkpt>
      <trkpt lat="45.50713" lon="5.56815">
        <ele>570.68</ele>
        <time>2017-10-05T10:42:48Z</time>
      </trkpt>
      <trkpt lat="45.50714" lon="5.56812">
        <ele>571.16</ele>
        <time>2017-10-05T10:42:49Z</time>
      </trkpt>
      <trkpt lat="45.50716" lon="5.56785">
        <ele>571.16</ele>
        <time>2017-10-05T10:42:58Z</time>
      </trkpt>
      <trkpt lat="45.50717" lon="5.56781">
        <ele>570.68</ele>
        <time>2017-10-05T10:43:00Z</time>
      </trkpt>
      <trkpt lat="45.50717" lon="5.56775">
        <ele>570.68</ele>
        <time>2017-10-05T10:43:02Z</time>
      </trkpt>
      <trkpt lat="45.50718" lon="5.56772">
        <ele>570.68</ele>
        <time>2017-10-05T10:43:03Z</time>
      </trkpt>
      <trkpt lat="45.50718" lon="5.56769">
        <ele>570.68</ele>
        <time>2017-10-05T10:43:04Z</time>
      </trkpt>
      <trkpt lat="45.50718" lon="5.56765">
        <ele>570.68</ele>
        <time>2017-10-05T10:43:05Z</time>
      </trkpt>
      <trkpt lat="45.50718" lon="5.56762">
        <ele>570.68</ele>
        <time>2017-10-05T10:43:06Z</time>
      </trkpt>
      <trkpt lat="45.50719" lon="5.56752">
        <ele>570.68</ele>
        <time>2017-10-05T10:43:09Z</time>
      </trkpt>
      <trkpt lat="45.50718" lon="5.56749">
        <ele>570.68</ele>
        <time>2017-10-05T10:43:10Z</time>
      </trkpt>
      <trkpt lat="45.50719" lon="5.56744">
        <ele>570.68</ele>
        <time>2017-10-05T10:43:11Z</time>
      </trkpt>
      <trkpt lat="45.50728" lon="5.56696">
        <ele>572.12</ele>
        <time>2017-10-05T10:43:24Z</time>
      </trkpt>
      <trkpt lat="45.50724" lon="5.5668">
        <ele>572.6</ele>
        <time>2017-10-05T10:43:29Z</time>
      </trkpt>
      <trkpt lat="45.50723" lon="5.56677">
        <ele>572.6</ele>
        <time>2017-10-05T10:43:30Z</time>
      </trkpt>
      <trkpt lat="45.50719" lon="5.56644">
        <ele>575.01</ele>
        <time>2017-10-05T10:43:42Z</time>
      </trkpt>
      <trkpt lat="45.50719" lon="5.56639">
        <ele>575.49</ele>
        <time>2017-10-05T10:43:44Z</time>
      </trkpt>
      <trkpt lat="45.50719" lon="5.56637">
        <ele>575.49</ele>
        <time>2017-10-05T10:43:45Z</time>
      </trkpt>
      <trkpt lat="45.50719" lon="5.56635">
        <ele>575.97</ele>
        <time>2017-10-05T10:43:46Z</time>
      </trkpt>
      <trkpt lat="45.50718" lon="5.56634">
        <ele>575.97</ele>
        <time>2017-10-05T10:43:47Z</time>
      </trkpt>
      <trkpt lat="45.50716" lon="5.56633">
        <ele>576.93</ele>
        <time>2017-10-05T10:43:48Z</time>
      </trkpt>
      <trkpt lat="45.50715" lon="5.56633">
        <ele>576.45</ele>
        <time>2017-10-05T10:43:49Z</time>
      </trkpt>
      <trkpt lat="45.50714" lon="5.56634">
        <ele>576.93</ele>
        <time>2017-10-05T10:43:50Z</time>
      </trkpt>
      <trkpt lat="45.50712" lon="5.56635">
        <ele>576.93</ele>
        <time>2017-10-05T10:43:51Z</time>
      </trkpt>
      <trkpt lat="45.50702" lon="5.56644">
        <ele>578.37</ele>
        <time>2017-10-05T10:43:59Z</time>
      </trkpt>
      <trkpt lat="45.50701" lon="5.56645">
        <ele>578.37</ele>
        <time>2017-10-05T10:44:00Z</time>
      </trkpt>
      <trkpt lat="45.50685" lon="5.56662">
        <ele>581.25</ele>
        <time>2017-10-05T10:44:13Z</time>
      </trkpt>
      <trkpt lat="45.50675" lon="5.56669">
        <ele>582.7</ele>
        <time>2017-10-05T10:44:20Z</time>
      </trkpt>
      <trkpt lat="45.50667" lon="5.56679">
        <ele>584.14</ele>
        <time>2017-10-05T10:44:27Z</time>
      </trkpt>
      <trkpt lat="45.50666" lon="5.56681">
        <ele>584.14</ele>
        <time>2017-10-05T10:44:28Z</time>
      </trkpt>
      <trkpt lat="45.50665" lon="5.56682">
        <ele>584.14</ele>
        <time>2017-10-05T10:44:29Z</time>
      </trkpt>
      <trkpt lat="45.50664" lon="5.56684">
        <ele>584.62</ele>
        <time>2017-10-05T10:44:30Z</time>
      </trkpt>
      <trkpt lat="45.50663" lon="5.56685">
        <ele>585.1</ele>
        <time>2017-10-05T10:44:31Z</time>
      </trkpt>
      <trkpt lat="45.50661" lon="5.56686">
        <ele>585.1</ele>
        <time>2017-10-05T10:44:32Z</time>
      </trkpt>
      <trkpt lat="45.5066" lon="5.56688">
        <ele>585.1</ele>
        <time>2017-10-05T10:44:33Z</time>
      </trkpt>
      <trkpt lat="45.5066" lon="5.56689">
        <ele>585.1</ele>
        <time>2017-10-05T10:44:34Z</time>
      </trkpt>
      <trkpt lat="45.50659" lon="5.5669">
        <ele>585.58</ele>
        <time>2017-10-05T10:44:35Z</time>
      </trkpt>
      <trkpt lat="45.50658" lon="5.56692">
        <ele>585.58</ele>
        <time>2017-10-05T10:44:36Z</time>
      </trkpt>
      <trkpt lat="45.5064" lon="5.56713">
        <ele>588.46</ele>
        <time>2017-10-05T10:44:50Z</time>
      </trkpt>
      <trkpt lat="45.50618" lon="5.56744">
        <ele>591.35</ele>
        <time>2017-10-05T10:45:06Z</time>
      </trkpt>
      <trkpt lat="45.50604" lon="5.56778">
        <ele>591.83</ele>
        <time>2017-10-05T10:45:18Z</time>
      </trkpt>
      <trkpt lat="45.50583" lon="5.56849">
        <ele>592.79</ele>
        <time>2017-10-05T10:45:34Z</time>
      </trkpt>
      <trkpt lat="45.50553" lon="5.56918">
        <ele>589.91</ele>
        <time>2017-10-05T10:45:47Z</time>
      </trkpt>
      <trkpt lat="45.50527" lon="5.56998">
        <ele>589.91</ele>
        <time>2017-10-05T10:45:59Z</time>
      </trkpt>
      <trkpt lat="45.50525" lon="5.57004">
        <ele>589.91</ele>
        <time>2017-10-05T10:46:00Z</time>
      </trkpt>
      <trkpt lat="45.50498" lon="5.57064">
        <ele>593.75</ele>
        <time>2017-10-05T10:46:14Z</time>
      </trkpt>
      <trkpt lat="45.5049" lon="5.57067">
        <ele>594.71</ele>
        <time>2017-10-05T10:46:17Z</time>
      </trkpt>
      <trkpt lat="45.50448" lon="5.57058">
        <ele>595.67</ele>
        <time>2017-10-05T10:46:31Z</time>
      </trkpt>
      <trkpt lat="45.50413" lon="5.57055">
        <ele>595.67</ele>
        <time>2017-10-05T10:46:42Z</time>
      </trkpt>
      <trkpt lat="45.50402" lon="5.57054">
        <ele>595.19</ele>
        <time>2017-10-05T10:46:45Z</time>
      </trkpt>
      <trkpt lat="45.50399" lon="5.57051">
        <ele>595.19</ele>
        <time>2017-10-05T10:46:46Z</time>
      </trkpt>
      <trkpt lat="45.50398" lon="5.57046">
        <ele>595.67</ele>
        <time>2017-10-05T10:46:47Z</time>
      </trkpt>
      <trkpt lat="45.50397" lon="5.57041">
        <ele>596.15</ele>
        <time>2017-10-05T10:46:48Z</time>
      </trkpt>
      <trkpt lat="45.50398" lon="5.57037">
        <ele>596.15</ele>
        <time>2017-10-05T10:46:49Z</time>
      </trkpt>
      <trkpt lat="45.50399" lon="5.57034">
        <ele>596.64</ele>
        <time>2017-10-05T10:46:50Z</time>
      </trkpt>
      <trkpt lat="45.504" lon="5.5703">
        <ele>597.12</ele>
        <time>2017-10-05T10:46:51Z</time>
      </trkpt>
      <trkpt lat="45.50401" lon="5.57027">
        <ele>597.12</ele>
        <time>2017-10-05T10:46:52Z</time>
      </trkpt>
      <trkpt lat="45.50412" lon="5.56955">
        <ele>600.48</ele>
        <time>2017-10-05T10:47:11Z</time>
      </trkpt>
      <trkpt lat="45.50412" lon="5.56907">
        <ele>602.88</ele>
        <time>2017-10-05T10:47:25Z</time>
      </trkpt>
      <trkpt lat="45.50403" lon="5.56872">
        <ele>604.33</ele>
        <time>2017-10-05T10:47:35Z</time>
      </trkpt>
      <trkpt lat="45.50402" lon="5.56868">
        <ele>604.81</ele>
        <time>2017-10-05T10:47:36Z</time>
      </trkpt>
      <trkpt lat="45.50401" lon="5.56865">
        <ele>604.81</ele>
        <time>2017-10-05T10:47:37Z</time>
      </trkpt>
      <trkpt lat="45.50391" lon="5.56826">
        <ele>608.17</ele>
        <time>2017-10-05T10:47:49Z</time>
      </trkpt>
      <trkpt lat="45.50391" lon="5.56804">
        <ele>608.17</ele>
        <time>2017-10-05T10:47:55Z</time>
      </trkpt>
      <trkpt lat="45.50391" lon="5.56801">
        <ele>608.17</ele>
        <time>2017-10-05T10:47:56Z</time>
      </trkpt>
      <trkpt lat="45.50391" lon="5.56798">
        <ele>608.65</ele>
        <time>2017-10-05T10:47:57Z</time>
      </trkpt>
      <trkpt lat="45.50391" lon="5.56794">
        <ele>609.13</ele>
        <time>2017-10-05T10:47:58Z</time>
      </trkpt>
      <trkpt lat="45.50391" lon="5.5679">
        <ele>608.65</ele>
        <time>2017-10-05T10:47:59Z</time>
      </trkpt>
      <trkpt lat="45.50385" lon="5.56717">
        <ele>610.09</ele>
        <time>2017-10-05T10:48:16Z</time>
      </trkpt>
      <trkpt lat="45.50375" lon="5.56636">
        <ele>612.5</ele>
        <time>2017-10-05T10:48:36Z</time>
      </trkpt>
      <trkpt lat="45.50368" lon="5.56579">
        <ele>613.46</ele>
        <time>2017-10-05T10:48:49Z</time>
      </trkpt>
      <trkpt lat="45.5035" lon="5.56558">
        <ele>612.98</ele>
        <time>2017-10-05T10:48:56Z</time>
      </trkpt>
      <trkpt lat="45.50347" lon="5.56554">
        <ele>612.98</ele>
        <time>2017-10-05T10:48:57Z</time>
      </trkpt>
      <trkpt lat="45.50344" lon="5.56551">
        <ele>612.98</ele>
        <time>2017-10-05T10:48:58Z</time>
      </trkpt>
      <trkpt lat="45.50313" lon="5.56517">
        <ele>612.98</ele>
        <time>2017-10-05T10:49:08Z</time>
      </trkpt>
      <trkpt lat="45.50303" lon="5.56506">
        <ele>612.98</ele>
        <time>2017-10-05T10:49:11Z</time>
      </trkpt>
      <trkpt lat="45.503" lon="5.56503">
        <ele>612.98</ele>
        <time>2017-10-05T10:49:12Z</time>
      </trkpt>
      <trkpt lat="45.50296" lon="5.565">
        <ele>612.98</ele>
        <time>2017-10-05T10:49:13Z</time>
      </trkpt>
      <trkpt lat="45.50256" lon="5.5648">
        <ele>612.5</ele>
        <time>2017-10-05T10:49:23Z</time>
      </trkpt>
      <trkpt lat="45.50252" lon="5.56478">
        <ele>612.98</ele>
        <time>2017-10-05T10:49:24Z</time>
      </trkpt>
      <trkpt lat="45.50248" lon="5.56476">
        <ele>612.98</ele>
        <time>2017-10-05T10:49:25Z</time>
      </trkpt>
      <trkpt lat="45.50196" lon="5.56437">
        <ele>615.38</ele>
        <time>2017-10-05T10:49:42Z</time>
      </trkpt>
      <trkpt lat="45.5019" lon="5.56428">
        <ele>616.82</ele>
        <time>2017-10-05T10:49:46Z</time>
      </trkpt>
      <trkpt lat="45.50187" lon="5.56419">
        <ele>618.26</ele>
        <time>2017-10-05T10:49:49Z</time>
      </trkpt>
      <trkpt lat="45.50188" lon="5.56414">
        <ele>617.3</ele>
        <time>2017-10-05T10:49:51Z</time>
      </trkpt>
      <trkpt lat="45.50188" lon="5.56412">
        <ele>617.3</ele>
        <time>2017-10-05T10:49:52Z</time>
      </trkpt>
      <trkpt lat="45.50189" lon="5.56409">
        <ele>617.3</ele>
        <time>2017-10-05T10:49:53Z</time>
      </trkpt>
      <trkpt lat="45.5019" lon="5.56406">
        <ele>617.3</ele>
        <time>2017-10-05T10:49:54Z</time>
      </trkpt>
      <trkpt lat="45.50192" lon="5.56403">
        <ele>617.3</ele>
        <time>2017-10-05T10:49:55Z</time>
      </trkpt>
      <trkpt lat="45.50202" lon="5.56358">
        <ele>615.86</ele>
        <time>2017-10-05T10:50:05Z</time>
      </trkpt>
      <trkpt lat="45.50207" lon="5.5631">
        <ele>616.34</ele>
        <time>2017-10-05T10:50:15Z</time>
      </trkpt>
      <trkpt lat="45.50207" lon="5.56302">
        <ele>616.34</ele>
        <time>2017-10-05T10:50:17Z</time>
      </trkpt>
      <trkpt lat="45.50224" lon="5.56241">
        <ele>614.9</ele>
        <time>2017-10-05T10:50:28Z</time>
      </trkpt>
      <trkpt lat="45.5023" lon="5.56157">
        <ele>616.34</ele>
        <time>2017-10-05T10:50:43Z</time>
      </trkpt>
      <trkpt lat="45.50222" lon="5.56129">
        <ele>618.26</ele>
        <time>2017-10-05T10:50:53Z</time>
      </trkpt>
      <trkpt lat="45.50218" lon="5.56112">
        <ele>620.19</ele>
        <time>2017-10-05T10:51:03Z</time>
      </trkpt>
      <trkpt lat="45.50218" lon="5.56105">
        <ele>621.63</ele>
        <time>2017-10-05T10:51:07Z</time>
      </trkpt>
      <trkpt lat="45.50218" lon="5.56094">
        <ele>622.11</ele>
        <time>2017-10-05T10:51:11Z</time>
      </trkpt>
      <trkpt lat="45.50217" lon="5.56092">
        <ele>622.59</ele>
        <time>2017-10-05T10:51:12Z</time>
      </trkpt>
      <trkpt lat="45.50216" lon="5.56089">
        <ele>622.59</ele>
        <time>2017-10-05T10:51:13Z</time>
      </trkpt>
      <trkpt lat="45.50213" lon="5.56075">
        <ele>624.51</ele>
        <time>2017-10-05T10:51:20Z</time>
      </trkpt>
      <trkpt lat="45.50213" lon="5.56072">
        <ele>624.51</ele>
        <time>2017-10-05T10:51:21Z</time>
      </trkpt>
      <trkpt lat="45.50212" lon="5.56068">
        <ele>624.99</ele>
        <time>2017-10-05T10:51:23Z</time>
      </trkpt>
      <trkpt lat="45.5021" lon="5.56054">
        <ele>625.96</ele>
        <time>2017-10-05T10:51:28Z</time>
      </trkpt>
      <trkpt lat="45.50212" lon="5.56049">
        <ele>626.44</ele>
        <time>2017-10-05T10:51:30Z</time>
      </trkpt>
      <trkpt lat="45.50215" lon="5.56022">
        <ele>627.88</ele>
        <time>2017-10-05T10:51:40Z</time>
      </trkpt>
      <trkpt lat="45.50219" lon="5.55975">
        <ele>627.88</ele>
        <time>2017-10-05T10:51:52Z</time>
      </trkpt>
      <trkpt lat="45.5024" lon="5.55929">
        <ele>626.92</ele>
        <time>2017-10-05T10:52:04Z</time>
      </trkpt>
      <trkpt lat="45.50242" lon="5.55921">
        <ele>627.4</ele>
        <time>2017-10-05T10:52:06Z</time>
      </trkpt>
      <trkpt lat="45.50244" lon="5.55904">
        <ele>627.4</ele>
        <time>2017-10-05T10:52:11Z</time>
      </trkpt>
      <trkpt lat="45.50253" lon="5.55862">
        <ele>624.99</ele>
        <time>2017-10-05T10:52:20Z</time>
      </trkpt>
      <trkpt lat="45.50254" lon="5.55854">
        <ele>624.99</ele>
        <time>2017-10-05T10:52:21Z</time>
      </trkpt>
      <trkpt lat="45.50253" lon="5.55778">
        <ele>623.07</ele>
        <time>2017-10-05T10:52:32Z</time>
      </trkpt>
      <trkpt lat="45.50252" lon="5.5577">
        <ele>623.07</ele>
        <time>2017-10-05T10:52:33Z</time>
      </trkpt>
      <trkpt lat="45.5025" lon="5.55762">
        <ele>623.07</ele>
        <time>2017-10-05T10:52:34Z</time>
      </trkpt>
      <trkpt lat="45.50248" lon="5.55754">
        <ele>623.07</ele>
        <time>2017-10-05T10:52:35Z</time>
      </trkpt>
      <trkpt lat="45.50245" lon="5.55747">
        <ele>623.07</ele>
        <time>2017-10-05T10:52:36Z</time>
      </trkpt>
      <trkpt lat="45.50243" lon="5.55741">
        <ele>623.07</ele>
        <time>2017-10-05T10:52:37Z</time>
      </trkpt>
      <trkpt lat="45.50232" lon="5.55718">
        <ele>623.07</ele>
        <time>2017-10-05T10:52:41Z</time>
      </trkpt>
      <trkpt lat="45.50231" lon="5.55711">
        <ele>622.59</ele>
        <time>2017-10-05T10:52:42Z</time>
      </trkpt>
      <trkpt lat="45.50228" lon="5.55698">
        <ele>622.11</ele>
        <time>2017-10-05T10:52:44Z</time>
      </trkpt>
      <trkpt lat="45.50217" lon="5.55659">
        <ele>619.71</ele>
        <time>2017-10-05T10:52:49Z</time>
      </trkpt>
      <trkpt lat="45.50198" lon="5.55566">
        <ele>616.82</ele>
        <time>2017-10-05T10:53:00Z</time>
      </trkpt>
      <trkpt lat="45.50196" lon="5.55558">
        <ele>617.3</ele>
        <time>2017-10-05T10:53:01Z</time>
      </trkpt>
      <trkpt lat="45.50195" lon="5.5555">
        <ele>617.3</ele>
        <time>2017-10-05T10:53:02Z</time>
      </trkpt>
      <trkpt lat="45.50194" lon="5.55542">
        <ele>616.82</ele>
        <time>2017-10-05T10:53:03Z</time>
      </trkpt>
      <trkpt lat="45.50192" lon="5.55534">
        <ele>616.82</ele>
        <time>2017-10-05T10:53:04Z</time>
      </trkpt>
      <trkpt lat="45.50188" lon="5.5552">
        <ele>616.82</ele>
        <time>2017-10-05T10:53:06Z</time>
      </trkpt>
      <trkpt lat="45.50178" lon="5.55487">
        <ele>616.82</ele>
        <time>2017-10-05T10:53:11Z</time>
      </trkpt>
      <trkpt lat="45.50174" lon="5.55475">
        <ele>616.82</ele>
        <time>2017-10-05T10:53:13Z</time>
      </trkpt>
      <trkpt lat="45.50172" lon="5.55463">
        <ele>616.82</ele>
        <time>2017-10-05T10:53:15Z</time>
      </trkpt>
      <trkpt lat="45.50171" lon="5.55457">
        <ele>616.82</ele>
        <time>2017-10-05T10:53:16Z</time>
      </trkpt>
      <trkpt lat="45.50168" lon="5.55445">
        <ele>617.3</ele>
        <time>2017-10-05T10:53:19Z</time>
      </trkpt>
      <trkpt lat="45.50167" lon="5.55444">
        <ele>617.3</ele>
        <time>2017-10-05T10:53:20Z</time>
      </trkpt>
      <trkpt lat="45.50166" lon="5.55444">
        <ele>617.78</ele>
        <time>2017-10-05T10:53:21Z</time>
      </trkpt>
      <trkpt lat="45.50165" lon="5.55446">
        <ele>617.78</ele>
        <time>2017-10-05T10:53:22Z</time>
      </trkpt>
      <trkpt lat="45.50164" lon="5.55448">
        <ele>617.78</ele>
        <time>2017-10-05T10:53:23Z</time>
      </trkpt>
      <trkpt lat="45.50162" lon="5.55451">
        <ele>617.78</ele>
        <time>2017-10-05T10:53:24Z</time>
      </trkpt>
      <trkpt lat="45.5016" lon="5.55453">
        <ele>617.78</ele>
        <time>2017-10-05T10:53:25Z</time>
      </trkpt>
      <trkpt lat="45.50159" lon="5.55455">
        <ele>618.26</ele>
        <time>2017-10-05T10:53:26Z</time>
      </trkpt>
      <trkpt lat="45.50135" lon="5.55474">
        <ele>621.15</ele>
        <time>2017-10-05T10:53:40Z</time>
      </trkpt>
      <trkpt lat="45.5012" lon="5.55489">
        <ele>624.51</ele>
        <time>2017-10-05T10:53:51Z</time>
      </trkpt>
      <trkpt lat="45.50098" lon="5.55509">
        <ele>627.4</ele>
        <time>2017-10-05T10:54:06Z</time>
      </trkpt>
      <trkpt lat="45.50081" lon="5.55526">
        <ele>630.76</ele>
        <time>2017-10-05T10:54:18Z</time>
      </trkpt>
      <trkpt lat="45.5006" lon="5.55538">
        <ele>633.17</ele>
        <time>2017-10-05T10:54:30Z</time>
      </trkpt>
      <trkpt lat="45.50041" lon="5.55562">
        <ele>632.68</ele>
        <time>2017-10-05T10:54:42Z</time>
      </trkpt>
      <trkpt lat="45.5004" lon="5.55565">
        <ele>632.68</ele>
        <time>2017-10-05T10:54:43Z</time>
      </trkpt>
      <trkpt lat="45.50039" lon="5.55587">
        <ele>633.17</ele>
        <time>2017-10-05T10:54:52Z</time>
      </trkpt>
      <trkpt lat="45.50038" lon="5.55588">
        <ele>633.17</ele>
        <time>2017-10-05T10:54:53Z</time>
      </trkpt>
      <trkpt lat="45.50037" lon="5.55589">
        <ele>633.17</ele>
        <time>2017-10-05T10:54:54Z</time>
      </trkpt>
      <trkpt lat="45.50035" lon="5.5559">
        <ele>633.17</ele>
        <time>2017-10-05T10:54:55Z</time>
      </trkpt>
      <trkpt lat="45.50033" lon="5.5559">
        <ele>633.17</ele>
        <time>2017-10-05T10:54:56Z</time>
      </trkpt>
      <trkpt lat="45.50032" lon="5.55591">
        <ele>633.17</ele>
        <time>2017-10-05T10:54:57Z</time>
      </trkpt>
      <trkpt lat="45.5003" lon="5.55591">
        <ele>633.17</ele>
        <time>2017-10-05T10:54:58Z</time>
      </trkpt>
      <trkpt lat="45.50028" lon="5.55591">
        <ele>633.17</ele>
        <time>2017-10-05T10:54:59Z</time>
      </trkpt>
      <trkpt lat="45.50026" lon="5.55591">
        <ele>633.17</ele>
        <time>2017-10-05T10:55:00Z</time>
      </trkpt>
      <trkpt lat="45.50023" lon="5.55591">
        <ele>633.17</ele>
        <time>2017-10-05T10:55:01Z</time>
      </trkpt>
      <trkpt lat="45.50021" lon="5.5559">
        <ele>633.65</ele>
        <time>2017-10-05T10:55:02Z</time>
      </trkpt>
      <trkpt lat="45.50019" lon="5.55589">
        <ele>633.65</ele>
        <time>2017-10-05T10:55:03Z</time>
      </trkpt>
      <trkpt lat="45.50018" lon="5.55589">
        <ele>633.65</ele>
        <time>2017-10-05T10:55:04Z</time>
      </trkpt>
      <trkpt lat="45.50016" lon="5.55589">
        <ele>633.65</ele>
        <time>2017-10-05T10:55:05Z</time>
      </trkpt>
      <trkpt lat="45.50013" lon="5.55588">
        <ele>633.65</ele>
        <time>2017-10-05T10:55:06Z</time>
      </trkpt>
      <trkpt lat="45.50011" lon="5.55587">
        <ele>634.13</ele>
        <time>2017-10-05T10:55:07Z</time>
      </trkpt>
      <trkpt lat="45.50009" lon="5.55585">
        <ele>634.13</ele>
        <time>2017-10-05T10:55:08Z</time>
      </trkpt>
      <trkpt lat="45.50007" lon="5.55584">
        <ele>634.13</ele>
        <time>2017-10-05T10:55:09Z</time>
      </trkpt>
      <trkpt lat="45.49986" lon="5.55576">
        <ele>636.05</ele>
        <time>2017-10-05T10:55:20Z</time>
      </trkpt>
      <trkpt lat="45.49971" lon="5.55571">
        <ele>637.01</ele>
        <time>2017-10-05T10:55:28Z</time>
      </trkpt>
      <trkpt lat="45.49969" lon="5.55572">
        <ele>637.49</ele>
        <time>2017-10-05T10:55:29Z</time>
      </trkpt>
      <trkpt lat="45.49944" lon="5.55577">
        <ele>637.97</ele>
        <time>2017-10-05T10:55:40Z</time>
      </trkpt>
      <trkpt lat="45.49921" lon="5.55577">
        <ele>637.97</ele>
        <time>2017-10-05T10:55:48Z</time>
      </trkpt>
      <trkpt lat="45.49918" lon="5.55575">
        <ele>637.97</ele>
        <time>2017-10-05T10:55:49Z</time>
      </trkpt>
      <trkpt lat="45.49892" lon="5.55555">
        <ele>637.49</ele>
        <time>2017-10-05T10:55:58Z</time>
      </trkpt>
      <trkpt lat="45.49877" lon="5.55517">
        <ele>637.01</ele>
        <time>2017-10-05T10:56:08Z</time>
      </trkpt>
      <trkpt lat="45.49876" lon="5.55514">
        <ele>637.01</ele>
        <time>2017-10-05T10:56:09Z</time>
      </trkpt>
      <trkpt lat="45.49874" lon="5.5551">
        <ele>637.01</ele>
        <time>2017-10-05T10:56:10Z</time>
      </trkpt>
      <trkpt lat="45.49856" lon="5.55465">
        <ele>636.05</ele>
        <time>2017-10-05T10:56:19Z</time>
      </trkpt>
      <trkpt lat="45.49848" lon="5.55448">
        <ele>636.05</ele>
        <time>2017-10-05T10:56:23Z</time>
      </trkpt>
      <trkpt lat="45.49845" lon="5.55445">
        <ele>636.05</ele>
        <time>2017-10-05T10:56:24Z</time>
      </trkpt>
      <trkpt lat="45.49843" lon="5.55441">
        <ele>635.57</ele>
        <time>2017-10-05T10:56:25Z</time>
      </trkpt>
      <trkpt lat="45.49819" lon="5.55405">
        <ele>635.57</ele>
        <time>2017-10-05T10:56:34Z</time>
      </trkpt>
      <trkpt lat="45.49806" lon="5.55392">
        <ele>635.09</ele>
        <time>2017-10-05T10:56:37Z</time>
      </trkpt>
      <trkpt lat="45.49802" lon="5.55388">
        <ele>635.09</ele>
        <time>2017-10-05T10:56:38Z</time>
      </trkpt>
      <trkpt lat="45.49794" lon="5.55379">
        <ele>634.61</ele>
        <time>2017-10-05T10:56:40Z</time>
      </trkpt>
      <trkpt lat="45.4979" lon="5.55374">
        <ele>634.61</ele>
        <time>2017-10-05T10:56:41Z</time>
      </trkpt>
      <trkpt lat="45.49774" lon="5.55354">
        <ele>633.65</ele>
        <time>2017-10-05T10:56:47Z</time>
      </trkpt>
      <trkpt lat="45.49772" lon="5.5535">
        <ele>633.17</ele>
        <time>2017-10-05T10:56:48Z</time>
      </trkpt>
      <trkpt lat="45.4977" lon="5.55346">
        <ele>633.65</ele>
        <time>2017-10-05T10:56:49Z</time>
      </trkpt>
      <trkpt lat="45.49768" lon="5.5534">
        <ele>633.17</ele>
        <time>2017-10-05T10:56:50Z</time>
      </trkpt>
      <trkpt lat="45.49767" lon="5.55335">
        <ele>632.68</ele>
        <time>2017-10-05T10:56:51Z</time>
      </trkpt>
      <trkpt lat="45.49764" lon="5.55329">
        <ele>632.2</ele>
        <time>2017-10-05T10:56:52Z</time>
      </trkpt>
      <trkpt lat="45.49762" lon="5.55324">
        <ele>632.2</ele>
        <time>2017-10-05T10:56:53Z</time>
      </trkpt>
      <trkpt lat="45.49758" lon="5.55318">
        <ele>631.72</ele>
        <time>2017-10-05T10:56:54Z</time>
      </trkpt>
      <trkpt lat="45.49753" lon="5.55313">
        <ele>631.24</ele>
        <time>2017-10-05T10:56:55Z</time>
      </trkpt>
      <trkpt lat="45.49746" lon="5.55307">
        <ele>631.24</ele>
        <time>2017-10-05T10:56:56Z</time>
      </trkpt>
      <trkpt lat="45.4974" lon="5.55302">
        <ele>631.24</ele>
        <time>2017-10-05T10:56:57Z</time>
      </trkpt>
      <trkpt lat="45.49734" lon="5.55296">
        <ele>630.76</ele>
        <time>2017-10-05T10:56:58Z</time>
      </trkpt>
      <trkpt lat="45.49729" lon="5.55291">
        <ele>630.76</ele>
        <time>2017-10-05T10:56:59Z</time>
      </trkpt>
      <trkpt lat="45.49723" lon="5.55287">
        <ele>630.76</ele>
        <time>2017-10-05T10:57:00Z</time>
      </trkpt>
      <trkpt lat="45.49706" lon="5.55271">
        <ele>630.28</ele>
        <time>2017-10-05T10:57:04Z</time>
      </trkpt>
      <trkpt lat="45.49702" lon="5.55267">
        <ele>629.8</ele>
        <time>2017-10-05T10:57:05Z</time>
      </trkpt>
      <trkpt lat="45.49695" lon="5.55257">
        <ele>629.32</ele>
        <time>2017-10-05T10:57:08Z</time>
      </trkpt>
      <trkpt lat="45.49694" lon="5.55254">
        <ele>629.32</ele>
        <time>2017-10-05T10:57:09Z</time>
      </trkpt>
      <trkpt lat="45.49693" lon="5.5525">
        <ele>629.32</ele>
        <time>2017-10-05T10:57:10Z</time>
      </trkpt>
      <trkpt lat="45.4969" lon="5.55245">
        <ele>629.32</ele>
        <time>2017-10-05T10:57:11Z</time>
      </trkpt>
      <trkpt lat="45.49685" lon="5.5524">
        <ele>629.32</ele>
        <time>2017-10-05T10:57:12Z</time>
      </trkpt>
      <trkpt lat="45.49681" lon="5.55236">
        <ele>629.32</ele>
        <time>2017-10-05T10:57:13Z</time>
      </trkpt>
      <trkpt lat="45.49677" lon="5.55233">
        <ele>629.8</ele>
        <time>2017-10-05T10:57:14Z</time>
      </trkpt>
      <trkpt lat="45.49672" lon="5.55229">
        <ele>629.8</ele>
        <time>2017-10-05T10:57:15Z</time>
      </trkpt>
      <trkpt lat="45.4964" lon="5.55177">
        <ele>630.28</ele>
        <time>2017-10-05T10:57:27Z</time>
      </trkpt>
      <trkpt lat="45.49614" lon="5.55134">
        <ele>632.2</ele>
        <time>2017-10-05T10:57:41Z</time>
      </trkpt>
      <trkpt lat="45.49588" lon="5.55118">
        <ele>635.09</ele>
        <time>2017-10-05T10:57:55Z</time>
      </trkpt>
      <trkpt lat="45.49577" lon="5.5509">
        <ele>637.49</ele>
        <time>2017-10-05T10:58:07Z</time>
      </trkpt>
      <trkpt lat="45.49576" lon="5.55088">
        <ele>637.97</ele>
        <time>2017-10-05T10:58:08Z</time>
      </trkpt>
      <trkpt lat="45.49575" lon="5.55085">
        <ele>637.97</ele>
        <time>2017-10-05T10:58:09Z</time>
      </trkpt>
      <trkpt lat="45.49573" lon="5.5508">
        <ele>638.45</ele>
        <time>2017-10-05T10:58:11Z</time>
      </trkpt>
      <trkpt lat="45.49572" lon="5.55077">
        <ele>638.45</ele>
        <time>2017-10-05T10:58:12Z</time>
      </trkpt>
      <trkpt lat="45.49571" lon="5.55075">
        <ele>638.93</ele>
        <time>2017-10-05T10:58:13Z</time>
      </trkpt>
      <trkpt lat="45.4957" lon="5.55071">
        <ele>638.93</ele>
        <time>2017-10-05T10:58:14Z</time>
      </trkpt>
      <trkpt lat="45.49569" lon="5.55068">
        <ele>638.93</ele>
        <time>2017-10-05T10:58:15Z</time>
      </trkpt>
      <trkpt lat="45.49555" lon="5.55027">
        <ele>637.97</ele>
        <time>2017-10-05T10:58:28Z</time>
      </trkpt>
      <trkpt lat="45.49551" lon="5.55012">
        <ele>636.05</ele>
        <time>2017-10-05T10:58:31Z</time>
      </trkpt>
      <trkpt lat="45.49549" lon="5.55006">
        <ele>635.57</ele>
        <time>2017-10-05T10:58:32Z</time>
      </trkpt>
      <trkpt lat="45.49543" lon="5.54982">
        <ele>633.17</ele>
        <time>2017-10-05T10:58:36Z</time>
      </trkpt>
      <trkpt lat="45.49541" lon="5.54979">
        <ele>633.17</ele>
        <time>2017-10-05T10:58:37Z</time>
      </trkpt>
      <trkpt lat="45.49539" lon="5.54977">
        <ele>632.68</ele>
        <time>2017-10-05T10:58:38Z</time>
      </trkpt>
      <trkpt lat="45.49536" lon="5.54977">
        <ele>632.68</ele>
        <time>2017-10-05T10:58:39Z</time>
      </trkpt>
      <trkpt lat="45.49533" lon="5.54979">
        <ele>632.68</ele>
        <time>2017-10-05T10:58:40Z</time>
      </trkpt>
      <trkpt lat="45.49531" lon="5.54982">
        <ele>632.68</ele>
        <time>2017-10-05T10:58:41Z</time>
      </trkpt>
      <trkpt lat="45.49503" lon="5.55025">
        <ele>632.2</ele>
        <time>2017-10-05T10:58:53Z</time>
      </trkpt>
      <trkpt lat="45.49465" lon="5.55093">
        <ele>631.72</ele>
        <time>2017-10-05T10:59:08Z</time>
      </trkpt>
      <trkpt lat="45.49404" lon="5.55182">
        <ele>632.2</ele>
        <time>2017-10-05T10:59:28Z</time>
      </trkpt>
      <trkpt lat="45.49358" lon="5.55238">
        <ele>634.13</ele>
        <time>2017-10-05T10:59:43Z</time>
      </trkpt>
      <trkpt lat="45.49354" lon="5.55244">
        <ele>634.61</ele>
        <time>2017-10-05T10:59:45Z</time>
      </trkpt>
      <trkpt lat="45.49352" lon="5.55245">
        <ele>634.61</ele>
        <time>2017-10-05T10:59:46Z</time>
      </trkpt>
      <trkpt lat="45.49349" lon="5.55244">
        <ele>634.13</ele>
        <time>2017-10-05T10:59:47Z</time>
      </trkpt>
      <trkpt lat="45.49347" lon="5.55242">
        <ele>634.13</ele>
        <time>2017-10-05T10:59:48Z</time>
      </trkpt>
      <trkpt lat="45.49345" lon="5.55237">
        <ele>634.13</ele>
        <time>2017-10-05T10:59:49Z</time>
      </trkpt>
      <trkpt lat="45.49345" lon="5.55232">
        <ele>635.09</ele>
        <time>2017-10-05T10:59:50Z</time>
      </trkpt>
      <trkpt lat="45.49344" lon="5.55228">
        <ele>634.13</ele>
        <time>2017-10-05T10:59:51Z</time>
      </trkpt>
      <trkpt lat="45.49343" lon="5.55224">
        <ele>634.13</ele>
        <time>2017-10-05T10:59:52Z</time>
      </trkpt>
      <trkpt lat="45.49342" lon="5.55219">
        <ele>633.65</ele>
        <time>2017-10-05T10:59:53Z</time>
      </trkpt>
      <trkpt lat="45.4934" lon="5.55215">
        <ele>633.17</ele>
        <time>2017-10-05T10:59:54Z</time>
      </trkpt>
      <trkpt lat="45.49337" lon="5.55211">
        <ele>633.17</ele>
        <time>2017-10-05T10:59:55Z</time>
      </trkpt>
      <trkpt lat="45.49334" lon="5.55207">
        <ele>632.68</ele>
        <time>2017-10-05T10:59:56Z</time>
      </trkpt>
      <trkpt lat="45.49331" lon="5.55204">
        <ele>632.68</ele>
        <time>2017-10-05T10:59:57Z</time>
      </trkpt>
      <trkpt lat="45.49328" lon="5.552">
        <ele>632.68</ele>
        <time>2017-10-05T10:59:58Z</time>
      </trkpt>
      <trkpt lat="45.49325" lon="5.55195">
        <ele>631.72</ele>
        <time>2017-10-05T10:59:59Z</time>
      </trkpt>
      <trkpt lat="45.49321" lon="5.5519">
        <ele>631.72</ele>
        <time>2017-10-05T11:00:00Z</time>
      </trkpt>
      <trkpt lat="45.49312" lon="5.55181">
        <ele>631.24</ele>
        <time>2017-10-05T11:00:02Z</time>
      </trkpt>
      <trkpt lat="45.49308" lon="5.55176">
        <ele>631.24</ele>
        <time>2017-10-05T11:00:03Z</time>
      </trkpt>
      <trkpt lat="45.49283" lon="5.55148">
        <ele>631.72</ele>
        <time>2017-10-05T11:00:12Z</time>
      </trkpt>
      <trkpt lat="45.49281" lon="5.55144">
        <ele>631.72</ele>
        <time>2017-10-05T11:00:23Z</time>
      </trkpt>
      <trkpt lat="45.49281" lon="5.55142">
        <ele>635.09</ele>
        <time>2017-10-05T11:00:31Z</time>
      </trkpt>
      <trkpt lat="45.49281" lon="5.55142">
        <ele>631.72</ele>
        <time>2017-10-05T11:00:32Z</time>
      </trkpt>
      <trkpt lat="45.49281" lon="5.55142">
        <ele>630.28</ele>
        <time>2017-10-05T11:00:36Z</time>
      </trkpt>
      <trkpt lat="45.49281" lon="5.55142">
        <ele>634.61</ele>
        <time>2017-10-05T11:00:37Z</time>
      </trkpt>
      <trkpt lat="45.49281" lon="5.55142">
        <ele>631.72</ele>
        <time>2017-10-05T11:00:38Z</time>
      </trkpt>
      <trkpt lat="45.49282" lon="5.55141">
        <ele>629.8</ele>
        <time>2017-10-05T11:00:45Z</time>
      </trkpt>
      <trkpt lat="45.49282" lon="5.55141">
        <ele>633.17</ele>
        <time>2017-10-05T11:00:47Z</time>
      </trkpt>
      <trkpt lat="45.49281" lon="5.55141">
        <ele>631.24</ele>
        <time>2017-10-05T11:00:58Z</time>
      </trkpt>
      <trkpt lat="45.4928" lon="5.5514">
        <ele>631.24</ele>
        <time>2017-10-05T11:00:59Z</time>
      </trkpt>
      <trkpt lat="45.49277" lon="5.5514">
        <ele>631.24</ele>
        <time>2017-10-05T11:01:00Z</time>
      </trkpt>
      <trkpt lat="45.49275" lon="5.55139">
        <ele>631.24</ele>
        <time>2017-10-05T11:01:01Z</time>
      </trkpt>
      <trkpt lat="45.49272" lon="5.55137">
        <ele>631.24</ele>
        <time>2017-10-05T11:01:02Z</time>
      </trkpt>
      <trkpt lat="45.49269" lon="5.55135">
        <ele>631.24</ele>
        <time>2017-10-05T11:01:03Z</time>
      </trkpt>
      <trkpt lat="45.49213" lon="5.55095">
        <ele>631.72</ele>
        <time>2017-10-05T11:01:20Z</time>
      </trkpt>
      <trkpt lat="45.49168" lon="5.5509">
        <ele>632.68</ele>
        <time>2017-10-05T11:01:33Z</time>
      </trkpt>
      <trkpt lat="45.49113" lon="5.55093">
        <ele>632.68</ele>
        <time>2017-10-05T11:01:48Z</time>
      </trkpt>
      <trkpt lat="45.49082" lon="5.55087">
        <ele>632.68</ele>
        <time>2017-10-05T11:01:57Z</time>
      </trkpt>
      <trkpt lat="45.49057" lon="5.55089">
        <ele>631.72</ele>
        <time>2017-10-05T11:02:05Z</time>
      </trkpt>
      <trkpt lat="45.49031" lon="5.55106">
        <ele>628.36</ele>
        <time>2017-10-05T11:02:11Z</time>
      </trkpt>
      <trkpt lat="45.49013" lon="5.55109">
        <ele>624.51</ele>
        <time>2017-10-05T11:02:16Z</time>
      </trkpt>
      <trkpt lat="45.49008" lon="5.55109">
        <ele>623.55</ele>
        <time>2017-10-05T11:02:17Z</time>
      </trkpt>
      <trkpt lat="45.4899" lon="5.55103">
        <ele>620.19</ele>
        <time>2017-10-05T11:02:20Z</time>
      </trkpt>
      <trkpt lat="45.48984" lon="5.551">
        <ele>619.23</ele>
        <time>2017-10-05T11:02:21Z</time>
      </trkpt>
      <trkpt lat="45.48959" lon="5.55084">
        <ele>616.34</ele>
        <time>2017-10-05T11:02:25Z</time>
      </trkpt>
      <trkpt lat="45.48946" lon="5.55079">
        <ele>615.86</ele>
        <time>2017-10-05T11:02:27Z</time>
      </trkpt>
      <trkpt lat="45.48941" lon="5.55077">
        <ele>615.86</ele>
        <time>2017-10-05T11:02:28Z</time>
      </trkpt>
      <trkpt lat="45.48935" lon="5.55074">
        <ele>615.38</ele>
        <time>2017-10-05T11:02:29Z</time>
      </trkpt>
      <trkpt lat="45.48929" lon="5.5507">
        <ele>615.38</ele>
        <time>2017-10-05T11:02:30Z</time>
      </trkpt>
      <trkpt lat="45.48924" lon="5.55065">
        <ele>614.42</ele>
        <time>2017-10-05T11:02:31Z</time>
      </trkpt>
      <trkpt lat="45.48919" lon="5.5506">
        <ele>613.94</ele>
        <time>2017-10-05T11:02:32Z</time>
      </trkpt>
      <trkpt lat="45.48914" lon="5.55056">
        <ele>613.94</ele>
        <time>2017-10-05T11:02:33Z</time>
      </trkpt>
      <trkpt lat="45.48908" lon="5.55053">
        <ele>613.94</ele>
        <time>2017-10-05T11:02:34Z</time>
      </trkpt>
      <trkpt lat="45.48903" lon="5.5505">
        <ele>613.46</ele>
        <time>2017-10-05T11:02:35Z</time>
      </trkpt>
      <trkpt lat="45.48898" lon="5.55047">
        <ele>612.98</ele>
        <time>2017-10-05T11:02:36Z</time>
      </trkpt>
      <trkpt lat="45.48868" lon="5.5503">
        <ele>609.61</ele>
        <time>2017-10-05T11:02:41Z</time>
      </trkpt>
      <trkpt lat="45.48861" lon="5.55027">
        <ele>609.13</ele>
        <time>2017-10-05T11:02:42Z</time>
      </trkpt>
      <trkpt lat="45.48854" lon="5.55026">
        <ele>608.65</ele>
        <time>2017-10-05T11:02:43Z</time>
      </trkpt>
      <trkpt lat="45.48848" lon="5.55025">
        <ele>608.17</ele>
        <time>2017-10-05T11:02:44Z</time>
      </trkpt>
      <trkpt lat="45.48843" lon="5.55023">
        <ele>608.17</ele>
        <time>2017-10-05T11:02:45Z</time>
      </trkpt>
      <trkpt lat="45.48831" lon="5.55021">
        <ele>606.25</ele>
        <time>2017-10-05T11:02:48Z</time>
      </trkpt>
      <trkpt lat="45.48828" lon="5.55023">
        <ele>605.77</ele>
        <time>2017-10-05T11:02:49Z</time>
      </trkpt>
      <trkpt lat="45.48825" lon="5.55027">
        <ele>604.81</ele>
        <time>2017-10-05T11:02:50Z</time>
      </trkpt>
      <trkpt lat="45.48822" lon="5.55031">
        <ele>604.33</ele>
        <time>2017-10-05T11:02:51Z</time>
      </trkpt>
      <trkpt lat="45.48819" lon="5.55036">
        <ele>603.36</ele>
        <time>2017-10-05T11:02:52Z</time>
      </trkpt>
      <trkpt lat="45.48817" lon="5.55041">
        <ele>602.4</ele>
        <time>2017-10-05T11:02:53Z</time>
      </trkpt>
      <trkpt lat="45.48815" lon="5.55047">
        <ele>601.44</ele>
        <time>2017-10-05T11:02:54Z</time>
      </trkpt>
      <trkpt lat="45.48815" lon="5.55052">
        <ele>600.96</ele>
        <time>2017-10-05T11:02:55Z</time>
      </trkpt>
      <trkpt lat="45.48815" lon="5.55058">
        <ele>600</ele>
        <time>2017-10-05T11:02:56Z</time>
      </trkpt>
      <trkpt lat="45.48815" lon="5.55071">
        <ele>598.08</ele>
        <time>2017-10-05T11:02:58Z</time>
      </trkpt>
      <trkpt lat="45.48816" lon="5.55078">
        <ele>597.6</ele>
        <time>2017-10-05T11:02:59Z</time>
      </trkpt>
      <trkpt lat="45.48815" lon="5.55086">
        <ele>596.64</ele>
        <time>2017-10-05T11:03:00Z</time>
      </trkpt>
      <trkpt lat="45.48814" lon="5.55093">
        <ele>596.64</ele>
        <time>2017-10-05T11:03:01Z</time>
      </trkpt>
      <trkpt lat="45.48814" lon="5.551">
        <ele>596.15</ele>
        <time>2017-10-05T11:03:02Z</time>
      </trkpt>
      <trkpt lat="45.48814" lon="5.55107">
        <ele>596.64</ele>
        <time>2017-10-05T11:03:03Z</time>
      </trkpt>
      <trkpt lat="45.48813" lon="5.55113">
        <ele>596.15</ele>
        <time>2017-10-05T11:03:04Z</time>
      </trkpt>
      <trkpt lat="45.48811" lon="5.55119">
        <ele>596.15</ele>
        <time>2017-10-05T11:03:05Z</time>
      </trkpt>
      <trkpt lat="45.48808" lon="5.55123">
        <ele>596.15</ele>
        <time>2017-10-05T11:03:06Z</time>
      </trkpt>
      <trkpt lat="45.48805" lon="5.55128">
        <ele>596.15</ele>
        <time>2017-10-05T11:03:07Z</time>
      </trkpt>
      <trkpt lat="45.48802" lon="5.55131">
        <ele>596.15</ele>
        <time>2017-10-05T11:03:08Z</time>
      </trkpt>
      <trkpt lat="45.48799" lon="5.55133">
        <ele>596.15</ele>
        <time>2017-10-05T11:03:09Z</time>
      </trkpt>
      <trkpt lat="45.48766" lon="5.55154">
        <ele>599.04</ele>
        <time>2017-10-05T11:03:19Z</time>
      </trkpt>
      <trkpt lat="45.4876" lon="5.5516">
        <ele>599.52</ele>
        <time>2017-10-05T11:03:22Z</time>
      </trkpt>
      <trkpt lat="45.48759" lon="5.55162">
        <ele>600</ele>
        <time>2017-10-05T11:03:23Z</time>
      </trkpt>
      <trkpt lat="45.48757" lon="5.55165">
        <ele>600.48</ele>
        <time>2017-10-05T11:03:24Z</time>
      </trkpt>
      <trkpt lat="45.48753" lon="5.55166">
        <ele>600.48</ele>
        <time>2017-10-05T11:03:25Z</time>
      </trkpt>
      <trkpt lat="45.48749" lon="5.55167">
        <ele>600.96</ele>
        <time>2017-10-05T11:03:26Z</time>
      </trkpt>
      <trkpt lat="45.48747" lon="5.55168">
        <ele>600.96</ele>
        <time>2017-10-05T11:03:27Z</time>
      </trkpt>
      <trkpt lat="45.48744" lon="5.55171">
        <ele>600.96</ele>
        <time>2017-10-05T11:03:28Z</time>
      </trkpt>
      <trkpt lat="45.48735" lon="5.55182">
        <ele>601.44</ele>
        <time>2017-10-05T11:03:32Z</time>
      </trkpt>
      <trkpt lat="45.4873" lon="5.55186">
        <ele>601.92</ele>
        <time>2017-10-05T11:03:34Z</time>
      </trkpt>
      <trkpt lat="45.48727" lon="5.55187">
        <ele>601.92</ele>
        <time>2017-10-05T11:03:35Z</time>
      </trkpt>
      <trkpt lat="45.48697" lon="5.55199">
        <ele>604.33</ele>
        <time>2017-10-05T11:03:48Z</time>
      </trkpt>
      <trkpt lat="45.48694" lon="5.55201">
        <ele>605.29</ele>
        <time>2017-10-05T11:03:50Z</time>
      </trkpt>
      <trkpt lat="45.48688" lon="5.55206">
        <ele>605.29</ele>
        <time>2017-10-05T11:03:53Z</time>
      </trkpt>
      <trkpt lat="45.48672" lon="5.55228">
        <ele>607.21</ele>
        <time>2017-10-05T11:04:04Z</time>
      </trkpt>
      <trkpt lat="45.48652" lon="5.55275">
        <ele>606.73</ele>
        <time>2017-10-05T11:04:15Z</time>
      </trkpt>
      <trkpt lat="45.48645" lon="5.55288">
        <ele>605.77</ele>
        <time>2017-10-05T11:04:18Z</time>
      </trkpt>
      <trkpt lat="45.48642" lon="5.55291">
        <ele>605.77</ele>
        <time>2017-10-05T11:04:19Z</time>
      </trkpt>
      <trkpt lat="45.48638" lon="5.55292">
        <ele>605.77</ele>
        <time>2017-10-05T11:04:20Z</time>
      </trkpt>
      <trkpt lat="45.486" lon="5.5528">
        <ele>606.73</ele>
        <time>2017-10-05T11:04:31Z</time>
      </trkpt>
      <trkpt lat="45.48548" lon="5.55259">
        <ele>606.25</ele>
        <time>2017-10-05T11:04:47Z</time>
      </trkpt>
      <trkpt lat="45.48502" lon="5.55271">
        <ele>606.25</ele>
        <time>2017-10-05T11:05:00Z</time>
      </trkpt>
      <trkpt lat="45.48495" lon="5.55274">
        <ele>605.77</ele>
        <time>2017-10-05T11:05:02Z</time>
      </trkpt>
      <trkpt lat="45.48464" lon="5.55291">
        <ele>602.4</ele>
        <time>2017-10-05T11:05:08Z</time>
      </trkpt>
      <trkpt lat="45.48456" lon="5.55293">
        <ele>601.44</ele>
        <time>2017-10-05T11:05:09Z</time>
      </trkpt>
      <trkpt lat="45.48421" lon="5.55304">
        <ele>597.6</ele>
        <time>2017-10-05T11:05:13Z</time>
      </trkpt>
      <trkpt lat="45.48394" lon="5.55313">
        <ele>596.15</ele>
        <time>2017-10-05T11:05:16Z</time>
      </trkpt>
      <trkpt lat="45.48376" lon="5.55321">
        <ele>594.71</ele>
        <time>2017-10-05T11:05:18Z</time>
      </trkpt>
      <trkpt lat="45.48367" lon="5.55327">
        <ele>594.23</ele>
        <time>2017-10-05T11:05:19Z</time>
      </trkpt>
      <trkpt lat="45.48335" lon="5.55353">
        <ele>593.75</ele>
        <time>2017-10-05T11:05:23Z</time>
      </trkpt>
      <trkpt lat="45.48328" lon="5.55357">
        <ele>593.75</ele>
        <time>2017-10-05T11:05:24Z</time>
      </trkpt>
      <trkpt lat="45.48322" lon="5.5536">
        <ele>594.23</ele>
        <time>2017-10-05T11:05:25Z</time>
      </trkpt>
      <trkpt lat="45.48315" lon="5.55362">
        <ele>595.67</ele>
        <time>2017-10-05T11:05:26Z</time>
      </trkpt>
      <trkpt lat="45.4831" lon="5.55363">
        <ele>596.15</ele>
        <time>2017-10-05T11:05:27Z</time>
      </trkpt>
      <trkpt lat="45.48305" lon="5.55364">
        <ele>596.15</ele>
        <time>2017-10-05T11:05:28Z</time>
      </trkpt>
      <trkpt lat="45.48253" lon="5.55368">
        <ele>593.27</ele>
        <time>2017-10-05T11:05:39Z</time>
      </trkpt>
      <trkpt lat="45.48246" lon="5.55371">
        <ele>592.31</ele>
        <time>2017-10-05T11:05:40Z</time>
      </trkpt>
      <trkpt lat="45.48239" lon="5.55375">
        <ele>591.35</ele>
        <time>2017-10-05T11:05:41Z</time>
      </trkpt>
      <trkpt lat="45.48216" lon="5.55392">
        <ele>588.95</ele>
        <time>2017-10-05T11:05:44Z</time>
      </trkpt>
      <trkpt lat="45.48135" lon="5.55435">
        <ele>588.46</ele>
        <time>2017-10-05T11:05:56Z</time>
      </trkpt>
      <trkpt lat="45.48101" lon="5.55453">
        <ele>585.58</ele>
        <time>2017-10-05T11:06:01Z</time>
      </trkpt>
      <trkpt lat="45.48086" lon="5.55465">
        <ele>583.18</ele>
        <time>2017-10-05T11:06:03Z</time>
      </trkpt>
      <trkpt lat="45.48067" lon="5.55484">
        <ele>581.73</ele>
        <time>2017-10-05T11:06:06Z</time>
      </trkpt>
      <trkpt lat="45.48057" lon="5.55495">
        <ele>580.77</ele>
        <time>2017-10-05T11:06:08Z</time>
      </trkpt>
      <trkpt lat="45.48051" lon="5.555">
        <ele>580.29</ele>
        <time>2017-10-05T11:06:09Z</time>
      </trkpt>
      <trkpt lat="45.48045" lon="5.55503">
        <ele>579.81</ele>
        <time>2017-10-05T11:06:10Z</time>
      </trkpt>
      <trkpt lat="45.48038" lon="5.55506">
        <ele>579.33</ele>
        <time>2017-10-05T11:06:11Z</time>
      </trkpt>
      <trkpt lat="45.48031" lon="5.5551">
        <ele>577.89</ele>
        <time>2017-10-05T11:06:12Z</time>
      </trkpt>
      <trkpt lat="45.48025" lon="5.55514">
        <ele>577.41</ele>
        <time>2017-10-05T11:06:13Z</time>
      </trkpt>
      <trkpt lat="45.4802" lon="5.55517">
        <ele>577.41</ele>
        <time>2017-10-05T11:06:14Z</time>
      </trkpt>
      <trkpt lat="45.47999" lon="5.55526">
        <ele>574.04</ele>
        <time>2017-10-05T11:06:18Z</time>
      </trkpt>
      <trkpt lat="45.47981" lon="5.55528">
        <ele>571.16</ele>
        <time>2017-10-05T11:06:22Z</time>
      </trkpt>
      <trkpt lat="45.47976" lon="5.55529">
        <ele>570.2</ele>
        <time>2017-10-05T11:06:23Z</time>
      </trkpt>
      <trkpt lat="45.47955" lon="5.55531">
        <ele>566.83</ele>
        <time>2017-10-05T11:06:27Z</time>
      </trkpt>
      <trkpt lat="45.47939" lon="5.55532">
        <ele>563.47</ele>
        <time>2017-10-05T11:06:32Z</time>
      </trkpt>
      <trkpt lat="45.47936" lon="5.55533">
        <ele>562.03</ele>
        <time>2017-10-05T11:06:43Z</time>
      </trkpt>
      <trkpt lat="45.47937" lon="5.55532">
        <ele>562.51</ele>
        <time>2017-10-05T11:07:09Z</time>
      </trkpt>
      <trkpt lat="45.47937" lon="5.55532">
        <ele>562.51</ele>
        <time>2017-10-05T11:07:10Z</time>
      </trkpt>
      <trkpt lat="45.47935" lon="5.55531">
        <ele>562.03</ele>
        <time>2017-10-05T11:07:11Z</time>
      </trkpt>
      <trkpt lat="45.47931" lon="5.55529">
        <ele>561.55</ele>
        <time>2017-10-05T11:07:12Z</time>
      </trkpt>
      <trkpt lat="45.47927" lon="5.55527">
        <ele>560.59</ele>
        <time>2017-10-05T11:07:13Z</time>
      </trkpt>
      <trkpt lat="45.47923" lon="5.55523">
        <ele>560.11</ele>
        <time>2017-10-05T11:07:14Z</time>
      </trkpt>
      <trkpt lat="45.47919" lon="5.55517">
        <ele>559.62</ele>
        <time>2017-10-05T11:07:15Z</time>
      </trkpt>
      <trkpt lat="45.47917" lon="5.5551">
        <ele>559.14</ele>
        <time>2017-10-05T11:07:16Z</time>
      </trkpt>
      <trkpt lat="45.47915" lon="5.55502">
        <ele>559.14</ele>
        <time>2017-10-05T11:07:17Z</time>
      </trkpt>
      <trkpt lat="45.47913" lon="5.55494">
        <ele>558.66</ele>
        <time>2017-10-05T11:07:18Z</time>
      </trkpt>
      <trkpt lat="45.47912" lon="5.55487">
        <ele>558.66</ele>
        <time>2017-10-05T11:07:19Z</time>
      </trkpt>
      <trkpt lat="45.47911" lon="5.55482">
        <ele>558.66</ele>
        <time>2017-10-05T11:07:20Z</time>
      </trkpt>
      <trkpt lat="45.4791" lon="5.55477">
        <ele>558.66</ele>
        <time>2017-10-05T11:07:21Z</time>
      </trkpt>
      <trkpt lat="45.47909" lon="5.55474">
        <ele>558.66</ele>
        <time>2017-10-05T11:07:22Z</time>
      </trkpt>
      <trkpt lat="45.47909" lon="5.55471">
        <ele>558.66</ele>
        <time>2017-10-05T11:07:23Z</time>
      </trkpt>
      <trkpt lat="45.47908" lon="5.55468">
        <ele>558.66</ele>
        <time>2017-10-05T11:07:24Z</time>
      </trkpt>
      <trkpt lat="45.47907" lon="5.55465">
        <ele>558.66</ele>
        <time>2017-10-05T11:07:25Z</time>
      </trkpt>
      <trkpt lat="45.47907" lon="5.55462">
        <ele>558.66</ele>
        <time>2017-10-05T11:07:26Z</time>
      </trkpt>
      <trkpt lat="45.47906" lon="5.55458">
        <ele>558.66</ele>
        <time>2017-10-05T11:07:27Z</time>
      </trkpt>
      <trkpt lat="45.47897" lon="5.55415">
        <ele>558.66</ele>
        <time>2017-10-05T11:07:38Z</time>
      </trkpt>
      <trkpt lat="45.47895" lon="5.55413">
        <ele>558.66</ele>
        <time>2017-10-05T11:07:39Z</time>
      </trkpt>
      <trkpt lat="45.47893" lon="5.55411">
        <ele>558.66</ele>
        <time>2017-10-05T11:07:40Z</time>
      </trkpt>
      <trkpt lat="45.47876" lon="5.55414">
        <ele>557.22</ele>
        <time>2017-10-05T11:07:45Z</time>
      </trkpt>
      <trkpt lat="45.47851" lon="5.55413">
        <ele>555.78</ele>
        <time>2017-10-05T11:07:55Z</time>
      </trkpt>
      <trkpt lat="45.47849" lon="5.55412">
        <ele>555.78</ele>
        <time>2017-10-05T11:08:09Z</time>
      </trkpt>
      <trkpt lat="45.47847" lon="5.55416">
        <ele>555.3</ele>
        <time>2017-10-05T11:08:18Z</time>
      </trkpt>
      <trkpt lat="45.47839" lon="5.55417">
        <ele>554.34</ele>
        <time>2017-10-05T11:08:30Z</time>
      </trkpt>
      <trkpt lat="45.47838" lon="5.55418">
        <ele>554.34</ele>
        <time>2017-10-05T11:08:32Z</time>
      </trkpt>
      <trkpt lat="45.47834" lon="5.5542">
        <ele>554.34</ele>
        <time>2017-10-05T11:08:35Z</time>
      </trkpt>
      <trkpt lat="45.47808" lon="5.55432">
        <ele>551.93</ele>
        <time>2017-10-05T11:08:46Z</time>
      </trkpt>
      <trkpt lat="45.47805" lon="5.55435">
        <ele>551.45</ele>
        <time>2017-10-05T11:08:55Z</time>
      </trkpt>
      <trkpt lat="45.47802" lon="5.55434">
        <ele>551.45</ele>
        <time>2017-10-05T11:09:07Z</time>
      </trkpt>
      <trkpt lat="45.47802" lon="5.55434">
        <ele>551.45</ele>
        <time>2017-10-05T11:09:10Z</time>
      </trkpt>
      <trkpt lat="45.47778" lon="5.55412">
        <ele>550.49</ele>
        <time>2017-10-05T11:09:22Z</time>
      </trkpt>
      <trkpt lat="45.4776" lon="5.55402">
        <ele>546.65</ele>
        <time>2017-10-05T11:09:29Z</time>
      </trkpt>
      <trkpt lat="45.47741" lon="5.5539">
        <ele>543.28</ele>
        <time>2017-10-05T11:09:34Z</time>
      </trkpt>
      <trkpt lat="45.47723" lon="5.55378">
        <ele>538.48</ele>
        <time>2017-10-05T11:09:38Z</time>
      </trkpt>
      <trkpt lat="45.47709" lon="5.55366">
        <ele>536.07</ele>
        <time>2017-10-05T11:09:41Z</time>
      </trkpt>
      <trkpt lat="45.477" lon="5.55357">
        <ele>535.11</ele>
        <time>2017-10-05T11:09:43Z</time>
      </trkpt>
      <trkpt lat="45.47682" lon="5.55334">
        <ele>531.75</ele>
        <time>2017-10-05T11:09:50Z</time>
      </trkpt>
      <trkpt lat="45.47676" lon="5.55321">
        <ele>528.86</ele>
        <time>2017-10-05T11:09:54Z</time>
      </trkpt>
      <trkpt lat="45.47679" lon="5.55304">
        <ele>524.54</ele>
        <time>2017-10-05T11:10:00Z</time>
      </trkpt>
      <trkpt lat="45.47669" lon="5.5529">
        <ele>520.69</ele>
        <time>2017-10-05T11:10:05Z</time>
      </trkpt>
      <trkpt lat="45.47663" lon="5.5529">
        <ele>519.25</ele>
        <time>2017-10-05T11:10:06Z</time>
      </trkpt>
      <trkpt lat="45.47657" lon="5.55291">
        <ele>518.77</ele>
        <time>2017-10-05T11:10:07Z</time>
      </trkpt>
      <trkpt lat="45.47638" lon="5.55295">
        <ele>515.4</ele>
        <time>2017-10-05T11:10:10Z</time>
      </trkpt>
      <trkpt lat="45.47632" lon="5.55298">
        <ele>514.44</ele>
        <time>2017-10-05T11:10:11Z</time>
      </trkpt>
      <trkpt lat="45.47627" lon="5.55302">
        <ele>513.96</ele>
        <time>2017-10-05T11:10:12Z</time>
      </trkpt>
      <trkpt lat="45.47623" lon="5.55306">
        <ele>513.48</ele>
        <time>2017-10-05T11:10:13Z</time>
      </trkpt>
      <trkpt lat="45.47621" lon="5.55311">
        <ele>513.48</ele>
        <time>2017-10-05T11:10:14Z</time>
      </trkpt>
      <trkpt lat="45.47619" lon="5.55316">
        <ele>513</ele>
        <time>2017-10-05T11:10:15Z</time>
      </trkpt>
      <trkpt lat="45.47618" lon="5.55321">
        <ele>513</ele>
        <time>2017-10-05T11:10:16Z</time>
      </trkpt>
      <trkpt lat="45.47617" lon="5.55327">
        <ele>512.52</ele>
        <time>2017-10-05T11:10:17Z</time>
      </trkpt>
      <trkpt lat="45.47617" lon="5.55334">
        <ele>512.52</ele>
        <time>2017-10-05T11:10:18Z</time>
      </trkpt>
      <trkpt lat="45.47616" lon="5.5534">
        <ele>512.52</ele>
        <time>2017-10-05T11:10:19Z</time>
      </trkpt>
      <trkpt lat="45.47615" lon="5.55347">
        <ele>512.04</ele>
        <time>2017-10-05T11:10:20Z</time>
      </trkpt>
      <trkpt lat="45.47611" lon="5.55359">
        <ele>511.56</ele>
        <time>2017-10-05T11:10:22Z</time>
      </trkpt>
      <trkpt lat="45.47609" lon="5.55364">
        <ele>511.56</ele>
        <time>2017-10-05T11:10:23Z</time>
      </trkpt>
      <trkpt lat="45.47596" lon="5.55384">
        <ele>507.71</ele>
        <time>2017-10-05T11:10:29Z</time>
      </trkpt>
      <trkpt lat="45.47595" lon="5.55386">
        <ele>513.48</ele>
        <time>2017-10-05T11:10:30Z</time>
      </trkpt>
      <trkpt lat="45.47585" lon="5.55399">
        <ele>510.6</ele>
        <time>2017-10-05T11:10:35Z</time>
      </trkpt>
      <trkpt lat="45.47554" lon="5.55429">
        <ele>508.19</ele>
        <time>2017-10-05T11:10:42Z</time>
      </trkpt>
      <trkpt lat="45.4755" lon="5.55436">
        <ele>507.23</ele>
        <time>2017-10-05T11:10:43Z</time>
      </trkpt>
      <trkpt lat="45.47546" lon="5.55444">
        <ele>507.23</ele>
        <time>2017-10-05T11:10:44Z</time>
      </trkpt>
      <trkpt lat="45.47531" lon="5.55476">
        <ele>505.79</ele>
        <time>2017-10-05T11:10:48Z</time>
      </trkpt>
      <trkpt lat="45.47518" lon="5.555">
        <ele>504.83</ele>
        <time>2017-10-05T11:10:51Z</time>
      </trkpt>
      <trkpt lat="45.47512" lon="5.55507">
        <ele>504.35</ele>
        <time>2017-10-05T11:10:52Z</time>
      </trkpt>
      <trkpt lat="45.47506" lon="5.55514">
        <ele>503.87</ele>
        <time>2017-10-05T11:10:53Z</time>
      </trkpt>
      <trkpt lat="45.47456" lon="5.55585">
        <ele>500.98</ele>
        <time>2017-10-05T11:11:03Z</time>
      </trkpt>
      <trkpt lat="45.47411" lon="5.55648">
        <ele>499.06</ele>
        <time>2017-10-05T11:11:12Z</time>
      </trkpt>
      <trkpt lat="45.47405" lon="5.55654">
        <ele>499.06</ele>
        <time>2017-10-05T11:11:13Z</time>
      </trkpt>
      <trkpt lat="45.47399" lon="5.55661">
        <ele>498.58</ele>
        <time>2017-10-05T11:11:14Z</time>
      </trkpt>
      <trkpt lat="45.47376" lon="5.55697">
        <ele>497.62</ele>
        <time>2017-10-05T11:11:19Z</time>
      </trkpt>
      <trkpt lat="45.47373" lon="5.55705">
        <ele>498.1</ele>
        <time>2017-10-05T11:11:20Z</time>
      </trkpt>
      <trkpt lat="45.47372" lon="5.55713">
        <ele>498.1</ele>
        <time>2017-10-05T11:11:21Z</time>
      </trkpt>
      <trkpt lat="45.47371" lon="5.55718">
        <ele>498.1</ele>
        <time>2017-10-05T11:11:22Z</time>
      </trkpt>
      <trkpt lat="45.47371" lon="5.55721">
        <ele>498.58</ele>
        <time>2017-10-05T11:11:23Z</time>
      </trkpt>
      <trkpt lat="45.47372" lon="5.55724">
        <ele>498.1</ele>
        <time>2017-10-05T11:11:24Z</time>
      </trkpt>
      <trkpt lat="45.47373" lon="5.55725">
        <ele>498.58</ele>
        <time>2017-10-05T11:11:25Z</time>
      </trkpt>
      <trkpt lat="45.47374" lon="5.55728">
        <ele>498.58</ele>
        <time>2017-10-05T11:11:26Z</time>
      </trkpt>
      <trkpt lat="45.47375" lon="5.55733">
        <ele>498.1</ele>
        <time>2017-10-05T11:11:27Z</time>
      </trkpt>
      <trkpt lat="45.47376" lon="5.55738">
        <ele>497.62</ele>
        <time>2017-10-05T11:11:28Z</time>
      </trkpt>
      <trkpt lat="45.4738" lon="5.55755">
        <ele>498.1</ele>
        <time>2017-10-05T11:11:31Z</time>
      </trkpt>
      <trkpt lat="45.47403" lon="5.55832">
        <ele>497.62</ele>
        <time>2017-10-05T11:11:45Z</time>
      </trkpt>
      <trkpt lat="45.4741" lon="5.55854">
        <ele>497.14</ele>
        <time>2017-10-05T11:11:49Z</time>
      </trkpt>
      <trkpt lat="45.47412" lon="5.5586">
        <ele>497.62</ele>
        <time>2017-10-05T11:11:50Z</time>
      </trkpt>
      <trkpt lat="45.47417" lon="5.55877">
        <ele>497.62</ele>
        <time>2017-10-05T11:11:53Z</time>
      </trkpt>
      <trkpt lat="45.47422" lon="5.55895">
        <ele>497.62</ele>
        <time>2017-10-05T11:11:56Z</time>
      </trkpt>
      <trkpt lat="45.47424" lon="5.55908">
        <ele>497.62</ele>
        <time>2017-10-05T11:11:58Z</time>
      </trkpt>
      <trkpt lat="45.47425" lon="5.55927">
        <ele>498.1</ele>
        <time>2017-10-05T11:12:01Z</time>
      </trkpt>
      <trkpt lat="45.47424" lon="5.55986">
        <ele>498.1</ele>
        <time>2017-10-05T11:12:10Z</time>
      </trkpt>
      <trkpt lat="45.47423" lon="5.55992">
        <ele>498.1</ele>
        <time>2017-10-05T11:12:11Z</time>
      </trkpt>
      <trkpt lat="45.4742" lon="5.5601">
        <ele>498.1</ele>
        <time>2017-10-05T11:12:14Z</time>
      </trkpt>
      <trkpt lat="45.47419" lon="5.56016">
        <ele>498.58</ele>
        <time>2017-10-05T11:12:15Z</time>
      </trkpt>
      <trkpt lat="45.47419" lon="5.56022">
        <ele>498.58</ele>
        <time>2017-10-05T11:12:16Z</time>
      </trkpt>
      <trkpt lat="45.47418" lon="5.56028">
        <ele>498.58</ele>
        <time>2017-10-05T11:12:17Z</time>
      </trkpt>
      <trkpt lat="45.47418" lon="5.56033">
        <ele>498.58</ele>
        <time>2017-10-05T11:12:18Z</time>
      </trkpt>
      <trkpt lat="45.47418" lon="5.56039">
        <ele>498.58</ele>
        <time>2017-10-05T11:12:19Z</time>
      </trkpt>
      <trkpt lat="45.4742" lon="5.56059">
        <ele>498.58</ele>
        <time>2017-10-05T11:12:22Z</time>
      </trkpt>
      <trkpt lat="45.47423" lon="5.56087">
        <ele>499.06</ele>
        <time>2017-10-05T11:12:26Z</time>
      </trkpt>
      <trkpt lat="45.47423" lon="5.56094">
        <ele>499.06</ele>
        <time>2017-10-05T11:12:27Z</time>
      </trkpt>
      <trkpt lat="45.47424" lon="5.56101">
        <ele>499.06</ele>
        <time>2017-10-05T11:12:28Z</time>
      </trkpt>
      <trkpt lat="45.47441" lon="5.56192">
        <ele>500.02</ele>
        <time>2017-10-05T11:12:44Z</time>
      </trkpt>
      <trkpt lat="45.47421" lon="5.56214">
        <ele>500.02</ele>
        <time>2017-10-05T11:12:54Z</time>
      </trkpt>
      <trkpt lat="45.4738" lon="5.56259">
        <ele>499.54</ele>
        <time>2017-10-05T11:13:07Z</time>
      </trkpt>
      <trkpt lat="45.47332" lon="5.56315">
        <ele>500.5</ele>
        <time>2017-10-05T11:13:22Z</time>
      </trkpt>
      <trkpt lat="45.47291" lon="5.5635">
        <ele>501.46</ele>
        <time>2017-10-05T11:13:33Z</time>
      </trkpt>
      <trkpt lat="45.47226" lon="5.56409">
        <ele>500.98</ele>
        <time>2017-10-05T11:13:50Z</time>
      </trkpt>
      <trkpt lat="45.47169" lon="5.5645">
        <ele>502.43</ele>
        <time>2017-10-05T11:14:06Z</time>
      </trkpt>
      <trkpt lat="45.47118" lon="5.56473">
        <ele>504.35</ele>
        <time>2017-10-05T11:14:23Z</time>
      </trkpt>
      <trkpt lat="45.47114" lon="5.56474">
        <ele>504.35</ele>
        <time>2017-10-05T11:14:25Z</time>
      </trkpt>
      <trkpt lat="45.47112" lon="5.56474">
        <ele>504.35</ele>
        <time>2017-10-05T11:14:26Z</time>
      </trkpt>
      <trkpt lat="45.4711" lon="5.56473">
        <ele>504.35</ele>
        <time>2017-10-05T11:14:27Z</time>
      </trkpt>
      <trkpt lat="45.47107" lon="5.56474">
        <ele>504.35</ele>
        <time>2017-10-05T11:14:28Z</time>
      </trkpt>
      <trkpt lat="45.47104" lon="5.56476">
        <ele>504.35</ele>
        <time>2017-10-05T11:14:29Z</time>
      </trkpt>
      <trkpt lat="45.47069" lon="5.56468">
        <ele>504.83</ele>
        <time>2017-10-05T11:14:41Z</time>
      </trkpt>
      <trkpt lat="45.47051" lon="5.56454">
        <ele>504.35</ele>
        <time>2017-10-05T11:14:46Z</time>
      </trkpt>
      <trkpt lat="45.4702" lon="5.56421">
        <ele>503.87</ele>
        <time>2017-10-05T11:14:55Z</time>
      </trkpt>
      <trkpt lat="45.47007" lon="5.56403">
        <ele>503.87</ele>
        <time>2017-10-05T11:14:59Z</time>
      </trkpt>
      <trkpt lat="45.46959" lon="5.56322">
        <ele>502.91</ele>
        <time>2017-10-05T11:15:15Z</time>
      </trkpt>
      <trkpt lat="45.46915" lon="5.56241">
        <ele>502.43</ele>
        <time>2017-10-05T11:15:31Z</time>
      </trkpt>
      <trkpt lat="45.46905" lon="5.56221">
        <ele>502.43</ele>
        <time>2017-10-05T11:15:35Z</time>
      </trkpt>
      <trkpt lat="45.46903" lon="5.56218">
        <ele>502.43</ele>
        <time>2017-10-05T11:15:36Z</time>
      </trkpt>
      <trkpt lat="45.46901" lon="5.56216">
        <ele>502.43</ele>
        <time>2017-10-05T11:15:37Z</time>
      </trkpt>
      <trkpt lat="45.469" lon="5.56215">
        <ele>502.91</ele>
        <time>2017-10-05T11:15:38Z</time>
      </trkpt>
      <trkpt lat="45.46876" lon="5.56209">
        <ele>502.91</ele>
        <time>2017-10-05T11:15:48Z</time>
      </trkpt>
      <trkpt lat="45.46818" lon="5.56189">
        <ele>503.39</ele>
        <time>2017-10-05T11:16:04Z</time>
      </trkpt>
      <trkpt lat="45.46763" lon="5.56155">
        <ele>505.79</ele>
        <time>2017-10-05T11:16:21Z</time>
      </trkpt>
      <trkpt lat="45.46728" lon="5.56098">
        <ele>506.75</ele>
        <time>2017-10-05T11:16:36Z</time>
      </trkpt>
      <trkpt lat="45.46695" lon="5.56053">
        <ele>509.64</ele>
        <time>2017-10-05T11:16:51Z</time>
      </trkpt>
      <trkpt lat="45.46659" lon="5.56019">
        <ele>512.04</ele>
        <time>2017-10-05T11:17:07Z</time>
      </trkpt>
      <trkpt lat="45.46618" lon="5.55984">
        <ele>514.44</ele>
        <time>2017-10-05T11:17:24Z</time>
      </trkpt>
      <trkpt lat="45.46585" lon="5.55949">
        <ele>515.88</ele>
        <time>2017-10-05T11:17:39Z</time>
      </trkpt>
      <trkpt lat="45.46546" lon="5.55915">
        <ele>518.29</ele>
        <time>2017-10-05T11:17:56Z</time>
      </trkpt>
      <trkpt lat="45.46512" lon="5.55874">
        <ele>520.21</ele>
        <time>2017-10-05T11:18:12Z</time>
      </trkpt>
      <trkpt lat="45.46486" lon="5.5583">
        <ele>523.58</ele>
        <time>2017-10-05T11:18:28Z</time>
      </trkpt>
      <trkpt lat="45.46474" lon="5.55759">
        <ele>524.06</ele>
        <time>2017-10-05T11:18:44Z</time>
      </trkpt>
      <trkpt lat="45.46467" lon="5.55711">
        <ele>523.58</ele>
        <time>2017-10-05T11:18:54Z</time>
      </trkpt>
      <trkpt lat="45.46465" lon="5.55701">
        <ele>523.09</ele>
        <time>2017-10-05T11:18:59Z</time>
      </trkpt>
      <trkpt lat="45.46463" lon="5.557">
        <ele>523.09</ele>
        <time>2017-10-05T11:19:00Z</time>
      </trkpt>
      <trkpt lat="45.4646" lon="5.55701">
        <ele>523.09</ele>
        <time>2017-10-05T11:19:01Z</time>
      </trkpt>
      <trkpt lat="45.46458" lon="5.55703">
        <ele>523.09</ele>
        <time>2017-10-05T11:19:02Z</time>
      </trkpt>
      <trkpt lat="45.46456" lon="5.55705">
        <ele>523.58</ele>
        <time>2017-10-05T11:19:03Z</time>
      </trkpt>
      <trkpt lat="45.46436" lon="5.55723">
        <ele>526.94</ele>
        <time>2017-10-05T11:19:17Z</time>
      </trkpt>
      <trkpt lat="45.46418" lon="5.55738">
        <ele>529.82</ele>
        <time>2017-10-05T11:19:30Z</time>
      </trkpt>
      <trkpt lat="45.464" lon="5.55737">
        <ele>532.23</ele>
        <time>2017-10-05T11:19:43Z</time>
      </trkpt>
      <trkpt lat="45.46398" lon="5.55736">
        <ele>532.23</ele>
        <time>2017-10-05T11:19:44Z</time>
      </trkpt>
      <trkpt lat="45.46379" lon="5.55724">
        <ele>535.11</ele>
        <time>2017-10-05T11:19:58Z</time>
      </trkpt>
      <trkpt lat="45.46352" lon="5.55703">
        <ele>538.48</ele>
        <time>2017-10-05T11:20:15Z</time>
      </trkpt>
      <trkpt lat="45.4634" lon="5.55701">
        <ele>539.92</ele>
        <time>2017-10-05T11:20:24Z</time>
      </trkpt>
      <trkpt lat="45.46326" lon="5.55701">
        <ele>541.84</ele>
        <time>2017-10-05T11:20:35Z</time>
      </trkpt>
      <trkpt lat="45.46299" lon="5.55697">
        <ele>544.72</ele>
        <time>2017-10-05T11:20:50Z</time>
      </trkpt>
      <trkpt lat="45.46281" lon="5.55697">
        <ele>547.61</ele>
        <time>2017-10-05T11:21:03Z</time>
      </trkpt>
      <trkpt lat="45.46272" lon="5.55693">
        <ele>549.05</ele>
        <time>2017-10-05T11:21:11Z</time>
      </trkpt>
      <trkpt lat="45.4627" lon="5.55692">
        <ele>549.53</ele>
        <time>2017-10-05T11:21:12Z</time>
      </trkpt>
      <trkpt lat="45.46269" lon="5.55692">
        <ele>549.53</ele>
        <time>2017-10-05T11:21:13Z</time>
      </trkpt>
      <trkpt lat="45.46254" lon="5.55687">
        <ele>552.41</ele>
        <time>2017-10-05T11:21:26Z</time>
      </trkpt>
      <trkpt lat="45.46244" lon="5.55684">
        <ele>555.3</ele>
        <time>2017-10-05T11:21:39Z</time>
      </trkpt>
      <trkpt lat="45.46236" lon="5.55676">
        <ele>556.74</ele>
        <time>2017-10-05T11:21:49Z</time>
      </trkpt>
      <trkpt lat="45.46234" lon="5.55675">
        <ele>557.22</ele>
        <time>2017-10-05T11:21:50Z</time>
      </trkpt>
      <trkpt lat="45.46231" lon="5.55671">
        <ele>557.7</ele>
        <time>2017-10-05T11:21:53Z</time>
      </trkpt>
      <trkpt lat="45.46229" lon="5.5567">
        <ele>557.7</ele>
        <time>2017-10-05T11:21:54Z</time>
      </trkpt>
      <trkpt lat="45.46227" lon="5.55668">
        <ele>558.18</ele>
        <time>2017-10-05T11:21:55Z</time>
      </trkpt>
      <trkpt lat="45.46226" lon="5.55667">
        <ele>558.18</ele>
        <time>2017-10-05T11:21:56Z</time>
      </trkpt>
      <trkpt lat="45.46223" lon="5.55666">
        <ele>558.18</ele>
        <time>2017-10-05T11:21:57Z</time>
      </trkpt>
      <trkpt lat="45.46221" lon="5.55665">
        <ele>558.66</ele>
        <time>2017-10-05T11:21:58Z</time>
      </trkpt>
      <trkpt lat="45.46206" lon="5.55651">
        <ele>560.59</ele>
        <time>2017-10-05T11:22:08Z</time>
      </trkpt>
      <trkpt lat="45.46187" lon="5.55632">
        <ele>563.47</ele>
        <time>2017-10-05T11:22:22Z</time>
      </trkpt>
      <trkpt lat="45.46169" lon="5.55615">
        <ele>565.39</ele>
        <time>2017-10-05T11:22:34Z</time>
      </trkpt>
      <trkpt lat="45.46153" lon="5.55601">
        <ele>567.32</ele>
        <time>2017-10-05T11:22:46Z</time>
      </trkpt>
      <trkpt lat="45.46141" lon="5.55585">
        <ele>569.72</ele>
        <time>2017-10-05T11:22:58Z</time>
      </trkpt>
      <trkpt lat="45.46141" lon="5.55583">
        <ele>569.72</ele>
        <time>2017-10-05T11:22:59Z</time>
      </trkpt>
      <trkpt lat="45.4614" lon="5.55581">
        <ele>569.72</ele>
        <time>2017-10-05T11:23:00Z</time>
      </trkpt>
      <trkpt lat="45.4614" lon="5.55579">
        <ele>569.72</ele>
        <time>2017-10-05T11:23:01Z</time>
      </trkpt>
      <trkpt lat="45.46129" lon="5.55564">
        <ele>572.12</ele>
        <time>2017-10-05T11:23:12Z</time>
      </trkpt>
      <trkpt lat="45.46128" lon="5.55562">
        <ele>572.12</ele>
        <time>2017-10-05T11:23:13Z</time>
      </trkpt>
      <trkpt lat="45.46124" lon="5.55556">
        <ele>573.08</ele>
        <time>2017-10-05T11:23:18Z</time>
      </trkpt>
      <trkpt lat="45.46111" lon="5.5554">
        <ele>575.97</ele>
        <time>2017-10-05T11:23:32Z</time>
      </trkpt>
      <trkpt lat="45.46097" lon="5.55526">
        <ele>578.85</ele>
        <time>2017-10-05T11:23:46Z</time>
      </trkpt>
      <trkpt lat="45.46086" lon="5.55513">
        <ele>581.73</ele>
        <time>2017-10-05T11:23:59Z</time>
      </trkpt>
      <trkpt lat="45.46085" lon="5.55512">
        <ele>582.22</ele>
        <time>2017-10-05T11:24:00Z</time>
      </trkpt>
      <trkpt lat="45.46084" lon="5.5551">
        <ele>582.22</ele>
        <time>2017-10-05T11:24:01Z</time>
      </trkpt>
      <trkpt lat="45.46082" lon="5.55507">
        <ele>582.7</ele>
        <time>2017-10-05T11:24:03Z</time>
      </trkpt>
      <trkpt lat="45.4608" lon="5.55505">
        <ele>583.18</ele>
        <time>2017-10-05T11:24:05Z</time>
      </trkpt>
      <trkpt lat="45.46074" lon="5.55494">
        <ele>585.1</ele>
        <time>2017-10-05T11:24:15Z</time>
      </trkpt>
      <trkpt lat="45.46066" lon="5.55477">
        <ele>587.5</ele>
        <time>2017-10-05T11:24:27Z</time>
      </trkpt>
      <trkpt lat="45.46065" lon="5.55476">
        <ele>587.5</ele>
        <time>2017-10-05T11:24:28Z</time>
      </trkpt>
      <trkpt lat="45.46063" lon="5.55472">
        <ele>587.98</ele>
        <time>2017-10-05T11:24:30Z</time>
      </trkpt>
      <trkpt lat="45.46062" lon="5.55471">
        <ele>587.98</ele>
        <time>2017-10-05T11:24:31Z</time>
      </trkpt>
      <trkpt lat="45.46061" lon="5.55469">
        <ele>588.46</ele>
        <time>2017-10-05T11:24:32Z</time>
      </trkpt>
      <trkpt lat="45.4606" lon="5.55467">
        <ele>588.46</ele>
        <time>2017-10-05T11:24:33Z</time>
      </trkpt>
      <trkpt lat="45.46049" lon="5.55441">
        <ele>590.39</ele>
        <time>2017-10-05T11:24:48Z</time>
      </trkpt>
      <trkpt lat="45.46033" lon="5.55418">
        <ele>591.83</ele>
        <time>2017-10-05T11:25:02Z</time>
      </trkpt>
      <trkpt lat="45.46014" lon="5.55403">
        <ele>594.23</ele>
        <time>2017-10-05T11:25:17Z</time>
      </trkpt>
      <trkpt lat="45.45999" lon="5.55392">
        <ele>591.35</ele>
        <time>2017-10-05T11:25:28Z</time>
      </trkpt>
      <trkpt lat="45.45998" lon="5.55391">
        <ele>598.08</ele>
        <time>2017-10-05T11:25:29Z</time>
      </trkpt>
      <trkpt lat="45.45997" lon="5.5539">
        <ele>596.15</ele>
        <time>2017-10-05T11:25:30Z</time>
      </trkpt>
      <trkpt lat="45.45978" lon="5.55367">
        <ele>597.12</ele>
        <time>2017-10-05T11:25:46Z</time>
      </trkpt>
      <trkpt lat="45.45975" lon="5.55361">
        <ele>597.12</ele>
        <time>2017-10-05T11:25:59Z</time>
      </trkpt>
      <trkpt lat="45.45975" lon="5.55362">
        <ele>597.12</ele>
        <time>2017-10-05T11:26:27Z</time>
      </trkpt>
      <trkpt lat="45.45974" lon="5.55361">
        <ele>597.12</ele>
        <time>2017-10-05T11:26:37Z</time>
      </trkpt>
      <trkpt lat="45.45972" lon="5.5536">
        <ele>597.12</ele>
        <time>2017-10-05T11:26:38Z</time>
      </trkpt>
      <trkpt lat="45.45971" lon="5.55358">
        <ele>597.12</ele>
        <time>2017-10-05T11:26:39Z</time>
      </trkpt>
      <trkpt lat="45.4597" lon="5.55356">
        <ele>597.12</ele>
        <time>2017-10-05T11:26:40Z</time>
      </trkpt>
      <trkpt lat="45.45968" lon="5.55354">
        <ele>597.12</ele>
        <time>2017-10-05T11:26:41Z</time>
      </trkpt>
      <trkpt lat="45.45967" lon="5.55351">
        <ele>596.64</ele>
        <time>2017-10-05T11:26:42Z</time>
      </trkpt>
      <trkpt lat="45.45966" lon="5.55347">
        <ele>596.64</ele>
        <time>2017-10-05T11:26:43Z</time>
      </trkpt>
      <trkpt lat="45.45965" lon="5.55344">
        <ele>596.64</ele>
        <time>2017-10-05T11:26:44Z</time>
      </trkpt>
      <trkpt lat="45.45963" lon="5.55341">
        <ele>596.15</ele>
        <time>2017-10-05T11:26:45Z</time>
      </trkpt>
      <trkpt lat="45.4596" lon="5.55339">
        <ele>596.15</ele>
        <time>2017-10-05T11:26:46Z</time>
      </trkpt>
      <trkpt lat="45.45939" lon="5.5532">
        <ele>599.04</ele>
        <time>2017-10-05T11:27:00Z</time>
      </trkpt>
      <trkpt lat="45.45914" lon="5.55302">
        <ele>601.44</ele>
        <time>2017-10-05T11:27:16Z</time>
      </trkpt>
      <trkpt lat="45.45896" lon="5.55293">
        <ele>602.4</ele>
        <time>2017-10-05T11:27:26Z</time>
      </trkpt>
      <trkpt lat="45.45894" lon="5.55292">
        <ele>602.4</ele>
        <time>2017-10-05T11:27:27Z</time>
      </trkpt>
      <trkpt lat="45.45893" lon="5.55291">
        <ele>602.88</ele>
        <time>2017-10-05T11:27:28Z</time>
      </trkpt>
      <trkpt lat="45.45891" lon="5.55289">
        <ele>602.88</ele>
        <time>2017-10-05T11:27:29Z</time>
      </trkpt>
      <trkpt lat="45.45889" lon="5.55289">
        <ele>602.88</ele>
        <time>2017-10-05T11:27:30Z</time>
      </trkpt>
      <trkpt lat="45.45886" lon="5.55288">
        <ele>602.88</ele>
        <time>2017-10-05T11:27:31Z</time>
      </trkpt>
      <trkpt lat="45.45884" lon="5.55287">
        <ele>602.88</ele>
        <time>2017-10-05T11:27:32Z</time>
      </trkpt>
      <trkpt lat="45.45863" lon="5.55276">
        <ele>603.85</ele>
        <time>2017-10-05T11:27:43Z</time>
      </trkpt>
      <trkpt lat="45.45836" lon="5.55272">
        <ele>606.25</ele>
        <time>2017-10-05T11:27:57Z</time>
      </trkpt>
      <trkpt lat="45.45805" lon="5.55268">
        <ele>609.13</ele>
        <time>2017-10-05T11:28:12Z</time>
      </trkpt>
      <trkpt lat="45.45776" lon="5.55255">
        <ele>612.02</ele>
        <time>2017-10-05T11:28:26Z</time>
      </trkpt>
      <trkpt lat="45.45743" lon="5.55235">
        <ele>613.46</ele>
        <time>2017-10-05T11:28:41Z</time>
      </trkpt>
      <trkpt lat="45.45711" lon="5.55218">
        <ele>613.94</ele>
        <time>2017-10-05T11:28:54Z</time>
      </trkpt>
      <trkpt lat="45.45686" lon="5.55216">
        <ele>615.38</ele>
        <time>2017-10-05T11:29:06Z</time>
      </trkpt>
      <trkpt lat="45.45675" lon="5.55217">
        <ele>617.3</ele>
        <time>2017-10-05T11:29:19Z</time>
      </trkpt>
      <trkpt lat="45.45673" lon="5.55215">
        <ele>617.3</ele>
        <time>2017-10-05T11:29:24Z</time>
      </trkpt>
      <trkpt lat="45.45672" lon="5.55213">
        <ele>617.3</ele>
        <time>2017-10-05T11:29:25Z</time>
      </trkpt>
      <trkpt lat="45.45671" lon="5.55212">
        <ele>616.82</ele>
        <time>2017-10-05T11:29:26Z</time>
      </trkpt>
      <trkpt lat="45.45669" lon="5.55211">
        <ele>616.82</ele>
        <time>2017-10-05T11:29:27Z</time>
      </trkpt>
      <trkpt lat="45.45668" lon="5.5521">
        <ele>616.82</ele>
        <time>2017-10-05T11:29:28Z</time>
      </trkpt>
      <trkpt lat="45.45666" lon="5.5521">
        <ele>616.82</ele>
        <time>2017-10-05T11:29:29Z</time>
      </trkpt>
      <trkpt lat="45.45664" lon="5.55209">
        <ele>616.82</ele>
        <time>2017-10-05T11:29:30Z</time>
      </trkpt>
      <trkpt lat="45.45662" lon="5.55208">
        <ele>616.82</ele>
        <time>2017-10-05T11:29:31Z</time>
      </trkpt>
      <trkpt lat="45.45641" lon="5.55203">
        <ele>617.78</ele>
        <time>2017-10-05T11:29:43Z</time>
      </trkpt>
      <trkpt lat="45.4561" lon="5.55201">
        <ele>619.23</ele>
        <time>2017-10-05T11:30:01Z</time>
      </trkpt>
      <trkpt lat="45.45578" lon="5.55201">
        <ele>621.15</ele>
        <time>2017-10-05T11:30:18Z</time>
      </trkpt>
      <trkpt lat="45.45548" lon="5.552">
        <ele>623.07</ele>
        <time>2017-10-05T11:30:35Z</time>
      </trkpt>
      <trkpt lat="45.45517" lon="5.55199">
        <ele>625.96</ele>
        <time>2017-10-05T11:30:54Z</time>
      </trkpt>
      <trkpt lat="45.45495" lon="5.552">
        <ele>627.88</ele>
        <time>2017-10-05T11:31:08Z</time>
      </trkpt>
      <trkpt lat="45.45459" lon="5.552">
        <ele>628.36</ele>
        <time>2017-10-05T11:31:22Z</time>
      </trkpt>
      <trkpt lat="45.45415" lon="5.55193">
        <ele>627.88</ele>
        <time>2017-10-05T11:31:35Z</time>
      </trkpt>
      <trkpt lat="45.45385" lon="5.55152">
        <ele>627.88</ele>
        <time>2017-10-05T11:31:48Z</time>
      </trkpt>
      <trkpt lat="45.45379" lon="5.55145">
        <ele>627.88</ele>
        <time>2017-10-05T11:31:50Z</time>
      </trkpt>
      <trkpt lat="45.45375" lon="5.55141">
        <ele>627.88</ele>
        <time>2017-10-05T11:31:51Z</time>
      </trkpt>
      <trkpt lat="45.45363" lon="5.55132">
        <ele>627.88</ele>
        <time>2017-10-05T11:31:54Z</time>
      </trkpt>
      <trkpt lat="45.45359" lon="5.55131">
        <ele>627.4</ele>
        <time>2017-10-05T11:31:55Z</time>
      </trkpt>
      <trkpt lat="45.45354" lon="5.55131">
        <ele>627.88</ele>
        <time>2017-10-05T11:31:56Z</time>
      </trkpt>
      <trkpt lat="45.45351" lon="5.55132">
        <ele>628.36</ele>
        <time>2017-10-05T11:31:57Z</time>
      </trkpt>
      <trkpt lat="45.45347" lon="5.55131">
        <ele>628.36</ele>
        <time>2017-10-05T11:31:58Z</time>
      </trkpt>
      <trkpt lat="45.45344" lon="5.55131">
        <ele>628.84</ele>
        <time>2017-10-05T11:31:59Z</time>
      </trkpt>
      <trkpt lat="45.45298" lon="5.55135">
        <ele>631.72</ele>
        <time>2017-10-05T11:32:15Z</time>
      </trkpt>
      <trkpt lat="45.45258" lon="5.55154">
        <ele>634.61</ele>
        <time>2017-10-05T11:32:32Z</time>
      </trkpt>
      <trkpt lat="45.45231" lon="5.55161">
        <ele>636.05</ele>
        <time>2017-10-05T11:32:44Z</time>
      </trkpt>
      <trkpt lat="45.45202" lon="5.55156">
        <ele>636.53</ele>
        <time>2017-10-05T11:32:56Z</time>
      </trkpt>
      <trkpt lat="45.45164" lon="5.55159">
        <ele>637.49</ele>
        <time>2017-10-05T11:33:10Z</time>
      </trkpt>
      <trkpt lat="45.45123" lon="5.55166">
        <ele>636.05</ele>
        <time>2017-10-05T11:33:21Z</time>
      </trkpt>
      <trkpt lat="45.45119" lon="5.55166">
        <ele>636.05</ele>
        <time>2017-10-05T11:33:22Z</time>
      </trkpt>
      <trkpt lat="45.45102" lon="5.55174">
        <ele>635.09</ele>
        <time>2017-10-05T11:33:27Z</time>
      </trkpt>
      <trkpt lat="45.45093" lon="5.55193">
        <ele>634.61</ele>
        <time>2017-10-05T11:33:31Z</time>
      </trkpt>
      <trkpt lat="45.4509" lon="5.55197">
        <ele>634.13</ele>
        <time>2017-10-05T11:33:32Z</time>
      </trkpt>
      <trkpt lat="45.45086" lon="5.55201">
        <ele>634.13</ele>
        <time>2017-10-05T11:33:33Z</time>
      </trkpt>
      <trkpt lat="45.45082" lon="5.55204">
        <ele>634.61</ele>
        <time>2017-10-05T11:33:34Z</time>
      </trkpt>
      <trkpt lat="45.45078" lon="5.55206">
        <ele>634.13</ele>
        <time>2017-10-05T11:33:35Z</time>
      </trkpt>
      <trkpt lat="45.45073" lon="5.55206">
        <ele>633.65</ele>
        <time>2017-10-05T11:33:36Z</time>
      </trkpt>
      <trkpt lat="45.45069" lon="5.55206">
        <ele>633.65</ele>
        <time>2017-10-05T11:33:37Z</time>
      </trkpt>
      <trkpt lat="45.45059" lon="5.55206">
        <ele>633.65</ele>
        <time>2017-10-05T11:33:39Z</time>
      </trkpt>
      <trkpt lat="45.45055" lon="5.55207">
        <ele>633.65</ele>
        <time>2017-10-05T11:33:40Z</time>
      </trkpt>
      <trkpt lat="45.45036" lon="5.55217">
        <ele>633.17</ele>
        <time>2017-10-05T11:33:45Z</time>
      </trkpt>
      <trkpt lat="45.45013" lon="5.55239">
        <ele>630.76</ele>
        <time>2017-10-05T11:33:52Z</time>
      </trkpt>
      <trkpt lat="45.45004" lon="5.5525">
        <ele>629.32</ele>
        <time>2017-10-05T11:33:55Z</time>
      </trkpt>
      <trkpt lat="45.45" lon="5.55257">
        <ele>627.4</ele>
        <time>2017-10-05T11:33:56Z</time>
      </trkpt>
      <trkpt lat="45.44997" lon="5.55266">
        <ele>626.44</ele>
        <time>2017-10-05T11:33:57Z</time>
      </trkpt>
      <trkpt lat="45.44985" lon="5.55298">
        <ele>622.59</ele>
        <time>2017-10-05T11:34:00Z</time>
      </trkpt>
      <trkpt lat="45.44977" lon="5.5532">
        <ele>619.23</ele>
        <time>2017-10-05T11:34:02Z</time>
      </trkpt>
      <trkpt lat="45.44971" lon="5.55329">
        <ele>617.78</ele>
        <time>2017-10-05T11:34:03Z</time>
      </trkpt>
      <trkpt lat="45.44964" lon="5.55334">
        <ele>616.34</ele>
        <time>2017-10-05T11:34:04Z</time>
      </trkpt>
      <trkpt lat="45.44957" lon="5.55338">
        <ele>614.9</ele>
        <time>2017-10-05T11:34:05Z</time>
      </trkpt>
      <trkpt lat="45.4495" lon="5.55339">
        <ele>613.46</ele>
        <time>2017-10-05T11:34:06Z</time>
      </trkpt>
      <trkpt lat="45.44944" lon="5.55338">
        <ele>612.5</ele>
        <time>2017-10-05T11:34:07Z</time>
      </trkpt>
      <trkpt lat="45.44938" lon="5.55338">
        <ele>611.54</ele>
        <time>2017-10-05T11:34:08Z</time>
      </trkpt>
      <trkpt lat="45.44933" lon="5.55339">
        <ele>610.57</ele>
        <time>2017-10-05T11:34:09Z</time>
      </trkpt>
      <trkpt lat="45.44929" lon="5.55339">
        <ele>609.61</ele>
        <time>2017-10-05T11:34:10Z</time>
      </trkpt>
      <trkpt lat="45.44925" lon="5.55335">
        <ele>609.13</ele>
        <time>2017-10-05T11:34:11Z</time>
      </trkpt>
      <trkpt lat="45.44923" lon="5.55329">
        <ele>608.65</ele>
        <time>2017-10-05T11:34:12Z</time>
      </trkpt>
      <trkpt lat="45.44923" lon="5.5532">
        <ele>608.17</ele>
        <time>2017-10-05T11:34:13Z</time>
      </trkpt>
      <trkpt lat="45.44923" lon="5.55312">
        <ele>607.69</ele>
        <time>2017-10-05T11:34:14Z</time>
      </trkpt>
      <trkpt lat="45.44923" lon="5.55303">
        <ele>607.21</ele>
        <time>2017-10-05T11:34:15Z</time>
      </trkpt>
      <trkpt lat="45.44922" lon="5.55293">
        <ele>606.73</ele>
        <time>2017-10-05T11:34:16Z</time>
      </trkpt>
      <trkpt lat="45.4492" lon="5.55282">
        <ele>605.77</ele>
        <time>2017-10-05T11:34:17Z</time>
      </trkpt>
      <trkpt lat="45.44918" lon="5.5527">
        <ele>604.81</ele>
        <time>2017-10-05T11:34:18Z</time>
      </trkpt>
      <trkpt lat="45.44914" lon="5.55259">
        <ele>603.85</ele>
        <time>2017-10-05T11:34:19Z</time>
      </trkpt>
      <trkpt lat="45.44908" lon="5.55249">
        <ele>602.88</ele>
        <time>2017-10-05T11:34:20Z</time>
      </trkpt>
      <trkpt lat="45.44902" lon="5.5524">
        <ele>602.4</ele>
        <time>2017-10-05T11:34:21Z</time>
      </trkpt>
      <trkpt lat="45.44896" lon="5.55231">
        <ele>601.92</ele>
        <time>2017-10-05T11:34:22Z</time>
      </trkpt>
      <trkpt lat="45.44886" lon="5.55216">
        <ele>601.92</ele>
        <time>2017-10-05T11:34:24Z</time>
      </trkpt>
      <trkpt lat="45.4488" lon="5.5521">
        <ele>601.92</ele>
        <time>2017-10-05T11:34:25Z</time>
      </trkpt>
      <trkpt lat="45.44873" lon="5.55207">
        <ele>601.92</ele>
        <time>2017-10-05T11:34:26Z</time>
      </trkpt>
      <trkpt lat="45.44866" lon="5.55202">
        <ele>601.44</ele>
        <time>2017-10-05T11:34:27Z</time>
      </trkpt>
      <trkpt lat="45.44859" lon="5.55195">
        <ele>600.48</ele>
        <time>2017-10-05T11:34:28Z</time>
      </trkpt>
      <trkpt lat="45.44851" lon="5.55187">
        <ele>599.52</ele>
        <time>2017-10-05T11:34:29Z</time>
      </trkpt>
      <trkpt lat="45.44843" lon="5.55181">
        <ele>598.56</ele>
        <time>2017-10-05T11:34:30Z</time>
      </trkpt>
      <trkpt lat="45.44837" lon="5.55176">
        <ele>598.08</ele>
        <time>2017-10-05T11:34:31Z</time>
      </trkpt>
      <trkpt lat="45.4483" lon="5.55171">
        <ele>598.56</ele>
        <time>2017-10-05T11:34:33Z</time>
      </trkpt>
      <trkpt lat="45.44828" lon="5.55169">
        <ele>599.04</ele>
        <time>2017-10-05T11:34:34Z</time>
      </trkpt>
      <trkpt lat="45.44828" lon="5.55166">
        <ele>599.04</ele>
        <time>2017-10-05T11:34:35Z</time>
      </trkpt>
      <trkpt lat="45.44829" lon="5.55164">
        <ele>599.04</ele>
        <time>2017-10-05T11:34:36Z</time>
      </trkpt>
      <trkpt lat="45.44831" lon="5.55161">
        <ele>599.04</ele>
        <time>2017-10-05T11:34:37Z</time>
      </trkpt>
      <trkpt lat="45.44845" lon="5.55127">
        <ele>599.52</ele>
        <time>2017-10-05T11:34:48Z</time>
      </trkpt>
      <trkpt lat="45.44849" lon="5.55113">
        <ele>599.52</ele>
        <time>2017-10-05T11:34:52Z</time>
      </trkpt>
      <trkpt lat="45.44849" lon="5.5511">
        <ele>599.52</ele>
        <time>2017-10-05T11:34:53Z</time>
      </trkpt>
      <trkpt lat="45.44847" lon="5.55106">
        <ele>599.52</ele>
        <time>2017-10-05T11:34:54Z</time>
      </trkpt>
      <trkpt lat="45.44843" lon="5.55102">
        <ele>599.52</ele>
        <time>2017-10-05T11:34:56Z</time>
      </trkpt>
      <trkpt lat="45.44837" lon="5.55096">
        <ele>599.52</ele>
        <time>2017-10-05T11:35:04Z</time>
      </trkpt>
      <trkpt lat="45.44835" lon="5.55103">
        <ele>594.71</ele>
        <time>2017-10-05T11:35:12Z</time>
      </trkpt>
      <trkpt lat="45.44835" lon="5.55103">
        <ele>604.33</ele>
        <time>2017-10-05T11:35:13Z</time>
      </trkpt>
      <trkpt lat="45.44835" lon="5.55103">
        <ele>598.08</ele>
        <time>2017-10-05T11:35:14Z</time>
      </trkpt>
      <trkpt lat="45.44835" lon="5.55103">
        <ele>601.44</ele>
        <time>2017-10-05T11:35:15Z</time>
      </trkpt>
      <trkpt lat="45.44835" lon="5.55104">
        <ele>598.56</ele>
        <time>2017-10-05T11:35:21Z</time>
      </trkpt>
      <trkpt lat="45.44835" lon="5.55103">
        <ele>601.92</ele>
        <time>2017-10-05T11:35:42Z</time>
      </trkpt>
      <trkpt lat="45.44835" lon="5.55102">
        <ele>598.56</ele>
        <time>2017-10-05T11:35:51Z</time>
      </trkpt>
      <trkpt lat="45.44835" lon="5.55102">
        <ele>602.88</ele>
        <time>2017-10-05T11:35:55Z</time>
      </trkpt>
      <trkpt lat="45.44835" lon="5.55102">
        <ele>599.52</ele>
        <time>2017-10-05T11:35:56Z</time>
      </trkpt>
      <trkpt lat="45.44835" lon="5.55102">
        <ele>602.88</ele>
        <time>2017-10-05T11:36:01Z</time>
      </trkpt>
      <trkpt lat="45.44835" lon="5.55102">
        <ele>600</ele>
        <time>2017-10-05T11:36:03Z</time>
      </trkpt>
      <trkpt lat="45.44835" lon="5.55102">
        <ele>603.36</ele>
        <time>2017-10-05T11:36:14Z</time>
      </trkpt>
      <trkpt lat="45.44835" lon="5.55102">
        <ele>600.48</ele>
        <time>2017-10-05T11:36:15Z</time>
      </trkpt>
    </trkseg>
  </trk>
</gpx>